# Wetter Temperatur Luftdruck Luftfeuchtigkeit Sichtweite Windgeschwindigkeit Windrichtung Zeit
1 Clear 11 1011 90 10000 4.91 236 03:52 02.10.2022
2 Rain 12 1010 90 10000 5.92 239 00:56 02.10.2022
3 Rain 12 1010 90 10000 5.92 239 00:36 02.10.2022
4 Clear 11 1009 89 10000 6.11 248 23:24 01.10.2022
5 Clear 12 1007 86 10000 6.05 259 20:55 01.10.2022
6 Clouds 14 1005 84 10000 6.35 269 18:54 01.10.2022
7 Rain 14 1004 83 10000 7.44 284 17:25 01.10.2022
8 Clouds 15 1002 81 10000 8.3 284 14:44 01.10.2022
9 Clouds 13 1001 87 8568 8.18 270 13:43 01.10.2022
10 Clouds 16 1000 80 10000 7.47 264 12:34 01.10.2022
11 Clouds 16 999 84 10000 5.35 255 11:22 01.10.2022
12 Clouds 15 999 91 10000 5.35 255 10:47 01.10.2022
13 Clouds 14 999 93 10000 6.16 242 10:26 01.10.2022
14 Clouds 12 998 93 10000 8.26 226 09:21 01.10.2022
15 Clouds 12 998 92 10000 9.29 207 08:26 01.10.2022
16 Rain 11 1000 90 7289 10.87 180 03:39 01.10.2022
17 Rain 11 1001 88 6268 9.85 181 02:37 01.10.2022
18 Clouds 13 1004 79 10000 8.29 188 23:21 30.09.2022
19 Clouds 12 1005 80 10000 7.06 186 21:58 30.09.2022
20 Clouds 12 1005 79 10000 6.52 192 20:53 30.09.2022
21 Clouds 12 1006 77 10000 6.56 196 20:20 30.09.2022
22 Clouds 14 1006 73 10000 6.83 196 18:28 30.09.2022
23 Clouds 16 1006 68 10000 6.14 199 16:32 30.09.2022
24 Clear 16 1008 70 10000 6.24 224 14:24 30.09.2022
25 Clear 15 1008 74 10000 5.69 211 12:50 30.09.2022
26 Clear 14 1008 80 10000 5.51 201 11:56 30.09.2022
27 Clear 8 1008 93 10000 3 207 09:24 30.09.2022
28 Clouds 8 1008 90 10000 2.79 216 07:50 30.09.2022
29 Clouds 9 1007 92 10000 2.01 255 03:35 30.09.2022
30 Clouds 9 1007 91 10000 0.86 284 01:44 30.09.2022
31 Clouds 10 1006 89 10000 1.53 2 21:40 29.09.2022
32 Clouds 10 1005 89 10000 1.88 358 21:19 29.09.2022
33 Clouds 10 1005 87 10000 1.84 344 19:56 29.09.2022
34 Clouds 12 1003 84 10000 2.49 359 18:30 29.09.2022
35 Clouds 14 1003 75 10000 3.24 330 16:29 29.09.2022
36 Clouds 14 1003 67 10000 3.24 330 15:37 29.09.2022
37 Clouds 14 1002 72 10000 3.02 305 14:59 29.09.2022
38 Clouds 12 1002 78 10000 3.07 244 12:45 29.09.2022
39 Clouds 7 1001 89 10000 2.48 224 08:47 29.09.2022
40 Clouds 5 1000 92 10000 2.44 223 05:35 29.09.2022
41 Clear 6 999 91 10000 2.1 221 02:37 29.09.2022
42 Clouds 7 999 86 10000 1.27 148 23:29 28.09.2022
43 Clouds 7 998 89 10000 1.66 148 22:22 28.09.2022
44 Clouds 8 998 87 10000 1.89 133 21:25 28.09.2022
45 Clouds 10 997 85 10000 1.99 128 19:58 28.09.2022
46 Clouds 14 996 69 10000 0.44 106 17:19 28.09.2022
47 Clouds 13 996 77 10000 0.94 297 14:45 28.09.2022
48 Clouds 10 996 93 10000 1.64 253 12:31 28.09.2022
49 Clouds 7 995 82 10000 1.45 224 10:22 28.09.2022
50 Clouds 6 994 89 10000 1.33 225 08:25 28.09.2022
51 Clouds 7 994 93 10000 1.59 224 06:42 28.09.2022
52 Clouds 6 995 91 10000 3.01 207 01:50 28.09.2022
53 Clouds 6 995 91 10000 3.31 209 01:25 28.09.2022
54 Clouds 8 995 91 10000 3.46 225 22:50 27.09.2022
55 Clouds 8 995 89 10000 3.86 232 21:24 27.09.2022
56 Clouds 8 995 88 10000 3.86 232 20:36 27.09.2022
57 Clouds 9 995 89 10000 3.78 243 19:47 27.09.2022
58 Clouds 10 995 87 10000 4.08 271 18:25 27.09.2022
59 Clouds 10 995 88 10000 4.08 271 17:42 27.09.2022
60 Clouds 11 994 88 10000 4.88 290 15:27 27.09.2022
61 Clouds 11 994 89 10000 4.88 290 14:33 27.09.2022
62 Clouds 11 994 90 10000 5.1 295 12:40 27.09.2022
63 Clouds 11 994 90 10000 5.1 295 12:40 27.09.2022
64 Clouds 10 994 92 10000 5.42 300 10:53 27.09.2022
65 Clouds 10 993 93 10000 5.94 308 08:46 27.09.2022
66 Clouds 10 993 93 10000 5.02 316 06:27 27.09.2022
67 Clouds 10 993 93 8273 4.26 314 01:45 27.09.2022
68 Clouds 10 993 93 9240 3.02 321 01:27 27.09.2022
69 Rain 11 993 93 5541 4.75 324 23:25 26.09.2022
70 Clouds 11 993 92 8415 2.95 282 22:24 26.09.2022
71 Clouds 12 993 91 10000 5.56 207 20:29 26.09.2022
72 Clouds 12 993 91 10000 5.56 207 19:30 26.09.2022
73 Clouds 12 993 91 10000 6.67 209 18:31 26.09.2022
74 Clouds 12 995 91 10000 8.79 201 15:55 26.09.2022
75 Clouds 12 996 90 10000 9.77 193 13:30 26.09.2022
76 Rain 11 998 89 9778 8.93 198 11:29 26.09.2022
77 Rain 11 998 90 9778 8.93 198 10:38 26.09.2022
78 Rain 11 999 90 10000 8.74 200 10:19 26.09.2022
79 Rain 11 999 91 10000 8.74 200 09:53 26.09.2022
80 Rain 11 999 91 10000 8.16 201 09:23 26.09.2022
81 Rain 10 1000 90 10000 8.38 202 07:30 26.09.2022
82 Clouds 11 1006 86 10000 6.29 217 02:48 26.09.2022
83 Clouds 10 1010 87 10000 4.41 226 23:29 25.09.2022
84 Clouds 10 1011 85 10000 3.89 228 21:54 25.09.2022
85 Clouds 10 1011 84 10000 3.89 228 21:34 25.09.2022
86 Clouds 11 1011 81 10000 3.56 251 20:45 25.09.2022
87 Clouds 12 1012 77 10000 3.54 277 19:43 25.09.2022
88 Clouds 14 1012 73 10000 3.46 286 18:40 25.09.2022
89 Clouds 14 1012 73 10000 4.1 297 18:20 25.09.2022
90 Clouds 15 1012 59 10000 4.17 313 16:35 25.09.2022
91 Clouds 16 1013 77 10000 4.65 320 15:44 25.09.2022
92 Clouds 16 1014 78 10000 5.45 331 14:22 25.09.2022
93 Clouds 15 1014 71 10000 5.73 336 12:51 25.09.2022
94 Clouds 15 1015 75 10000 5.38 348 10:32 25.09.2022
95 Clouds 12 1014 68 10000 4.03 340 08:24 25.09.2022
96 Clouds 10 1015 84 10000 4.63 351 05:47 25.09.2022
97 Clouds 12 1015 82 10000 4.48 354 01:55 25.09.2022
98 Clouds 12 1014 82 10000 5.07 0 22:35 24.09.2022
99 Clouds 13 1014 84 10000 5.5 8 20:55 24.09.2022
100 Clouds 14 1013 89 10000 6.97 8 19:23 24.09.2022
101 Clouds 14 1013 87 10000 7.22 7 17:50 24.09.2022
102 Clouds 14 1012 89 10000 7.16 7 16:27 24.09.2022
103 Rain 14 1012 89 10000 7.16 13 15:21 24.09.2022
104 Clouds 15 1012 88 10000 5.99 14 13:35 24.09.2022
105 Clouds 14 1011 89 10000 3.91 26 12:51 24.09.2022
106 Clouds 14 1011 90 10000 1.52 8 11:21 24.09.2022
107 Clouds 13 1011 92 10000 0.53 309 09:54 24.09.2022
108 Clouds 13 1011 93 7249 0.11 276 08:47 24.09.2022
109 Clouds 13 1012 93 10000 2.94 351 07:39 24.09.2022
110 Clouds 13 1011 92 10000 1.58 290 04:48 24.09.2022
111 Clouds 12 1011 92 10000 1.63 261 03:43 24.09.2022
112 Rain 13 1013 89 10000 2.11 209 22:39 23.09.2022
113 Rain 13 1013 88 10000 2.1 196 21:31 23.09.2022
114 Rain 13 1013 88 10000 2.37 158 20:57 23.09.2022
115 Clouds 14 1013 87 10000 3.04 138 20:20 23.09.2022
116 Rain 14 1013 84 10000 2.38 137 18:51 23.09.2022
117 Clouds 17 1015 73 10000 4.18 214 15:23 23.09.2022
118 Clouds 13 1016 81 10000 3.47 196 10:55 23.09.2022
119 Clouds 10 1016 86 10000 3.14 191 09:35 23.09.2022
120 Clouds 8 1016 84 10000 3.01 180 05:59 23.09.2022
121 Clouds 10 1019 85 10000 3.17 175 00:36 23.09.2022
122 Clouds 9 1019 83 10000 2.87 159 23:22 22.09.2022
123 Clouds 11 1020 81 10000 2.42 159 22:27 22.09.2022
124 Clouds 11 1020 82 10000 2.03 164 21:18 22.09.2022
125 Clouds 13 1020 75 10000 1.37 172 19:58 22.09.2022
126 Clouds 18 1021 57 10000 2.45 192 17:28 22.09.2022
127 Clouds 17 1023 60 10000 3.07 188 12:52 22.09.2022
128 Clouds 13 1023 82 10000 2.95 184 10:36 22.09.2022
129 Clear 10 1024 76 10000 2.25 175 08:58 22.09.2022
130 Clouds 7 1024 91 10000 2.16 190 06:57 22.09.2022
131 Clouds 8 1024 91 10000 1.8 199 04:36 22.09.2022
132 Clouds 8 1026 88 10000 1.41 67 23:32 21.09.2022
133 Clouds 9 1026 85 10000 1.72 53 21:51 21.09.2022
134 Clouds 10 1026 82 10000 2.18 37 20:53 21.09.2022
135 Clouds 16 1025 69 10000 2.88 341 17:51 21.09.2022
136 Clear 18 1025 67 10000 2.41 329 17:21 21.09.2022
137 Clear 17 1026 60 10000 1.14 301 14:52 21.09.2022
138 Clouds 17 1026 59 10000 0.82 250 13:38 21.09.2022
139 Clouds 15 1027 69 10000 1.38 174 11:34 21.09.2022
140 Clouds 13 1026 91 10000 1.76 166 10:34 21.09.2022
141 Clouds 10 1026 93 10000 1.76 169 09:38 21.09.2022
142 Clouds 7 1026 92 10000 1.59 178 08:23 21.09.2022
143 Clear 8 1026 84 10000 0.91 172 02:51 21.09.2022
144 Clear 8 1026 84 10000 0.91 172 02:51 21.09.2022
145 Clear 8 1026 84 10000 0.88 177 02:32 21.09.2022
146 Clear 8 1026 82 10000 0.87 185 01:49 21.09.2022
147 Clear 9 1025 87 10000 1.09 34 23:19 20.09.2022
148 Clear 10 1025 84 10000 1.71 14 21:33 20.09.2022
149 Clouds 12 1024 80 10000 2.62 349 20:22 20.09.2022
150 Clouds 15 1023 72 10000 3.88 344 17:41 20.09.2022
151 Clouds 15 1022 63 10000 5.48 343 14:59 20.09.2022
152 Clouds 15 1022 71 10000 4.72 338 13:58 20.09.2022
153 Rain 14 1022 76 10000 4.66 338 11:24 20.09.2022
154 Clouds 10 1021 75 10000 3.85 340 08:29 20.09.2022
155 Clouds 10 1021 76 10000 3.57 338 07:31 20.09.2022
156 Clouds 11 1020 91 10000 3.41 323 04:30 20.09.2022
157 Clouds 11 1020 90 10000 4.96 315 01:28 20.09.2022
158 Rain 11 1020 87 10000 5.67 317 22:33 19.09.2022
159 Rain 12 1019 80 10000 6.35 329 21:28 19.09.2022
160 Clouds 12 1019 77 10000 6.35 329 20:39 19.09.2022
161 Clouds 14 1018 77 10000 6.87 330 18:43 19.09.2022
162 Clouds 14 1018 77 10000 6.87 330 18:43 19.09.2022
163 Clouds 15 1018 74 10000 7.35 325 16:37 19.09.2022
164 Clouds 16 1018 69 10000 8.91 325 13:45 19.09.2022
165 Clouds 16 1017 76 10000 8.64 324 11:57 19.09.2022
166 Clouds 14 1016 88 10000 8.22 325 09:38 19.09.2022
167 Clouds 12 1015 91 10000 5.55 333 08:20 19.09.2022
168 Clear 11 1013 91 10000 6.87 327 03:28 19.09.2022
169 Clouds 11 1013 89 10000 7.14 339 00:44 19.09.2022
170 Clouds 12 1012 89 10000 8.51 344 22:32 18.09.2022
171 Rain 11 1011 88 7982 10.08 339 20:47 18.09.2022
172 Rain 12 1010 87 8939 11.23 336 19:33 18.09.2022
173 Rain 13 1010 79 10000 10.6 323 17:52 18.09.2022
174 Clouds 15 1010 69 10000 10.56 320 16:47 18.09.2022
175 Clouds 14 1010 67 10000 9.37 315 14:44 18.09.2022
176 Clouds 14 1010 68 10000 8.35 315 13:35 18.09.2022
177 Clouds 12 1010 82 10000 8.08 317 12:20 18.09.2022
178 Clouds 11 1010 88 10000 6.8 315 09:25 18.09.2022
179 Clouds 11 1011 75 10000 7.52 319 01:43 18.09.2022
180 Clouds 11 1012 77 10000 7.91 318 01:20 18.09.2022
181 Clouds 12 1011 75 10000 8.24 320 22:57 17.09.2022
182 Clouds 12 1011 76 10000 9.05 324 20:55 17.09.2022
183 Clouds 12 1011 84 10000 8.92 322 19:39 17.09.2022
184 Clouds 14 1010 62 10000 9.64 321 18:21 17.09.2022
185 Clouds 16 1010 62 10000 11.15 321 14:27 17.09.2022
186 Clouds 15 1010 59 10000 11.15 321 13:32 17.09.2022
187 Clouds 14 1010 77 10000 9.34 320 10:49 17.09.2022
188 Clouds 11 1009 77 10000 9.85 314 08:30 17.09.2022
189 Clouds 11 1009 73 10000 9.18 315 06:21 17.09.2022
190 Clouds 12 1008 87 10000 9.1 328 23:41 16.09.2022
191 Clouds 12 1008 91 10000 9.69 333 22:27 16.09.2022
192 Rain 12 1007 91 10000 10.15 335 20:54 16.09.2022
193 Rain 12 1007 91 10000 10.16 335 20:54 16.09.2022
194 Rain 12 1007 91 10000 10.16 335 20:54 16.09.2022
195 Rain 12 1007 91 8559 9.7 328 19:35 16.09.2022
196 Rain 14 1006 81 5434 10.67 298 16:26 16.09.2022
197 Clouds 15 1006 71 8783 11.13 302 14:52 16.09.2022
198 Clouds 16 1007 65 10000 9.99 293 13:26 16.09.2022
199 Clouds 14 1007 70 10000 7.93 295 10:27 16.09.2022
200 Clouds 10 1007 92 10000 7.08 301 07:52 16.09.2022
201 Clouds 11 1007 69 10000 6.79 304 06:48 16.09.2022
202 Clouds 11 1007 92 10000 6.86 309 05:58 16.09.2022
203 Clouds 11 1007 92 10000 6.35 304 02:35 16.09.2022
204 Clouds 11 1007 91 10000 4.81 297 22:20 15.09.2022
205 Clouds 12 1007 90 10000 5 303 20:39 15.09.2022
206 Rain 12 1007 88 10000 5.63 307 19:45 15.09.2022
207 Clouds 14 1006 85 10000 7.41 312 18:26 15.09.2022
208 Clouds 15 1006 88 10000 7.59 308 17:29 15.09.2022
209 Rain 16 1006 59 10000 7.55 309 15:49 15.09.2022
210 Clouds 16 1006 80 10000 7.02 311 13:19 15.09.2022
211 Clouds 16 1006 70 10000 6.75 307 11:48 15.09.2022
212 Clouds 15 1005 77 10000 5.87 297 09:46 15.09.2022
213 Clouds 13 1005 76 10000 5.6 297 07:45 15.09.2022
214 Clouds 15 1004 82 10000 5.9 306 03:49 15.09.2022
215 Clouds 14 1004 80 10000 4.04 287 23:32 14.09.2022
216 Clouds 15 1004 75 10000 3.76 287 20:48 14.09.2022
217 Clouds 17 1005 70 10000 3.15 300 19:33 14.09.2022
218 Clouds 18 1004 68 10000 3 308 18:30 14.09.2022
219 Clouds 19 1005 63 10000 4 316 16:40 14.09.2022
220 Clouds 20 1005 63 10000 3.27 301 15:29 14.09.2022
221 Clouds 20 1006 64 10000 2.69 312 13:36 14.09.2022
222 Clouds 17 1006 78 10000 3.02 326 10:47 14.09.2022
223 Clouds 15 1006 87 10000 2.01 293 09:27 14.09.2022
224 Clouds 14 1006 87 10000 2.33 283 06:51 14.09.2022
225 Clouds 13 1006 87 10000 2.33 283 06:33 14.09.2022
226 Clouds 13 1008 87 10000 2.22 284 03:54 14.09.2022
227 Clouds 13 1008 85 10000 2.98 314 01:41 14.09.2022
228 Clouds 15 1008 84 10000 3.07 302 01:20 14.09.2022
229 Clouds 14 1008 80 10000 3.29 305 23:55 13.09.2022
230 Clouds 14 1008 80 10000 3.3 305 23:37 13.09.2022
231 Clouds 15 1009 79 10000 3.56 294 23:19 13.09.2022
232 Clouds 15 1009 76 10000 3.56 294 22:43 13.09.2022
233 Clouds 15 1009 76 10000 3.56 294 22:43 13.09.2022
234 Clouds 16 1009 73 10000 3.71 288 21:42 13.09.2022
235 Clouds 17 1009 69 10000 3.51 288 19:32 13.09.2022
236 Clouds 19 1009 61 10000 5.22 309 17:33 13.09.2022
237 Clouds 19 1009 65 10000 5.91 307 15:54 13.09.2022
238 Clouds 20 1009 66 10000 6.2 303 13:54 13.09.2022
239 Clouds 20 1009 69 10000 6.26 298 12:28 13.09.2022
240 Clouds 17 1008 92 10000 4.03 298 08:33 13.09.2022
241 Clouds 17 1008 91 10000 4.53 267 04:32 13.09.2022
242 Clouds 18 1009 83 10000 3.85 214 23:32 12.09.2022
243 Rain 18 1010 78 10000 3.64 211 22:49 12.09.2022
244 Clouds 18 1010 74 10000 3.57 199 21:36 12.09.2022
245 Clouds 20 1011 71 10000 2.94 204 20:25 12.09.2022
246 Clouds 23 1011 64 10000 2.94 203 18:43 12.09.2022
247 Clouds 24 1013 60 10000 4.57 209 16:23 12.09.2022
248 Clouds 22 1014 68 10000 4.7 198 13:41 12.09.2022
249 Clouds 18 1015 83 10000 4.89 186 11:29 12.09.2022
250 Clouds 15 1016 91 10000 4.17 187 09:45 12.09.2022
251 Clouds 12 1016 89 10000 2.43 170 04:49 12.09.2022
252 Clouds 12 1017 89 10000 2.51 158 04:20 12.09.2022
253 Clouds 15 1018 85 10000 2.63 104 23:23 11.09.2022
254 Clouds 15 1018 82 10000 2.75 88 21:59 11.09.2022
255 Clear 17 1018 82 10000 2.87 64 20:47 11.09.2022
256 Clouds 18 1018 79 10000 3.03 43 19:53 11.09.2022
257 Clouds 19 1018 78 10000 3.05 39 19:22 11.09.2022
258 Clouds 20 1018 74 10000 3.27 30 18:21 11.09.2022
259 Clouds 21 1018 72 10000 3.36 18 16:36 11.09.2022
260 Clouds 22 1019 74 10000 2.93 356 14:33 11.09.2022
261 Clear 21 1018 69 10000 1.5 2 12:42 11.09.2022
262 Clear 14 1018 93 10000 1.68 62 08:59 11.09.2022
263 Clear 12 1017 92 10000 2 44 07:18 11.09.2022
264 Clear 14 1015 90 10000 2.25 6 00:54 11.09.2022
265 Clear 15 1015 89 10000 2.89 0 22:56 10.09.2022
266 Clear 16 1014 87 10000 2.97 2 21:33 10.09.2022
267 Clouds 18 1013 84 10000 3.18 8 19:48 10.09.2022
268 Clouds 18 1012 82 10000 3.54 14 19:29 10.09.2022
269 Clouds 18 1012 81 10000 3.54 14 18:55 10.09.2022
270 Clouds 20 1012 75 10000 3.28 7 16:51 10.09.2022
271 Clouds 20 1011 78 10000 0.87 21 14:43 10.09.2022
272 Clouds 17 1011 91 10000 2.11 153 12:53 10.09.2022
273 Clouds 16 1011 93 10000 2.25 154 11:35 10.09.2022
274 Clouds 15 1010 93 10000 2.64 169 09:51 10.09.2022
275 Clouds 15 1010 93 10000 2.8 175 08:37 10.09.2022
276 Clouds 14 1010 93 10000 2.97 167 07:49 10.09.2022
277 Clouds 15 1008 90 10000 3.24 158 00:51 10.09.2022
278 Clouds 15 1008 89 10000 3.68 155 23:33 09.09.2022
279 Clouds 16 1007 86 10000 4.12 139 22:19 09.09.2022
280 Clouds 17 1007 84 10000 3.76 137 20:48 09.09.2022
281 Clouds 18 1007 81 10000 4.78 178 19:25 09.09.2022
282 Clouds 18 1007 80 10000 4.78 178 18:53 09.09.2022
283 Clouds 20 1007 75 10000 5.38 189 16:33 09.09.2022
284 Clouds 20 1007 76 10000 6.52 203 13:51 09.09.2022
285 Clouds 19 1007 80 10000 6.74 203 12:47 09.09.2022
286 Clouds 16 1007 92 10000 5.6 193 10:22 09.09.2022
287 Clouds 14 1006 93 10000 3.75 181 06:46 09.09.2022
288 Clear 13 1006 92 10000 3.42 186 03:28 09.09.2022
289 Clouds 15 1007 91 10000 1.88 191 22:19 08.09.2022
290 Clouds 16 1007 91 10000 1.88 191 21:43 08.09.2022
291 Clouds 16 1007 90 10000 1.52 217 20:46 08.09.2022
292 Clouds 17 1007 91 10000 1.43 152 20:21 08.09.2022
293 Clouds 17 1007 90 10000 1.69 162 18:34 08.09.2022
294 Clouds 17 1007 91 10000 1.61 171 16:47 08.09.2022
295 Rain 17 1007 91 10000 2.49 235 14:42 08.09.2022
296 Rain 18 1008 90 10000 4.22 221 13:27 08.09.2022
297 Rain 18 1008 90 10000 4.22 221 12:33 08.09.2022
298 Clouds 18 1008 90 10000 3.55 184 10:58 08.09.2022
299 Clouds 17 1007 89 10000 3.74 108 09:20 08.09.2022
300 Clouds 16 1008 91 10000 3.24 139 06:43 08.09.2022
301 Clouds 16 1009 91 10000 2.43 128 03:18 08.09.2022
302 Clouds 16 1009 91 10000 2.44 128 02:36 08.09.2022
303 Clouds 15 1010 90 10000 3.36 99 02:18 08.09.2022
304 Clouds 16 1011 84 10000 3.52 66 22:55 07.09.2022
305 Clouds 18 1011 81 10000 3.56 46 21:44 07.09.2022
306 Clouds 18 1011 80 10000 3.27 29 21:20 07.09.2022
307 Clouds 20 1011 80 10000 3.12 24 20:19 07.09.2022
308 Clouds 23 1011 76 10000 3.82 359 18:41 07.09.2022
309 Clouds 23 1011 68 10000 2.69 284 15:41 07.09.2022
310 Clouds 18 1012 91 10000 3.44 157 10:51 07.09.2022
311 Clouds 18 1012 91 10000 3.44 157 10:30 07.09.2022
312 Clouds 15 1012 91 10000 2.96 113 07:45 07.09.2022
313 Rain 16 1012 88 10000 1.12 99 04:59 07.09.2022
314 Clouds 18 1014 75 10000 4.66 103 00:26 07.09.2022
315 Clouds 20 1014 73 10000 4.22 103 21:48 06.09.2022
316 Clouds 21 1014 73 10000 4.87 100 21:27 06.09.2022
317 Clouds 23 1014 69 10000 6.49 92 19:23 06.09.2022
318 Clouds 24 1014 68 10000 6.08 96 18:29 06.09.2022
319 Clouds 25 1014 63 10000 6.27 89 17:23 06.09.2022
320 Clouds 25 1014 62 10000 6.27 89 16:41 06.09.2022
321 Clouds 24 1015 63 10000 5.92 98 15:55 06.09.2022
322 Clouds 22 1016 65 10000 6.7 118 13:47 06.09.2022
323 Clouds 22 1017 65 10000 7.27 117 13:27 06.09.2022
324 Clouds 21 1017 67 10000 7.27 117 12:56 06.09.2022
325 Clouds 18 1017 83 10000 7.98 105 10:54 06.09.2022
326 Clouds 17 1016 81 10000 7.28 108 08:58 06.09.2022
327 Clouds 18 1016 77 10000 6.22 104 07:52 06.09.2022
328 Clouds 18 1016 77 10000 6.22 104 07:52 06.09.2022
329 Clouds 17 1016 72 10000 5.98 108 06:18 06.09.2022
330 Clouds 20 1018 79 10000 5.94 99 00:45 06.09.2022
331 Clouds 21 1019 79 10000 6.1 93 22:44 05.09.2022
332 Clouds 21 1019 79 10000 6.41 97 21:38 05.09.2022
333 Clouds 23 1019 63 10000 6.51 100 20:18 05.09.2022
334 Clouds 27 1019 57 10000 5.79 97 18:53 05.09.2022
335 Clouds 27 1019 55 10000 4.68 91 18:24 05.09.2022
336 Clouds 28 1019 53 10000 4.68 91 17:50 05.09.2022
337 Clouds 28 1019 53 10000 4 104 15:53 05.09.2022
338 Clouds 27 1020 57 10000 4.51 119 14:34 05.09.2022
339 Clouds 25 1021 62 10000 4.66 121 12:51 05.09.2022
340 Clouds 22 1021 63 10000 4.85 123 10:37 05.09.2022
341 Clouds 17 1021 74 10000 4.44 108 08:45 05.09.2022
342 Clouds 18 1020 67 10000 4.62 104 03:47 05.09.2022
343 Clouds 20 1021 67 10000 5.28 101 00:30 05.09.2022
344 Clouds 20 1020 63 10000 5.48 96 22:29 04.09.2022
345 Clouds 20 1020 62 10000 5.48 96 21:56 04.09.2022
346 Clouds 21 1019 61 10000 4.66 73 20:26 04.09.2022
347 Clouds 25 1019 54 10000 4.41 72 18:35 04.09.2022
348 Clouds 25 1018 53 10000 3.98 85 17:31 04.09.2022
349 Clouds 26 1018 49 10000 3.58 109 16:24 04.09.2022
350 Clouds 25 1019 51 10000 4.28 121 14:25 04.09.2022
351 Clouds 23 1019 55 10000 4.88 119 12:40 04.09.2022
352 Clouds 21 1019 58 10000 5.19 116 11:28 04.09.2022
353 Clouds 18 1018 64 10000 5.1 114 09:38 04.09.2022
354 Clouds 13 1017 69 10000 4.58 111 06:35 04.09.2022
355 Clouds 15 1016 62 10000 5.77 110 03:18 04.09.2022
356 Clouds 18 1015 57 10000 6.52 102 22:56 03.09.2022
357 Clouds 19 1015 56 10000 6.45 98 22:18 03.09.2022
358 Clouds 19 1014 54 10000 6.44 94 21:22 03.09.2022
359 Clouds 23 1013 52 10000 4.79 84 18:49 03.09.2022
360 Clouds 25 1013 44 10000 5.29 110 17:22 03.09.2022
361 Clouds 25 1013 44 10000 5.29 110 17:22 03.09.2022
362 Clouds 25 1013 45 10000 5.62 113 15:54 03.09.2022
363 Clouds 24 1013 45 10000 5.82 115 14:42 03.09.2022
364 Clouds 24 1014 45 10000 6.76 115 13:50 03.09.2022
365 Clouds 21 1014 57 10000 7.47 112 11:34 03.09.2022
366 Clouds 17 1015 63 10000 7.01 109 09:37 03.09.2022
367 Clouds 14 1015 70 10000 5.77 100 07:57 03.09.2022
368 Clouds 14 1015 67 10000 5.75 101 04:56 03.09.2022
369 Clouds 15 1015 65 10000 5.55 108 03:29 03.09.2022
370 Clouds 18 1015 56 10000 6.28 104 23:49 02.09.2022
371 Clouds 18 1015 57 10000 6.32 101 22:33 02.09.2022
372 Clouds 19 1015 60 10000 5.94 91 20:56 02.09.2022
373 Clouds 20 1015 56 10000 4.66 72 20:23 02.09.2022
374 Clouds 22 1015 53 10000 4.34 74 18:51 02.09.2022
375 Clouds 23 1015 49 10000 4.52 90 18:26 02.09.2022
376 Clouds 24 1015 45 10000 4.52 90 17:30 02.09.2022
377 Clouds 24 1015 45 10000 4.52 90 17:30 02.09.2022
378 Clouds 24 1015 47 10000 5.01 103 16:44 02.09.2022
379 Clouds 23 1017 55 10000 5.95 121 13:51 02.09.2022
380 Clear 21 1018 65 10000 6.64 116 11:36 02.09.2022
381 Clear 17 1019 71 10000 6.35 103 09:49 02.09.2022
382 Clear 14 1019 77 10000 5.83 98 08:55 02.09.2022
383 Clear 12 1019 78 10000 4.05 88 07:24 02.09.2022
384 Clear 12 1019 77 10000 4.05 88 06:34 02.09.2022
385 Clear 12 1021 77 10000 4.02 94 02:37 02.09.2022
386 Clear 16 1022 75 10000 4.48 68 22:26 01.09.2022
387 Clear 17 1022 72 10000 4.48 68 21:40 01.09.2022
388 Clear 17 1022 72 10000 5.54 74 21:21 01.09.2022
389 Clear 18 1021 69 10000 5.1 62 20:37 01.09.2022
390 Clouds 22 1021 51 10000 7.29 58 18:49 01.09.2022
391 Clouds 23 1021 45 10000 5.8 83 17:21 01.09.2022
392 Clouds 23 1021 51 10000 4.89 86 15:47 01.09.2022
393 Clouds 22 1023 55 10000 4.45 89 13:55 01.09.2022
394 Clouds 22 1023 56 10000 4.51 91 12:57 01.09.2022
395 Clouds 21 1024 64 10000 4.22 92 11:52 01.09.2022
396 Clouds 21 1024 66 10000 4.22 92 11:31 01.09.2022
397 Clouds 18 1024 73 10000 4.03 88 10:19 01.09.2022
398 Clear 14 1024 82 10000 3.15 76 07:51 01.09.2022
399 Clear 13 1023 79 10000 3.56 69 06:22 01.09.2022
400 Clear 14 1024 75 10000 4.49 73 01:32 01.09.2022
401 Clear 15 1024 82 10000 4.63 66 23:29 31.08.2022
402 Clear 17 1024 75 10000 4.44 36 21:30 31.08.2022
403 Clear 19 1024 69 10000 5.75 29 19:50 31.08.2022
404 Clear 21 1024 60 10000 6.74 32 18:18 31.08.2022
405 Clear 22 1024 52 10000 5.89 41 15:45 31.08.2022
406 Clouds 22 1024 52 10000 5.5 55 13:57 31.08.2022
407 Clouds 21 1025 57 10000 5.59 63 12:21 31.08.2022
408 Clouds 19 1025 64 10000 5.54 68 10:52 31.08.2022
409 Clouds 16 1025 80 10000 4.58 72 08:35 31.08.2022
410 Clouds 14 1025 75 10000 3.57 61 04:26 31.08.2022
411 Clouds 17 1023 67 10000 5.83 57 22:58 30.08.2022
412 Clouds 17 1023 69 10000 5.13 49 21:38 30.08.2022
413 Clouds 18 1023 68 10000 5.6 48 20:56 30.08.2022
414 Clouds 22 1022 62 10000 6.4 44 17:30 30.08.2022
415 Clear 22 1022 60 10000 4.55 38 14:44 30.08.2022
416 Clouds 21 1023 61 10000 4.74 48 13:24 30.08.2022
417 Clouds 19 1023 66 10000 4.79 50 11:21 30.08.2022
418 Clouds 19 1023 70 10000 4.79 50 10:35 30.08.2022
419 Clouds 14 1023 87 10000 3.17 56 06:51 30.08.2022
420 Clouds 14 1022 85 10000 3.36 76 01:53 30.08.2022
421 Clouds 16 1022 85 10000 3.03 36 22:58 29.08.2022
422 Clouds 16 1022 84 10000 3.17 31 22:24 29.08.2022
423 Clouds 17 1022 82 10000 3.48 31 21:25 29.08.2022
424 Clouds 19 1021 79 10000 3.54 23 19:52 29.08.2022
425 Clouds 21 1021 76 10000 4.63 19 17:52 29.08.2022
426 Clouds 21 1021 73 10000 4.89 14 17:24 29.08.2022
427 Clouds 21 1021 73 10000 5.32 9 16:37 29.08.2022
428 Clouds 21 1021 75 10000 4.87 17 14:45 29.08.2022
429 Clouds 20 1022 78 10000 4.49 28 13:21 29.08.2022
430 Clouds 20 1021 80 10000 4.01 35 11:20 29.08.2022
431 Clouds 19 1021 84 10000 4.84 5 09:48 29.08.2022
432 Clouds 17 1021 87 10000 3.62 346 08:29 29.08.2022
433 Clouds 16 1020 86 10000 3.22 338 05:35 29.08.2022
434 Clouds 16 1021 71 10000 4.26 335 00:22 29.08.2022
435 Clouds 16 1021 68 10000 4.74 337 22:41 28.08.2022
436 Clouds 16 1021 70 10000 5.32 332 21:44 28.08.2022
437 Clouds 17 1021 69 10000 4.39 332 20:55 28.08.2022
438 Clear 18 1020 68 10000 6.13 333 19:26 28.08.2022
439 Clear 19 1020 67 10000 7.02 332 18:21 28.08.2022
440 Clear 19 1020 67 10000 7.16 327 17:22 28.08.2022
441 Clear 19 1020 65 10000 7.02 327 16:28 28.08.2022
442 Clouds 20 1020 62 10000 6.47 328 14:42 28.08.2022
443 Clear 20 1020 62 10000 6.74 331 12:48 28.08.2022
444 Clear 19 1020 63 10000 6.77 336 10:51 28.08.2022
445 Clear 19 1020 64 10000 6.56 339 09:54 28.08.2022
446 Clear 17 1019 71 10000 6.09 341 08:38 28.08.2022
447 Clear 15 1019 75 10000 4.73 340 07:45 28.08.2022
448 Clear 14 1019 77 10000 4 346 02:59 28.08.2022
449 Clear 15 1019 75 10000 3.96 346 00:31 28.08.2022
450 Clear 16 1018 74 10000 4.06 346 22:38 27.08.2022
451 Clear 16 1018 74 10000 4.02 348 21:58 27.08.2022
452 Clouds 17 1018 73 10000 5.02 355 20:19 27.08.2022
453 Clouds 19 1018 69 10000 5.84 353 18:41 27.08.2022
454 Clouds 21 1017 66 10000 6.29 350 15:53 27.08.2022
455 Clouds 21 1017 68 10000 5.95 352 15:25 27.08.2022
456 Clouds 21 1017 67 10000 5.98 353 12:41 27.08.2022
457 Clouds 20 1017 71 10000 5.91 357 11:53 27.08.2022
458 Clouds 19 1016 73 10000 5.78 5 09:51 27.08.2022
459 Clouds 18 1016 77 10000 5.71 2 08:53 27.08.2022
460 Clouds 16 1016 85 10000 5.46 354 04:39 27.08.2022
461 Clouds 18 1016 84 10000 5.54 345 00:25 27.08.2022
462 Clouds 18 1016 83 10000 5.9 351 23:24 26.08.2022
463 Clouds 18 1016 83 10000 5.72 346 21:45 26.08.2022
464 Clouds 19 1015 82 10000 6.03 340 19:40 26.08.2022
465 Clouds 20 1015 84 10000 6.51 333 17:29 26.08.2022
466 Clouds 22 1016 85 10000 6.39 331 15:37 26.08.2022
467 Clouds 22 1016 82 10000 6.42 329 14:56 26.08.2022
468 Clouds 22 1015 84 10000 6.06 323 12:54 26.08.2022
469 Clouds 22 1015 82 10000 5.79 326 11:42 26.08.2022
470 Clouds 21 1015 86 10000 5.94 329 11:21 26.08.2022
471 Clear 20 1013 89 10000 3 305 07:56 26.08.2022
472 Clear 20 1014 83 10000 2.38 193 02:57 26.08.2022
473 Clouds 22 1013 80 10000 4.32 125 23:45 25.08.2022
474 Clouds 24 1014 73 10000 5.54 105 21:55 25.08.2022
475 Clear 25 1014 68 10000 3.84 85 20:53 25.08.2022
476 Clear 28 1013 52 10000 3.19 62 19:27 25.08.2022
477 Clear 30 1013 48 10000 3.35 97 18:29 25.08.2022
478 Clear 31 1013 45 10000 3.35 97 17:31 25.08.2022
479 Clear 30 1014 54 10000 3.95 115 16:36 25.08.2022
480 Clear 30 1015 56 10000 4.77 116 15:28 25.08.2022
481 Clear 29 1015 57 10000 5.32 119 13:51 25.08.2022
482 Clear 25 1017 65 10000 5.95 119 10:49 25.08.2022
483 Clear 23 1018 67 10000 5.9 116 09:52 25.08.2022
484 Clear 18 1018 71 10000 4.47 116 07:35 25.08.2022
485 Clear 20 1019 60 10000 4.03 112 02:51 25.08.2022
486 Clouds 22 1019 74 10000 2.83 79 23:36 24.08.2022
487 Clouds 22 1019 73 10000 3.3 47 22:55 24.08.2022
488 Clouds 23 1019 72 10000 4.05 25 21:55 24.08.2022
489 Clouds 23 1019 72 10000 4.26 10 21:28 24.08.2022
490 Clouds 26 1018 73 10000 4.7 11 19:56 24.08.2022
491 Clouds 30 1017 42 10000 2.32 20 17:28 24.08.2022
492 Clouds 30 1018 66 10000 0.77 26 15:54 24.08.2022
493 Clouds 30 1018 64 10000 0.66 213 15:28 24.08.2022
494 Clouds 28 1019 63 10000 1.41 185 12:52 24.08.2022
495 Clouds 28 1019 63 10000 1.41 185 12:52 24.08.2022
496 Clouds 25 1019 70 10000 0.52 177 11:21 24.08.2022
497 Clouds 21 1018 92 10000 0.93 241 08:58 24.08.2022
498 Clouds 16 1017 90 10000 0.49 225 06:40 24.08.2022
499 Clouds 21 1016 87 10000 1.24 11 00:55 24.08.2022
500 Clouds 21 1017 83 10000 2.6 355 22:49 23.08.2022
501 Clouds 21 1017 81 10000 2.93 328 22:18 23.08.2022
502 Clouds 23 1016 72 10000 3.13 337 20:49 23.08.2022
503 Clouds 25 1015 62 10000 3.54 356 19:24 23.08.2022
504 Clouds 28 1015 52 10000 3.07 339 18:18 23.08.2022
505 Clouds 29 1015 52 10000 3.07 339 17:30 23.08.2022
506 Clouds 30 1015 47 10000 1.29 224 16:26 23.08.2022
507 Clouds 29 1015 49 10000 2.43 207 14:54 23.08.2022
508 Clouds 27 1016 55 10000 3.27 164 12:46 23.08.2022
509 Clouds 25 1016 63 10000 3.58 154 11:19 23.08.2022
510 Clouds 23 1016 67 10000 3.58 154 10:33 23.08.2022
511 Clouds 22 1016 71 10000 3.42 152 09:46 23.08.2022
512 Clouds 19 1015 88 10000 3.16 145 08:47 23.08.2022
513 Clear 18 1015 90 10000 2.7 131 08:19 23.08.2022
514 Clouds 15 1015 91 10000 2.46 137 07:33 23.08.2022
515 Clouds 14 1014 91 10000 2.51 128 06:25 23.08.2022
516 Clouds 17 1014 87 10000 3.04 107 01:52 23.08.2022
517 Clouds 18 1015 84 10000 3.46 73 00:27 23.08.2022
518 Clouds 18 1015 82 10000 3.46 73 23:32 22.08.2022
519 Clouds 19 1015 80 10000 4.52 56 22:29 22.08.2022
520 Clouds 20 1015 77 10000 4.55 59 20:58 22.08.2022
521 Clouds 22 1015 71 10000 5 47 19:47 22.08.2022
522 Clouds 23 1015 65 10000 4.89 41 18:38 22.08.2022
523 Clouds 24 1016 60 10000 2.71 64 16:26 22.08.2022
524 Clouds 23 1016 65 10000 2.13 63 15:36 22.08.2022
525 Clouds 22 1017 73 10000 1.14 88 12:57 22.08.2022
526 Clouds 19 1017 83 10000 2.2 60 10:20 22.08.2022
527 Clouds 15 1017 91 10000 1.14 80 07:40 22.08.2022
528 Clouds 15 1017 89 10000 0.88 80 02:56 22.08.2022
529 Clouds 15 1017 86 10000 1.3 41 00:37 22.08.2022
530 Clouds 16 1017 85 10000 1.43 29 23:59 21.08.2022
531 Clouds 18 1017 80 10000 2.63 345 21:57 21.08.2022
532 Clouds 18 1016 78 10000 3.08 332 21:23 21.08.2022
533 Clouds 19 1016 75 10000 3.45 322 20:27 21.08.2022
534 Clouds 21 1016 74 10000 4.05 316 19:24 21.08.2022
535 Clouds 22 1015 69 10000 5.36 305 16:55 21.08.2022
536 Clouds 21 1015 65 10000 4.68 307 15:53 21.08.2022
537 Clouds 22 1015 70 10000 4.82 300 15:20 21.08.2022
538 Clouds 24 1015 66 10000 5.29 280 13:52 21.08.2022
539 Clear 24 1015 64 10000 4.6 251 13:26 21.08.2022
540 Clear 22 1015 68 10000 4.69 238 11:34 21.08.2022
541 Clear 19 1015 82 10000 5.4 226 09:31 21.08.2022
542 Clear 18 1015 86 10000 5.02 218 08:56 21.08.2022
543 Clear 17 1015 89 10000 5.32 216 08:38 21.08.2022
544 Clear 13 1015 91 10000 3.77 201 07:26 21.08.2022
545 Clear 13 1016 89 10000 3.37 199 03:39 21.08.2022
546 Clear 15 1017 86 10000 2.42 233 00:22 21.08.2022
547 Clear 16 1016 82 10000 1.67 255 22:37 20.08.2022
548 Clear 18 1017 79 10000 1.48 298 21:34 20.08.2022
549 Clear 19 1017 75 10000 2.18 316 20:40 20.08.2022
550 Clear 21 1016 77 10000 2.51 334 19:40 20.08.2022
551 Clear 22 1016 68 10000 2.96 338 18:30 20.08.2022
552 Clear 22 1016 69 10000 3.51 330 17:50 20.08.2022
553 Clear 23 1016 68 10000 4.11 326 16:52 20.08.2022
554 Clear 23 1016 64 10000 4.51 326 15:30 20.08.2022
555 Clouds 22 1016 64 10000 3.9 305 13:26 20.08.2022
556 Clouds 22 1016 63 10000 3.6 302 11:50 20.08.2022
557 Clouds 18 1016 88 10000 3.25 311 09:37 20.08.2022
558 Clouds 16 1016 93 10000 3.02 316 08:31 20.08.2022
559 Clouds 16 1014 92 10000 3.1 307 05:55 20.08.2022
560 Clouds 18 1014 91 10000 3.01 331 00:59 20.08.2022
561 Clouds 19 1014 91 10000 3.01 331 00:35 20.08.2022
562 Clouds 19 1013 90 10000 3.29 318 23:18 19.08.2022
563 Rain 20 1013 88 10000 3.32 317 21:41 19.08.2022
564 Clouds 21 1012 83 10000 2.71 324 20:20 19.08.2022
565 Clouds 24 1012 76 10000 3.11 315 17:35 19.08.2022
566 Clouds 25 1012 68 10000 2.23 297 15:19 19.08.2022
567 Clouds 25 1013 62 10000 2.65 257 13:21 19.08.2022
568 Clouds 22 1013 73 10000 2.48 251 10:53 19.08.2022
569 Clouds 21 1013 75 10000 2.22 250 10:24 19.08.2022
570 Clear 14 1013 92 10000 1.94 224 06:37 19.08.2022
571 Clouds 15 1014 89 10000 1.57 358 00:57 19.08.2022
572 Clouds 15 1014 89 10000 1.57 358 00:30 19.08.2022
573 Clouds 15 1014 88 10000 1.85 2 23:44 18.08.2022
574 Clouds 15 1014 86 10000 2.17 11 22:50 18.08.2022
575 Clouds 17 1014 84 10000 2.57 0 21:57 18.08.2022
576 Clouds 17 1014 84 10000 2.57 0 21:34 18.08.2022
577 Clouds 19 1014 81 10000 3.22 337 20:25 18.08.2022
578 Clouds 20 1014 80 10000 3.22 337 19:30 18.08.2022
579 Clouds 21 1014 78 10000 4.07 339 17:50 18.08.2022
580 Clouds 21 1014 78 10000 4.41 333 16:59 18.08.2022
581 Clouds 21 1013 82 10000 4.95 337 14:57 18.08.2022
582 Clouds 20 1014 86 10000 4.02 356 14:19 18.08.2022
583 Clouds 20 1014 88 10000 4.02 356 13:34 18.08.2022
584 Clouds 19 1014 93 10000 5.21 356 11:51 18.08.2022
585 Clouds 19 1013 94 10000 5.5 349 09:44 18.08.2022
586 Clouds 19 1012 94 10000 4.23 348 08:42 18.08.2022
587 Clouds 18 1012 94 10000 2.49 8 07:24 18.08.2022
588 Clouds 18 1011 93 10000 1.64 2 04:38 18.08.2022
589 Clouds 18 1013 93 10000 2.85 21 23:37 17.08.2022
590 Clouds 18 1012 92 10000 4.3 29 21:54 17.08.2022
591 Rain 18 1011 92 10000 6.25 20 20:20 17.08.2022
592 Rain 18 1011 90 10000 6.25 20 19:32 17.08.2022
593 Clouds 22 1011 96 5872 4.91 351 17:39 17.08.2022
594 Clouds 23 1010 94 3058 5.34 354 16:47 17.08.2022
595 Clouds 24 1010 82 8896 7.11 28 15:30 17.08.2022
596 Clouds 23 1012 82 10000 4.97 0 13:52 17.08.2022
597 Clouds 21 1012 91 10000 3.12 24 11:45 17.08.2022
598 Rain 21 1012 67 10000 3.4 57 10:22 17.08.2022
599 Rain 19 1012 92 10000 1.94 24 08:25 17.08.2022
600 Clouds 18 1011 91 10000 1.69 48 04:20 17.08.2022
601 Clouds 18 1011 88 10000 1 349 00:40 17.08.2022
602 Clouds 19 1010 87 10000 2.47 332 22:53 16.08.2022
603 Clouds 22 1010 83 10000 2.23 312 20:59 16.08.2022
604 Clouds 23 1010 79 10000 0.17 311 19:55 16.08.2022
605 Clouds 24 1009 77 10000 2.25 358 19:22 16.08.2022
606 Clouds 26 1009 77 10000 2.34 340 17:54 16.08.2022
607 Clouds 28 1008 67 10000 5.05 316 16:46 16.08.2022
608 Clouds 29 1007 63 10000 5.78 320 15:44 16.08.2022
609 Clouds 29 1007 63 10000 5.78 320 15:44 16.08.2022
610 Clouds 29 1007 50 10000 5.28 296 14:54 16.08.2022
611 Clouds 29 1007 52 10000 5.28 296 14:36 16.08.2022
612 Clouds 26 1006 62 10000 4.57 224 11:40 16.08.2022
613 Clouds 24 1006 71 10000 4.88 209 10:20 16.08.2022
614 Clouds 21 1006 82 10000 4.41 206 08:49 16.08.2022
615 Clouds 20 1006 87 10000 2.58 197 08:21 16.08.2022
616 Clouds 19 1005 89 10000 2.86 208 05:55 16.08.2022
617 Clouds 20 1004 82 10000 2.35 154 23:56 15.08.2022
618 Clouds 21 1005 77 10000 2.2 97 22:23 15.08.2022
619 Clouds 21 1005 75 10000 2.2 97 21:50 15.08.2022
620 Clouds 22 1005 69 10000 2.65 108 20:32 15.08.2022
621 Clouds 22 1003 72 10000 3.55 338 19:22 15.08.2022
622 Rain 23 1003 68 10000 4.78 328 17:59 15.08.2022
623 Clouds 30 1001 55 10000 3.01 212 16:25 15.08.2022
624 Clouds 30 1001 59 10000 3.01 212 15:52 15.08.2022
625 Clouds 29 1002 59 10000 3.6 183 13:50 15.08.2022
626 Clouds 26 1003 60 10000 3.51 151 11:24 15.08.2022
627 Clouds 23 1003 70 10000 3.04 142 09:42 15.08.2022
628 Clouds 21 1003 81 10000 2.42 121 07:44 15.08.2022
629 Clouds 20 1004 85 10000 3.11 125 04:34 15.08.2022
630 Clouds 22 1005 78 10000 3.77 101 00:54 15.08.2022
631 Clouds 24 1005 70 10000 3.53 100 22:38 14.08.2022
632 Clouds 25 1006 63 10000 3.88 86 21:37 14.08.2022
633 Clouds 29 1005 56 10000 4.98 61 19:48 14.08.2022
634 Clouds 30 1005 56 10000 5.05 77 18:57 14.08.2022
635 Clouds 30 1006 55 10000 4.61 96 18:18 14.08.2022
636 Clouds 31 1006 50 10000 4.85 107 16:53 14.08.2022
637 Clouds 30 1007 54 10000 4.62 112 15:48 14.08.2022
638 Clouds 29 1009 58 10000 4.25 128 14:27 14.08.2022
639 Clouds 29 1009 58 10000 4.25 128 13:50 14.08.2022
640 Clouds 29 1010 60 10000 4.52 128 13:20 14.08.2022
641 Clouds 29 1010 58 10000 4.84 124 12:28 14.08.2022
642 Clouds 27 1011 64 10000 5.11 114 10:50 14.08.2022
643 Clouds 24 1012 69 10000 4.28 114 08:52 14.08.2022
644 Clouds 19 1012 82 10000 3.32 108 06:22 14.08.2022
645 Clouds 20 1014 77 10000 3.18 114 02:57 14.08.2022
646 Clouds 22 1015 70 10000 3.69 107 00:19 14.08.2022
647 Clouds 23 1015 62 10000 4.48 84 22:56 13.08.2022
648 Clouds 24 1015 56 10000 5.03 72 21:43 13.08.2022
649 Clear 26 1015 54 10000 5.5 65 20:46 13.08.2022
650 Clear 28 1015 48 10000 4.37 68 19:45 13.08.2022
651 Clear 30 1015 28 10000 1.6 100 17:59 13.08.2022
652 Clear 31 1016 37 10000 2.28 127 15:40 13.08.2022
653 Clear 30 1016 40 10000 2.97 120 14:32 13.08.2022
654 Clear 30 1017 41 10000 3.48 112 13:46 13.08.2022
655 Clear 29 1018 53 10000 3.45 122 11:53 13.08.2022
656 Clear 27 1019 49 10000 3.08 127 10:31 13.08.2022
657 Clear 24 1019 54 10000 2.43 127 09:22 13.08.2022
658 Clear 18 1018 76 10000 2.64 131 05:59 13.08.2022
659 Clouds 19 1019 66 10000 3.18 118 00:36 13.08.2022
660 Clouds 21 1019 68 10000 3.78 65 22:37 12.08.2022
661 Clouds 22 1019 61 10000 4.14 58 21:35 12.08.2022
662 Clear 28 1018 54 10000 5.82 55 19:46 12.08.2022
663 Clear 29 1018 54 10000 5.51 66 19:21 12.08.2022
664 Clear 31 1018 39 10000 5.31 72 17:59 12.08.2022
665 Clear 31 1018 53 10000 4.42 72 16:25 12.08.2022
666 Clear 30 1019 55 10000 3.91 74 14:50 12.08.2022
667 Clear 30 1019 50 10000 3.14 83 13:30 12.08.2022
668 Clear 29 1020 62 10000 3.28 89 12:25 12.08.2022
669 Clear 22 1021 70 10000 2.69 68 08:50 12.08.2022
670 Clear 19 1021 81 10000 2.43 72 07:45 12.08.2022
671 Clear 16 1021 84 10000 2.54 88 06:21 12.08.2022
672 Clear 19 1022 76 10000 3.34 63 00:32 12.08.2022
673 Clear 19 1022 75 10000 3.61 58 23:58 11.08.2022
674 Clear 20 1022 75 10000 4.02 55 23:22 11.08.2022
675 Clear 22 1022 67 10000 4.12 53 21:53 11.08.2022
676 Clear 23 1021 64 10000 4.25 48 21:28 11.08.2022
677 Clear 26 1021 56 10000 4.25 48 20:31 11.08.2022
678 Clear 27 1021 53 10000 5.2 44 19:33 11.08.2022
679 Clear 28 1021 52 10000 5.21 51 18:56 11.08.2022
680 Clear 29 1021 55 10000 4.58 56 16:47 11.08.2022
681 Clear 29 1022 51 10000 4.12 54 15:43 11.08.2022
682 Clear 29 1022 53 10000 3.66 55 14:40 11.08.2022
683 Clear 28 1023 50 10000 2.83 88 11:59 11.08.2022
684 Clear 20 1024 60 10000 2.42 97 09:22 11.08.2022
685 Clear 16 1024 91 10000 2.41 91 06:52 11.08.2022
686 Clear 17 1025 87 10000 3.02 71 02:49 11.08.2022
687 Clouds 17 1025 84 10000 3.66 55 23:57 10.08.2022
688 Clouds 20 1025 76 10000 4.04 47 21:56 10.08.2022
689 Clouds 21 1025 72 10000 4.5 42 21:19 10.08.2022
690 Clouds 24 1025 70 10000 4.5 42 20:36 10.08.2022
691 Clouds 25 1025 70 10000 4.57 46 18:53 10.08.2022
692 Clouds 25 1025 70 10000 4.57 46 18:53 10.08.2022
693 Clouds 27 1025 64 10000 3.82 48 17:28 10.08.2022
694 Clouds 27 1026 64 10000 3.34 52 15:26 10.08.2022
695 Clouds 26 1026 66 10000 2.44 62 13:34 10.08.2022
696 Clouds 24 1027 65 10000 2.58 80 11:47 10.08.2022
697 Clouds 19 1028 83 10000 2.66 77 08:44 10.08.2022
698 Clouds 16 1028 91 10000 2.37 69 07:36 10.08.2022
699 Clouds 14 1028 90 10000 2.18 83 05:53 10.08.2022
700 Clouds 15 1029 86 10000 3 48 02:44 10.08.2022
701 Clouds 15 1029 81 10000 3.25 37 23:33 09.08.2022
702 Clouds 16 1029 79 10000 3.31 35 22:48 09.08.2022
703 Clouds 18 1029 73 10000 3.45 32 21:34 09.08.2022
704 Clouds 21 1028 69 10000 4.5 20 19:34 09.08.2022
705 Clouds 23 1028 58 10000 5.24 17 18:23 09.08.2022
706 Clouds 24 1028 55 10000 5.44 21 17:26 09.08.2022
707 Clouds 24 1028 59 10000 5.44 21 16:40 09.08.2022
708 Clear 24 1028 59 10000 5.42 16 15:40 09.08.2022
709 Clear 23 1029 68 10000 3.79 30 12:25 09.08.2022
710 Clear 19 1029 73 10000 3.49 34 09:30 09.08.2022
711 Clear 18 1029 83 10000 3.12 36 08:33 09.08.2022
712 Clouds 14 1028 91 10000 2.05 35 07:20 09.08.2022
713 Clear 13 1028 88 10000 2.36 38 03:34 09.08.2022
714 Clouds 16 1028 83 10000 3.19 28 23:27 08.08.2022
715 Clouds 16 1028 82 10000 3.19 28 22:54 08.08.2022
716 Clouds 17 1028 80 10000 3.42 19 21:49 08.08.2022
717 Clouds 19 1027 77 10000 3.48 12 20:59 08.08.2022
718 Clouds 20 1026 75 10000 4.12 7 19:50 08.08.2022
719 Clouds 21 1026 69 10000 4.86 4 18:38 08.08.2022
720 Clouds 22 1026 65 10000 4.48 347 16:37 08.08.2022
721 Clouds 22 1026 70 10000 4.54 343 15:39 08.08.2022
722 Clouds 21 1026 74 10000 3.69 331 13:50 08.08.2022
723 Clouds 20 1026 73 10000 3 324 11:58 08.08.2022
724 Clouds 18 1025 80 10000 1.94 297 09:43 08.08.2022
725 Clouds 13 1025 89 10000 1.86 267 05:54 08.08.2022
726 Clear 12 1024 88 10000 1.2 273 02:55 08.08.2022
727 Clear 15 1024 80 10000 2.49 331 22:32 07.08.2022
728 Clear 17 1024 75 10000 3.25 325 21:39 07.08.2022
729 Clouds 19 1024 72 10000 3.95 318 20:26 07.08.2022
730 Clouds 19 1024 72 10000 3.95 318 20:26 07.08.2022
731 Clouds 19 1024 70 10000 3.95 318 19:56 07.08.2022
732 Clouds 20 1024 70 10000 3.95 318 19:38 07.08.2022
733 Clouds 22 1024 63 10000 5.06 324 18:23 07.08.2022
734 Clouds 23 1024 50 10000 5.23 323 16:54 07.08.2022
735 Clouds 23 1024 50 10000 5.23 323 16:35 07.08.2022
736 Clouds 23 1024 57 10000 3.75 312 15:20 07.08.2022
737 Clear 22 1025 48 10000 2.91 274 13:26 07.08.2022
738 Clouds 21 1025 57 10000 2.84 265 11:54 07.08.2022
739 Clear 19 1026 54 10000 2.8 268 10:34 07.08.2022
740 Clouds 13 1026 91 10000 2.42 230 07:36 07.08.2022
741 Clouds 12 1027 88 10000 2 217 03:20 07.08.2022
742 Clouds 13 1027 84 10000 1.35 229 00:57 07.08.2022
743 Clouds 13 1027 75 10000 1.91 323 22:25 06.08.2022
744 Clear 17 1027 67 10000 2.59 325 20:46 06.08.2022
745 Clouds 19 1027 61 10000 3.24 324 19:41 06.08.2022
746 Clouds 20 1027 53 10000 4.04 320 18:30 06.08.2022
747 Clouds 20 1027 51 10000 4.5 322 17:33 06.08.2022
748 Clear 21 1027 53 10000 4.85 320 14:48 06.08.2022
749 Clouds 21 1027 57 10000 5.11 321 13:49 06.08.2022
750 Clouds 19 1027 59 10000 4.98 317 11:59 06.08.2022
751 Clouds 19 1027 76 10000 4.74 318 10:33 06.08.2022
752 Clouds 17 1027 69 10000 3.81 305 09:21 06.08.2022
753 Clear 11 1024 83 10000 2.95 290 03:54 06.08.2022
754 Clear 13 1023 76 10000 3.31 285 23:54 05.08.2022
755 Clear 14 1022 73 10000 3.52 294 22:33 05.08.2022
756 Clouds 17 1021 65 10000 5.22 307 20:20 05.08.2022
757 Clouds 19 1020 59 10000 6.71 309 18:47 05.08.2022
758 Clouds 19 1020 55 10000 7.56 313 18:27 05.08.2022
759 Clouds 19 1019 67 10000 7.73 313 16:50 05.08.2022
760 Clear 20 1018 61 10000 8.03 303 15:23 05.08.2022
761 Clear 21 1018 57 10000 8.03 303 14:34 05.08.2022
762 Clear 21 1016 50 10000 6.12 301 13:26 05.08.2022
763 Clear 21 1016 58 10000 6.12 301 12:45 05.08.2022
764 Clouds 20 1016 69 10000 3.96 307 10:59 05.08.2022
765 Clouds 17 1015 83 10000 3.12 331 08:45 05.08.2022
766 Clouds 16 1015 86 10000 2.83 332 07:33 05.08.2022
767 Clouds 17 1015 86 10000 1.48 18 02:33 05.08.2022
768 Clouds 18 1015 81 10000 3.35 0 22:43 04.08.2022
769 Clouds 19 1014 78 10000 4.68 348 21:28 04.08.2022
770 Clouds 20 1014 76 10000 4.68 348 20:57 04.08.2022
771 Clouds 20 1014 74 10000 4.68 348 20:35 04.08.2022
772 Clouds 22 1013 74 10000 6 330 18:58 04.08.2022
773 Clouds 23 1013 74 10000 6 330 18:33 04.08.2022
774 Clouds 26 1012 63 10000 6.2 317 15:51 04.08.2022
775 Clouds 29 1012 63 10000 3.99 270 13:26 04.08.2022
776 Clouds 29 1012 63 10000 3.99 270 13:26 04.08.2022
777 Clouds 28 1012 65 10000 3.41 255 11:39 04.08.2022
778 Clouds 27 1012 67 10000 2.9 222 10:21 04.08.2022
779 Clouds 21 1012 91 10000 1.63 191 07:47 04.08.2022
780 Clouds 19 1013 91 10000 3.57 138 02:50 04.08.2022
781 Clouds 19 1014 90 10000 3.37 131 00:43 04.08.2022
782 Clouds 20 1014 89 10000 2.87 114 23:40 03.08.2022
783 Clouds 21 1014 85 10000 1.92 2 21:31 03.08.2022
784 Clouds 24 1013 80 10000 2.52 326 20:21 03.08.2022
785 Clouds 27 1013 74 10000 3.75 298 19:24 03.08.2022
786 Clouds 29 1013 58 10000 5.14 278 16:53 03.08.2022
787 Clouds 30 1013 56 10000 5.3 260 16:23 03.08.2022
788 Clouds 28 1013 69 10000 5.48 239 13:53 03.08.2022
789 Clouds 25 1014 74 10000 5.52 230 10:57 03.08.2022
790 Clouds 20 1014 88 10000 5.32 214 07:45 03.08.2022
791 Clouds 18 1014 88 10000 3.81 196 04:22 03.08.2022
792 Clouds 18 1014 88 10000 3.77 197 03:24 03.08.2022
793 Clouds 19 1014 86 10000 3.57 200 00:58 03.08.2022
794 Clouds 20 1014 80 10000 3.09 217 22:49 02.08.2022
795 Clouds 22 1014 73 10000 2.73 233 21:52 02.08.2022
796 Clouds 24 1014 79 10000 2.97 249 20:37 02.08.2022
797 Clouds 26 1014 62 10000 4.69 243 18:42 02.08.2022
798 Clouds 25 1014 62 10000 5.02 254 15:36 02.08.2022
799 Clouds 23 1016 57 10000 6.04 200 11:32 02.08.2022
800 Clouds 18 1017 75 10000 4.59 183 09:18 02.08.2022
801 Clouds 13 1017 83 10000 4.43 176 07:53 02.08.2022
802 Clouds 10 1018 87 10000 3.42 173 06:43 02.08.2022
803 Clouds 10 1018 88 10000 3.2 159 04:54 02.08.2022
804 Clouds 12 1019 84 10000 1.79 83 23:38 01.08.2022
805 Clear 13 1019 80 10000 2.14 23 22:25 01.08.2022
806 Clear 17 1019 71 10000 2.44 9 20:52 01.08.2022
807 Clouds 18 1019 67 10000 3.36 343 19:25 01.08.2022
808 Clouds 19 1019 63 10000 3.36 343 18:40 01.08.2022
809 Clouds 20 1018 60 10000 3.96 332 16:53 01.08.2022
810 Clouds 20 1018 65 10000 4.45 333 15:52 01.08.2022
811 Clouds 20 1018 63 10000 4.45 333 15:30 01.08.2022
812 Clouds 19 1018 65 10000 4.62 336 14:43 01.08.2022
813 Clouds 19 1018 69 10000 4.5 333 12:47 01.08.2022
814 Clouds 18 1017 75 10000 4.82 344 10:22 01.08.2022
815 Clouds 16 1017 92 10000 4.51 346 08:34 01.08.2022
816 Clouds 15 1015 93 10000 4.6 342 06:21 01.08.2022
817 Clouds 17 1015 94 10000 4.86 337 04:20 01.08.2022
818 Clouds 18 1014 94 10000 4.96 320 00:49 01.08.2022
819 Rain 18 1013 93 10000 4.16 298 22:41 31.07.2022
820 Clouds 18 1013 93 10000 4.46 294 21:35 31.07.2022
821 Rain 19 1012 93 10000 4.85 267 19:58 31.07.2022
822 Clouds 19 1012 92 10000 4.99 261 18:36 31.07.2022
823 Rain 18 1013 91 9386 4.22 195 15:54 31.07.2022
824 Rain 19 1014 87 10000 5.28 210 13:53 31.07.2022
825 Rain 21 1015 81 10000 4.33 213 12:29 31.07.2022
826 Clouds 22 1015 71 10000 4.61 190 10:22 31.07.2022
827 Clouds 19 1016 77 10000 3.46 180 08:19 31.07.2022
828 Clouds 16 1017 79 10000 2.76 195 04:30 31.07.2022
829 Clouds 18 1018 78 10000 1.01 134 00:23 31.07.2022
830 Clouds 18 1019 75 10000 2.09 335 22:19 30.07.2022
831 Clouds 18 1019 74 10000 2.09 335 21:50 30.07.2022
832 Rain 19 1019 73 10000 2.67 314 21:20 30.07.2022
833 Clouds 20 1018 68 10000 3.36 308 19:59 30.07.2022
834 Clouds 21 1018 66 10000 4.31 308 19:27 30.07.2022
835 Clouds 23 1018 62 10000 4.99 308 17:48 30.07.2022
836 Clouds 24 1017 66 10000 4.71 309 16:21 30.07.2022
837 Clouds 24 1017 67 10000 6 309 15:27 30.07.2022
838 Clear 25 1017 63 10000 2 292 13:22 30.07.2022
839 Clear 24 1017 68 10000 1.61 286 12:21 30.07.2022
840 Clear 23 1017 66 10000 0.99 264 10:44 30.07.2022
841 Clear 22 1017 72 10000 0.76 267 09:59 30.07.2022
842 Clouds 20 1017 81 10000 1.06 267 08:49 30.07.2022
843 Clouds 13 1017 91 10000 2.01 318 06:55 30.07.2022
844 Clouds 15 1017 88 10000 2.18 65 02:33 30.07.2022
845 Clouds 16 1017 81 10000 4.76 52 23:30 29.07.2022
846 Clouds 19 1018 70 10000 4.4 31 21:37 29.07.2022
847 Clouds 20 1018 70 10000 3.82 20 20:50 29.07.2022
848 Clouds 21 1017 68 10000 4.45 24 19:45 29.07.2022
849 Clouds 22 1016 65 10000 2.37 2 16:59 29.07.2022
850 Clouds 23 1017 62 10000 3.47 78 14:48 29.07.2022
851 Clouds 21 1018 70 10000 3.87 72 12:42 29.07.2022
852 Clouds 16 1018 74 10000 4.38 69 08:52 29.07.2022
853 Clouds 15 1018 76 10000 4.51 65 08:23 29.07.2022
854 Clouds 14 1019 80 10000 3.45 58 05:19 29.07.2022
855 Clouds 14 1020 76 10000 3.97 41 23:59 28.07.2022
856 Clouds 16 1020 71 10000 4.53 34 21:41 28.07.2022
857 Clouds 17 1020 67 10000 5.01 36 20:54 28.07.2022
858 Clouds 18 1019 66 10000 5.49 33 20:18 28.07.2022
859 Clouds 18 1019 63 10000 5.49 33 19:40 28.07.2022
860 Clouds 20 1019 55 10000 5.48 38 18:20 28.07.2022
861 Clouds 20 1019 60 10000 5.48 38 17:36 28.07.2022
862 Clouds 20 1019 60 10000 5.43 35 16:41 28.07.2022
863 Clouds 19 1020 61 10000 4.93 28 14:30 28.07.2022
864 Clouds 18 1020 67 10000 3.5 28 12:41 28.07.2022
865 Clouds 15 1021 82 10000 2.62 31 09:25 28.07.2022
866 Clouds 12 1020 86 10000 1.11 9 05:45 28.07.2022
867 Clouds 12 1020 86 10000 1.28 9 05:24 28.07.2022
868 Clouds 13 1021 80 10000 2.74 346 00:29 28.07.2022
869 Clouds 14 1021 73 10000 3.65 352 22:25 27.07.2022
870 Clouds 16 1020 67 10000 4.66 345 20:20 27.07.2022
871 Clouds 17 1020 65 10000 4.64 345 19:32 27.07.2022
872 Clouds 19 1020 56 10000 6.14 330 16:34 27.07.2022
873 Clouds 20 1020 53 10000 6.46 325 15:51 27.07.2022
874 Clouds 19 1020 63 10000 5.97 325 14:42 27.07.2022
875 Clouds 19 1020 65 10000 5.85 325 13:58 27.07.2022
876 Clouds 19 1020 60 10000 5.43 321 12:19 27.07.2022
877 Clouds 14 1019 84 10000 3.36 321 07:53 27.07.2022
878 Clouds 12 1018 82 10000 3.46 307 05:33 27.07.2022
879 Rain 13 1018 79 10000 3.78 311 00:28 27.07.2022
880 Clouds 15 1018 76 10000 3.45 311 22:24 26.07.2022
881 Clouds 15 1018 78 10000 3.99 312 21:19 26.07.2022
882 Clouds 17 1017 70 10000 4.5 312 19:40 26.07.2022
883 Clouds 18 1017 66 10000 5.55 312 18:41 26.07.2022
884 Clouds 18 1017 66 10000 5.8 314 17:57 26.07.2022
885 Clouds 19 1017 62 10000 6 318 15:50 26.07.2022
886 Clouds 19 1017 64 10000 6.58 319 14:49 26.07.2022
887 Clouds 19 1016 64 10000 7.03 317 12:50 26.07.2022
888 Clouds 18 1015 72 10000 5.38 323 10:58 26.07.2022
889 Clouds 16 1013 85 10000 5.25 333 08:43 26.07.2022
890 Clouds 16 1012 88 10000 4.16 314 05:49 26.07.2022
891 Clouds 18 1009 82 10000 4.89 240 00:27 26.07.2022
892 Clouds 19 1009 78 10000 5.51 247 22:53 25.07.2022
893 Clouds 20 1009 76 10000 6.3 253 22:22 25.07.2022
894 Clouds 20 1009 74 10000 6.3 253 21:38 25.07.2022
895 Clouds 21 1008 72 10000 6.87 257 20:40 25.07.2022
896 Clouds 22 1007 68 10000 7.48 270 19:27 25.07.2022
897 Clouds 23 1007 64 10000 7.89 268 18:18 25.07.2022
898 Clouds 23 1007 62 10000 7.5 261 17:27 25.07.2022
899 Clouds 23 1007 74 10000 5.79 242 14:44 25.07.2022
900 Clouds 25 1007 65 10000 6.14 243 12:21 25.07.2022
901 Clouds 26 1006 68 10000 4.85 240 09:50 25.07.2022
902 Clouds 20 1010 74 10000 2.7 195 04:25 25.07.2022
903 Clouds 21 1012 74 10000 4.57 138 23:54 24.07.2022
904 Clouds 21 1013 74 10000 4.07 134 22:59 24.07.2022
905 Clouds 22 1013 72 10000 3.45 121 22:29 24.07.2022
906 Clouds 24 1013 65 10000 2.35 103 21:23 24.07.2022
907 Clouds 25 1013 65 10000 2.34 103 20:50 24.07.2022
908 Clouds 27 1013 58 10000 1.39 26 20:26 24.07.2022
909 Clouds 28 1014 53 10000 1.91 283 18:46 24.07.2022
910 Clouds 28 1015 47 10000 5.41 251 16:29 24.07.2022
911 Clouds 28 1015 50 10000 5.41 251 15:50 24.07.2022
912 Clouds 27 1015 53 10000 5.27 235 14:35 24.07.2022
913 Clouds 26 1017 59 10000 6.83 232 12:54 24.07.2022
914 Clouds 25 1017 59 10000 6.42 222 11:40 24.07.2022
915 Clouds 24 1017 62 10000 6.32 218 11:18 24.07.2022
916 Clouds 20 1017 75 10000 5.72 198 08:48 24.07.2022
917 Clouds 16 1018 85 10000 4.7 185 07:52 24.07.2022
918 Clouds 14 1018 87 10000 3.62 170 06:18 24.07.2022
919 Clouds 14 1020 83 10000 3.14 138 01:27 24.07.2022
920 Clouds 16 1020 79 10000 2.06 58 22:25 23.07.2022
921 Clouds 19 1020 74 10000 1.92 14 20:31 23.07.2022
922 Clear 20 1019 61 10000 3.53 328 18:51 23.07.2022
923 Clear 21 1019 58 10000 4.29 322 17:41 23.07.2022
924 Clear 20 1019 57 10000 4.9 319 17:23 23.07.2022
925 Clear 20 1019 67 10000 5.32 314 15:32 23.07.2022
926 Clear 20 1019 68 10000 5.34 310 14:59 23.07.2022
927 Clouds 20 1019 68 10000 5.14 306 14:35 23.07.2022
928 Clouds 20 1019 66 10000 4.94 309 13:39 23.07.2022
929 Clouds 18 1019 65 10000 4.52 305 11:19 23.07.2022
930 Clouds 18 1018 67 10000 4.27 296 10:23 23.07.2022
931 Clouds 16 1018 81 10000 3.49 292 08:55 23.07.2022
932 Clouds 14 1018 86 10000 2.49 274 03:40 23.07.2022
933 Clouds 14 1018 84 10000 2.49 280 02:30 23.07.2022
934 Clouds 15 1018 80 10000 2.1 311 23:39 22.07.2022
935 Clouds 16 1019 77 10000 2.19 322 20:57 22.07.2022
936 Clouds 17 1019 75 10000 2.61 321 19:47 22.07.2022
937 Clouds 18 1019 73 10000 2.92 321 18:36 22.07.2022
938 Clouds 18 1019 71 10000 3.13 313 17:37 22.07.2022
939 Clouds 18 1020 72 10000 3.78 314 15:26 22.07.2022
940 Clouds 18 1020 71 10000 4.25 303 12:23 22.07.2022
941 Clouds 16 1020 76 10000 4.18 298 09:45 22.07.2022
942 Clouds 16 1020 77 10000 3.79 306 09:19 22.07.2022
943 Clouds 15 1019 81 10000 4.03 308 07:23 22.07.2022
944 Clouds 15 1019 88 10000 4.84 320 04:18 22.07.2022
945 Rain 16 1018 92 10000 5.5 341 22:56 21.07.2022
946 Rain 17 1018 91 10000 5.87 348 21:37 21.07.2022
947 Clouds 19 1016 88 10000 5.03 339 19:35 21.07.2022
948 Clouds 21 1016 88 10000 2.66 272 18:29 21.07.2022
949 Clouds 20 1016 89 10000 2.63 245 17:20 21.07.2022
950 Rain 21 1016 88 10000 3.22 242 15:49 21.07.2022
951 Clouds 21 1016 83 10000 3.66 250 14:46 21.07.2022
952 Clouds 21 1016 89 10000 4.42 227 13:22 21.07.2022
953 Clouds 20 1016 83 6701 4.21 213 11:48 21.07.2022
954 Clouds 19 1016 92 10000 3.16 179 09:51 21.07.2022
955 Clouds 19 1016 92 10000 2.34 198 08:53 21.07.2022
956 Clouds 18 1016 92 10000 2.4 232 07:50 21.07.2022
957 Rain 18 1016 91 5159 2.26 221 06:26 21.07.2022
958 Clouds 19 1017 80 10000 2.92 219 02:35 21.07.2022
959 Clouds 21 1016 85 10000 3.64 299 22:46 20.07.2022
960 Clear 21 1016 83 10000 4.23 314 22:18 20.07.2022
961 Clear 23 1016 77 10000 4.08 311 20:46 20.07.2022
962 Clouds 27 1016 59 10000 4.74 298 19:46 20.07.2022
963 Clouds 29 1016 53 10000 5.58 296 18:54 20.07.2022
964 Clouds 29 1016 53 10000 5.58 296 18:31 20.07.2022
965 Clear 32 1017 45 10000 6.16 287 17:25 20.07.2022
966 Clear 31 1016 46 10000 6.64 300 15:33 20.07.2022
967 Clear 31 1016 48 10000 5.11 285 14:49 20.07.2022
968 Clear 31 1015 50 10000 3.7 271 12:54 20.07.2022
969 Clear 30 1015 47 10000 4.72 227 10:59 20.07.2022
970 Clear 21 1013 59 10000 4.07 160 06:35 20.07.2022
971 Clear 24 1014 45 10000 4.33 131 01:47 20.07.2022
972 Clear 23 1014 37 10000 4.63 128 00:42 20.07.2022
973 Clear 26 1014 39 10000 4.94 113 22:37 19.07.2022
974 Clear 27 1014 48 10000 4.62 105 22:18 19.07.2022
975 Clear 28 1014 42 10000 4.45 100 20:50 19.07.2022
976 Clear 31 1014 38 10000 4.15 95 19:37 19.07.2022
977 Clear 34 1015 31 10000 3.44 108 18:42 19.07.2022
978 Clear 36 1015 25 10000 3.35 128 17:55 19.07.2022
979 Clear 36 1016 25 10000 3.04 154 15:49 19.07.2022
980 Clouds 34 1017 38 10000 2.98 156 13:51 19.07.2022
981 Clouds 31 1018 42 10000 3.02 153 11:34 19.07.2022
982 Clouds 28 1019 42 10000 2.71 149 09:54 19.07.2022
983 Clouds 24 1019 62 10000 2.45 154 08:48 19.07.2022
984 Clouds 23 1019 63 10000 2.28 147 08:21 19.07.2022
985 Clouds 19 1019 70 10000 2.76 145 07:18 19.07.2022
986 Clouds 17 1019 79 10000 2.5 141 05:23 19.07.2022
987 Clouds 17 1019 81 10000 2.5 141 04:41 19.07.2022
988 Clear 18 1019 74 10000 2.31 108 00:31 19.07.2022
989 Clouds 19 1020 80 10000 1.71 62 23:21 18.07.2022
990 Clouds 20 1020 77 10000 1.71 62 22:55 18.07.2022
991 Clouds 22 1020 58 10000 1.5 46 21:50 18.07.2022
992 Clouds 24 1019 54 10000 1.21 29 20:50 18.07.2022
993 Clouds 28 1019 51 10000 0.14 103 19:24 18.07.2022
994 Clouds 30 1020 34 10000 1.61 239 16:52 18.07.2022
995 Clouds 28 1021 34 10000 2.37 245 15:42 18.07.2022
996 Clouds 28 1022 41 10000 3.21 230 13:45 18.07.2022
997 Clouds 26 1022 47 10000 3.33 220 12:38 18.07.2022
998 Clouds 24 1023 55 10000 3.72 200 10:37 18.07.2022
999 Clouds 19 1023 71 10000 3.46 182 08:50 18.07.2022
1000 Clouds 15 1023 79 10000 3.36 171 06:58 18.07.2022
1001 Clouds 16 1025 81 10000 2.52 157 00:36 18.07.2022
1002 Clouds 16 1025 73 10000 1.8 149 22:34 17.07.2022
1003 Clouds 17 1026 71 10000 1.12 106 21:47 17.07.2022
1004 Clouds 19 1026 68 10000 1.23 26 21:18 17.07.2022
1005 Clouds 22 1026 68 10000 1.23 26 20:37 17.07.2022
1006 Clouds 22 1025 57 10000 1.79 10 19:29 17.07.2022
1007 Clouds 23 1026 55 10000 2.64 339 18:27 17.07.2022
1008 Clouds 23 1026 55 10000 2.64 339 17:38 17.07.2022
1009 Clouds 23 1026 53 10000 3.11 327 16:51 17.07.2022
1010 Clouds 23 1026 53 10000 3.11 327 16:51 17.07.2022
1011 Clouds 23 1027 51 10000 3.4 314 16:26 17.07.2022
1012 Clouds 22 1027 59 10000 3.29 306 14:44 17.07.2022
1013 Clouds 21 1027 61 10000 3.18 296 13:31 17.07.2022
1014 Clouds 20 1027 64 10000 2.96 297 11:41 17.07.2022
1015 Clouds 16 1027 77 10000 2.68 285 09:24 17.07.2022
1016 Clouds 10 1027 87 10000 2.52 264 05:25 17.07.2022
1017 Clouds 11 1027 83 10000 1.98 278 02:32 17.07.2022
1018 Clouds 12 1026 76 10000 2.83 308 23:20 16.07.2022
1019 Clouds 15 1026 73 10000 3.07 311 21:32 16.07.2022
1020 Clouds 17 1026 65 10000 4.38 322 19:40 16.07.2022
1021 Clouds 18 1025 56 10000 5.82 322 18:35 16.07.2022
1022 Clouds 19 1025 55 10000 6.23 321 16:53 16.07.2022
1023 Clouds 19 1024 61 10000 6.65 319 14:31 16.07.2022
1024 Clouds 17 1023 64 10000 6.92 323 11:38 16.07.2022
1025 Clear 17 1022 67 10000 7.29 327 09:35 16.07.2022
1026 Clear 16 1021 71 10000 6.99 329 08:48 16.07.2022
1027 Clouds 16 1021 71 10000 6.06 329 08:29 16.07.2022
1028 Clouds 14 1019 90 10000 4.78 314 04:28 16.07.2022
1029 Clouds 15 1019 89 10000 5.13 302 03:29 16.07.2022
1030 Rain 15 1019 84 10000 4.96 255 23:38 15.07.2022
1031 Clouds 16 1019 75 10000 5.09 261 22:43 15.07.2022
1032 Clouds 17 1020 76 10000 4.6 286 21:29 15.07.2022
1033 Clouds 17 1020 77 10000 4.6 286 20:31 15.07.2022
1034 Clouds 18 1019 68 10000 6.92 283 18:44 15.07.2022
1035 Clouds 19 1020 71 10000 6 282 17:48 15.07.2022
1036 Clouds 17 1021 75 10000 5.6 300 14:57 15.07.2022
1037 Clouds 18 1021 66 10000 5.27 297 13:22 15.07.2022
1038 Clouds 17 1022 67 10000 5.37 297 11:48 15.07.2022
1039 Clouds 17 1022 72 10000 5.57 306 10:42 15.07.2022
1040 Clouds 14 1021 83 10000 5.18 310 07:43 15.07.2022
1041 Clouds 13 1020 81 10000 5.53 312 02:39 15.07.2022
1042 Clear 12 1021 81 10000 4.28 305 00:38 15.07.2022
1043 Clear 14 1020 78 10000 4.08 318 22:54 14.07.2022
1044 Clear 15 1020 80 10000 4.18 321 21:57 14.07.2022
1045 Clear 15 1020 79 10000 4.18 321 21:32 14.07.2022
1046 Clear 16 1020 76 10000 4.66 328 20:57 14.07.2022
1047 Clear 16 1020 75 10000 4.66 328 20:37 14.07.2022
1048 Clouds 17 1020 75 10000 5.66 323 20:18 14.07.2022
1049 Clouds 19 1019 64 10000 7.14 308 16:42 14.07.2022
1050 Clouds 20 1019 63 10000 7.58 306 16:18 14.07.2022
1051 Clouds 19 1019 63 10000 7.52 299 14:44 14.07.2022
1052 Clouds 19 1019 63 10000 7.52 299 14:44 14.07.2022
1053 Clouds 19 1019 69 10000 5.95 297 13:39 14.07.2022
1054 Clouds 19 1019 65 10000 4.93 292 12:23 14.07.2022
1055 Clouds 19 1019 68 10000 3.96 290 11:26 14.07.2022
1056 Clouds 19 1019 66 10000 3.96 290 10:51 14.07.2022
1057 Clear 17 1020 71 10000 3.13 281 08:45 14.07.2022
1058 Clouds 12 1020 87 10000 1.62 297 04:18 14.07.2022
1059 Clouds 12 1021 83 10000 2.68 330 01:18 14.07.2022
1060 Clouds 13 1021 82 10000 2.68 330 00:50 14.07.2022
1061 Clouds 15 1021 78 10000 3.1 334 22:30 13.07.2022
1062 Clouds 16 1021 75 10000 3.31 336 21:38 13.07.2022
1063 Clouds 18 1021 72 10000 4.01 337 20:38 13.07.2022
1064 Clouds 21 1020 65 10000 6.29 319 18:26 13.07.2022
1065 Clouds 22 1020 65 10000 6.29 319 17:31 13.07.2022
1066 Clear 23 1019 64 10000 6.4 316 16:19 13.07.2022
1067 Clouds 26 1019 62 10000 7.05 309 13:57 13.07.2022
1068 Clouds 26 1018 56 10000 6.58 297 11:36 13.07.2022
1069 Clouds 25 1017 70 10000 5.59 293 10:44 13.07.2022
1070 Clouds 23 1017 75 10000 4.94 277 09:49 13.07.2022
1071 Clouds 22 1017 77 10000 4.23 248 09:20 13.07.2022
1072 Clouds 19 1018 80 10000 3.32 199 05:22 13.07.2022
1073 Clouds 19 1021 80 10000 2.99 224 01:21 13.07.2022
1074 Clouds 20 1021 77 10000 3.13 171 23:21 12.07.2022
1075 Clouds 22 1022 74 10000 1.99 177 21:49 12.07.2022
1076 Clouds 23 1022 69 10000 0.9 282 20:57 12.07.2022
1077 Clouds 23 1022 68 10000 0.9 282 20:37 12.07.2022
1078 Clouds 25 1022 60 10000 2.58 302 18:53 12.07.2022
1079 Clouds 25 1023 58 10000 2.8 285 17:32 12.07.2022
1080 Clouds 26 1023 55 10000 3.69 242 15:42 12.07.2022
1081 Clouds 24 1024 70 10000 3.3 229 13:55 12.07.2022
1082 Clouds 22 1024 76 10000 3.28 220 11:59 12.07.2022
1083 Clouds 20 1024 79 10000 2.99 209 10:51 12.07.2022
1084 Clouds 16 1025 91 10000 2.6 194 09:22 12.07.2022
1085 Clouds 15 1025 91 10000 2.12 195 08:18 12.07.2022
1086 Clouds 14 1024 90 10000 1.96 199 06:24 12.07.2022
1087 Clouds 14 1024 90 10000 1.96 199 05:39 12.07.2022
1088 Clouds 15 1024 89 10000 1.01 215 01:57 12.07.2022
1089 Clouds 15 1024 89 10000 1.01 215 01:57 12.07.2022
1090 Clouds 16 1024 88 10000 1.22 7 23:18 11.07.2022
1091 Clouds 16 1024 87 10000 2.06 352 22:30 11.07.2022
1092 Clouds 17 1024 85 10000 2.72 342 20:33 11.07.2022
1093 Clouds 17 1024 84 10000 3.68 337 19:36 11.07.2022
1094 Clouds 18 1024 82 10000 4.27 332 18:32 11.07.2022
1095 Clouds 19 1023 81 10000 4.47 332 17:46 11.07.2022
1096 Clouds 18 1023 81 10000 4.63 328 16:19 11.07.2022
1097 Clouds 18 1024 80 10000 4.98 328 14:38 11.07.2022
1098 Clouds 17 1023 85 10000 4.99 332 11:58 11.07.2022
1099 Clouds 17 1023 87 10000 4.92 337 10:35 11.07.2022
1100 Clouds 16 1023 89 10000 5 335 09:43 11.07.2022
1101 Clouds 16 1023 92 10000 5.06 333 08:34 11.07.2022
1102 Clouds 15 1022 92 10000 4.64 329 06:44 11.07.2022
1103 Clouds 15 1023 88 10000 3.13 318 00:22 11.07.2022
1104 Clouds 15 1023 87 10000 3.14 317 23:28 10.07.2022
1105 Clouds 16 1023 84 10000 3.33 324 21:55 10.07.2022
1106 Clouds 16 1023 83 10000 3.83 320 20:54 10.07.2022
1107 Clouds 16 1023 80 10000 4.27 317 19:50 10.07.2022
1108 Clouds 16 1023 79 10000 4.74 320 18:53 10.07.2022
1109 Clouds 16 1023 83 10000 5.75 320 17:41 10.07.2022
1110 Clouds 16 1023 85 10000 5.7 317 16:58 10.07.2022
1111 Clouds 16 1024 87 10000 6.3 318 16:20 10.07.2022
1112 Clouds 17 1024 88 10000 6.71 317 14:33 10.07.2022
1113 Rain 16 1024 85 10000 6.38 322 12:38 10.07.2022
1114 Clouds 16 1024 79 10000 6.11 324 11:34 10.07.2022
1115 Rain 16 1024 78 10000 6.62 324 09:28 10.07.2022
1116 Clouds 15 1024 81 10000 6.63 324 08:38 10.07.2022
1117 Clouds 14 1024 78 10000 6.97 323 06:32 10.07.2022
1118 Clouds 14 1025 78 10000 6.32 318 23:35 09.07.2022
1119 Clouds 15 1025 76 10000 6.76 325 22:26 09.07.2022
1120 Clouds 15 1025 73 10000 6.76 325 21:40 09.07.2022
1121 Clouds 16 1025 71 10000 7.19 325 19:37 09.07.2022
1122 Clouds 17 1025 71 10000 8.2 322 18:25 09.07.2022
1123 Clouds 18 1025 71 10000 8.16 324 17:21 09.07.2022
1124 Clouds 19 1026 66 10000 8.41 327 15:58 09.07.2022
1125 Clouds 19 1026 64 10000 8.41 327 15:38 09.07.2022
1126 Clouds 19 1025 67 10000 7.86 330 14:21 09.07.2022
1127 Clouds 19 1025 69 10000 7.86 330 13:47 09.07.2022
1128 Clouds 19 1025 76 10000 7.41 338 11:45 09.07.2022
1129 Clouds 19 1024 81 10000 6.01 302 10:26 09.07.2022
1130 Clouds 18 1024 86 10000 6.01 302 09:38 09.07.2022
1131 Clouds 16 1025 91 10000 4.75 277 07:44 09.07.2022
1132 Clouds 15 1025 91 10000 4.04 274 04:41 09.07.2022
1133 Clouds 15 1027 87 10000 2.98 291 23:43 08.07.2022
1134 Clouds 16 1028 86 10000 3.04 303 22:33 08.07.2022
1135 Clouds 17 1028 82 10000 3.82 315 21:27 08.07.2022
1136 Clouds 18 1028 79 10000 3.82 315 20:38 08.07.2022
1137 Clouds 20 1028 77 10000 4.83 316 19:38 08.07.2022
1138 Clouds 21 1028 69 10000 5.87 310 17:50 08.07.2022
1139 Clouds 21 1028 75 10000 6.25 310 16:33 08.07.2022
1140 Clouds 21 1028 74 10000 6.49 303 14:50 08.07.2022
1141 Clouds 19 1029 75 10000 5.85 294 12:42 08.07.2022
1142 Clouds 17 1029 79 10000 5.16 301 11:24 08.07.2022
1143 Clouds 17 1029 81 10000 4.9 306 10:21 08.07.2022
1144 Clouds 16 1028 84 10000 5.53 318 08:24 08.07.2022
1145 Clouds 14 1028 87 10000 4.46 308 06:47 08.07.2022
1146 Clear 14 1027 77 10000 5.49 328 01:19 08.07.2022
1147 Clear 15 1026 74 10000 6.43 332 22:57 07.07.2022
1148 Clear 15 1026 77 10000 6.98 332 21:57 07.07.2022
1149 Clouds 15 1024 74 10000 8.12 331 19:47 07.07.2022
1150 Clouds 16 1024 75 10000 8.68 329 18:18 07.07.2022
1151 Clouds 17 1023 73 10000 8.59 330 16:43 07.07.2022
1152 Clouds 17 1021 75 10000 9.67 333 14:32 07.07.2022
1153 Clouds 16 1020 81 10000 9.6 337 12:53 07.07.2022
1154 Clouds 16 1019 84 10000 8.92 340 12:23 07.07.2022
1155 Clouds 17 1019 86 10000 8.92 340 11:35 07.07.2022
1156 Clouds 16 1018 86 10000 8.21 330 10:47 07.07.2022
1157 Clouds 16 1017 84 10000 7.97 325 10:29 07.07.2022
1158 Clouds 16 1017 83 10000 7.97 325 09:52 07.07.2022
1159 Rain 15 1015 93 10000 8.97 299 06:32 07.07.2022
1160 Clouds 16 1017 92 10000 7.46 251 00:32 07.07.2022
1161 Clouds 15 1017 92 10000 6.68 239 23:36 06.07.2022
1162 Clouds 15 1018 92 10000 6.64 245 23:18 06.07.2022
1163 Rain 15 1018 92 10000 6.64 245 22:52 06.07.2022
1164 Rain 15 1018 92 10000 6.64 245 22:34 06.07.2022
1165 Rain 15 1019 89 10000 6.11 254 20:33 06.07.2022
1166 Rain 16 1020 85 10000 6.06 251 19:33 06.07.2022
1167 Clouds 18 1021 68 10000 6.58 270 17:22 06.07.2022
1168 Clouds 18 1021 68 10000 6.58 270 17:22 06.07.2022
1169 Clouds 20 1022 60 10000 5.76 279 15:58 06.07.2022
1170 Clouds 19 1024 62 10000 5.8 282 13:21 06.07.2022
1171 Clouds 18 1024 67 10000 5.8 282 12:30 06.07.2022
1172 Clouds 18 1024 67 10000 5.8 282 12:30 06.07.2022
1173 Clouds 17 1024 65 10000 5.42 284 11:44 06.07.2022
1174 Clouds 16 1024 71 10000 5.36 294 10:18 06.07.2022
1175 Clouds 14 1023 83 10000 4.42 291 07:44 06.07.2022
1176 Clouds 13 1023 83 10000 3.68 283 07:19 06.07.2022
1177 Clouds 13 1023 85 10000 3.46 299 01:20 06.07.2022
1178 Clouds 14 1023 81 10000 3.6 303 22:44 05.07.2022
1179 Clouds 16 1022 74 10000 4.07 293 21:32 05.07.2022
1180 Clouds 16 1022 74 10000 4.07 293 21:32 05.07.2022
1181 Clouds 17 1022 71 10000 5.26 290 20:38 05.07.2022
1182 Clouds 17 1022 67 10000 5.55 295 19:41 05.07.2022
1183 Clouds 18 1021 63 10000 6.68 292 18:26 05.07.2022
1184 Clouds 18 1021 65 10000 6.68 292 17:41 05.07.2022
1185 Clouds 19 1021 61 10000 7.1 290 16:39 05.07.2022
1186 Clouds 19 1021 66 10000 7.3 292 15:24 05.07.2022
1187 Clouds 19 1021 71 10000 6.24 281 13:47 05.07.2022
1188 Clouds 19 1021 66 10000 5.87 279 12:42 05.07.2022
1189 Clouds 19 1021 65 10000 6.04 267 10:46 05.07.2022
1190 Clouds 18 1021 66 10000 5.96 260 10:25 05.07.2022
1191 Clouds 16 1020 77 10000 4.27 234 08:25 05.07.2022
1192 Clouds 15 1020 81 10000 4.84 236 07:31 05.07.2022
1193 Clouds 12 1020 87 10000 3.9 235 04:46 05.07.2022
1194 Clouds 12 1020 87 10000 3.83 241 04:20 05.07.2022
1195 Clouds 15 1019 79 10000 3.78 250 23:42 04.07.2022
1196 Clouds 15 1019 76 10000 3.54 255 22:59 04.07.2022
1197 Clear 15 1019 75 10000 3.55 268 22:20 04.07.2022
1198 Clear 17 1019 71 10000 4.31 279 21:20 04.07.2022
1199 Clear 17 1019 75 10000 4.31 279 20:51 04.07.2022
1200 Clear 18 1019 75 10000 4.31 279 20:33 04.07.2022
1201 Clouds 19 1019 60 10000 5.04 288 19:51 04.07.2022
1202 Clouds 19 1019 60 10000 5.04 288 19:33 04.07.2022
1203 Clouds 21 1019 60 10000 7.01 280 17:42 04.07.2022
1204 Clouds 21 1019 58 10000 7.13 281 15:44 04.07.2022
1205 Clouds 22 1018 55 10000 6.81 278 14:42 04.07.2022
1206 Clouds 21 1019 61 10000 6 270 13:27 04.07.2022
1207 Clouds 19 1019 65 10000 5.36 257 12:20 04.07.2022
1208 Clouds 18 1019 78 10000 6.31 254 10:33 04.07.2022
1209 Clouds 19 1019 75 10000 5.84 238 09:40 04.07.2022
1210 Clouds 13 1018 91 10000 3.62 220 06:53 04.07.2022
1211 Clear 12 1018 89 10000 3.76 250 03:35 04.07.2022
1212 Clouds 13 1018 87 10000 3.25 268 00:30 04.07.2022
1213 Clouds 15 1018 85 10000 3.28 287 22:58 03.07.2022
1214 Clouds 17 1017 86 10000 3.06 293 20:51 03.07.2022
1215 Clouds 17 1017 85 10000 3.58 312 20:25 03.07.2022
1216 Clouds 17 1017 85 10000 4.4 315 19:26 03.07.2022
1217 Clouds 17 1017 87 10000 4.4 315 18:32 03.07.2022
1218 Rain 17 1017 88 10000 4.7 298 17:43 03.07.2022
1219 Clouds 21 1017 75 10000 4.87 284 15:49 03.07.2022
1220 Clouds 22 1017 73 10000 4.92 269 14:58 03.07.2022
1221 Clouds 24 1017 59 10000 4.64 254 13:59 03.07.2022
1222 Clouds 23 1017 56 10000 3.91 245 13:33 03.07.2022
1223 Clouds 24 1017 55 10000 4.68 249 12:32 03.07.2022
1224 Clouds 22 1017 63 10000 3.93 239 11:20 03.07.2022
1225 Clouds 21 1017 66 10000 3.93 239 10:38 03.07.2022
1226 Clouds 21 1017 68 10000 3.38 248 09:31 03.07.2022
1227 Clouds 16 1017 83 10000 3.29 247 07:34 03.07.2022
1228 Clouds 17 1017 76 10000 2.41 155 01:42 03.07.2022
1229 Clouds 17 1018 77 10000 2.5 97 00:20 03.07.2022
1230 Rain 17 1018 74 10000 2.96 74 22:33 02.07.2022
1231 Clouds 19 1018 69 10000 3.66 40 20:50 02.07.2022
1232 Clouds 23 1019 68 10000 3.18 26 19:52 02.07.2022
1233 Clouds 23 1019 68 10000 3.96 16 19:20 02.07.2022
1234 Clouds 23 1019 60 10000 3.05 349 17:41 02.07.2022
1235 Clouds 24 1020 55 10000 2.49 299 16:53 02.07.2022
1236 Clouds 22 1020 50 10000 4.55 237 14:31 02.07.2022
1237 Clouds 21 1021 51 10000 6.53 225 12:21 02.07.2022
1238 Clear 20 1022 58 10000 6.75 222 11:26 02.07.2022
1239 Clear 20 1022 58 10000 6.75 222 10:39 02.07.2022
1240 Clear 18 1021 71 10000 6.36 217 09:18 02.07.2022
1241 Clear 17 1021 76 10000 5.73 206 08:20 02.07.2022
1242 Clear 15 1021 81 10000 4.76 204 07:27 02.07.2022
1243 Clear 12 1021 85 10000 3.52 204 01:53 02.07.2022
1244 Clear 13 1020 80 10000 2.9 225 23:59 01.07.2022
1245 Clear 15 1020 84 10000 3 236 22:41 01.07.2022
1246 Clear 17 1019 81 10000 3.41 237 21:48 01.07.2022
1247 Clear 18 1018 68 10000 3.61 242 21:28 01.07.2022
1248 Clear 18 1018 75 10000 3.61 242 20:43 01.07.2022
1249 Clouds 20 1018 62 10000 4.45 263 19:47 01.07.2022
1250 Clouds 20 1017 60 10000 5.85 263 17:53 01.07.2022
1251 Clouds 20 1017 63 10000 5.56 261 16:22 01.07.2022
1252 Clouds 20 1016 69 10000 5.83 252 13:55 01.07.2022
1253 Clouds 19 1016 70 10000 5.05 238 12:55 01.07.2022
1254 Clouds 16 1015 83 10000 5.8 242 10:20 01.07.2022
1255 Clouds 16 1015 85 10000 5.8 242 09:47 01.07.2022
1256 Clouds 14 1013 91 10000 5.29 252 05:27 01.07.2022
1257 Clouds 16 1011 91 6233 4.89 279 01:27 01.07.2022
1258 Rain 18 1010 89 5708 6.67 287 23:26 30.06.2022
1259 Rain 19 1010 86 5708 6.67 287 22:44 30.06.2022
1260 Rain 20 1010 85 5206 4.01 271 22:26 30.06.2022
1261 Clouds 23 1010 94 5206 4.01 271 21:48 30.06.2022
1262 Clouds 25 1008 85 10000 1.69 7 20:30 30.06.2022
1263 Clouds 25 1008 75 10000 3.09 49 19:55 30.06.2022
1264 Clouds 26 1008 75 10000 3.09 49 19:32 30.06.2022
1265 Clouds 26 1009 65 10000 2.42 50 18:43 30.06.2022
1266 Rain 27 1009 70 10000 2.03 105 17:49 30.06.2022
1267 Rain 27 1010 65 10000 2.33 113 16:55 30.06.2022
1268 Clear 27 1010 64 10000 2.11 114 15:50 30.06.2022
1269 Clouds 27 1011 55 10000 2.36 142 13:50 30.06.2022
1270 Clouds 27 1012 61 10000 3.42 130 12:36 30.06.2022
1271 Clouds 26 1012 64 10000 4.25 125 11:59 30.06.2022
1272 Clouds 24 1012 70 10000 4.66 119 09:55 30.06.2022
1273 Clouds 23 1012 70 10000 4.66 119 09:37 30.06.2022
1274 Clouds 20 1012 69 10000 4.48 116 08:22 30.06.2022
1275 Clouds 20 1012 68 10000 4.35 119 07:40 30.06.2022
1276 Clouds 19 1013 70 10000 5.07 121 03:35 30.06.2022
1277 Clouds 19 1013 74 10000 2.72 113 23:38 29.06.2022
1278 Clouds 21 1013 73 10000 2.71 108 22:41 29.06.2022
1279 Clouds 21 1013 73 10000 2.88 110 21:59 29.06.2022
1280 Clouds 24 1013 76 10000 2.09 128 20:35 29.06.2022
1281 Clouds 25 1013 73 10000 1.85 151 19:56 29.06.2022
1282 Clouds 26 1013 68 10000 1.3 250 17:55 29.06.2022
1283 Clouds 26 1013 68 10000 1.3 250 17:55 29.06.2022
1284 Clouds 26 1013 68 10000 1.3 250 17:32 29.06.2022
1285 Clouds 27 1013 60 10000 2.43 144 16:23 29.06.2022
1286 Clear 27 1014 49 10000 4.42 133 13:45 29.06.2022
1287 Clear 26 1015 51 10000 4.37 130 12:38 29.06.2022
1288 Clear 22 1016 58 10000 4.52 120 09:50 29.06.2022
1289 Clear 22 1016 63 10000 4.33 119 09:26 29.06.2022
1290 Clear 15 1017 78 10000 3.33 116 06:32 29.06.2022
1291 Clear 14 1017 85 10000 3.56 111 04:44 29.06.2022
1292 Clear 15 1019 80 10000 3.7 92 00:53 29.06.2022
1293 Clear 15 1019 80 10000 3.7 92 00:34 29.06.2022
1294 Clear 15 1019 84 10000 3.41 57 22:52 28.06.2022
1295 Clouds 17 1020 81 10000 3.37 42 22:18 28.06.2022
1296 Clouds 18 1020 81 10000 3.37 42 21:49 28.06.2022
1297 Clouds 18 1019 74 10000 3.13 32 21:29 28.06.2022
1298 Clouds 22 1020 67 10000 2.49 26 19:56 28.06.2022
1299 Clouds 22 1019 69 10000 3.42 22 19:31 28.06.2022
1300 Clouds 22 1019 60 10000 2.16 20 18:40 28.06.2022
1301 Clouds 22 1020 51 10000 1.04 234 17:25 28.06.2022
1302 Clouds 23 1020 55 10000 1.84 236 15:55 28.06.2022
1303 Clouds 22 1020 58 10000 2.34 224 14:54 28.06.2022
1304 Clear 22 1020 61 10000 2.72 222 14:19 28.06.2022
1305 Clear 22 1020 65 10000 2.63 220 13:45 28.06.2022
1306 Clear 20 1020 62 10000 2.84 235 12:35 28.06.2022
1307 Clear 19 1021 73 10000 4.32 244 10:40 28.06.2022
1308 Clear 17 1021 87 10000 4.67 221 08:56 28.06.2022
1309 Clear 16 1021 91 10000 4.67 221 08:38 28.06.2022
1310 Clear 13 1020 93 10000 3.72 213 07:20 28.06.2022
1311 Clear 12 1020 92 10000 3.42 212 04:54 28.06.2022
1312 Clouds 15 1020 91 10000 3.52 238 23:56 27.06.2022
1313 Clouds 15 1019 91 10000 3.09 246 23:28 27.06.2022
1314 Clouds 15 1019 90 10000 3.09 246 22:42 27.06.2022
1315 Clouds 16 1019 90 10000 2.66 265 21:30 27.06.2022
1316 Clouds 16 1018 89 10000 3.07 275 20:34 27.06.2022
1317 Clouds 18 1017 84 10000 2.9 299 18:55 27.06.2022
1318 Clouds 17 1017 88 10000 1.88 308 17:45 27.06.2022
1319 Rain 17 1016 86 10000 1.53 350 15:51 27.06.2022
1320 Rain 17 1016 88 10000 1.85 42 14:26 27.06.2022
1321 Rain 17 1016 89 10000 0.39 62 13:24 27.06.2022
1322 Rain 17 1016 89 10000 0.39 62 12:49 27.06.2022
1323 Rain 17 1015 90 10000 1.82 18 10:22 27.06.2022
1324 Clouds 16 1015 91 10000 2.78 6 08:43 27.06.2022
1325 Clouds 16 1015 91 10000 2.75 23 07:58 27.06.2022
1326 Rain 16 1015 90 10000 2.35 29 06:38 27.06.2022
1327 Clouds 17 1016 84 10000 2.31 62 01:54 27.06.2022
1328 Clouds 18 1016 81 10000 2.14 58 23:39 26.06.2022
1329 Clouds 19 1016 74 10000 4.78 63 21:57 26.06.2022
1330 Rain 19 1016 79 10000 3.51 44 20:34 26.06.2022
1331 Clouds 20 1016 69 10000 2.66 4 19:23 26.06.2022
1332 Clouds 21 1016 69 10000 2.36 331 18:24 26.06.2022
1333 Clouds 22 1016 64 10000 2.85 281 16:21 26.06.2022
1334 Clouds 23 1016 61 10000 2.9 262 14:34 26.06.2022
1335 Clouds 22 1016 67 10000 3.79 252 13:30 26.06.2022
1336 Clouds 22 1016 67 10000 3.79 252 13:30 26.06.2022
1337 Clouds 22 1016 68 10000 4.4 248 12:52 26.06.2022
1338 Clouds 21 1015 73 10000 5.15 254 11:26 26.06.2022
1339 Clouds 20 1014 82 10000 5.92 245 10:23 26.06.2022
1340 Clouds 18 1014 87 10000 4.25 241 08:46 26.06.2022
1341 Clouds 18 1013 86 10000 4.16 242 07:30 26.06.2022
1342 Clouds 19 1012 83 10000 2.25 117 00:49 26.06.2022
1343 Clouds 19 1012 83 10000 2.83 89 00:20 26.06.2022
1344 Clouds 19 1012 84 10000 2.83 89 23:41 25.06.2022
1345 Clouds 19 1012 86 10000 2.88 74 22:55 25.06.2022
1346 Clouds 20 1012 86 10000 2.75 41 22:27 25.06.2022
1347 Clouds 20 1012 85 10000 2.75 41 21:40 25.06.2022
1348 Clouds 20 1012 85 10000 2.77 0 21:18 25.06.2022
1349 Clouds 21 1012 80 10000 2.88 337 20:27 25.06.2022
1350 Clouds 22 1011 79 10000 2.11 3 19:21 25.06.2022
1351 Clouds 23 1011 71 10000 1.49 312 17:56 25.06.2022
1352 Clouds 23 1012 79 10000 1.69 297 17:22 25.06.2022
1353 Clouds 25 1011 67 10000 3.87 255 15:26 25.06.2022
1354 Clouds 24 1011 65 10000 4.01 215 13:27 25.06.2022
1355 Clouds 24 1011 65 10000 4.01 215 12:37 25.06.2022
1356 Clouds 23 1011 72 10000 4.87 221 10:34 25.06.2022
1357 Clouds 21 1011 79 10000 4.75 213 08:58 25.06.2022
1358 Clouds 20 1011 82 10000 4.75 213 08:36 25.06.2022
1359 Clouds 18 1011 92 10000 4.17 197 07:54 25.06.2022
1360 Clouds 17 1009 90 10000 2.8 160 03:33 25.06.2022
1361 Clouds 18 1008 87 10000 3.34 131 00:35 25.06.2022
1362 Clouds 18 1008 90 10000 1.99 94 22:54 24.06.2022
1363 Clouds 19 1008 90 10000 1.81 49 21:41 24.06.2022
1364 Clouds 21 1007 83 10000 2.15 4 20:45 24.06.2022
1365 Clouds 21 1006 82 10000 2.32 348 20:18 24.06.2022
1366 Clouds 22 1006 76 10000 2.27 314 19:21 24.06.2022
1367 Clouds 22 1006 77 10000 2.27 314 18:48 24.06.2022
1368 Clouds 22 1006 78 10000 2.27 314 18:30 24.06.2022
1369 Clouds 20 1006 89 10000 2.99 306 17:20 24.06.2022
1370 Rain 18 1006 91 8667 2.09 233 15:29 24.06.2022
1371 Rain 19 1006 90 10000 2.85 242 14:27 24.06.2022
1372 Rain 20 1006 89 7459 3.58 224 13:55 24.06.2022
1373 Rain 20 1006 89 7459 3.58 224 13:55 24.06.2022
1374 Clouds 21 1006 87 10000 3.21 226 11:44 24.06.2022
1375 Clouds 21 1005 88 10000 4.47 245 11:18 24.06.2022
1376 Clouds 20 1005 88 10000 4.04 235 09:55 24.06.2022
1377 Rain 19 1005 87 10000 3.35 201 09:29 24.06.2022
1378 Rain 19 1005 81 10000 3.35 201 08:52 24.06.2022
1379 Clouds 19 1006 78 10000 3.19 145 06:48 24.06.2022
1380 Clouds 19 1006 78 10000 3.19 145 06:30 24.06.2022
1381 Clouds 18 1006 66 10000 3.61 116 05:52 24.06.2022
1382 Clear 20 1009 59 10000 4.15 118 01:28 24.06.2022
1383 Clear 22 1009 60 10000 4.62 105 22:45 23.06.2022
1384 Clear 22 1009 65 10000 4.52 99 22:18 23.06.2022
1385 Clear 28 1009 68 10000 4.4 86 20:56 23.06.2022
1386 Clear 27 1009 64 10000 4.21 84 20:32 23.06.2022
1387 Clear 29 1010 58 10000 4.63 104 18:59 23.06.2022
1388 Clear 31 1010 54 10000 4.8 103 17:50 23.06.2022
1389 Clear 31 1010 47 10000 4.37 111 16:50 23.06.2022
1390 Clear 30 1011 46 10000 4.2 123 15:43 23.06.2022
1391 Clear 29 1011 47 10000 4.12 129 15:23 23.06.2022
1392 Clouds 27 1013 51 10000 4.37 125 13:21 23.06.2022
1393 Clouds 24 1013 64 10000 4.3 114 11:23 23.06.2022
1394 Clouds 23 1013 69 10000 4.24 112 10:31 23.06.2022
1395 Clear 18 1014 78 10000 3.48 112 08:35 23.06.2022
1396 Clear 12 1014 88 10000 2.8 76 02:38 23.06.2022
1397 Clouds 14 1014 85 10000 3.02 60 00:26 23.06.2022
1398 Clouds 14 1015 83 10000 3.2 49 23:27 22.06.2022
1399 Clouds 15 1015 81 10000 3.2 49 22:39 22.06.2022
1400 Clouds 17 1014 78 10000 4.07 25 21:22 22.06.2022
1401 Clouds 18 1014 77 10000 4.07 25 20:34 22.06.2022
1402 Clouds 19 1014 75 10000 3.99 19 19:56 22.06.2022
1403 Clouds 21 1014 68 10000 3.73 17 18:40 22.06.2022
1404 Clouds 22 1013 68 10000 4.61 355 17:27 22.06.2022
1405 Clouds 22 1014 68 10000 3.87 346 16:24 22.06.2022
1406 Clouds 23 1014 59 10000 2.98 337 15:26 22.06.2022
1407 Clear 22 1014 62 10000 2.16 348 14:19 22.06.2022
1408 Clear 22 1014 68 10000 2.66 346 13:39 22.06.2022
1409 Clear 22 1014 68 10000 2.53 349 13:18 22.06.2022
1410 Clear 21 1015 66 10000 2.36 335 11:49 22.06.2022
1411 Clear 19 1014 62 10000 2.84 344 10:55 22.06.2022
1412 Clear 19 1014 67 10000 2.49 337 10:19 22.06.2022
1413 Clouds 15 1014 90 10000 1.61 341 08:28 22.06.2022
1414 Clouds 9 1014 90 10000 1.33 286 04:50 22.06.2022
1415 Clouds 11 1015 87 10000 1.38 345 01:24 22.06.2022
1416 Clouds 12 1015 85 10000 1.4 352 00:29 22.06.2022
1417 Clouds 15 1014 79 10000 2.38 2 22:19 21.06.2022
1418 Clouds 18 1014 71 10000 3.78 351 19:57 21.06.2022
1419 Clouds 19 1015 73 10000 4.27 341 18:36 21.06.2022
1420 Clouds 21 1015 70 10000 4.04 335 17:39 21.06.2022
1421 Clouds 21 1015 56 10000 3.1 317 14:42 21.06.2022
1422 Clouds 19 1016 64 10000 2.54 265 11:52 21.06.2022
1423 Clouds 17 1016 69 10000 2.06 283 10:19 21.06.2022
1424 Clouds 16 1016 73 10000 2.65 265 08:48 21.06.2022
1425 Clouds 13 1016 90 10000 2.87 252 07:35 21.06.2022
1426 Clear 11 1017 84 10000 3.45 290 02:27 21.06.2022
1427 Clear 12 1017 82 10000 3.66 302 23:27 20.06.2022
1428 Clear 14 1016 77 10000 3.92 301 21:58 20.06.2022
1429 Clear 14 1016 76 10000 3.95 302 21:31 20.06.2022
1430 Clouds 16 1016 73 10000 6.04 319 19:49 20.06.2022
1431 Clouds 16 1016 69 10000 7.19 319 18:54 20.06.2022
1432 Clouds 17 1015 69 10000 7.82 319 18:24 20.06.2022
1433 Clouds 17 1015 71 10000 7.82 319 17:40 20.06.2022
1434 Clouds 17 1015 66 10000 8.32 318 16:20 20.06.2022
1435 Clouds 18 1014 63 10000 7.94 316 14:29 20.06.2022
1436 Clouds 17 1014 70 10000 6.65 307 11:46 20.06.2022
1437 Clouds 16 1014 72 10000 6.32 311 09:48 20.06.2022
1438 Clouds 16 1013 74 10000 5.65 313 08:45 20.06.2022
1439 Clouds 13 1013 84 10000 4.77 292 07:35 20.06.2022
1440 Clouds 12 1013 81 10000 2.53 293 03:51 20.06.2022
1441 Clouds 12 1014 82 10000 2.06 290 00:52 20.06.2022
1442 Clouds 13 1014 80 10000 2.61 315 23:29 19.06.2022
1443 Rain 13 1014 76 10000 2.53 308 22:19 19.06.2022
1444 Clouds 14 1014 76 10000 2.53 308 21:42 19.06.2022
1445 Clouds 15 1013 75 10000 2.82 324 20:49 19.06.2022
1446 Clouds 15 1013 74 10000 3.02 315 19:49 19.06.2022
1447 Clouds 15 1013 74 10000 3.56 317 19:24 19.06.2022
1448 Clouds 16 1013 70 10000 3.57 317 18:32 19.06.2022
1449 Clouds 17 1013 66 10000 4.07 317 17:42 19.06.2022
1450 Clouds 17 1013 65 10000 4.65 336 17:20 19.06.2022
1451 Clouds 16 1013 70 10000 4 329 16:28 19.06.2022
1452 Clouds 15 1013 77 10000 4 329 15:35 19.06.2022
1453 Clouds 14 1013 81 10000 4.44 335 14:42 19.06.2022
1454 Clouds 15 1013 80 10000 3.43 334 13:52 19.06.2022
1455 Clouds 14 1011 78 10000 4.17 7 12:22 19.06.2022
1456 Clouds 14 1012 86 10000 3.54 13 10:53 19.06.2022
1457 Clouds 13 1012 89 10000 3.89 17 09:31 19.06.2022
1458 Clouds 13 1011 89 10000 4.91 13 08:35 19.06.2022
1459 Clouds 13 1012 88 10000 5.16 17 07:30 19.06.2022
1460 Clouds 14 1012 79 10000 4.75 19 04:33 19.06.2022
1461 Clouds 14 1015 68 10000 3.85 359 01:28 19.06.2022
1462 Clouds 14 1015 80 10000 3.47 357 00:23 19.06.2022
1463 Clouds 14 1015 78 10000 3.47 357 23:35 18.06.2022
1464 Clouds 15 1015 74 10000 3.4 4 22:36 18.06.2022
1465 Clouds 16 1015 72 10000 3.82 14 20:55 18.06.2022
1466 Clouds 17 1015 71 10000 4.36 360 20:26 18.06.2022
1467 Clouds 18 1015 59 10000 4.36 360 19:31 18.06.2022
1468 Clouds 20 1016 66 10000 5.07 346 18:44 18.06.2022
1469 Clouds 21 1017 64 10000 4.92 330 17:30 18.06.2022
1470 Clouds 21 1016 64 10000 3.78 336 16:37 18.06.2022
1471 Clouds 23 1017 64 10000 3.63 325 15:22 18.06.2022
1472 Clouds 22 1017 64 10000 3.63 325 14:42 18.06.2022
1473 Clear 23 1017 61 10000 4.46 321 13:21 18.06.2022
1474 Clear 22 1017 73 10000 4.49 315 11:34 18.06.2022
1475 Clear 22 1017 74 10000 4.61 320 10:46 18.06.2022
1476 Clear 21 1017 75 10000 4.64 328 09:20 18.06.2022
1477 Clear 21 1017 75 10000 4.64 328 09:20 18.06.2022
1478 Clear 19 1016 81 10000 4.48 328 08:19 18.06.2022
1479 Clear 17 1016 85 10000 3.18 293 06:44 18.06.2022
1480 Clear 18 1016 77 10000 4.02 239 03:24 18.06.2022
1481 Clouds 19 1017 74 10000 4.01 208 01:24 18.06.2022
1482 Clouds 19 1017 72 10000 4.01 208 00:46 18.06.2022
1483 Clouds 19 1017 71 10000 4.01 205 23:52 17.06.2022
1484 Clouds 20 1018 70 10000 3.99 193 23:20 17.06.2022
1485 Clouds 22 1018 74 10000 3.9 173 20:55 17.06.2022
1486 Clouds 25 1019 55 10000 3.68 177 19:31 17.06.2022
1487 Clouds 25 1019 61 10000 4.09 177 18:44 17.06.2022
1488 Clouds 26 1019 54 10000 4.48 179 17:43 17.06.2022
1489 Clouds 25 1020 54 10000 4.31 193 16:43 17.06.2022
1490 Clouds 24 1021 59 10000 4.29 208 15:49 17.06.2022
1491 Clouds 24 1021 57 10000 4.27 212 15:22 17.06.2022
1492 Clouds 25 1022 57 10000 5.24 209 14:20 17.06.2022
1493 Clouds 24 1022 60 10000 4.25 210 13:46 17.06.2022
1494 Clouds 23 1023 60 10000 4.72 209 13:24 17.06.2022
1495 Clouds 22 1023 63 10000 5.04 196 11:58 17.06.2022
1496 Clouds 21 1023 64 10000 5.04 196 11:36 17.06.2022
1497 Clouds 21 1023 65 10000 4.19 193 10:52 17.06.2022
1498 Clouds 17 1024 79 10000 3.16 191 08:30 17.06.2022
1499 Clouds 16 1024 79 10000 3.31 199 07:48 17.06.2022
1500 Clouds 13 1024 81 10000 2.6 187 06:22 17.06.2022
1501 Clouds 11 1024 86 10000 1.59 195 03:20 17.06.2022
1502 Clouds 12 1024 82 10000 0.53 201 00:43 17.06.2022
1503 Clouds 15 1024 77 10000 1.4 318 23:25 16.06.2022
1504 Clouds 16 1024 73 10000 1.4 318 22:31 16.06.2022
1505 Clouds 18 1024 69 10000 2.53 308 21:19 16.06.2022
1506 Clouds 18 1024 78 10000 2.53 308 20:50 16.06.2022
1507 Clouds 19 1023 77 10000 2.25 314 19:59 16.06.2022
1508 Clouds 21 1023 68 10000 3.25 319 18:48 16.06.2022
1509 Clouds 22 1023 64 10000 4.12 315 17:44 16.06.2022
1510 Clear 21 1024 61 10000 4.47 313 17:22 16.06.2022
1511 Clear 22 1024 58 10000 4.39 316 16:19 16.06.2022
1512 Clear 22 1023 57 10000 4.01 320 15:21 16.06.2022
1513 Clear 22 1023 57 10000 4.03 315 14:22 16.06.2022
1514 Clear 21 1023 57 10000 3.52 331 12:53 16.06.2022
1515 Clear 21 1023 58 10000 3.52 331 12:34 16.06.2022
1516 Clear 20 1022 58 10000 3.29 346 11:48 16.06.2022
1517 Clear 19 1022 61 10000 3.48 355 10:41 16.06.2022
1518 Clear 18 1022 62 10000 3.59 356 09:43 16.06.2022
1519 Clear 17 1022 67 10000 3.15 356 08:59 16.06.2022
1520 Clouds 14 1021 86 10000 2 1 07:41 16.06.2022
1521 Clouds 12 1021 86 10000 1.9 358 06:36 16.06.2022
1522 Clouds 11 1020 85 10000 2.27 42 04:24 16.06.2022
1523 Clouds 13 1020 80 10000 2.06 40 01:52 16.06.2022
1524 Clouds 13 1020 80 10000 2.96 39 01:29 16.06.2022
1525 Clouds 13 1021 79 10000 2.76 21 00:29 16.06.2022
1526 Clouds 14 1020 74 10000 3.02 33 22:59 15.06.2022
1527 Clouds 14 1020 81 10000 3.43 32 21:55 15.06.2022
1528 Clouds 16 1020 70 10000 3.49 26 21:20 15.06.2022
1529 Clouds 17 1020 67 10000 3.49 26 20:37 15.06.2022
1530 Clouds 18 1019 65 10000 3.83 24 20:18 15.06.2022
1531 Clouds 19 1019 68 10000 3.89 6 18:48 15.06.2022
1532 Clouds 20 1020 65 10000 3.64 8 17:54 15.06.2022
1533 Clouds 21 1020 64 10000 3.4 13 16:37 15.06.2022
1534 Clouds 21 1020 67 10000 4.08 20 15:23 15.06.2022
1535 Clouds 21 1020 57 10000 3.51 341 13:37 15.06.2022
1536 Clouds 20 1020 59 10000 2.22 347 12:53 15.06.2022
1537 Clouds 20 1020 68 10000 1.79 31 11:42 15.06.2022
1538 Clouds 18 1020 69 10000 2 37 10:23 15.06.2022
1539 Clouds 18 1020 74 10000 2 37 09:37 15.06.2022
1540 Clouds 15 1020 84 10000 1.43 56 08:27 15.06.2022
1541 Clouds 11 1020 89 10000 1.28 93 06:33 15.06.2022
1542 Clouds 11 1020 88 10000 1.48 111 03:30 15.06.2022
1543 Clouds 11 1021 87 10000 1.4 58 01:53 15.06.2022
1544 Clouds 11 1021 85 10000 1.21 53 00:50 15.06.2022
1545 Clouds 13 1021 81 10000 1.24 37 23:39 14.06.2022
1546 Clouds 14 1021 85 10000 1.49 22 22:56 14.06.2022
1547 Clouds 15 1021 76 10000 1.51 9 22:18 14.06.2022
1548 Clouds 16 1021 73 10000 1.88 347 21:28 14.06.2022
1549 Clouds 17 1021 73 10000 1.88 347 20:48 14.06.2022
1550 Clouds 17 1021 72 10000 1.92 328 20:28 14.06.2022
1551 Clouds 18 1021 67 10000 3.58 325 18:54 14.06.2022
1552 Clouds 18 1022 69 10000 4.36 319 17:39 14.06.2022
1553 Clouds 18 1022 71 10000 4.47 308 16:43 14.06.2022
1554 Clouds 19 1022 65 10000 4.36 300 15:50 14.06.2022
1555 Clouds 18 1022 70 10000 4.34 289 14:57 14.06.2022
1556 Clouds 18 1022 72 10000 4.34 289 14:30 14.06.2022
1557 Clouds 18 1022 66 10000 4.49 278 13:40 14.06.2022
1558 Clouds 18 1022 64 10000 3.76 286 12:42 14.06.2022
1559 Clouds 18 1023 64 10000 3.33 280 11:31 14.06.2022
1560 Clouds 17 1023 67 10000 3.37 274 10:47 14.06.2022
1561 Clouds 16 1023 71 10000 3.31 268 09:48 14.06.2022
1562 Clouds 15 1023 73 10000 3.09 267 08:47 14.06.2022
1563 Clouds 12 1023 85 10000 2.91 265 07:33 14.06.2022
1564 Clouds 9 1022 86 10000 3.03 268 05:21 14.06.2022
1565 Clouds 9 1023 85 10000 3.27 266 02:57 14.06.2022
1566 Clouds 10 1023 82 10000 3.33 266 00:53 14.06.2022
1567 Clouds 11 1023 80 10000 3.15 279 23:39 13.06.2022
1568 Clouds 12 1023 78 10000 3.44 298 22:26 13.06.2022
1569 Clouds 13 1023 76 10000 3.44 298 21:52 13.06.2022
1570 Clouds 14 1023 71 10000 4.11 304 20:42 13.06.2022
1571 Clouds 16 1022 67 10000 4.87 304 19:35 13.06.2022
1572 Clouds 17 1022 63 10000 5.81 306 18:31 13.06.2022
1573 Clouds 17 1022 67 10000 6.26 311 17:47 13.06.2022
1574 Clouds 17 1022 62 10000 6.61 312 16:53 13.06.2022
1575 Clouds 17 1022 64 10000 6.99 308 15:40 13.06.2022
1576 Clouds 17 1021 66 10000 7.6 309 14:47 13.06.2022
1577 Clouds 17 1021 66 10000 7.6 309 14:47 13.06.2022
1578 Clouds 17 1021 66 10000 8.43 304 13:55 13.06.2022
1579 Clouds 17 1020 67 10000 8.49 298 12:59 13.06.2022
1580 Clouds 16 1020 73 10000 8.03 297 11:37 13.06.2022
1581 Clouds 15 1019 78 10000 7.38 292 10:28 13.06.2022
1582 Clouds 15 1019 83 10000 7.38 292 09:42 13.06.2022
1583 Clouds 14 1018 82 10000 5.8 267 08:25 13.06.2022
1584 Clouds 12 1018 83 10000 4.27 250 06:34 13.06.2022
1585 Clouds 12 1018 86 10000 3.75 244 03:45 13.06.2022
1586 Clouds 12 1019 82 10000 3.72 236 01:39 13.06.2022
1587 Clouds 12 1019 81 10000 3.65 246 00:59 13.06.2022
1588 Clouds 12 1019 78 10000 3.38 251 23:33 12.06.2022
1589 Clear 14 1020 75 10000 3.52 277 22:23 12.06.2022
1590 Clear 14 1020 87 10000 3.52 277 21:41 12.06.2022
1591 Clear 16 1020 74 10000 4.44 286 20:43 12.06.2022
1592 Clouds 17 1020 69 10000 5.35 290 19:42 12.06.2022
1593 Clouds 18 1020 72 10000 6.32 292 18:46 12.06.2022
1594 Clouds 20 1020 64 10000 7.02 292 16:57 12.06.2022
1595 Clouds 21 1020 64 10000 7.27 290 15:34 12.06.2022
1596 Clouds 21 1020 55 10000 7.22 289 14:48 12.06.2022
1597 Clouds 21 1020 55 10000 7.01 281 14:18 12.06.2022
1598 Clouds 21 1020 56 10000 6.86 277 13:43 12.06.2022
1599 Clouds 20 1020 67 10000 6.45 268 11:58 12.06.2022
1600 Clouds 19 1021 67 10000 5.77 261 10:46 12.06.2022
1601 Clouds 18 1021 76 10000 5.03 258 09:36 12.06.2022
1602 Clouds 17 1021 78 10000 4.33 249 08:50 12.06.2022
1603 Clouds 15 1020 85 10000 3.88 238 07:51 12.06.2022
1604 Clouds 12 1021 86 10000 3.58 210 06:27 12.06.2022
1605 Clouds 12 1021 85 10000 3.63 203 03:44 12.06.2022
1606 Clouds 12 1021 88 10000 2.85 198 02:25 12.06.2022
1607 Clouds 12 1021 87 10000 3.15 200 01:35 12.06.2022
1608 Clouds 12 1022 85 10000 2.92 210 00:44 12.06.2022
1609 Clear 13 1022 84 10000 2.79 211 00:19 12.06.2022
1610 Clear 13 1022 80 10000 2.39 227 23:21 11.06.2022
1611 Clear 15 1022 87 10000 2.39 227 22:37 11.06.2022
1612 Clear 17 1021 73 10000 2.4 284 21:18 11.06.2022
1613 Clear 18 1021 73 10000 3.48 288 20:26 11.06.2022
1614 Clear 19 1021 76 10000 3.54 282 19:36 11.06.2022
1615 Clear 22 1021 70 10000 4.4 279 18:45 11.06.2022
1616 Clear 22 1021 64 10000 4.79 276 18:27 11.06.2022
1617 Clear 21 1021 64 10000 4.77 275 17:48 11.06.2022
1618 Clear 21 1021 60 10000 5.16 274 17:26 11.06.2022
1619 Clear 21 1021 60 10000 5.16 274 16:43 11.06.2022
1620 Clear 22 1021 59 10000 5.53 272 16:18 11.06.2022
1621 Clear 22 1021 58 10000 5.73 268 14:57 11.06.2022
1622 Clear 21 1021 55 10000 6.3 265 13:52 11.06.2022
1623 Clear 21 1021 58 10000 6.09 257 12:19 11.06.2022
1624 Clear 21 1021 58 10000 6.09 257 12:19 11.06.2022
1625 Clear 19 1020 71 10000 6.28 255 10:31 11.06.2022
1626 Clear 18 1020 74 10000 6.64 250 09:41 11.06.2022
1627 Clear 18 1020 77 10000 6.78 241 08:44 11.06.2022
1628 Clouds 15 1019 88 10000 5.16 218 06:33 11.06.2022
1629 Clouds 14 1019 87 10000 4.59 213 05:44 11.06.2022
1630 Clouds 16 1019 88 10000 3.89 206 03:31 11.06.2022
1631 Clouds 16 1019 87 10000 3.18 205 01:51 11.06.2022
1632 Clouds 16 1019 86 10000 3.15 216 01:25 11.06.2022
1633 Clouds 17 1020 82 10000 3.37 213 23:27 10.06.2022
1634 Rain 18 1020 79 10000 3 211 22:21 10.06.2022
1635 Clouds 18 1020 87 10000 3 211 21:44 10.06.2022
1636 Clouds 20 1019 85 10000 2.53 232 20:39 10.06.2022
1637 Clouds 20 1019 67 10000 2.86 254 20:19 10.06.2022
1638 Clouds 21 1019 66 10000 3.95 267 19:19 10.06.2022
1639 Clouds 21 1019 66 10000 3.95 267 18:44 10.06.2022
1640 Clouds 21 1019 65 10000 4.28 263 17:54 10.06.2022
1641 Clouds 21 1019 80 10000 5.23 253 17:22 10.06.2022
1642 Clouds 21 1019 70 10000 6 240 16:26 10.06.2022
1643 Clouds 21 1019 74 10000 6 240 15:39 10.06.2022
1644 Clouds 20 1020 80 10000 6.12 219 14:24 10.06.2022
1645 Clouds 18 1020 80 10000 5.95 208 12:58 10.06.2022
1646 Clouds 18 1020 83 10000 5.04 198 11:59 10.06.2022
1647 Clouds 17 1020 82 10000 5.56 206 10:46 10.06.2022
1648 Clouds 17 1020 83 10000 5.11 203 09:57 10.06.2022
1649 Clouds 16 1020 80 10000 5.83 206 08:48 10.06.2022
1650 Clear 14 1020 86 10000 5.39 205 07:41 10.06.2022
1651 Clear 12 1020 88 10000 4.27 199 06:46 10.06.2022
1652 Clear 10 1020 88 10000 3.83 197 06:27 10.06.2022
1653 Clear 10 1019 87 10000 3.81 194 04:52 10.06.2022
1654 Clear 10 1019 87 10000 3.41 222 01:59 10.06.2022
1655 Clear 11 1019 87 10000 3.41 222 01:36 10.06.2022
1656 Clear 11 1019 87 10000 3.41 222 01:36 10.06.2022
1657 Clear 12 1019 83 10000 3.24 244 23:57 09.06.2022
1658 Clear 13 1018 90 10000 3.56 255 22:24 09.06.2022
1659 Clear 14 1018 90 10000 3.56 255 21:43 09.06.2022
1660 Clear 16 1017 71 10000 3.65 266 21:24 09.06.2022
1661 Clear 16 1017 85 10000 3.65 266 20:36 09.06.2022
1662 Clear 17 1017 68 10000 4.52 277 19:43 09.06.2022
1663 Clear 19 1016 75 10000 5.46 283 18:37 09.06.2022
1664 Clear 19 1016 70 10000 6.41 284 17:31 09.06.2022
1665 Clear 20 1014 68 10000 7.07 285 16:28 09.06.2022
1666 Clouds 20 1014 65 10000 7.49 285 14:52 09.06.2022
1667 Clouds 20 1013 64 10000 7.43 285 14:27 09.06.2022
1668 Clouds 20 1013 68 10000 7.24 286 13:30 09.06.2022
1669 Clouds 19 1012 69 10000 6.93 285 12:55 09.06.2022
1670 Clouds 19 1011 75 10000 6.36 284 11:33 09.06.2022
1671 Clouds 16 1010 90 10000 6.47 282 09:55 09.06.2022
1672 Clouds 16 1010 90 10000 6.47 282 09:55 09.06.2022
1673 Clouds 15 1010 92 10000 6.47 282 09:37 09.06.2022
1674 Clouds 14 1009 93 10000 6.01 280 08:33 09.06.2022
1675 Clouds 14 1007 93 10000 3.32 245 07:29 09.06.2022
1676 Clouds 14 1006 93 10000 3.06 201 03:31 09.06.2022
1677 Clouds 14 1005 92 10000 2.55 177 00:35 09.06.2022
1678 Rain 14 1005 92 10000 2.49 188 23:18 08.06.2022
1679 Rain 15 1005 91 10000 2.49 188 22:43 08.06.2022
1680 Rain 15 1005 91 8854 2.12 195 22:23 08.06.2022
1681 Rain 15 1005 91 8854 2.12 195 21:33 08.06.2022
1682 Rain 15 1005 90 10000 2.36 244 20:25 08.06.2022
1683 Rain 16 1005 90 10000 1.84 256 19:42 08.06.2022
1684 Rain 16 1005 89 10000 3.49 274 18:48 08.06.2022
1685 Rain 16 1005 89 10000 5.24 249 17:46 08.06.2022
1686 Rain 18 1005 86 10000 5.97 216 15:56 08.06.2022
1687 Clouds 21 1005 68 9260 5.62 202 14:44 08.06.2022
1688 Clouds 20 1006 82 10000 4.38 167 12:55 08.06.2022
1689 Clouds 20 1006 82 10000 4.38 167 12:55 08.06.2022
1690 Clouds 20 1006 82 10000 4.38 167 12:55 08.06.2022
1691 Clouds 19 1006 75 10000 4.93 172 11:41 08.06.2022
1692 Clouds 19 1007 76 10000 3.96 170 11:19 08.06.2022
1693 Clouds 18 1007 83 10000 3.79 176 09:45 08.06.2022
1694 Clouds 16 1008 90 10000 3.54 181 09:18 08.06.2022
1695 Clear 12 1008 93 10000 2.99 181 07:22 08.06.2022
1696 Clear 9 1009 90 10000 2.7 201 04:49 08.06.2022
1697 Clouds 10 1010 88 10000 3.09 230 02:19 08.06.2022
1698 Clouds 12 1010 85 10000 3.43 241 23:41 07.06.2022
1699 Clouds 12 1011 85 10000 3.41 250 23:22 07.06.2022
1700 Clouds 13 1011 83 10000 3.41 250 22:38 07.06.2022
1701 Clouds 14 1011 80 10000 3.43 258 21:41 07.06.2022
1702 Clouds 14 1010 80 10000 4.08 265 21:23 07.06.2022
1703 Clouds 15 1010 79 10000 4.08 265 20:42 07.06.2022
1704 Clouds 15 1010 78 10000 5.26 269 19:59 07.06.2022
1705 Clouds 15 1010 76 10000 6.01 271 18:42 07.06.2022
1706 Clouds 16 1010 75 10000 7.03 271 17:51 07.06.2022
1707 Clouds 16 1010 74 10000 7.6 271 16:54 07.06.2022
1708 Clouds 16 1010 73 10000 7.6 271 16:32 07.06.2022
1709 Clouds 16 1010 72 10000 7.8 266 15:40 07.06.2022
1710 Clouds 16 1010 69 10000 7.43 263 15:21 07.06.2022
1711 Clouds 15 1010 75 10000 7.43 263 14:45 07.06.2022
1712 Clouds 15 1010 78 10000 8.42 261 13:46 07.06.2022
1713 Clouds 14 1010 80 10000 8.37 251 13:26 07.06.2022
1714 Clouds 13 1009 82 10000 8.38 245 11:56 07.06.2022
1715 Clouds 13 1009 82 10000 8.38 245 11:56 07.06.2022
1716 Clouds 13 1009 86 10000 8.43 241 10:57 07.06.2022
1717 Clouds 12 1009 90 10000 8.33 237 09:46 07.06.2022
1718 Rain 12 1009 89 10000 8.8 233 08:31 07.06.2022
1719 Clouds 12 1008 89 10000 9.35 225 07:19 07.06.2022
1720 Rain 12 1008 88 10000 9.32 224 05:47 07.06.2022
1721 Clouds 12 1010 90 10000 7.6 213 01:44 07.06.2022
1722 Clouds 12 1010 90 10000 8.51 210 00:20 07.06.2022
1723 Clouds 12 1010 91 10000 8.51 210 23:32 06.06.2022
1724 Clouds 12 1010 91 10000 7.73 205 22:37 06.06.2022
1725 Rain 12 1011 91 10000 6.75 219 21:36 06.06.2022
1726 Rain 13 1011 91 10000 6.36 276 19:53 06.06.2022
1727 Rain 13 1009 91 6673 8 226 19:19 06.06.2022
1728 Rain 14 1009 90 6673 8 226 18:38 06.06.2022
1729 Rain 15 1009 89 9095 7.34 200 17:42 06.06.2022
1730 Rain 16 1010 84 5795 7.59 216 16:39 06.06.2022
1731 Clouds 18 1010 74 10000 7.78 221 15:40 06.06.2022
1732 Clouds 17 1011 69 8505 9.32 228 14:40 06.06.2022
1733 Clouds 18 1010 68 9594 9.9 220 13:27 06.06.2022
1734 Clouds 18 1010 67 9594 9.9 220 12:39 06.06.2022
1735 Clouds 18 1010 70 10000 9.68 220 12:20 06.06.2022
1736 Clouds 17 1010 75 10000 9.68 220 11:42 06.06.2022
1737 Clouds 14 1009 91 10000 8.92 226 09:41 06.06.2022
1738 Clouds 14 1009 93 10000 9.58 216 08:35 06.06.2022
1739 Clouds 14 1008 93 10000 9.29 218 07:41 06.06.2022
1740 Clouds 14 1007 93 10000 10.1 227 05:48 06.06.2022
1741 Clouds 16 1006 92 10000 6.89 193 03:47 06.06.2022
1742 Clouds 16 1007 90 9524 4.91 96 01:30 06.06.2022
1743 Clouds 16 1008 90 10000 6.42 90 00:47 06.06.2022
1744 Clouds 16 1009 89 10000 7.19 79 00:28 06.06.2022
1745 Rain 16 1010 87 10000 7.25 64 22:58 05.06.2022
1746 Clouds 16 1010 85 10000 7 64 21:56 05.06.2022
1747 Rain 18 1011 81 10000 4.81 86 20:23 05.06.2022
1748 Rain 19 1012 91 10000 4.32 116 18:51 05.06.2022
1749 Rain 21 1012 85 10000 6.06 128 17:58 05.06.2022
1750 Rain 22 1012 85 10000 6.06 128 17:38 05.06.2022
1751 Clouds 22 1012 61 10000 5.78 101 17:19 05.06.2022
1752 Clouds 23 1012 63 10000 5.79 101 16:47 05.06.2022
1753 Clouds 23 1014 64 10000 6.62 93 15:22 05.06.2022
1754 Clouds 23 1015 62 10000 6.86 94 14:18 05.06.2022
1755 Clouds 21 1017 65 10000 6.4 88 11:58 05.06.2022
1756 Clouds 20 1017 69 10000 5.94 84 10:45 05.06.2022
1757 Clouds 19 1018 71 10000 5.47 87 10:24 05.06.2022
1758 Clouds 17 1018 76 10000 5.47 87 09:33 05.06.2022
1759 Clouds 15 1019 87 10000 4.86 77 08:23 05.06.2022
1760 Clouds 11 1019 91 10000 4.29 72 06:23 05.06.2022
1761 Clouds 11 1021 91 10000 3.52 79 05:19 05.06.2022
1762 Clear 11 1021 89 10000 4.35 49 02:43 05.06.2022
1763 Clear 10 1023 88 10000 3.7 44 01:23 05.06.2022
1764 Clear 12 1022 84 10000 3.75 33 22:51 04.06.2022
1765 Clear 14 1023 79 10000 3.46 27 21:30 04.06.2022
1766 Clouds 16 1023 72 10000 4.5 27 19:36 04.06.2022
1767 Clouds 18 1023 71 10000 5.21 27 17:21 04.06.2022
1768 Clouds 18 1023 64 10000 5.06 28 16:20 04.06.2022
1769 Clouds 18 1023 64 10000 5.07 28 15:45 04.06.2022
1770 Clouds 18 1023 74 10000 5.49 28 14:18 04.06.2022
1771 Clouds 17 1023 71 10000 5.37 36 11:45 04.06.2022
1772 Clouds 17 1023 70 10000 5.35 37 10:55 04.06.2022
1773 Clouds 16 1023 72 10000 4.82 37 10:19 04.06.2022
1774 Clouds 15 1023 72 10000 4.82 37 09:39 04.06.2022
1775 Clouds 14 1023 78 10000 5.53 42 08:39 04.06.2022
1776 Clouds 12 1022 86 10000 4.38 34 07:18 04.06.2022
1777 Clouds 10 1022 87 10000 4 28 04:33 04.06.2022
1778 Clouds 10 1022 87 10000 4 28 04:33 04.06.2022
1779 Clouds 11 1021 86 10000 4.6 29 00:37 04.06.2022
1780 Clouds 12 1021 86 10000 5.38 28 23:28 03.06.2022
1781 Clouds 12 1021 83 10000 5.75 24 22:28 03.06.2022
1782 Clouds 14 1021 82 10000 5.76 25 20:42 03.06.2022
1783 Clouds 14 1021 82 10000 5.76 25 20:42 03.06.2022
1784 Clouds 15 1020 72 10000 5.75 26 20:18 03.06.2022
1785 Clouds 20 1020 66 10000 6.15 32 17:32 03.06.2022
1786 Clouds 20 1020 63 10000 6.24 38 16:34 03.06.2022
1787 Clear 20 1020 61 10000 4.65 47 14:53 03.06.2022
1788 Clear 20 1021 59 10000 3.76 56 12:52 03.06.2022
1789 Clear 18 1021 64 10000 3.51 67 10:36 03.06.2022
1790 Clear 16 1021 68 10000 3.4 70 09:37 03.06.2022
1791 Clear 12 1021 88 10000 2.82 80 07:54 03.06.2022
1792 Clear 11 1022 90 10000 2.29 88 07:26 03.06.2022
1793 Clear 9 1022 91 10000 2.29 88 06:31 03.06.2022
1794 Clear 7 1022 89 10000 2.2 82 04:40 03.06.2022
1795 Clouds 10 1023 84 10000 1.9 64 00:25 03.06.2022
1796 Clouds 11 1022 79 10000 2.09 36 22:41 02.06.2022
1797 Clouds 11 1022 86 10000 2.24 15 21:34 02.06.2022
1798 Clouds 15 1022 69 10000 2.63 345 20:22 02.06.2022
1799 Clouds 16 1022 68 10000 2.83 340 19:43 02.06.2022
1800 Clouds 17 1022 66 10000 3.47 331 19:23 02.06.2022
1801 Clear 17 1022 65 10000 3.9 324 17:32 02.06.2022
1802 Clear 18 1022 62 10000 4.65 316 16:27 02.06.2022
1803 Clouds 17 1022 66 10000 5.52 305 14:19 02.06.2022
1804 Clouds 16 1022 69 10000 5.63 301 13:29 02.06.2022
1805 Clear 15 1021 71 10000 5.59 290 11:24 02.06.2022
1806 Clear 14 1021 74 10000 5.44 285 10:20 02.06.2022
1807 Clear 14 1021 75 10000 5.28 284 09:28 02.06.2022
1808 Clear 13 1020 79 10000 4.66 281 08:27 02.06.2022
1809 Clear 9 1019 88 10000 3.75 270 07:25 02.06.2022
1810 Clear 7 1019 90 10000 3.9 271 04:52 02.06.2022
1811 Clear 7 1018 88 10000 3.65 285 02:48 02.06.2022
1812 Clouds 9 1018 84 10000 3 312 23:50 01.06.2022
1813 Clouds 10 1017 82 10000 3.09 320 22:51 01.06.2022
1814 Clouds 12 1017 77 10000 3.08 332 21:37 01.06.2022
1815 Clouds 13 1016 75 10000 3.19 343 20:59 01.06.2022
1816 Clouds 13 1016 74 10000 3.2 343 20:37 01.06.2022
1817 Clouds 14 1015 70 10000 4 346 19:31 01.06.2022
1818 Clouds 14 1014 74 10000 3.71 346 17:46 01.06.2022
1819 Clouds 14 1014 75 10000 3.22 345 16:40 01.06.2022
1820 Clouds 14 1013 76 10000 3.86 333 15:18 01.06.2022
1821 Clouds 15 1013 77 10000 3.29 312 13:57 01.06.2022
1822 Clouds 14 1013 77 10000 2.78 272 12:29 01.06.2022
1823 Clouds 13 1013 81 10000 3.3 263 10:37 01.06.2022
1824 Clouds 12 1012 85 10000 4 251 09:25 01.06.2022
1825 Clouds 10 1013 90 10000 2.48 227 07:25 01.06.2022
1826 Clouds 10 1013 89 10000 2.48 227 06:41 01.06.2022
1827 Clouds 10 1013 86 10000 1.87 157 01:30 01.06.2022
1828 Clouds 10 1013 80 10000 2.67 96 23:41 31.05.2022
1829 Clouds 11 1013 77 10000 2.94 81 22:37 31.05.2022
1830 Clouds 12 1013 79 10000 2.93 84 21:46 31.05.2022
1831 Clouds 12 1012 78 10000 3.08 73 20:52 31.05.2022
1832 Clouds 13 1012 77 10000 3.08 73 20:31 31.05.2022
1833 Clouds 15 1012 68 10000 3.86 52 18:57 31.05.2022
1834 Clouds 15 1012 65 10000 3.93 39 17:51 31.05.2022
1835 Clouds 15 1012 65 10000 3.93 39 17:31 31.05.2022
1836 Clouds 16 1013 57 10000 2.08 21 15:42 31.05.2022
1837 Clouds 17 1013 58 10000 1.45 50 14:34 31.05.2022
1838 Clouds 16 1014 68 10000 2.29 146 12:39 31.05.2022
1839 Clouds 16 1014 67 10000 2.48 148 12:18 31.05.2022
1840 Clouds 13 1014 75 10000 2.74 124 09:50 31.05.2022
1841 Clouds 9 1015 90 10000 2.31 133 07:42 31.05.2022
1842 Clouds 8 1015 90 10000 1.93 128 05:25 31.05.2022
1843 Clouds 7 1015 89 10000 1.82 121 02:51 31.05.2022
1844 Clouds 8 1015 86 10000 1.23 40 23:29 30.05.2022
1845 Clouds 9 1015 85 10000 1.23 40 23:00 30.05.2022
1846 Clouds 9 1015 83 10000 1.23 40 22:32 30.05.2022
1847 Clouds 11 1015 79 10000 1.7 9 21:37 30.05.2022
1848 Clouds 12 1015 75 10000 2.29 348 20:41 30.05.2022
1849 Clouds 13 1014 69 10000 2.36 328 19:38 30.05.2022
1850 Clouds 12 1014 80 10000 2.67 319 17:48 30.05.2022
1851 Clouds 12 1014 83 10000 2.72 311 17:20 30.05.2022
1852 Clouds 13 1014 81 10000 2.97 301 15:51 30.05.2022
1853 Clouds 12 1013 83 10000 2.81 256 13:21 30.05.2022
1854 Rain 11 1013 84 10000 2.61 246 11:30 30.05.2022
1855 Rain 11 1013 75 10000 2.52 252 09:45 30.05.2022
1856 Clouds 8 1012 91 10000 2.64 251 07:34 30.05.2022
1857 Rain 7 1012 90 10000 2.68 266 05:54 30.05.2022
1858 Clouds 8 1012 89 10000 2.61 299 03:22 30.05.2022
1859 Clouds 9 1013 83 10000 3.16 327 00:18 30.05.2022
1860 Clouds 10 1013 77 10000 3.77 335 22:40 29.05.2022
1861 Clouds 10 1013 75 10000 4.58 339 21:44 29.05.2022
1862 Clouds 11 1013 74 10000 5.62 335 20:23 29.05.2022
1863 Clouds 11 1013 73 10000 6.02 337 19:29 29.05.2022
1864 Clouds 11 1013 73 10000 6.56 336 17:57 29.05.2022
1865 Clouds 12 1013 73 10000 7.04 335 16:22 29.05.2022
1866 Clouds 12 1013 70 10000 7.04 335 15:43 29.05.2022
1867 Clouds 11 1013 72 10000 7.66 334 14:54 29.05.2022
1868 Clouds 11 1013 75 10000 7.4 328 12:57 29.05.2022
1869 Clouds 11 1013 81 10000 6.65 328 11:20 29.05.2022
1870 Clouds 10 1013 83 10000 6.64 331 10:29 29.05.2022
1871 Clouds 10 1013 80 10000 6.55 333 07:59 29.05.2022
1872 Clouds 10 1014 86 10000 6.6 329 04:58 29.05.2022
1873 Clouds 10 1014 85 10000 6.6 329 04:36 29.05.2022
1874 Clouds 10 1015 80 10000 6.23 318 01:28 29.05.2022
1875 Clouds 10 1016 87 10000 6.58 318 23:48 28.05.2022
1876 Clouds 10 1017 88 10000 6.89 315 23:19 28.05.2022
1877 Clouds 10 1017 87 10000 7.18 311 22:19 28.05.2022
1878 Rain 11 1017 82 10000 7.58 309 20:58 28.05.2022
1879 Clouds 12 1017 81 10000 8.28 311 19:20 28.05.2022
1880 Clouds 12 1017 77 10000 8.28 311 18:40 28.05.2022
1881 Clouds 12 1018 79 10000 8.58 311 17:33 28.05.2022
1882 Rain 14 1018 64 10000 9.19 311 15:56 28.05.2022
1883 Clouds 14 1018 63 10000 9.19 311 15:38 28.05.2022
1884 Clouds 14 1019 61 10000 9.22 311 13:38 28.05.2022
1885 Clouds 14 1019 64 10000 9.22 312 12:43 28.05.2022
1886 Clouds 14 1019 68 10000 9.15 313 11:50 28.05.2022
1887 Clouds 12 1019 67 10000 9.24 314 10:41 28.05.2022
1888 Rain 13 1018 71 10000 9.36 316 09:56 28.05.2022
1889 Clear 11 1018 77 10000 8.95 318 08:39 28.05.2022
1890 Clouds 10 1017 83 10000 8.6 314 06:53 28.05.2022
1891 Clear 10 1017 76 10000 8.75 307 05:24 28.05.2022
1892 Clear 10 1017 80 10000 8.31 300 02:33 28.05.2022
1893 Clouds 11 1018 76 10000 8.17 290 00:18 28.05.2022
1894 Clouds 12 1018 76 10000 8.02 287 22:50 27.05.2022
1895 Clouds 12 1018 75 10000 8.01 287 21:37 27.05.2022
1896 Clouds 13 1018 74 10000 8.63 289 20:48 27.05.2022
1897 Clouds 13 1018 73 10000 9.31 289 20:21 27.05.2022
1898 Clouds 13 1017 72 10000 9.42 288 19:41 27.05.2022
1899 Clouds 13 1017 71 10000 9.4 287 19:21 27.05.2022
1900 Clouds 14 1017 66 10000 9.74 289 17:34 27.05.2022
1901 Clouds 15 1018 66 10000 10.41 289 16:36 27.05.2022
1902 Clouds 14 1018 66 10000 10.82 287 15:22 27.05.2022
1903 Clouds 15 1018 67 10000 10.92 289 13:44 27.05.2022
1904 Clouds 14 1018 67 10000 9.72 288 12:35 27.05.2022
1905 Clouds 14 1017 67 10000 9.74 290 11:33 27.05.2022
1906 Clouds 14 1017 67 10000 9.72 289 10:52 27.05.2022
1907 Clouds 14 1017 66 10000 9.08 287 10:26 27.05.2022
1908 Clouds 14 1017 64 10000 9.08 287 09:32 27.05.2022
1909 Clouds 12 1016 76 10000 7.61 283 07:42 27.05.2022
1910 Clouds 11 1016 81 10000 5.3 269 05:32 27.05.2022
1911 Clouds 14 1016 89 10000 6.53 285 02:25 27.05.2022
1912 Clouds 14 1015 91 10000 7.25 266 00:19 27.05.2022
1913 Rain 14 1016 91 10000 7.75 263 22:30 26.05.2022
1914 Clouds 14 1016 90 10000 7.7 255 21:37 26.05.2022
1915 Rain 15 1016 80 10000 6.54 242 19:58 26.05.2022
1916 Clouds 16 1016 75 10000 6.07 251 19:19 26.05.2022
1917 Clouds 16 1017 76 10000 6.42 264 17:37 26.05.2022
1918 Clouds 17 1017 77 10000 7.29 265 16:36 26.05.2022
1919 Clouds 17 1017 72 10000 7.86 267 15:45 26.05.2022
1920 Clouds 18 1018 64 10000 8.28 270 14:24 26.05.2022
1921 Clouds 18 1018 65 10000 7.9 270 12:37 26.05.2022
1922 Clouds 17 1017 70 10000 8.08 269 11:23 26.05.2022
1923 Clouds 15 1017 77 10000 7.63 265 09:41 26.05.2022
1924 Clouds 15 1016 75 10000 6.39 267 09:23 26.05.2022
1925 Clouds 14 1016 82 10000 6.06 266 07:57 26.05.2022
1926 Clouds 13 1014 88 10000 5.96 255 04:41 26.05.2022
1927 Clouds 13 1013 91 10000 7.21 233 00:38 26.05.2022
1928 Rain 13 1013 91 10000 7.18 236 23:40 25.05.2022
1929 Clouds 13 1012 90 10000 7.54 230 21:59 25.05.2022
1930 Clouds 13 1012 89 10000 7.54 230 21:32 25.05.2022
1931 Rain 14 1012 85 10000 7.9 229 20:35 25.05.2022
1932 Rain 14 1012 85 10000 7.9 229 20:35 25.05.2022
1933 Clouds 16 1012 66 10000 8.12 243 19:24 25.05.2022
1934 Clouds 17 1012 60 10000 7.72 244 17:43 25.05.2022
1935 Clouds 17 1012 60 10000 7.99 247 16:38 25.05.2022
1936 Clouds 17 1012 59 10000 8.54 249 15:54 25.05.2022
1937 Clouds 16 1011 72 10000 8.51 248 14:54 25.05.2022
1938 Clouds 16 1011 78 10000 8.51 248 14:33 25.05.2022
1939 Clouds 18 1012 60 10000 7.7 235 13:54 25.05.2022
1940 Clouds 17 1012 65 10000 7.73 230 12:39 25.05.2022
1941 Clouds 17 1012 68 10000 6.76 221 10:49 25.05.2022
1942 Clouds 16 1012 72 10000 6.01 219 10:18 25.05.2022
1943 Clouds 14 1012 84 10000 5.39 220 08:41 25.05.2022
1944 Clear 11 1011 92 10000 4.12 213 07:23 25.05.2022
1945 Clear 8 1011 90 10000 3.5 209 04:23 25.05.2022
1946 Clouds 10 1010 84 10000 3.41 237 00:23 25.05.2022
1947 Clouds 10 1010 82 10000 3.41 237 23:47 24.05.2022
1948 Clouds 10 1010 82 10000 3.41 237 23:47 24.05.2022
1949 Clouds 11 1009 81 10000 3.31 241 22:39 24.05.2022
1950 Clouds 12 1009 90 10000 3.41 249 21:43 24.05.2022
1951 Clouds 14 1008 77 10000 4.05 257 21:21 24.05.2022
1952 Clouds 15 1008 73 10000 4.05 257 20:30 24.05.2022
1953 Clouds 16 1006 71 10000 6.14 262 18:56 24.05.2022
1954 Clouds 15 1005 71 10000 7.12 257 16:58 24.05.2022
1955 Clouds 15 1004 73 10000 7.5 262 16:28 24.05.2022
1956 Clouds 15 1004 81 10000 7.36 250 15:20 24.05.2022
1957 Clouds 15 1004 80 10000 7.36 250 14:34 24.05.2022
1958 Rain 14 1003 85 10000 7.72 235 13:27 24.05.2022
1959 Clouds 15 1002 87 10000 8 228 11:53 24.05.2022
1960 Clouds 14 1001 90 10000 8.22 218 09:49 24.05.2022
1961 Rain 14 1000 89 10000 7.3 214 08:51 24.05.2022
1962 Clouds 13 1000 91 10000 6.26 213 07:30 24.05.2022
1963 Clouds 12 999 91 10000 5.28 223 05:59 24.05.2022
1964 Clouds 13 998 92 10000 5.82 233 02:58 24.05.2022
1965 Clouds 14 998 92 10000 6.54 238 01:44 24.05.2022
1966 Clouds 15 996 91 10000 8.68 259 23:59 23.05.2022
1967 Rain 16 994 89 10000 5.43 159 22:22 23.05.2022
1968 Rain 17 994 87 10000 5.43 159 21:42 23.05.2022
1969 Rain 21 994 95 10000 4.37 165 20:45 23.05.2022
1970 Clouds 21 994 90 10000 7.2 124 19:47 23.05.2022
1971 Clouds 22 995 81 10000 4.53 102 19:18 23.05.2022
1972 Clouds 22 995 81 10000 4.53 102 18:40 23.05.2022
1973 Clouds 23 997 80 10000 3.75 119 17:56 23.05.2022
1974 Clouds 23 997 80 10000 3.73 118 17:56 23.05.2022
1975 Rain 24 999 59 10000 5.81 135 16:28 23.05.2022
1976 Clouds 23 1001 64 10000 6.68 131 14:18 23.05.2022
1977 Clouds 22 1003 64 10000 6.71 133 11:52 23.05.2022
1978 Clouds 20 1004 68 10000 6.14 134 10:47 23.05.2022
1979 Clouds 18 1004 70 10000 6.04 129 09:47 23.05.2022
1980 Clouds 16 1005 73 10000 5.38 124 08:46 23.05.2022
1981 Clouds 16 1005 73 10000 5.38 124 08:46 23.05.2022
1982 Clouds 16 1005 73 10000 5.38 124 08:46 23.05.2022
1983 Clouds 14 1006 75 10000 4.76 120 07:31 23.05.2022
1984 Clouds 13 1007 75 10000 4.41 114 06:40 23.05.2022
1985 Clouds 12 1009 77 10000 3.91 109 03:41 23.05.2022
1986 Clouds 13 1011 86 10000 4.01 113 01:52 23.05.2022
1987 Clouds 13 1012 75 10000 4.15 117 01:29 23.05.2022
1988 Clouds 12 1012 84 10000 3.78 103 23:18 22.05.2022
1989 Clouds 14 1013 86 10000 3.89 97 22:27 22.05.2022
1990 Clouds 13 1013 86 10000 3.89 97 21:52 22.05.2022
1991 Clouds 15 1013 85 10000 3.7 96 20:46 22.05.2022
1992 Clouds 17 1013 63 10000 3.82 104 20:23 22.05.2022
1993 Clouds 18 1014 80 10000 3.47 99 19:39 22.05.2022
1994 Clouds 19 1014 74 10000 3.51 98 18:52 22.05.2022
1995 Clouds 19 1015 68 10000 2.95 99 18:21 22.05.2022
1996 Clouds 19 1015 60 10000 1.94 85 17:26 22.05.2022
1997 Clouds 19 1015 58 10000 1.86 55 15:59 22.05.2022
1998 Clouds 19 1016 59 10000 1.75 32 14:48 22.05.2022
1999 Clouds 18 1016 67 10000 1.45 347 13:27 22.05.2022
2000 Clouds 18 1016 62 10000 1.45 347 12:50 22.05.2022
2001 Clouds 17 1017 65 10000 1.43 291 11:32 22.05.2022
2002 Clouds 15 1017 71 10000 2.25 247 09:41 22.05.2022
2003 Clear 13 1018 90 10000 2.62 239 08:31 22.05.2022
2004 Clouds 10 1018 92 10000 2.18 226 07:21 22.05.2022
2005 Clouds 8 1018 90 10000 2.3 247 05:22 22.05.2022
2006 Clouds 9 1019 87 10000 2.31 275 01:41 22.05.2022
2007 Clouds 10 1020 85 10000 2.92 279 00:43 22.05.2022
2008 Clouds 11 1020 83 10000 3.11 279 23:52 21.05.2022
2009 Clouds 12 1020 80 10000 3.5 286 22:28 21.05.2022
2010 Clouds 12 1020 92 10000 3.5 286 21:42 21.05.2022
2011 Clouds 13 1020 79 10000 4.13 289 20:59 21.05.2022
2012 Clouds 14 1020 77 10000 5.15 289 20:22 21.05.2022
2013 Clouds 15 1019 74 10000 5.94 287 19:27 21.05.2022
2014 Clouds 16 1019 72 10000 6.89 285 17:48 21.05.2022
2015 Clouds 17 1019 70 10000 7.24 286 16:43 21.05.2022
2016 Clouds 17 1019 68 10000 7.84 285 14:37 21.05.2022
2017 Clouds 17 1019 68 10000 8.28 281 13:42 21.05.2022
2018 Clouds 16 1018 75 10000 8.47 282 12:50 21.05.2022
2019 Clouds 16 1018 73 10000 8.94 278 12:25 21.05.2022
2020 Clouds 16 1017 76 10000 8.63 271 10:24 21.05.2022
2021 Clouds 14 1017 80 10000 8.63 271 09:43 21.05.2022
2022 Clouds 14 1016 84 10000 7.79 264 08:57 21.05.2022
2023 Clouds 13 1016 89 10000 7.38 256 07:53 21.05.2022
2024 Clouds 11 1015 93 10000 6.14 229 04:29 21.05.2022
2025 Clouds 11 1015 91 10000 7.1 283 23:54 20.05.2022
2026 Clouds 11 1014 91 10000 4.86 272 22:59 20.05.2022
2027 Rain 12 1013 90 10000 4.46 316 22:24 20.05.2022
2028 Clouds 12 1013 90 10000 4.46 316 21:47 20.05.2022
2029 Clouds 13 1012 91 10000 5.17 342 20:57 20.05.2022
2030 Clouds 13 1011 91 6269 5 351 20:25 20.05.2022
2031 Rain 13 1009 89 2764 7.35 354 19:27 20.05.2022
2032 Rain 14 1009 89 2764 7.35 354 18:47 20.05.2022
2033 Rain 16 1010 95 3383 5.18 359 17:37 20.05.2022
2034 Rain 19 1013 66 10000 3.19 96 16:21 20.05.2022
2035 Clouds 19 1013 67 10000 3.19 96 15:53 20.05.2022
2036 Clouds 20 1016 64 10000 2.16 139 14:31 20.05.2022
2037 Clouds 19 1016 67 10000 3.65 113 13:56 20.05.2022
2038 Clouds 18 1019 69 10000 1.91 166 11:45 20.05.2022
2039 Clouds 16 1020 75 10000 0.76 138 10:24 20.05.2022
2040 Clouds 14 1021 88 10000 0.6 217 08:50 20.05.2022
2041 Clouds 12 1021 92 10000 1.83 274 07:25 20.05.2022
2042 Clouds 10 1021 91 10000 1.83 274 06:36 20.05.2022
2043 Clouds 10 1021 90 10000 2.7 275 05:22 20.05.2022
2044 Clouds 14 1020 87 10000 5.76 288 00:54 20.05.2022
2045 Clouds 15 1019 87 10000 6.35 284 23:25 19.05.2022
2046 Clouds 16 1019 87 10000 6.48 277 22:26 19.05.2022
2047 Clouds 18 1019 90 10000 6.48 277 21:49 19.05.2022
2048 Clouds 17 1018 87 10000 6.13 277 21:23 19.05.2022
2049 Clouds 19 1018 93 10000 6.13 277 20:40 19.05.2022
2050 Clouds 19 1017 86 10000 6.67 277 19:53 19.05.2022
2051 Clouds 19 1016 90 10000 5.07 279 18:45 19.05.2022
2052 Rain 18 1017 90 10000 4.73 255 17:31 19.05.2022
2053 Rain 23 1017 72 10000 2.81 221 15:33 19.05.2022
2054 Clouds 24 1016 70 10000 3.69 153 14:29 19.05.2022
2055 Clouds 23 1016 69 10000 3.69 153 13:53 19.05.2022
2056 Clouds 20 1017 80 10000 1.12 60 11:46 19.05.2022
2057 Clouds 20 1017 79 10000 4.39 228 09:46 19.05.2022
2058 Clouds 19 1016 80 10000 3.4 128 08:27 19.05.2022
2059 Clouds 16 1017 90 10000 2.87 146 06:39 19.05.2022
2060 Clouds 15 1018 89 10000 2.17 119 02:57 19.05.2022
2061 Clouds 15 1019 87 10000 1.37 51 00:56 19.05.2022
2062 Clouds 16 1021 85 10000 1 23 23:00 18.05.2022
2063 Clouds 16 1021 84 10000 1 23 22:40 18.05.2022
2064 Clouds 17 1021 81 10000 1.63 356 21:32 18.05.2022
2065 Clouds 19 1021 95 10000 2.52 329 20:55 18.05.2022
2066 Clouds 20 1020 93 10000 3.25 328 20:19 18.05.2022
2067 Clouds 23 1021 90 10000 4.19 322 18:47 18.05.2022
2068 Clouds 24 1021 91 10000 4.72 321 17:42 18.05.2022
2069 Clouds 24 1020 91 6594 4.63 322 17:23 18.05.2022
2070 Clouds 25 1020 91 6594 4.63 322 16:52 18.05.2022
2071 Clouds 27 1020 80 6886 4.85 312 15:43 18.05.2022
2072 Clouds 28 1020 70 10000 4.07 280 15:19 18.05.2022
2073 Clouds 27 1020 63 10000 3.61 250 13:59 18.05.2022
2074 Clouds 26 1020 62 10000 4.1 231 12:53 18.05.2022
2075 Clouds 25 1020 62 10000 3.77 214 11:47 18.05.2022
2076 Clouds 24 1020 65 10000 3.51 199 11:29 18.05.2022
2077 Clouds 24 1020 64 10000 3.51 199 10:36 18.05.2022
2078 Clouds 18 1020 81 10000 4.07 155 07:59 18.05.2022
2079 Clouds 16 1019 86 10000 3.99 150 06:54 18.05.2022
2080 Clouds 16 1019 83 10000 3.94 128 03:34 18.05.2022
2081 Rain 17 1020 92 10000 3.88 114 00:42 18.05.2022
2082 Clouds 17 1020 95 10000 3.61 108 23:21 17.05.2022
2083 Clouds 18 1020 86 10000 3.04 65 21:21 17.05.2022
2084 Clouds 18 1020 86 10000 3.04 65 20:43 17.05.2022
2085 Clouds 20 1020 81 10000 2.22 47 19:31 17.05.2022
2086 Clouds 19 1020 72 10000 2.01 36 18:46 17.05.2022
2087 Clouds 22 1020 70 10000 2.31 5 17:34 17.05.2022
2088 Clouds 22 1020 69 10000 2.95 350 16:57 17.05.2022
2089 Clouds 22 1021 67 10000 3.29 337 15:58 17.05.2022
2090 Clouds 22 1021 65 10000 3.76 316 14:55 17.05.2022
2091 Clouds 22 1020 69 10000 3.87 301 14:28 17.05.2022
2092 Clouds 21 1021 68 10000 2.74 296 12:39 17.05.2022
2093 Clouds 19 1021 72 10000 2.54 274 10:39 17.05.2022
2094 Clouds 17 1020 80 10000 2.34 275 08:51 17.05.2022
2095 Clouds 15 1020 89 10000 2.62 266 07:55 17.05.2022
2096 Clouds 13 1019 90 10000 2.86 253 06:23 17.05.2022
2097 Clouds 15 1018 87 10000 3.48 245 01:23 17.05.2022
2098 Clouds 15 1017 97 10000 3.87 241 23:46 16.05.2022
2099 Rain 16 1017 89 10000 4.2 247 22:39 16.05.2022
2100 Rain 16 1016 88 10000 3.11 257 21:24 16.05.2022
2101 Rain 17 1016 86 10000 3.11 257 20:42 16.05.2022
2102 Clouds 19 1015 96 3817 5.87 283 18:51 16.05.2022
2103 Rain 24 1014 59 10000 3.03 147 17:18 16.05.2022
2104 Rain 25 1014 50 10000 4.49 142 15:35 16.05.2022
2105 Clouds 24 1015 66 10000 5.53 135 13:48 16.05.2022
2106 Clouds 23 1015 62 10000 6.23 123 12:41 16.05.2022
2107 Clouds 20 1015 59 10000 6.83 106 10:38 16.05.2022
2108 Clouds 15 1015 69 10000 6.23 101 08:32 16.05.2022
2109 Clouds 12 1016 73 10000 5.15 93 06:30 16.05.2022
2110 Clouds 12 1016 73 10000 5.15 93 06:30 16.05.2022
2111 Clouds 12 1018 85 10000 4.18 88 01:43 16.05.2022
2112 Clouds 13 1019 81 10000 4.44 73 22:52 15.05.2022
2113 Clouds 13 1019 79 10000 4.77 63 22:20 15.05.2022
2114 Clouds 13 1019 92 10000 4.77 63 21:37 15.05.2022
2115 Clouds 15 1019 87 10000 4.82 55 20:53 15.05.2022
2116 Clouds 19 1019 74 10000 4.88 67 18:52 15.05.2022
2117 Clouds 20 1020 58 10000 3.61 86 17:29 15.05.2022
2118 Clouds 20 1021 73 10000 3.24 90 14:58 15.05.2022
2119 Clouds 20 1021 64 10000 2.72 81 13:47 15.05.2022
2120 Clouds 19 1022 61 10000 2.73 82 12:21 15.05.2022
2121 Clouds 18 1022 65 10000 2.49 91 11:29 15.05.2022
2122 Clouds 16 1022 71 10000 2.63 83 09:58 15.05.2022
2123 Clear 9 1022 92 10000 1.71 109 07:25 15.05.2022
2124 Clear 8 1022 90 10000 1.71 109 06:56 15.05.2022
2125 Clear 7 1022 88 10000 1.51 123 04:26 15.05.2022
2126 Clouds 9 1023 84 10000 1.47 72 00:47 15.05.2022
2127 Clouds 10 1023 82 10000 1.51 47 23:38 14.05.2022
2128 Clouds 11 1023 90 10000 1.64 29 22:41 14.05.2022
2129 Clouds 13 1022 90 10000 2.31 346 21:27 14.05.2022
2130 Clouds 14 1022 90 10000 2.31 346 20:32 14.05.2022
2131 Clear 16 1022 73 10000 3.93 325 19:21 14.05.2022
2132 Clear 16 1022 73 10000 3.93 325 18:59 14.05.2022
2133 Clear 18 1022 69 10000 4.78 316 17:54 14.05.2022
2134 Clear 18 1021 66 10000 5.14 312 16:32 14.05.2022
2135 Clear 18 1021 63 10000 5.58 306 14:56 14.05.2022
2136 Clear 18 1021 63 10000 5.58 306 14:30 14.05.2022
2137 Clouds 17 1021 65 10000 5.63 297 12:18 14.05.2022
2138 Clouds 17 1020 62 10000 5.67 293 10:53 14.05.2022
2139 Clouds 17 1020 64 10000 5.46 290 10:20 14.05.2022
2140 Clouds 16 1020 67 10000 5.46 290 09:51 14.05.2022
2141 Clouds 14 1019 82 10000 4.64 272 08:22 14.05.2022
2142 Clouds 11 1018 88 10000 4.02 248 05:43 14.05.2022
2143 Clouds 12 1018 82 10000 5.18 241 01:58 14.05.2022
2144 Clouds 12 1018 80 10000 5.48 232 23:32 13.05.2022
2145 Clouds 12 1018 78 10000 5.11 229 22:57 13.05.2022
2146 Clouds 12 1018 76 10000 4.93 233 22:23 13.05.2022
2147 Clouds 13 1018 73 10000 4.93 233 21:38 13.05.2022
2148 Clouds 14 1018 70 10000 5.32 243 20:44 13.05.2022
2149 Clouds 15 1017 69 10000 5.91 252 20:24 13.05.2022
2150 Clouds 15 1017 63 10000 6.52 261 19:21 13.05.2022
2151 Clouds 16 1017 61 10000 7.5 267 17:50 13.05.2022
2152 Clouds 16 1017 61 10000 7.5 267 17:50 13.05.2022
2153 Clouds 16 1017 61 10000 8.48 268 17:27 13.05.2022
2154 Clouds 16 1017 60 10000 7.9 268 16:18 13.05.2022
2155 Clouds 16 1017 66 10000 8.26 268 14:54 13.05.2022
2156 Clouds 16 1017 67 10000 7.88 266 13:29 13.05.2022
2157 Clouds 15 1016 70 10000 8.49 266 12:25 13.05.2022
2158 Clouds 15 1016 71 10000 8.23 263 10:46 13.05.2022
2159 Clouds 14 1016 74 10000 7.75 257 09:33 13.05.2022
2160 Clouds 12 1015 80 10000 5.84 240 08:23 13.05.2022
2161 Clouds 11 1015 83 10000 5.85 233 07:42 13.05.2022
2162 Clouds 11 1014 83 10000 4.7 217 05:59 13.05.2022
2163 Clouds 10 1016 81 10000 4.19 224 02:48 13.05.2022
2164 Clear 10 1017 78 10000 3.68 223 23:56 12.05.2022
2165 Clear 10 1017 90 10000 3.24 235 22:44 12.05.2022
2166 Clear 11 1017 89 10000 2.96 255 21:54 12.05.2022
2167 Clouds 15 1016 76 10000 4.97 281 20:29 12.05.2022
2168 Clouds 17 1016 57 10000 6.44 278 18:51 12.05.2022
2169 Clouds 17 1016 62 10000 6.77 268 17:23 12.05.2022
2170 Clouds 18 1016 56 10000 6.67 267 15:55 12.05.2022
2171 Clear 18 1017 55 10000 6.68 267 14:41 12.05.2022
2172 Clear 18 1017 53 10000 6.65 266 13:41 12.05.2022
2173 Clear 16 1016 62 10000 6.45 260 10:46 12.05.2022
2174 Clear 14 1015 74 10000 5.85 256 09:28 12.05.2022
2175 Clear 13 1015 80 10000 5.85 256 08:51 12.05.2022
2176 Clouds 11 1014 90 10000 4.72 252 07:40 12.05.2022
2177 Clouds 9 1012 89 10000 4.77 251 06:19 12.05.2022
2178 Clouds 11 1010 85 10000 5.04 301 02:58 12.05.2022
2179 Clouds 13 1007 87 10000 8.81 248 00:36 12.05.2022
2180 Rain 13 1007 90 10000 7.99 240 22:36 11.05.2022
2181 Rain 13 1007 88 10000 7.06 236 21:52 11.05.2022
2182 Clouds 13 1006 88 10000 3.88 225 21:24 11.05.2022
2183 Clouds 16 1007 66 10000 5.28 250 18:58 11.05.2022
2184 Clouds 20 1008 57 10000 6.35 258 16:55 11.05.2022
2185 Clouds 21 1008 66 10000 6.6 261 15:38 11.05.2022
2186 Clouds 20 1008 60 10000 6.79 254 14:39 11.05.2022
2187 Clouds 20 1009 61 10000 7.38 247 14:19 11.05.2022
2188 Clouds 18 1009 65 10000 6.89 246 11:54 11.05.2022
2189 Clouds 18 1009 70 10000 6.52 243 11:23 11.05.2022
2190 Clouds 14 1009 80 10000 5.35 217 08:46 11.05.2022
2191 Clouds 12 1010 85 10000 3.83 200 05:45 11.05.2022
2192 Clouds 12 1013 84 10000 3.14 208 01:23 11.05.2022
2193 Clouds 13 1014 76 10000 2.59 225 22:32 10.05.2022
2194 Clouds 14 1014 73 10000 2.8 258 21:58 10.05.2022
2195 Clouds 15 1014 68 10000 3.74 269 20:58 10.05.2022
2196 Clouds 17 1013 62 10000 5.04 270 20:21 10.05.2022
2197 Clouds 18 1013 62 10000 5.92 269 18:35 10.05.2022
2198 Clouds 18 1013 58 10000 6.39 253 17:37 10.05.2022
2199 Clouds 22 1013 75 10000 7.17 255 15:43 10.05.2022
2200 Clouds 22 1015 69 10000 7.42 224 12:48 10.05.2022
2201 Clouds 23 1015 69 10000 6.36 213 11:53 10.05.2022
2202 Clouds 21 1015 69 10000 6.4 205 11:21 10.05.2022
2203 Clouds 21 1015 69 10000 6.4 205 10:55 10.05.2022
2204 Clouds 18 1016 74 10000 4.83 196 09:27 10.05.2022
2205 Clouds 14 1017 78 10000 4.39 192 07:47 10.05.2022
2206 Clouds 13 1018 83 10000 3.57 191 04:35 10.05.2022
2207 Clouds 12 1020 80 10000 3.41 192 01:37 10.05.2022
2208 Clouds 12 1021 82 10000 2.68 198 23:42 09.05.2022
2209 Clouds 12 1021 82 10000 2.68 198 23:42 09.05.2022
2210 Clouds 14 1021 78 10000 2.17 187 22:30 09.05.2022
2211 Clouds 15 1022 75 10000 0.8 209 21:36 09.05.2022
2212 Clouds 19 1021 66 10000 1.8 267 19:52 09.05.2022
2213 Clouds 19 1022 66 10000 1.47 297 19:52 09.05.2022
2214 Clear 21 1022 60 10000 2.39 205 18:22 09.05.2022
2215 Clear 23 1023 53 10000 2.73 202 17:25 09.05.2022
2216 Clear 22 1024 52 10000 2.83 181 15:54 09.05.2022
2217 Clear 21 1024 52 10000 2.83 181 15:35 09.05.2022
2218 Clear 21 1025 54 10000 2.09 185 14:33 09.05.2022
2219 Clouds 20 1026 56 10000 2.18 187 13:56 09.05.2022
2220 Clouds 19 1026 58 10000 2.52 168 12:51 09.05.2022
2221 Clouds 18 1026 62 10000 2.65 152 11:52 09.05.2022
2222 Clouds 17 1027 61 10000 2.8 140 10:47 09.05.2022
2223 Clouds 15 1027 70 10000 3.01 134 10:20 09.05.2022
2224 Clouds 7 1028 83 10000 2.44 136 07:56 09.05.2022
2225 Clouds 2 1028 88 10000 1.51 137 04:35 09.05.2022
2226 Clouds 5 1029 87 10000 1.27 31 00:23 09.05.2022
2227 Clouds 6 1029 82 10000 1.63 20 23:27 08.05.2022
2228 Clouds 7 1029 80 10000 2.14 14 22:29 08.05.2022
2229 Clouds 10 1028 84 10000 2.64 9 20:54 08.05.2022
2230 Clouds 11 1028 72 10000 3.26 5 20:22 08.05.2022
2231 Clouds 12 1028 71 10000 3.26 5 19:32 08.05.2022
2232 Clouds 13 1028 67 10000 4.05 4 18:35 08.05.2022
2233 Clouds 13 1028 61 10000 4.43 1 17:36 08.05.2022
2234 Clouds 14 1028 62 10000 4.89 355 15:46 08.05.2022
2235 Clouds 14 1029 61 10000 4.95 354 15:21 08.05.2022
2236 Clear 13 1029 63 10000 4.41 353 12:46 08.05.2022
2237 Clear 12 1029 66 10000 4.33 356 10:59 08.05.2022
2238 Clear 11 1029 67 10000 4.12 1 10:22 08.05.2022
2239 Clear 11 1029 69 10000 4.12 1 09:51 08.05.2022
2240 Clouds 8 1028 76 10000 3.55 5 07:43 08.05.2022
2241 Clouds 6 1027 77 10000 3.44 3 05:22 08.05.2022
2242 Clouds 7 1027 76 10000 3.67 4 03:21 08.05.2022
2243 Clouds 8 1027 78 10000 3.58 5 00:48 08.05.2022
2244 Clouds 8 1027 79 10000 3.58 8 23:56 07.05.2022
2245 Clouds 8 1027 79 10000 3.81 7 23:28 07.05.2022
2246 Clouds 9 1027 81 10000 3.81 7 22:35 07.05.2022
2247 Clouds 10 1026 80 10000 3.89 10 21:55 07.05.2022
2248 Clouds 11 1026 80 10000 4.41 14 21:21 07.05.2022
2249 Clouds 12 1025 81 10000 5.1 14 20:23 07.05.2022
2250 Clouds 14 1025 80 10000 5.84 16 18:49 07.05.2022
2251 Clouds 16 1024 80 10000 5.58 19 16:34 07.05.2022
2252 Clouds 16 1024 81 10000 5.16 9 14:53 07.05.2022
2253 Rain 13 1024 93 10000 1.47 0 11:28 07.05.2022
2254 Clouds 14 1023 84 10000 1.47 329 09:44 07.05.2022
2255 Clouds 13 1023 90 10000 2.83 295 08:30 07.05.2022
2256 Clouds 12 1022 90 10000 0.65 283 07:20 07.05.2022
2257 Rain 11 1022 90 10000 0.65 283 06:42 07.05.2022
2258 Clouds 11 1022 89 10000 1.88 263 04:18 07.05.2022
2259 Clouds 12 1023 80 10000 2.21 243 23:51 06.05.2022
2260 Clouds 11 1023 92 10000 2 254 22:40 06.05.2022
2261 Clouds 13 1023 92 10000 1.7 274 21:53 06.05.2022
2262 Clouds 14 1023 90 10000 1.85 299 21:29 06.05.2022
2263 Clouds 18 1022 85 10000 2.52 300 19:48 06.05.2022
2264 Clouds 19 1023 67 10000 3.21 298 19:24 06.05.2022
2265 Clouds 19 1023 79 10000 3.21 298 18:34 06.05.2022
2266 Clouds 19 1023 77 10000 3.77 305 17:36 06.05.2022
2267 Clouds 19 1023 66 10000 3.8 297 15:53 06.05.2022
2268 Clouds 19 1024 66 10000 3.29 290 15:28 06.05.2022
2269 Clouds 19 1024 63 10000 3.3 278 13:50 06.05.2022
2270 Clouds 18 1024 62 10000 3.49 274 12:51 06.05.2022
2271 Clouds 17 1024 70 10000 3.33 262 11:58 06.05.2022
2272 Clouds 16 1025 75 10000 3.28 255 11:24 06.05.2022
2273 Clouds 14 1025 85 10000 3.09 250 09:47 06.05.2022
2274 Clouds 12 1025 91 10000 2.98 249 09:18 06.05.2022
2275 Clouds 10 1025 91 10000 2.4 237 07:54 06.05.2022
2276 Clouds 7 1024 90 10000 2.15 236 06:26 06.05.2022
2277 Clouds 6 1024 88 10000 1.6 233 03:44 06.05.2022
2278 Clouds 7 1024 87 10000 1.34 243 02:38 06.05.2022
2279 Clouds 10 1025 82 10000 0.99 6 23:24 05.05.2022
2280 Clouds 10 1024 90 10000 1.49 4 21:51 05.05.2022
2281 Clouds 15 1024 89 10000 2.26 351 20:37 05.05.2022
2282 Clouds 16 1023 67 10000 2.77 341 19:19 05.05.2022
2283 Clouds 17 1022 63 10000 2.79 327 16:49 05.05.2022
2284 Clouds 17 1022 62 10000 2.62 326 15:46 05.05.2022
2285 Clouds 16 1022 60 10000 2.63 310 13:41 05.05.2022
2286 Clouds 16 1022 60 10000 2.16 293 13:18 05.05.2022
2287 Clouds 14 1022 66 10000 1.49 260 11:46 05.05.2022
2288 Clouds 10 1022 77 10000 1.07 198 09:47 05.05.2022
2289 Clouds 9 1021 79 10000 0.92 190 09:26 05.05.2022
2290 Clouds 5 1021 85 10000 0.96 171 06:33 05.05.2022
2291 Clouds 5 1020 86 10000 0.76 116 02:28 05.05.2022
2292 Clouds 4 1020 85 10000 0.93 124 01:47 05.05.2022
2293 Clouds 4 1020 84 10000 1.02 98 01:19 05.05.2022
2294 Clouds 6 1019 80 10000 1.73 48 23:27 04.05.2022
2295 Clouds 7 1019 77 10000 2.14 27 22:23 04.05.2022
2296 Clouds 8 1019 74 10000 2.14 27 21:46 04.05.2022
2297 Clouds 9 1019 73 10000 2.45 6 21:22 04.05.2022
2298 Clouds 10 1018 70 10000 2.59 347 20:20 04.05.2022
2299 Clouds 11 1018 68 10000 2.69 347 19:44 04.05.2022
2300 Clouds 12 1018 64 10000 2.91 342 18:44 04.05.2022
2301 Clouds 12 1018 61 10000 3.26 336 18:20 04.05.2022
2302 Clouds 13 1018 58 10000 3.82 331 17:22 04.05.2022
2303 Clouds 13 1018 60 10000 3.87 326 15:35 04.05.2022
2304 Clouds 13 1019 59 10000 3.29 320 14:49 04.05.2022
2305 Clouds 12 1019 62 10000 2.76 319 14:20 04.05.2022
2306 Clouds 11 1019 63 10000 2.77 315 12:58 04.05.2022
2307 Clouds 11 1019 63 10000 2.68 313 12:28 04.05.2022
2308 Clouds 10 1019 66 10000 2.44 309 10:33 04.05.2022
2309 Clouds 9 1019 68 10000 1.99 300 09:28 04.05.2022
2310 Clouds 8 1019 72 10000 1.99 300 08:33 04.05.2022
2311 Clouds 7 1019 73 10000 1.43 282 05:50 04.05.2022
2312 Clear 7 1019 71 10000 1.91 317 02:43 04.05.2022
2313 Clouds 7 1020 71 10000 1.87 331 23:31 03.05.2022
2314 Clouds 7 1020 70 10000 2.53 341 22:20 03.05.2022
2315 Clouds 8 1020 70 10000 2.53 341 21:36 03.05.2022
2316 Clouds 9 1019 69 10000 2.89 342 20:52 03.05.2022
2317 Clouds 10 1019 66 10000 3.54 342 19:44 03.05.2022
2318 Clouds 11 1019 68 10000 4.61 341 18:50 03.05.2022
2319 Clouds 11 1019 66 10000 4.92 338 17:45 03.05.2022
2320 Clouds 12 1019 64 10000 5.27 336 16:35 03.05.2022
2321 Clouds 12 1020 66 10000 4.67 335 14:51 03.05.2022
2322 Clouds 11 1020 68 10000 4.83 334 12:47 03.05.2022
2323 Clouds 11 1020 69 10000 4.55 336 12:27 03.05.2022
2324 Clouds 10 1020 78 10000 4.24 346 10:52 03.05.2022
2325 Clouds 9 1019 90 10000 4.74 1 09:21 03.05.2022
2326 Clouds 7 1018 90 10000 2.73 342 06:46 03.05.2022
2327 Clouds 6 1018 90 10000 2.47 315 05:56 03.05.2022
2328 Clouds 6 1020 82 10000 2.04 338 00:19 03.05.2022
2329 Clouds 7 1020 76 10000 2.17 347 22:36 02.05.2022
2330 Clouds 9 1020 74 10000 2.41 356 21:51 02.05.2022
2331 Clear 10 1020 72 10000 2.94 359 20:51 02.05.2022
2332 Clear 14 1019 61 10000 3.61 356 18:37 02.05.2022
2333 Clear 15 1019 59 10000 4.28 354 17:57 02.05.2022
2334 Clear 15 1019 59 10000 4.28 354 17:34 02.05.2022
2335 Clear 16 1020 55 10000 4.39 341 16:22 02.05.2022
2336 Clear 16 1020 55 10000 4.39 341 15:30 02.05.2022
2337 Clear 16 1020 55 10000 4.39 341 15:30 02.05.2022
2338 Clear 15 1020 53 10000 3.49 341 13:50 02.05.2022
2339 Clear 14 1021 55 10000 2.49 346 12:19 02.05.2022
2340 Clear 13 1021 63 10000 2.11 352 10:47 02.05.2022
2341 Clouds 11 1021 72 10000 1.28 23 09:20 02.05.2022
2342 Clear 6 1022 91 10000 1.4 41 07:51 02.05.2022
2343 Clear 3 1022 87 10000 1.61 59 03:48 02.05.2022
2344 Clouds 6 1023 84 10000 2.1 64 00:24 02.05.2022
2345 Clouds 5 1023 83 10000 2.1 64 23:48 01.05.2022
2346 Clouds 8 1023 78 10000 2.63 51 22:25 01.05.2022
2347 Clouds 9 1023 73 10000 2.72 44 21:19 01.05.2022
2348 Clouds 11 1023 71 10000 2.82 32 19:53 01.05.2022
2349 Clouds 12 1022 70 10000 3.12 31 18:58 01.05.2022
2350 Clouds 12 1023 68 10000 2.94 28 18:28 01.05.2022
2351 Clouds 13 1023 67 10000 2.86 20 17:29 01.05.2022
2352 Clouds 13 1023 67 10000 3.12 4 16:23 01.05.2022
2353 Clouds 13 1023 66 10000 3.29 349 15:25 01.05.2022
2354 Clouds 13 1024 69 10000 3.01 334 13:47 01.05.2022
2355 Clouds 11 1024 72 10000 1.26 300 11:23 01.05.2022
2356 Clouds 8 1025 86 10000 0.89 289 08:53 01.05.2022
2357 Clouds 8 1025 89 10000 1.6 312 08:34 01.05.2022
2358 Clouds 4 1024 88 10000 0.88 310 03:44 01.05.2022
2359 Clouds 5 1025 84 10000 1.61 359 00:29 01.05.2022
2360 Clouds 8 1026 78 10000 2.69 349 21:49 30.04.2022
2361 Clear 9 1025 77 10000 2.94 350 21:18 30.04.2022
2362 Clouds 10 1025 75 10000 3.1 343 19:42 30.04.2022
2363 Clouds 11 1025 73 10000 4.31 341 18:28 30.04.2022
2364 Clouds 12 1025 72 10000 4.29 340 16:50 30.04.2022
2365 Clouds 12 1025 72 10000 4.51 337 15:47 30.04.2022
2366 Clouds 12 1026 70 10000 4.19 340 14:48 30.04.2022
2367 Clouds 12 1026 72 10000 3.53 347 13:20 30.04.2022
2368 Clouds 11 1027 73 10000 3.2 351 11:34 30.04.2022
2369 Clouds 11 1027 72 10000 2.86 358 10:45 30.04.2022
2370 Clouds 10 1027 75 10000 2.79 4 09:48 30.04.2022
2371 Clouds 5 1027 88 10000 2.26 357 06:48 30.04.2022
2372 Clouds 6 1028 86 10000 2.85 345 02:55 30.04.2022
2373 Clouds 7 1029 81 10000 3.35 352 23:37 29.04.2022
2374 Clouds 7 1029 79 10000 3.27 351 22:34 29.04.2022
2375 Clouds 8 1029 78 10000 3.18 352 21:54 29.04.2022
2376 Clouds 8 1029 76 10000 3.26 358 20:51 29.04.2022
2377 Clouds 9 1028 74 10000 4.21 9 19:47 29.04.2022
2378 Clouds 10 1028 72 10000 4.76 5 18:36 29.04.2022
2379 Clouds 10 1029 71 10000 4.74 0 17:25 29.04.2022
2380 Clouds 10 1029 72 10000 4.8 5 15:52 29.04.2022
2381 Clouds 10 1030 69 10000 4.72 3 14:23 29.04.2022
2382 Clouds 11 1030 69 10000 4.31 15 13:27 29.04.2022
2383 Clouds 10 1030 72 10000 4.04 26 11:51 29.04.2022
2384 Clouds 9 1030 74 10000 3.64 34 09:23 29.04.2022
2385 Clouds 6 1030 82 10000 2.57 32 07:29 29.04.2022
2386 Clouds 5 1030 84 10000 2.57 32 06:46 29.04.2022
2387 Clouds 5 1030 84 10000 2.85 32 05:55 29.04.2022
2388 Clouds 5 1032 80 10000 2.85 19 00:47 29.04.2022
2389 Clouds 6 1032 80 10000 2.91 18 23:48 28.04.2022
2390 Clouds 6 1032 79 10000 2.86 17 22:45 28.04.2022
2391 Clouds 7 1032 78 10000 3.08 15 21:55 28.04.2022
2392 Clouds 7 1032 77 10000 3.16 11 21:29 28.04.2022
2393 Clouds 8 1032 77 10000 3.16 11 20:37 28.04.2022
2394 Clouds 10 1031 74 10000 3.6 9 19:46 28.04.2022
2395 Clouds 10 1031 74 10000 4.43 7 19:23 28.04.2022
2396 Clouds 11 1031 71 10000 4.43 7 18:37 28.04.2022
2397 Clouds 12 1031 66 10000 4.85 5 17:32 28.04.2022
2398 Clouds 12 1031 67 10000 4.92 2 16:49 28.04.2022
2399 Clouds 13 1031 67 10000 4.83 358 16:19 28.04.2022
2400 Clouds 13 1031 67 10000 4.83 358 15:41 28.04.2022
2401 Clouds 12 1031 67 10000 4.72 352 14:47 28.04.2022
2402 Clouds 12 1031 68 10000 4.4 352 13:20 28.04.2022
2403 Clouds 12 1031 71 10000 3.98 359 12:28 28.04.2022
2404 Clouds 10 1031 74 10000 3.83 1 10:51 28.04.2022
2405 Clouds 10 1031 73 10000 3.66 1 10:26 28.04.2022
2406 Clouds 10 1031 73 10000 3.66 1 09:43 28.04.2022
2407 Clouds 8 1030 80 10000 2.59 10 07:40 28.04.2022
2408 Clouds 6 1030 82 10000 2.43 5 06:38 28.04.2022
2409 Clouds 5 1029 76 10000 2.32 0 05:40 28.04.2022
2410 Clouds 5 1029 74 10000 2.27 350 04:42 28.04.2022
2411 Clouds 5 1029 72 10000 2.07 7 00:52 28.04.2022
2412 Clouds 6 1029 75 10000 2.15 16 23:18 27.04.2022
2413 Clouds 7 1028 72 10000 2.44 17 21:58 27.04.2022
2414 Clouds 8 1028 72 10000 2.44 17 21:32 27.04.2022
2415 Clouds 8 1028 71 10000 2.72 6 20:44 27.04.2022
2416 Clouds 10 1027 68 10000 2.89 343 19:54 27.04.2022
2417 Clouds 10 1027 67 10000 2.89 343 19:31 27.04.2022
2418 Clouds 11 1027 66 10000 3.68 340 18:38 27.04.2022
2419 Clouds 11 1027 67 10000 4.01 332 17:41 27.04.2022
2420 Clouds 12 1027 64 10000 4.31 325 15:57 27.04.2022
2421 Clouds 11 1026 67 10000 3.03 310 12:59 27.04.2022
2422 Clouds 10 1026 63 10000 1.96 306 11:24 27.04.2022
2423 Clouds 10 1026 62 10000 1.96 306 10:45 27.04.2022
2424 Clouds 7 1025 70 10000 0.76 251 08:22 27.04.2022
2425 Clouds 6 1024 84 10000 1.03 254 06:41 27.04.2022
2426 Clouds 5 1023 84 10000 0.99 306 02:31 27.04.2022
2427 Clear 4 1023 84 10000 0.79 351 01:21 27.04.2022
2428 Clear 4 1023 83 10000 1.38 357 00:27 27.04.2022
2429 Clear 5 1022 80 10000 1.85 353 23:24 26.04.2022
2430 Clear 6 1022 78 10000 1.85 353 22:45 26.04.2022
2431 Clear 6 1022 77 10000 2.31 350 22:19 26.04.2022
2432 Clear 8 1021 74 10000 2.71 344 21:24 26.04.2022
2433 Clear 10 1021 73 10000 2.71 344 20:38 26.04.2022
2434 Clouds 10 1021 69 10000 3.27 340 19:45 26.04.2022
2435 Clouds 11 1020 67 10000 4.31 337 19:26 26.04.2022
2436 Clouds 11 1020 67 10000 4.31 337 18:39 26.04.2022
2437 Clouds 12 1020 63 10000 5.09 334 17:41 26.04.2022
2438 Clouds 13 1019 62 10000 5.22 338 15:41 26.04.2022
2439 Clouds 13 1019 64 10000 5.27 343 13:55 26.04.2022
2440 Clouds 12 1019 63 10000 5.35 349 13:28 26.04.2022
2441 Clear 11 1018 68 10000 5.42 4 11:24 26.04.2022
2442 Clear 10 1018 72 10000 5.42 4 10:30 26.04.2022
2443 Clear 8 1017 80 10000 6.01 8 08:38 26.04.2022
2444 Clear 7 1016 85 10000 3.77 4 05:29 26.04.2022
2445 Clear 7 1016 86 10000 3.9 4 04:22 26.04.2022
2446 Clouds 7 1016 82 10000 3.77 17 00:52 26.04.2022
2447 Clouds 8 1016 78 10000 3.88 16 23:51 25.04.2022
2448 Clouds 8 1016 74 10000 4.61 19 21:57 25.04.2022
2449 Clouds 8 1016 75 10000 4.61 19 21:33 25.04.2022
2450 Clouds 9 1015 73 10000 5.69 20 20:26 25.04.2022
2451 Clouds 12 1014 70 10000 6.03 21 18:52 25.04.2022
2452 Clouds 13 1014 71 10000 5.85 26 17:40 25.04.2022
2453 Clouds 13 1014 68 10000 4.32 34 16:50 25.04.2022
2454 Clouds 14 1014 72 10000 3.97 71 15:23 25.04.2022
2455 Clouds 14 1014 65 10000 3.97 71 14:34 25.04.2022
2456 Clouds 13 1013 62 10000 5.93 62 13:21 25.04.2022
2457 Clouds 9 1013 75 10000 6.18 70 10:58 25.04.2022
2458 Clouds 8 1013 78 10000 6.45 68 09:55 25.04.2022
2459 Clouds 7 1012 82 10000 5.16 56 08:23 25.04.2022
2460 Clouds 7 1011 93 10000 5.12 60 06:18 25.04.2022
2461 Clouds 7 1011 90 10000 5.75 57 01:49 25.04.2022
2462 Clouds 8 1010 79 10000 5.65 53 23:57 24.04.2022
2463 Clouds 8 1010 78 10000 5.65 53 23:30 24.04.2022
2464 Clouds 9 1010 76 10000 5.83 51 22:40 24.04.2022
2465 Clouds 9 1009 75 10000 5.97 48 21:58 24.04.2022
2466 Clouds 9 1009 75 10000 5.89 42 21:23 24.04.2022
2467 Clouds 10 1009 74 10000 5.89 42 20:47 24.04.2022
2468 Clouds 10 1009 74 10000 5.89 42 20:47 24.04.2022
2469 Clear 11 1009 73 10000 6.83 43 20:21 24.04.2022
2470 Clear 12 1008 67 10000 7.27 45 18:58 24.04.2022
2471 Clear 14 1008 62 10000 7.44 48 17:55 24.04.2022
2472 Clear 14 1008 61 10000 7.76 43 17:22 24.04.2022
2473 Clear 14 1008 61 10000 7.76 43 16:58 24.04.2022
2474 Clear 14 1008 61 10000 7.76 43 16:30 24.04.2022
2475 Clear 14 1008 59 10000 7.67 42 15:53 24.04.2022
2476 Clear 15 1008 58 10000 7.94 45 14:55 24.04.2022
2477 Clear 15 1008 59 10000 7.81 50 13:45 24.04.2022
2478 Clear 15 1008 59 10000 8 54 13:23 24.04.2022
2479 Clear 13 1008 63 10000 8.21 56 11:55 24.04.2022
2480 Clear 13 1008 64 10000 8 59 11:22 24.04.2022
2481 Clear 11 1008 66 10000 7.9 63 09:51 24.04.2022
2482 Clear 9 1008 76 10000 7.48 65 08:31 24.04.2022
2483 Clear 7 1008 81 10000 5.91 62 06:18 24.04.2022
2484 Clear 8 1008 74 10000 5.73 63 02:59 24.04.2022
2485 Clear 9 1009 72 10000 5.87 62 01:18 24.04.2022
2486 Clear 10 1009 72 10000 5.97 64 23:55 23.04.2022
2487 Clear 10 1009 74 10000 6.5 68 23:25 23.04.2022
2488 Clear 11 1009 73 10000 6.5 68 22:42 23.04.2022
2489 Clear 12 1009 70 10000 7.21 67 21:49 23.04.2022
2490 Clear 13 1009 66 10000 7.21 67 21:31 23.04.2022
2491 Clear 14 1008 61 10000 7.03 65 20:27 23.04.2022
2492 Clear 16 1008 51 10000 5.9 70 19:21 23.04.2022
2493 Clear 17 1008 48 10000 5.9 70 18:55 23.04.2022
2494 Clear 17 1008 48 10000 5.9 70 18:32 23.04.2022
2495 Clear 18 1008 60 10000 5.84 78 17:48 23.04.2022
2496 Clear 18 1008 56 10000 6.54 86 16:47 23.04.2022
2497 Clear 17 1009 51 10000 7.6 91 16:21 23.04.2022
2498 Clear 17 1009 46 10000 8.72 93 14:27 23.04.2022
2499 Clear 15 1010 54 10000 8.93 90 11:59 23.04.2022
2500 Clear 14 1010 62 10000 8.56 89 10:40 23.04.2022
2501 Clear 11 1011 72 10000 7.2 83 08:42 23.04.2022
2502 Clear 9 1010 82 10000 6.44 80 05:45 23.04.2022
2503 Clouds 10 1010 81 10000 5.87 76 03:54 23.04.2022
2504 Clouds 11 1010 92 10000 6.22 82 00:46 23.04.2022
2505 Clouds 12 1010 73 10000 6.63 71 23:27 22.04.2022
2506 Clouds 12 1010 86 10000 6.67 67 21:59 22.04.2022
2507 Clouds 12 1010 86 10000 6.67 67 21:40 22.04.2022
2508 Clouds 14 1009 85 10000 6.23 66 20:44 22.04.2022
2509 Clouds 15 1009 62 10000 7.1 71 20:25 22.04.2022
2510 Clouds 16 1009 60 10000 7.43 72 19:18 22.04.2022
2511 Clouds 15 1009 76 10000 7.43 72 18:35 22.04.2022
2512 Clouds 17 1009 74 10000 7.28 74 17:37 22.04.2022
2513 Clouds 17 1009 71 10000 7.56 69 16:30 22.04.2022
2514 Clouds 17 1009 58 10000 7.29 71 15:32 22.04.2022
2515 Clear 17 1009 57 10000 6.82 71 14:43 22.04.2022
2516 Clear 16 1010 57 10000 7 72 13:42 22.04.2022
2517 Clear 15 1011 64 10000 6.86 72 12:57 22.04.2022
2518 Clear 13 1011 66 10000 7.22 70 11:43 22.04.2022
2519 Clear 13 1011 68 10000 7.25 67 11:20 22.04.2022
2520 Clear 13 1011 66 10000 7.24 67 10:47 22.04.2022
2521 Clear 12 1011 70 10000 6.84 64 10:27 22.04.2022
2522 Clear 11 1011 71 10000 6.85 64 09:42 22.04.2022
2523 Clear 10 1012 75 10000 6.7 65 08:49 22.04.2022
2524 Clouds 7 1012 83 10000 5.32 59 06:56 22.04.2022
2525 Clouds 10 1014 78 10000 4.85 59 01:53 22.04.2022
2526 Clouds 11 1014 74 10000 4.15 60 23:53 21.04.2022
2527 Clouds 11 1014 75 10000 4.39 68 22:59 21.04.2022
2528 Clouds 12 1014 75 10000 4.92 68 21:59 21.04.2022
2529 Clouds 13 1014 71 10000 5.32 64 20:34 21.04.2022
2530 Clouds 13 1014 70 10000 5.94 64 19:53 21.04.2022
2531 Clouds 14 1014 63 10000 5.64 60 18:35 21.04.2022
2532 Clouds 15 1014 61 10000 5.37 51 17:54 21.04.2022
2533 Clouds 16 1014 64 10000 5.79 60 16:30 21.04.2022
2534 Clouds 16 1015 58 10000 6.06 59 15:21 21.04.2022
2535 Clouds 16 1015 59 10000 6.16 62 14:38 21.04.2022
2536 Clouds 15 1016 57 10000 6.71 58 13:23 21.04.2022
2537 Clouds 15 1016 57 10000 6.71 58 12:53 21.04.2022
2538 Clouds 13 1016 61 10000 6.25 64 10:47 21.04.2022
2539 Clouds 11 1016 71 10000 5.47 71 08:55 21.04.2022
2540 Clouds 6 1016 83 10000 3.53 73 07:24 21.04.2022
2541 Clouds 6 1016 81 10000 3.67 77 05:42 21.04.2022
2542 Clouds 7 1017 84 10000 3.61 76 03:28 21.04.2022
2543 Clouds 7 1017 83 10000 3.61 76 02:47 21.04.2022
2544 Clouds 7 1017 83 10000 3.61 76 02:47 21.04.2022
2545 Clouds 7 1017 77 10000 3.31 71 00:45 21.04.2022
2546 Clouds 7 1017 74 10000 3.32 65 23:50 20.04.2022
2547 Clouds 8 1017 73 10000 3.73 52 23:22 20.04.2022
2548 Clouds 8 1017 72 10000 3.73 52 22:49 20.04.2022
2549 Clouds 8 1017 71 10000 3.73 52 22:30 20.04.2022
2550 Clouds 10 1017 68 10000 4.05 35 21:27 20.04.2022
2551 Clouds 12 1017 63 10000 4.43 34 20:24 20.04.2022
2552 Clouds 13 1017 61 10000 4.43 34 19:52 20.04.2022
2553 Clouds 14 1017 62 10000 4.69 38 19:21 20.04.2022
2554 Clouds 15 1017 59 10000 5.34 48 18:22 20.04.2022
2555 Clouds 16 1017 59 10000 5.94 51 16:54 20.04.2022
2556 Clouds 16 1017 59 10000 5.94 51 16:36 20.04.2022
2557 Clear 15 1018 52 10000 5.41 62 13:59 20.04.2022
2558 Clear 14 1019 45 10000 5.06 79 11:52 20.04.2022
2559 Clear 13 1020 53 10000 4.97 79 11:24 20.04.2022
2560 Clear 12 1020 59 10000 4.65 81 10:22 20.04.2022
2561 Clear 10 1019 66 10000 4.46 83 09:25 20.04.2022
2562 Clear 8 1019 77 10000 3.52 76 08:22 20.04.2022
2563 Clear 8 1019 77 10000 3.52 76 08:22 20.04.2022
2564 Clear 6 1019 81 10000 3.44 75 07:42 20.04.2022
2565 Clear 6 1019 76 10000 3.62 73 03:54 20.04.2022
2566 Clear 8 1019 71 10000 4.19 70 00:24 20.04.2022
2567 Clear 8 1019 72 10000 4.19 70 23:59 19.04.2022
2568 Clouds 10 1019 78 10000 4.16 61 22:28 19.04.2022
2569 Clouds 10 1019 76 10000 4.16 61 21:57 19.04.2022
2570 Clouds 10 1019 75 10000 4.16 61 21:34 19.04.2022
2571 Clouds 11 1018 71 10000 4.84 46 20:50 19.04.2022
2572 Clouds 12 1018 70 10000 4.84 46 20:32 19.04.2022
2573 Clouds 14 1017 67 10000 5.68 38 19:24 19.04.2022
2574 Clouds 16 1017 66 10000 5.71 50 17:59 19.04.2022
2575 Clear 17 1017 61 10000 5.83 63 16:44 19.04.2022
2576 Clear 17 1017 58 10000 5.99 69 16:24 19.04.2022
2577 Clear 17 1017 48 10000 5.72 75 15:20 19.04.2022
2578 Clear 17 1017 56 10000 5.72 75 14:31 19.04.2022
2579 Clouds 16 1017 52 10000 4.99 95 12:52 19.04.2022
2580 Clouds 15 1017 53 10000 5.03 97 12:26 19.04.2022
2581 Clouds 14 1017 54 10000 4.87 98 11:23 19.04.2022
2582 Clouds 11 1017 75 10000 4.14 99 09:26 19.04.2022
2583 Clouds 6 1016 80 10000 3.2 93 07:26 19.04.2022
2584 Clear 7 1016 79 10000 3.65 93 04:19 19.04.2022
2585 Clear 8 1017 74 10000 3.6 102 01:18 19.04.2022
2586 Clear 9 1018 67 10000 3.49 99 23:40 18.04.2022
2587 Clear 12 1018 60 10000 3.31 107 21:56 18.04.2022
2588 Clear 12 1018 56 10000 3.51 107 21:24 18.04.2022
2589 Clear 13 1018 70 10000 3.66 110 20:38 18.04.2022
2590 Clear 13 1018 69 10000 3.51 107 20:38 18.04.2022
2591 Clear 16 1017 71 10000 3.42 107 19:59 18.04.2022
2592 Clear 17 1017 43 10000 3.42 107 19:30 18.04.2022
2593 Clear 18 1017 40 10000 2.75 111 18:37 18.04.2022
2594 Clear 19 1017 53 10000 2.91 122 17:39 18.04.2022
2595 Clear 19 1018 46 10000 2.98 136 17:19 18.04.2022
2596 Clear 19 1018 46 10000 2.98 136 16:38 18.04.2022
2597 Clear 19 1018 40 10000 3.34 140 15:30 18.04.2022
2598 Clear 18 1019 43 10000 3.95 149 14:22 18.04.2022
2599 Clear 17 1019 39 10000 4.43 153 12:54 18.04.2022
2600 Clear 16 1020 52 10000 4.95 149 12:23 18.04.2022
2601 Clear 14 1020 51 10000 5.08 148 10:46 18.04.2022
2602 Clear 12 1020 57 10000 5.31 141 09:32 18.04.2022
2603 Clear 9 1020 66 10000 4.92 139 08:39 18.04.2022
2604 Clear 5 1021 69 10000 3.75 142 06:52 18.04.2022
2605 Clear 7 1022 56 10000 4.01 126 02:29 18.04.2022
2606 Clear 7 1024 66 10000 4.02 125 23:21 17.04.2022
2607 Clear 8 1024 66 10000 4.02 125 22:36 17.04.2022
2608 Clear 10 1025 67 10000 4.11 116 21:34 17.04.2022
2609 Clear 11 1024 68 10000 3.87 118 20:52 17.04.2022
2610 Clear 15 1024 69 10000 3.72 113 20:19 17.04.2022
2611 Clear 16 1025 60 10000 3.91 120 18:45 17.04.2022
2612 Clear 17 1025 54 10000 4.54 122 17:31 17.04.2022
2613 Clear 17 1026 38 10000 4.78 125 15:37 17.04.2022
2614 Clear 16 1027 42 10000 4.13 132 14:45 17.04.2022
2615 Clear 16 1028 40 10000 3.74 136 13:37 17.04.2022
2616 Clouds 15 1029 42 10000 3.76 136 12:49 17.04.2022
2617 Clouds 13 1030 54 10000 3.79 142 10:59 17.04.2022
2618 Clouds 12 1030 55 10000 3.67 140 10:29 17.04.2022
2619 Clouds 11 1030 58 10000 3.67 140 09:55 17.04.2022
2620 Clouds 10 1030 64 10000 3.41 137 09:21 17.04.2022
2621 Clouds 7 1030 72 10000 3.41 137 08:41 17.04.2022
2622 Clouds 3 1031 80 10000 3.25 136 06:32 17.04.2022
2623 Clouds 5 1032 72 10000 3.44 132 02:31 17.04.2022
2624 Clear 6 1033 69 10000 3.37 129 00:42 17.04.2022
2625 Clear 7 1034 68 10000 3.47 118 23:41 16.04.2022
2626 Clear 8 1034 66 10000 3.32 106 21:54 16.04.2022
2627 Clear 9 1034 65 10000 3.14 105 21:19 16.04.2022
2628 Clouds 13 1033 47 10000 3.01 108 19:30 16.04.2022
2629 Clouds 13 1033 45 10000 3.29 122 18:44 16.04.2022
2630 Clouds 14 1034 49 10000 4.92 120 17:21 16.04.2022
2631 Clouds 14 1034 49 10000 4.92 120 16:30 16.04.2022
2632 Clouds 14 1035 44 10000 4.82 117 15:23 16.04.2022
2633 Clouds 13 1035 48 10000 4.82 117 14:43 16.04.2022
2634 Clouds 12 1035 49 10000 5.26 117 13:50 16.04.2022
2635 Clouds 12 1035 51 10000 5.38 114 13:24 16.04.2022
2636 Clouds 11 1035 59 10000 5.18 113 11:58 16.04.2022
2637 Clouds 9 1035 63 10000 5.39 114 10:35 16.04.2022
2638 Clouds 8 1035 73 10000 5.67 115 09:39 16.04.2022
2639 Clouds 7 1035 79 10000 5.83 114 08:54 16.04.2022
2640 Clouds 6 1034 86 10000 4.6 102 07:31 16.04.2022
2641 Clouds 6 1033 86 10000 4.87 97 06:18 16.04.2022
2642 Clouds 7 1032 87 10000 4.06 94 01:53 16.04.2022
2643 Clouds 8 1032 86 10000 2.38 57 00:19 16.04.2022
2644 Clouds 8 1031 85 10000 2.07 39 22:52 15.04.2022
2645 Clouds 8 1031 84 10000 2.07 39 22:31 15.04.2022
2646 Clouds 8 1031 83 10000 2.25 39 21:35 15.04.2022
2647 Clouds 8 1031 82 10000 2.65 36 20:44 15.04.2022
2648 Clouds 8 1030 81 10000 3.31 26 19:52 15.04.2022
2649 Clouds 9 1030 81 10000 3.31 26 19:33 15.04.2022
2650 Clouds 9 1030 80 10000 3.95 17 18:45 15.04.2022
2651 Clouds 9 1029 80 10000 4.11 15 18:23 15.04.2022
2652 Clouds 9 1029 81 10000 4.25 10 17:29 15.04.2022
2653 Clouds 9 1029 81 10000 4.14 12 16:26 15.04.2022
2654 Clouds 9 1029 80 10000 4.14 12 15:54 15.04.2022
2655 Clouds 9 1029 79 10000 4.09 13 14:30 15.04.2022
2656 Clouds 9 1028 79 10000 3.71 4 13:23 15.04.2022
2657 Clouds 9 1028 78 10000 3.71 3 12:40 15.04.2022
2658 Clouds 9 1028 79 10000 3.53 358 11:54 15.04.2022
2659 Clouds 8 1028 79 10000 3.83 355 10:49 15.04.2022
2660 Clouds 8 1027 79 10000 4.01 350 10:22 15.04.2022
2661 Clouds 8 1027 83 10000 4.01 350 09:38 15.04.2022
2662 Clouds 8 1027 84 10000 3.97 344 09:18 15.04.2022
2663 Clouds 7 1026 87 10000 4.12 349 06:56 15.04.2022
2664 Clouds 7 1025 85 10000 4.19 348 05:57 15.04.2022
2665 Clouds 8 1024 85 10000 4.93 329 01:49 15.04.2022
2666 Clouds 8 1024 84 10000 4.46 316 23:30 14.04.2022
2667 Clouds 8 1024 85 10000 4.47 316 22:47 14.04.2022
2668 Clear 8 1023 85 10000 4.02 310 22:28 14.04.2022
2669 Clear 8 1023 84 10000 4.02 310 21:54 14.04.2022
2670 Clouds 9 1022 83 10000 4.14 302 20:35 14.04.2022
2671 Clouds 11 1021 82 10000 5.4 304 19:22 14.04.2022
2672 Clouds 13 1021 77 10000 6.2 305 18:18 14.04.2022
2673 Clouds 14 1020 76 10000 6.13 303 17:28 14.04.2022
2674 Clouds 14 1020 76 10000 6.13 303 16:33 14.04.2022
2675 Clear 16 1020 72 10000 6.79 288 14:28 14.04.2022
2676 Clouds 16 1020 67 10000 6.41 287 13:39 14.04.2022
2677 Clear 16 1020 66 10000 6.09 282 12:51 14.04.2022
2678 Clear 16 1019 71 10000 5.27 277 12:31 14.04.2022
2679 Clear 16 1019 72 10000 4.8 275 11:24 14.04.2022
2680 Clear 14 1019 76 10000 4.8 275 10:41 14.04.2022
2681 Clear 13 1019 80 10000 3.98 269 09:57 14.04.2022
2682 Clear 10 1019 91 10000 3.41 269 08:44 14.04.2022
2683 Clouds 9 1018 89 10000 2.88 253 06:53 14.04.2022
2684 Clouds 10 1018 87 10000 2.91 236 03:28 14.04.2022
2685 Clouds 12 1019 83 10000 2.28 261 23:25 13.04.2022
2686 Clouds 12 1018 81 10000 2.2 291 22:19 13.04.2022
2687 Clouds 13 1018 79 10000 2.2 291 21:34 13.04.2022
2688 Clouds 14 1017 75 10000 2.52 293 20:22 13.04.2022
2689 Clouds 15 1017 74 10000 2.09 292 19:36 13.04.2022
2690 Clouds 16 1017 71 10000 4.24 292 18:27 13.04.2022
2691 Clouds 16 1016 74 10000 4.77 287 17:24 13.04.2022
2692 Clouds 16 1016 76 10000 4.77 287 16:34 13.04.2022
2693 Clouds 17 1016 71 10000 4.88 281 15:40 13.04.2022
2694 Clouds 18 1016 68 10000 5.19 272 14:51 13.04.2022
2695 Clouds 18 1016 68 10000 4.9 263 14:28 13.04.2022
2696 Clouds 18 1016 68 10000 4.56 245 13:29 13.04.2022
2697 Clouds 18 1015 76 10000 4.55 242 12:27 13.04.2022
2698 Clouds 16 1015 78 10000 4.26 242 10:54 13.04.2022
2699 Clouds 15 1014 77 10000 4.01 240 09:44 13.04.2022
2700 Clouds 13 1013 82 10000 3.37 242 08:43 13.04.2022
2701 Clouds 11 1012 83 10000 3.11 251 06:52 13.04.2022
2702 Clouds 11 1012 82 10000 3.29 246 06:26 13.04.2022
2703 Clouds 10 1012 83 10000 3.29 246 05:52 13.04.2022
2704 Clouds 13 1011 66 10000 5.37 135 00:23 13.04.2022
2705 Clouds 14 1011 65 10000 5.37 135 23:46 12.04.2022
2706 Clouds 15 1011 62 10000 6.19 120 22:19 12.04.2022
2707 Clouds 15 1011 78 10000 6.19 120 21:32 12.04.2022
2708 Clouds 17 1011 79 10000 5.71 117 20:42 12.04.2022
2709 Clouds 17 1010 77 10000 5.38 121 19:53 12.04.2022
2710 Clouds 18 1011 59 10000 5.45 124 19:32 12.04.2022
2711 Clouds 18 1011 57 10000 6.18 126 18:42 12.04.2022
2712 Clouds 19 1010 55 10000 6.47 124 17:30 12.04.2022
2713 Clouds 18 1011 53 10000 6.73 127 16:25 12.04.2022
2714 Clouds 18 1011 53 10000 6.73 127 15:33 12.04.2022
2715 Clouds 17 1012 55 10000 6.82 131 14:32 12.04.2022
2716 Clouds 16 1012 55 10000 6.95 127 13:38 12.04.2022
2717 Clouds 15 1012 58 10000 6.98 126 12:53 12.04.2022
2718 Clouds 13 1013 62 10000 7.07 124 11:47 12.04.2022
2719 Clouds 13 1013 62 10000 6.91 118 11:20 12.04.2022
2720 Clouds 8 1013 70 10000 5.84 107 09:25 12.04.2022
2721 Clouds 5 1014 71 10000 5.54 106 07:59 12.04.2022
2722 Clouds 6 1014 75 10000 5.44 105 06:33 12.04.2022
2723 Clouds 6 1014 74 10000 4.91 104 05:35 12.04.2022
2724 Clouds 6 1017 76 10000 4.78 94 00:59 12.04.2022
2725 Clouds 6 1017 80 10000 4.86 85 22:53 11.04.2022
2726 Clouds 7 1017 80 10000 4.91 82 21:49 11.04.2022
2727 Clouds 7 1017 78 10000 4.57 74 21:18 11.04.2022
2728 Clouds 9 1017 75 10000 4.57 74 20:30 11.04.2022
2729 Clouds 10 1016 73 10000 4.79 69 19:56 11.04.2022
2730 Clouds 11 1017 57 10000 4.1 60 19:21 11.04.2022
2731 Clouds 11 1017 56 10000 4.1 60 18:49 11.04.2022
2732 Clouds 12 1017 60 10000 3.58 57 17:57 11.04.2022
2733 Clouds 13 1017 67 10000 2.57 47 16:57 11.04.2022
2734 Clouds 13 1017 60 10000 1.62 45 16:20 11.04.2022
2735 Clouds 13 1018 54 10000 0.74 33 14:36 11.04.2022
2736 Clouds 11 1019 57 10000 0.82 122 12:54 11.04.2022
2737 Clouds 11 1019 59 10000 0.82 122 12:35 11.04.2022
2738 Clouds 10 1019 59 10000 0.46 120 11:42 11.04.2022
2739 Clouds 8 1019 68 10000 0.72 136 10:34 11.04.2022
2740 Clouds 4 1020 90 10000 0.58 166 09:30 11.04.2022
2741 Clouds 1 1019 90 10000 1.72 216 07:19 11.04.2022
2742 Clouds 1 1020 87 10000 2.81 238 02:32 11.04.2022
2743 Clouds 3 1020 82 10000 3.17 260 22:58 10.04.2022
2744 Clouds 3 1020 78 10000 3.2 266 22:26 10.04.2022
2745 Clouds 4 1020 76 10000 3.21 266 21:35 10.04.2022
2746 Clouds 6 1020 73 10000 3.31 276 20:39 10.04.2022
2747 Clouds 7 1019 67 10000 3.88 284 19:46 10.04.2022
2748 Clouds 8 1019 63 10000 5.14 290 19:25 10.04.2022
2749 Clouds 9 1019 67 10000 5.14 290 18:46 10.04.2022
2750 Clouds 9 1019 66 10000 6.46 293 17:58 10.04.2022
2751 Clouds 9 1019 65 10000 6.46 293 17:39 10.04.2022
2752 Clouds 9 1019 60 10000 6.95 296 16:44 10.04.2022
2753 Clouds 9 1019 60 10000 7.44 296 15:37 10.04.2022
2754 Clouds 9 1019 65 10000 7.67 305 14:25 10.04.2022
2755 Clouds 8 1019 67 10000 7.76 308 12:40 10.04.2022
2756 Clouds 8 1018 67 10000 8.33 313 12:21 10.04.2022
2757 Clouds 7 1018 69 10000 8.61 311 11:29 10.04.2022
2758 Clouds 7 1018 74 10000 8.61 311 10:56 10.04.2022
2759 Clouds 6 1017 80 10000 7.78 310 10:00 10.04.2022
2760 Clouds 5 1017 82 10000 7.78 310 09:39 10.04.2022
2761 Clouds 3 1016 88 10000 6.65 297 08:24 10.04.2022
2762 Clouds 2 1016 90 10000 6.55 298 07:42 10.04.2022
2763 Clouds 3 1015 88 10000 6.12 292 05:57 10.04.2022
2764 Clouds 3 1014 83 10000 7.23 299 02:37 10.04.2022
2765 Clouds 3 1014 84 10000 6.34 294 00:34 10.04.2022
2766 Clouds 3 1013 86 10000 6.01 294 23:49 09.04.2022
2767 Clouds 4 1013 85 10000 6.11 295 22:50 09.04.2022
2768 Clouds 4 1012 83 10000 6.24 296 21:46 09.04.2022
2769 Clouds 5 1012 80 10000 7.04 298 20:57 09.04.2022
2770 Clouds 5 1011 77 10000 7.88 302 20:26 09.04.2022
2771 Clouds 6 1010 79 10000 8.09 298 19:42 09.04.2022
2772 Clouds 6 1010 81 10000 8.39 298 19:18 09.04.2022
2773 Clouds 6 1010 81 10000 8.39 298 19:18 09.04.2022
2774 Clouds 7 1009 75 10000 8.93 294 18:21 09.04.2022
2775 Clouds 7 1009 73 10000 8.93 294 17:39 09.04.2022
2776 Clouds 7 1009 76 10000 9.12 292 16:53 09.04.2022
2777 Clouds 7 1009 72 10000 9.04 292 15:59 09.04.2022
2778 Clouds 8 1009 73 10000 9.04 292 15:41 09.04.2022
2779 Clouds 8 1009 81 10000 8.65 297 14:44 09.04.2022
2780 Clouds 8 1008 75 10000 8.74 300 14:23 09.04.2022
2781 Clouds 8 1007 75 10000 8.55 304 13:21 09.04.2022
2782 Clouds 7 1007 81 10000 8.55 304 12:51 09.04.2022
2783 Clouds 7 1007 80 10000 9.26 303 11:40 09.04.2022
2784 Clouds 7 1005 76 10000 8.64 294 10:21 09.04.2022
2785 Clouds 7 1005 80 10000 8.64 294 09:47 09.04.2022
2786 Clouds 5 1004 87 10000 8.4 289 08:57 09.04.2022
2787 Clouds 4 1003 87 10000 7.77 285 07:32 09.04.2022
2788 Clear 3 999 86 10000 5.5 303 02:58 09.04.2022
2789 Clouds 4 997 84 10000 5.99 308 00:25 09.04.2022
2790 Clouds 5 997 83 10000 6.14 305 22:58 08.04.2022
2791 Clouds 6 997 82 10000 6.18 300 21:34 08.04.2022
2792 Clouds 6 996 80 10000 6.28 295 20:41 08.04.2022
2793 Clouds 7 996 79 10000 6.54 290 19:39 08.04.2022
2794 Clouds 7 995 73 10000 6.97 288 18:34 08.04.2022
2795 Clouds 8 995 68 10000 7.23 288 17:55 08.04.2022
2796 Clouds 9 995 64 10000 7.73 290 17:27 08.04.2022
2797 Clouds 9 995 62 10000 7.73 290 16:51 08.04.2022
2798 Clouds 9 995 63 10000 7.93 292 16:20 08.04.2022
2799 Clouds 9 995 63 10000 8.03 291 15:27 08.04.2022
2800 Clouds 8 995 67 10000 8.03 291 14:40 08.04.2022
2801 Clouds 8 995 70 10000 8.22 285 13:55 08.04.2022
2802 Clouds 8 995 75 10000 8.22 285 13:30 08.04.2022
2803 Clouds 8 995 75 10000 8.45 276 12:42 08.04.2022
2804 Clouds 7 995 82 10000 8.29 263 10:56 08.04.2022
2805 Clouds 5 995 88 10000 8.13 264 09:41 08.04.2022
2806 Clouds 4 995 89 10000 6.95 256 08:58 08.04.2022
2807 Clouds 4 995 89 10000 6.38 257 07:42 08.04.2022
2808 Clouds 4 995 87 10000 6.04 268 06:44 08.04.2022
2809 Clouds 5 992 86 10000 8.89 296 02:37 08.04.2022
2810 Clouds 6 986 86 10000 11.31 323 00:28 08.04.2022
2811 Clouds 6 986 87 10000 11.31 323 23:42 07.04.2022
2812 Clouds 7 983 86 10000 10.63 275 22:41 07.04.2022
2813 Clouds 6 981 85 10000 9.71 263 22:23 07.04.2022
2814 Clouds 7 981 85 10000 9.71 263 21:58 07.04.2022
2815 Clouds 7 981 86 10000 9.46 257 21:29 07.04.2022
2816 Clouds 7 981 81 10000 9.46 257 20:42 07.04.2022
2817 Clouds 8 980 76 10000 10.73 260 19:51 07.04.2022
2818 Clouds 8 977 79 10000 13.12 256 17:29 07.04.2022
2819 Clouds 7 977 84 10000 13.12 256 16:59 07.04.2022
2820 Clouds 8 977 82 10000 13.12 256 16:33 07.04.2022
2821 Clouds 7 977 85 10000 13.4 254 15:47 07.04.2022
2822 Clouds 9 977 79 10000 11.5 248 13:54 07.04.2022
2823 Clouds 9 978 85 10000 11.33 246 13:23 07.04.2022
2824 Clouds 9 978 83 10000 10.81 239 11:53 07.04.2022
2825 Clouds 7 979 83 10000 8.82 231 10:54 07.04.2022
2826 Clouds 6 979 89 10000 10.24 229 09:19 07.04.2022
2827 Clouds 9 981 87 10000 10.6 220 06:59 07.04.2022
2828 Clouds 9 984 88 10000 11.03 222 05:28 07.04.2022
2829 Clouds 9 986 87 10000 9.62 221 02:37 07.04.2022
2830 Clouds 9 988 87 10000 9.89 223 00:43 07.04.2022
2831 Clouds 9 989 88 10000 9.68 228 23:36 06.04.2022
2832 Clouds 9 990 89 10000 10.13 232 22:45 06.04.2022
2833 Clouds 9 990 90 10000 10.23 231 22:20 06.04.2022
2834 Clouds 9 990 89 10000 11.04 232 20:50 06.04.2022
2835 Clouds 9 990 88 10000 10.23 225 20:26 06.04.2022
2836 Clouds 10 990 87 10000 10.23 225 19:44 06.04.2022
2837 Clouds 10 991 89 9111 9.63 227 18:48 06.04.2022
2838 Clouds 10 991 87 10000 8.94 226 17:38 06.04.2022
2839 Clouds 11 992 86 10000 8.93 222 17:20 06.04.2022
2840 Clouds 11 992 81 10000 8.93 222 16:34 06.04.2022
2841 Clouds 11 994 82 10000 9.75 230 15:45 06.04.2022
2842 Clouds 9 995 91 10000 9.21 235 13:53 06.04.2022
2843 Clouds 9 996 89 10000 8.72 231 12:37 06.04.2022
2844 Clouds 9 996 92 10000 9.08 227 11:44 06.04.2022
2845 Clouds 8 996 92 10000 9.22 227 10:42 06.04.2022
2846 Clouds 8 997 92 10000 8.99 228 10:18 06.04.2022
2847 Clouds 8 997 92 10000 8.72 231 09:25 06.04.2022
2848 Clouds 8 997 91 10000 8.74 234 08:26 06.04.2022
2849 Clouds 8 997 90 10000 8.18 233 06:45 06.04.2022
2850 Clouds 8 1000 92 10000 6.42 250 02:19 06.04.2022
2851 Clouds 8 1001 92 10000 8.35 254 23:50 05.04.2022
2852 Clouds 8 1001 92 10000 7.08 254 22:20 05.04.2022
2853 Clouds 9 1001 92 10000 6.97 252 21:18 05.04.2022
2854 Clouds 9 1001 92 10000 6.97 252 21:18 05.04.2022
2855 Clouds 9 1001 92 10000 6.97 252 21:18 05.04.2022
2856 Clouds 9 1001 92 10000 5.84 261 20:25 05.04.2022
2857 Clouds 9 1001 91 10000 5.62 272 18:56 05.04.2022
2858 Clouds 9 1001 92 10000 5.35 273 17:31 05.04.2022
2859 Clouds 9 1001 92 10000 3.11 229 16:47 05.04.2022
2860 Clouds 8 1002 91 10000 1.89 206 15:52 05.04.2022
2861 Clouds 8 1002 91 10000 1.89 206 15:33 05.04.2022
2862 Clouds 8 1002 91 10000 1.89 206 15:33 05.04.2022
2863 Clouds 8 1003 91 10000 3.22 296 14:22 05.04.2022
2864 Clouds 8 1003 90 10000 3.81 262 12:56 05.04.2022
2865 Clouds 8 1003 87 10000 4.32 266 11:50 05.04.2022
2866 Clouds 7 1003 87 10000 4.32 266 11:32 05.04.2022
2867 Clouds 7 1003 89 10000 5.17 293 09:49 05.04.2022
2868 Clouds 7 1003 89 10000 4.89 290 08:52 05.04.2022
2869 Clouds 6 1002 89 10000 5.03 288 06:52 05.04.2022
2870 Clouds 7 1001 91 10000 7.31 288 00:41 05.04.2022
2871 Clouds 8 1001 89 10000 6.83 282 22:41 04.04.2022
2872 Clouds 8 1001 89 10000 7.13 284 22:22 04.04.2022
2873 Clouds 8 1000 88 10000 7.95 286 21:21 04.04.2022
2874 Clouds 8 1000 87 10000 7.95 286 20:49 04.04.2022
2875 Clouds 8 1000 87 10000 8.72 287 19:45 04.04.2022
2876 Clouds 9 999 87 10000 9.15 287 19:25 04.04.2022
2877 Clouds 9 999 88 10000 9.48 287 18:20 04.04.2022
2878 Clouds 8 998 93 10000 9.59 283 16:36 04.04.2022
2879 Clouds 8 998 93 10000 9.83 270 15:43 04.04.2022
2880 Clouds 8 998 92 10000 10.4 257 15:25 04.04.2022
2881 Clouds 7 998 92 10000 10.37 256 14:46 04.04.2022
2882 Clouds 6 999 91 8406 11.86 245 13:30 04.04.2022
2883 Clouds 6 1001 90 5207 13.25 237 11:55 04.04.2022
2884 Clouds 5 1002 90 1187 13.11 233 11:29 04.04.2022
2885 Clouds 4 1004 89 525 11.63 228 09:18 04.04.2022
2886 Clouds 4 1010 84 10000 9.15 224 04:45 04.04.2022
2887 Clouds 3 1016 87 10000 5.76 235 01:28 04.04.2022
2888 Clouds 3 1017 83 10000 4.47 252 22:43 03.04.2022
2889 Clouds 4 1018 81 10000 4.32 262 21:47 03.04.2022
2890 Clouds 4 1018 78 10000 4.39 273 20:57 03.04.2022
2891 Clouds 6 1018 72 10000 4.9 286 19:51 03.04.2022
2892 Clouds 7 1018 68 10000 5.5 296 18:33 03.04.2022
2893 Clouds 7 1018 69 10000 6.27 299 17:48 03.04.2022
2894 Clouds 7 1019 67 10000 6.42 303 17:21 03.04.2022
2895 Clouds 7 1019 67 10000 6.42 303 16:42 03.04.2022
2896 Clouds 8 1020 64 10000 6.52 306 15:18 03.04.2022
2897 Clouds 8 1020 62 10000 6.23 308 13:57 03.04.2022
2898 Clouds 8 1020 65 10000 5.86 310 12:56 03.04.2022
2899 Clouds 6 1021 67 10000 5.59 313 11:33 03.04.2022
2900 Clouds 3 1021 87 10000 5.11 316 09:40 03.04.2022
2901 Clouds 2 1021 89 10000 4.12 308 08:50 03.04.2022
2902 Clouds 0 1021 86 10000 2.49 295 05:44 03.04.2022
2903 Clear -1 1022 80 10000 1.94 319 02:55 03.04.2022
2904 Clouds 0 1022 69 10000 3.08 3 23:27 02.04.2022
2905 Clouds 0 1022 66 10000 3.08 3 22:41 02.04.2022
2906 Clouds 1 1022 64 10000 3.46 4 21:55 02.04.2022
2907 Clouds 2 1022 63 10000 3.79 2 21:19 02.04.2022
2908 Clouds 3 1022 60 10000 3.79 2 20:36 02.04.2022
2909 Clouds 5 1021 52 10000 5.39 9 18:47 02.04.2022
2910 Clouds 5 1020 50 10000 6.37 11 18:19 02.04.2022
2911 Clouds 6 1020 58 10000 6.83 12 16:50 02.04.2022
2912 Clouds 7 1020 58 10000 6.75 15 15:42 02.04.2022
2913 Clouds 6 1020 58 10000 6.72 21 15:18 02.04.2022
2914 Clouds 6 1020 63 10000 6.63 26 14:26 02.04.2022
2915 Clouds 5 1020 62 10000 6.41 23 13:31 02.04.2022
2916 Clouds 5 1020 66 10000 6.27 35 12:21 02.04.2022
2917 Clouds 4 1019 69 10000 6.28 38 10:22 02.04.2022
2918 Clouds 1 1018 77 10000 4.89 32 07:52 02.04.2022
2919 Clouds 1 1017 75 10000 4.61 34 04:34 02.04.2022
2920 Clouds 1 1017 71 10000 4.45 44 01:21 02.04.2022
2921 Clouds 2 1017 68 10000 4.43 43 23:54 01.04.2022
2922 Clouds 3 1016 69 10000 4.46 43 22:46 01.04.2022
2923 Clouds 3 1015 70 10000 5.9 45 21:22 01.04.2022
2924 Clouds 3 1015 68 10000 5.9 45 20:46 01.04.2022
2925 Clouds 4 1015 66 10000 6.25 44 19:45 01.04.2022
2926 Clouds 4 1014 64 10000 7.08 44 19:26 01.04.2022
2927 Clouds 4 1014 63 10000 7.08 44 18:38 01.04.2022
2928 Clouds 4 1014 60 10000 7.54 44 17:39 01.04.2022
2929 Clouds 4 1013 62 10000 8.25 44 16:24 01.04.2022
2930 Clouds 4 1013 68 10000 8.45 46 14:56 01.04.2022
2931 Clouds 4 1013 65 10000 8.67 49 13:56 01.04.2022
2932 Clouds 4 1013 63 10000 8.86 54 13:31 01.04.2022
2933 Clouds 3 1013 76 10000 8.42 55 12:26 01.04.2022
2934 Clouds 2 1012 71 10000 7.87 58 10:52 01.04.2022
2935 Clouds 2 1012 75 10000 7.69 60 09:41 01.04.2022
2936 Clouds 2 1010 74 10000 7.84 58 07:50 01.04.2022
2937 Clouds 2 1009 75 10000 7.72 59 05:45 01.04.2022
2938 Clouds 2 1009 76 10000 8.07 59 04:43 01.04.2022
2939 Clouds 1 1008 76 10000 8.51 59 03:20 01.04.2022
2940 Clouds 1 1008 74 10000 8.52 59 01:51 01.04.2022
2941 Snow 2 1008 83 7710 8.78 60 22:37 31.03.2022
2942 Clouds 3 1007 76 10000 10.01 58 21:44 31.03.2022
2943 Clouds 3 1007 76 10000 11.12 55 20:51 31.03.2022
2944 Clouds 2 1005 80 10000 11.34 57 20:28 31.03.2022
2945 Clouds 3 1005 78 10000 11.37 56 19:44 31.03.2022
2946 Clouds 3 1005 87 10000 10.86 56 18:35 31.03.2022
2947 Clouds 2 1003 92 10000 10.35 60 17:25 31.03.2022
2948 Snow 1 1003 92 168 10.58 64 16:18 31.03.2022
2949 Snow 1 1003 92 168 10.58 64 15:33 31.03.2022
2950 Snow 1 1003 96 61 9.86 64 14:52 31.03.2022
2951 Snow 1 1003 96 50 9.05 64 14:19 31.03.2022
2952 Snow 1 1003 95 86 8.57 64 11:32 31.03.2022
2953 Snow 1 1003 95 76 8.25 65 10:41 31.03.2022
2954 Snow 1 1002 95 46 7.41 67 09:44 31.03.2022
2955 Clouds 2 1002 94 41 4.43 57 07:49 31.03.2022
2956 Clouds 3 1003 90 10000 3.23 66 03:57 31.03.2022
2957 Clouds 4 1005 71 10000 2.48 23 23:27 30.03.2022
2958 Clouds 4 1005 68 10000 2.72 24 22:23 30.03.2022
2959 Clouds 4 1005 72 10000 2.72 24 21:33 30.03.2022
2960 Clouds 4 1005 71 10000 3.1 24 20:44 30.03.2022
2961 Clouds 5 1005 71 10000 3.63 26 19:57 30.03.2022
2962 Clouds 6 1005 70 10000 4.31 19 18:50 30.03.2022
2963 Clouds 7 1005 71 10000 4.74 16 17:52 30.03.2022
2964 Clouds 7 1005 72 10000 4.52 14 17:32 30.03.2022
2965 Clouds 7 1005 70 10000 4.52 14 16:51 30.03.2022
2966 Clouds 8 1005 68 10000 4.52 14 16:30 30.03.2022
2967 Clouds 7 1006 68 10000 4.19 18 14:55 30.03.2022
2968 Clouds 6 1006 72 10000 4.16 11 13:32 30.03.2022
2969 Clouds 7 1007 73 10000 4.26 19 12:41 30.03.2022
2970 Clouds 5 1007 86 10000 4.46 29 10:54 30.03.2022
2971 Clouds 5 1007 88 10000 4.25 31 09:58 30.03.2022
2972 Clouds 4 1007 91 10000 3.66 30 08:57 30.03.2022
2973 Clouds 4 1007 92 213 3.77 32 07:31 30.03.2022
2974 Clouds 5 1007 92 10000 2.93 11 05:40 30.03.2022
2975 Clouds 4 1008 91 10000 0.75 5 03:31 30.03.2022
2976 Clouds 4 1010 86 10000 1.14 21 23:42 29.03.2022
2977 Clouds 5 1011 84 10000 2.27 17 22:19 29.03.2022
2978 Clouds 5 1011 84 10000 2.27 17 21:41 29.03.2022
2979 Clouds 6 1011 83 10000 2.59 8 20:44 29.03.2022
2980 Clouds 7 1010 81 10000 2.85 358 19:47 29.03.2022
2981 Clouds 8 1010 78 10000 3.82 353 18:54 29.03.2022
2982 Clouds 8 1011 77 10000 4.42 347 18:18 29.03.2022
2983 Clouds 8 1011 77 10000 4.67 341 17:21 29.03.2022
2984 Clouds 8 1011 77 10000 4.67 341 16:56 29.03.2022
2985 Clouds 9 1012 78 10000 4.79 336 15:57 29.03.2022
2986 Clouds 9 1012 79 10000 4.69 331 14:48 29.03.2022
2987 Clouds 9 1013 80 10000 4.22 330 13:53 29.03.2022
2988 Clouds 8 1013 81 10000 3.96 334 12:47 29.03.2022
2989 Clouds 8 1014 84 10000 3.54 340 11:31 29.03.2022
2990 Clouds 7 1014 86 10000 2.76 351 10:27 29.03.2022
2991 Clouds 7 1015 91 10000 2.29 356 09:23 29.03.2022
2992 Clouds 6 1015 92 10000 2.38 351 06:56 29.03.2022
2993 Clouds 6 1016 91 10000 2.15 330 03:49 29.03.2022
2994 Clouds 6 1018 92 10000 2.82 315 23:54 28.03.2022
2995 Clouds 6 1019 92 10000 2.86 314 23:19 28.03.2022
2996 Clouds 7 1019 92 10000 2.86 314 22:47 28.03.2022
2997 Clouds 7 1019 92 10000 2.88 310 22:22 28.03.2022
2998 Clouds 7 1019 93 10000 2.76 314 20:53 28.03.2022
2999 Clouds 7 1020 92 10000 3.04 321 19:59 28.03.2022
3000 Clouds 7 1020 92 10000 3.04 321 19:41 28.03.2022
3001 Clouds 8 1020 90 10000 3.89 325 18:52 28.03.2022
3002 Clouds 8 1020 89 10000 4.48 326 18:20 28.03.2022
3003 Clouds 9 1020 87 10000 4.48 326 17:32 28.03.2022
3004 Clouds 9 1021 85 10000 4.06 329 15:54 28.03.2022
3005 Clouds 10 1023 86 10000 3.7 334 14:27 28.03.2022
3006 Clear 9 1023 87 10000 4.02 334 13:35 28.03.2022
3007 Clear 7 1024 92 10000 2.48 326 11:58 28.03.2022
3008 Clear 6 1024 95 10000 1.97 330 10:50 28.03.2022
3009 Clear 6 1025 95 10000 1.65 337 09:41 28.03.2022
3010 Clear 5 1025 95 10000 1.25 333 08:49 28.03.2022
3011 Clear 5 1026 95 10000 1.05 335 08:22 28.03.2022
3012 Clear 5 1026 95 10000 1.05 335 08:21 28.03.2022
3013 Clear 5 1026 96 10000 1.26 353 07:27 28.03.2022
3014 Clear 5 1028 95 10000 1.66 16 03:27 28.03.2022
3015 Clear 6 1030 95 10000 2.37 24 23:24 27.03.2022
3016 Clear 6 1030 95 10000 2.66 20 22:23 27.03.2022
3017 Clear 6 1030 94 10000 2.66 20 21:41 27.03.2022
3018 Clear 7 1030 93 10000 2.8 14 20:54 27.03.2022
3019 Clear 8 1030 90 10000 2.92 6 19:46 27.03.2022
3020 Clear 10 1030 86 10000 3.28 12 18:54 27.03.2022
3021 Clear 11 1030 85 10000 3.87 15 18:26 27.03.2022
3022 Clear 12 1030 80 10000 3.87 15 17:38 27.03.2022
3023 Clear 13 1031 73 10000 4.19 13 15:59 27.03.2022
3024 Clear 13 1032 75 10000 3.87 14 14:55 27.03.2022
3025 Clear 12 1032 74 10000 3.76 14 13:54 27.03.2022
3026 Clear 11 1033 78 10000 3.76 14 12:20 27.03.2022
3027 Clear 9 1033 86 10000 3.26 11 10:47 27.03.2022
3028 Clear 4 1033 96 10000 2.36 16 08:37 27.03.2022
3029 Clear 5 1032 95 10000 2.95 359 05:54 27.03.2022
3030 Clear 5 1033 95 10000 2.97 357 00:47 27.03.2022
3031 Clear 5 1033 94 10000 2.96 356 23:34 26.03.2022
3032 Clear 6 1033 94 10000 3.01 353 22:35 26.03.2022
3033 Clouds 7 1033 94 10000 3.09 351 21:33 26.03.2022
3034 Clouds 7 1033 94 10000 3.24 344 20:20 26.03.2022
3035 Clouds 8 1032 92 10000 3.26 340 19:19 26.03.2022
3036 Clouds 10 1032 88 10000 3.9 340 17:51 26.03.2022
3037 Clouds 10 1032 86 10000 3.9 340 17:30 26.03.2022
3038 Clouds 12 1032 81 10000 4.41 337 16:25 26.03.2022
3039 Clouds 13 1032 78 10000 4.78 338 14:51 26.03.2022
3040 Clouds 13 1032 77 10000 5.26 338 13:52 26.03.2022
3041 Clear 13 1032 73 10000 5.65 330 12:47 26.03.2022
3042 Clear 14 1033 69 10000 5.09 328 11:29 26.03.2022
3043 Clear 10 1032 86 10000 4.14 322 09:23 26.03.2022
3044 Clear 8 1032 74 10000 4.14 322 08:33 26.03.2022
3045 Clouds 4 1031 80 10000 3.02 313 05:54 26.03.2022
3046 Clouds 4 1031 77 10000 2.08 297 03:59 26.03.2022
3047 Clear 5 1032 88 10000 2.3 329 23:39 25.03.2022
3048 Clear 6 1032 82 10000 2.14 341 21:35 25.03.2022
3049 Clear 7 1032 79 10000 2.1 343 20:46 25.03.2022
3050 Clear 10 1031 75 10000 2.57 347 19:28 25.03.2022
3051 Clear 11 1031 60 10000 2.57 347 18:47 25.03.2022
3052 Clear 13 1031 50 10000 2.34 355 17:37 25.03.2022
3053 Clear 14 1031 48 10000 3.61 2 16:41 25.03.2022
3054 Clear 15 1031 45 10000 3.82 5 15:56 25.03.2022
3055 Clear 15 1031 44 10000 3.5 16 13:58 25.03.2022
3056 Clouds 14 1032 52 10000 3.47 23 12:33 25.03.2022
3057 Clouds 9 1031 76 10000 2.47 28 09:55 25.03.2022
3058 Clouds 9 1031 77 10000 2.29 27 09:26 25.03.2022
3059 Clouds 5 1031 74 10000 1.84 26 07:51 25.03.2022
3060 Clear 3 1030 79 10000 2.1 17 07:23 25.03.2022
3061 Clear 4 1030 81 10000 1.95 11 05:23 25.03.2022
3062 Clear 4 1030 94 10000 2.13 6 00:33 25.03.2022
3063 Clear 6 1030 93 10000 2.17 7 22:30 24.03.2022
3064 Clear 6 1030 92 10000 2.43 8 21:35 24.03.2022
3065 Clear 8 1030 88 10000 3.01 358 19:51 24.03.2022
3066 Clear 9 1029 84 10000 3.27 349 18:58 24.03.2022
3067 Clear 12 1029 73 10000 3.52 340 17:45 24.03.2022
3068 Clear 14 1029 63 10000 3.95 335 16:54 24.03.2022
3069 Clear 16 1029 52 10000 2.91 326 15:21 24.03.2022
3070 Clear 16 1029 53 10000 2.91 326 14:42 24.03.2022
3071 Clear 16 1029 51 10000 2.25 328 13:59 24.03.2022
3072 Clear 16 1030 65 10000 2.28 341 12:42 24.03.2022
3073 Clear 15 1030 61 10000 2.02 347 11:33 24.03.2022
3074 Clear 12 1030 72 10000 1.14 8 09:48 24.03.2022
3075 Clear 7 1030 62 10000 0.88 15 08:40 24.03.2022
3076 Clear 4 1030 72 10000 1.4 3 06:44 24.03.2022
3077 Clear 5 1030 67 10000 1.38 40 02:18 24.03.2022
3078 Clear 7 1031 88 10000 1.79 59 23:18 23.03.2022
3079 Clear 8 1031 85 10000 2.32 49 21:25 23.03.2022
3080 Clear 8 1031 85 10000 2.32 49 21:25 23.03.2022
3081 Clear 9 1031 83 10000 2.32 49 20:49 23.03.2022
3082 Clear 11 1031 74 10000 2.82 39 19:45 23.03.2022
3083 Clear 14 1030 60 10000 2.7 46 18:36 23.03.2022
3084 Clear 16 1030 57 10000 2.51 33 17:36 23.03.2022
3085 Clear 18 1030 46 10000 2.25 38 16:21 23.03.2022
3086 Clear 18 1031 43 10000 1.78 53 14:51 23.03.2022
3087 Clear 18 1031 40 10000 1.53 87 14:24 23.03.2022
3088 Clear 17 1031 49 10000 1.43 100 12:45 23.03.2022
3089 Clear 13 1032 67 10000 2.32 118 09:38 23.03.2022
3090 Clear 5 1031 70 10000 2.13 93 06:41 23.03.2022
3091 Clear 6 1031 77 10000 2.03 66 04:41 23.03.2022
3092 Clear 8 1032 90 10000 2.05 86 00:29 23.03.2022
3093 Clear 9 1032 89 10000 2.19 84 22:46 22.03.2022
3094 Clear 10 1032 89 10000 2.58 68 21:30 22.03.2022
3095 Clear 10 1032 87 10000 2.58 68 20:40 22.03.2022
3096 Clouds 11 1032 83 10000 2.74 55 19:43 22.03.2022
3097 Clouds 13 1031 80 10000 2.25 72 19:18 22.03.2022
3098 Clouds 15 1031 76 10000 2.25 72 18:31 22.03.2022
3099 Clouds 17 1031 68 10000 1.36 85 17:29 22.03.2022
3100 Clouds 18 1031 61 10000 1.17 112 16:21 22.03.2022
3101 Clouds 19 1031 58 10000 1.36 143 15:22 22.03.2022
3102 Clouds 19 1031 57 10000 1.36 143 14:46 22.03.2022
3103 Clouds 19 1032 57 10000 1.85 159 14:27 22.03.2022
3104 Clouds 18 1032 60 10000 1.85 159 13:35 22.03.2022
3105 Clear 16 1033 61 10000 1.91 129 11:52 22.03.2022
3106 Clear 13 1033 67 10000 2 127 10:40 22.03.2022
3107 Clear 6 1033 68 10000 1.69 125 08:36 22.03.2022
3108 Clouds 5 1032 83 10000 2.12 121 06:53 22.03.2022
3109 Clouds 5 1031 78 10000 1.97 141 03:49 22.03.2022
3110 Clouds 7 1032 82 10000 2.72 126 00:28 22.03.2022
3111 Clouds 7 1032 81 10000 2.77 111 22:42 21.03.2022
3112 Clear 7 1032 78 10000 2.86 79 21:18 21.03.2022
3113 Clear 8 1032 77 10000 2.86 79 20:40 21.03.2022
3114 Clear 8 1032 75 10000 2.75 59 19:58 21.03.2022
3115 Clear 9 1032 73 10000 2.75 59 19:34 21.03.2022
3116 Clouds 11 1032 70 10000 2 78 18:36 21.03.2022
3117 Clear 14 1031 70 10000 0.44 138 17:19 21.03.2022
3118 Clear 15 1031 65 10000 0.44 138 16:51 21.03.2022
3119 Clear 15 1031 62 10000 1.28 196 16:24 21.03.2022
3120 Clear 15 1031 65 10000 1.8 198 15:21 21.03.2022
3121 Clear 15 1032 66 10000 2.14 199 14:28 21.03.2022
3122 Clear 13 1032 65 10000 2.76 183 12:43 21.03.2022
3123 Clear 13 1032 69 10000 2.92 179 11:54 21.03.2022
3124 Clear 11 1032 74 10000 2.89 174 10:49 21.03.2022
3125 Clear 9 1032 84 10000 2.7 164 09:21 21.03.2022
3126 Clouds 4 1032 90 10000 2.78 165 06:59 21.03.2022
3127 Clouds 6 1031 88 10000 3.17 159 04:54 21.03.2022
3128 Clouds 7 1030 87 10000 4.82 145 00:36 21.03.2022
3129 Clouds 7 1030 86 10000 3.02 150 22:56 20.03.2022
3130 Clouds 7 1030 84 10000 2.67 123 22:22 20.03.2022
3131 Clouds 8 1030 80 10000 2.67 123 21:31 20.03.2022
3132 Clouds 9 1029 79 10000 1.01 93 20:48 20.03.2022
3133 Clouds 9 1029 78 10000 1.61 158 20:25 20.03.2022
3134 Clouds 10 1029 76 10000 1.63 159 19:43 20.03.2022
3135 Clouds 11 1028 61 10000 5.23 155 18:48 20.03.2022
3136 Clouds 12 1027 51 10000 8.45 126 17:43 20.03.2022
3137 Clouds 12 1028 51 10000 9.13 120 17:24 20.03.2022
3138 Clouds 12 1028 48 10000 9.55 120 15:57 20.03.2022
3139 Clouds 12 1029 48 10000 9.76 117 14:38 20.03.2022
3140 Clouds 11 1029 49 10000 9.52 117 13:38 20.03.2022
3141 Clear 9 1031 56 10000 10.05 108 11:58 20.03.2022
3142 Clear 6 1033 68 10000 8.96 97 09:59 20.03.2022
3143 Clear 3 1034 78 10000 7.8 88 08:20 20.03.2022
3144 Clear 2 1035 81 10000 7.19 82 05:49 20.03.2022
3145 Clear 3 1037 84 10000 6.27 78 03:18 20.03.2022
3146 Clear 4 1039 84 10000 6.27 75 00:53 20.03.2022
3147 Clear 4 1040 83 10000 6.38 78 00:28 20.03.2022
3148 Clear 6 1041 79 10000 6.97 75 22:25 19.03.2022
3149 Clear 6 1041 78 10000 7.36 74 21:26 19.03.2022
3150 Clear 6 1041 78 10000 7.36 74 21:26 19.03.2022
3151 Clear 8 1041 72 10000 7.25 68 19:22 19.03.2022
3152 Clear 9 1041 69 10000 7.25 68 18:38 19.03.2022
3153 Clear 10 1041 68 10000 7 67 17:49 19.03.2022
3154 Clear 11 1041 64 10000 7.58 66 16:57 19.03.2022
3155 Clear 12 1042 60 10000 7.5 65 15:29 19.03.2022
3156 Clear 12 1043 55 10000 7.43 70 13:49 19.03.2022
3157 Clear 11 1044 58 10000 6.7 72 12:56 19.03.2022
3158 Clear 11 1044 59 10000 6.7 72 12:36 19.03.2022
3159 Clear 10 1045 62 10000 6.34 73 11:45 19.03.2022
3160 Clear 7 1046 78 10000 4.99 82 09:23 19.03.2022
3161 Clear 2 1046 93 10000 4.19 77 05:44 19.03.2022
3162 Clear 3 1046 91 10000 3.6 76 02:33 19.03.2022
3163 Clear 4 1047 87 10000 3.65 68 00:32 19.03.2022
3164 Clear 5 1047 86 10000 3.68 55 22:59 18.03.2022
3165 Clear 5 1047 88 10000 3.78 48 22:22 18.03.2022
3166 Clear 6 1047 90 10000 3.85 46 20:31 18.03.2022
3167 Clear 7 1046 89 10000 3.98 39 19:45 18.03.2022
3168 Clear 8 1046 89 10000 4 36 19:18 18.03.2022
3169 Clouds 11 1045 86 10000 4.72 34 16:59 18.03.2022
3170 Clouds 12 1045 85 10000 4.72 34 16:34 18.03.2022
3171 Clouds 13 1044 80 10000 4.05 24 14:29 18.03.2022
3172 Clouds 13 1044 80 10000 4.05 24 13:41 18.03.2022
3173 Clear 12 1044 78 10000 3.43 5 12:18 18.03.2022
3174 Clear 10 1043 82 10000 1.12 330 10:27 18.03.2022
3175 Clear 8 1042 90 10000 1.35 289 09:20 18.03.2022
3176 Clear 4 1041 88 10000 1.54 267 07:43 18.03.2022
3177 Clouds 2 1040 95 10000 2.87 235 05:20 18.03.2022
3178 Clouds 3 1038 93 10000 2.94 231 01:55 18.03.2022
3179 Clear 3 1037 92 10000 2.74 227 00:21 18.03.2022
3180 Clear 4 1037 91 10000 2.82 236 22:54 17.03.2022
3181 Clear 4 1037 90 10000 2.87 243 22:21 17.03.2022
3182 Clear 3 1037 88 10000 2.87 243 21:47 17.03.2022
3183 Clear 4 1036 87 10000 2.8 255 21:18 17.03.2022
3184 Clear 4 1036 83 10000 2.8 255 20:30 17.03.2022
3185 Clear 6 1035 78 10000 2.97 275 19:39 17.03.2022
3186 Clear 7 1033 76 10000 3.48 283 18:55 17.03.2022
3187 Clear 9 1033 69 10000 4.24 281 17:55 17.03.2022
3188 Clear 10 1032 63 10000 5.34 284 16:34 17.03.2022
3189 Clear 10 1031 61 10000 6.7 283 15:44 17.03.2022
3190 Clear 11 1030 61 10000 7.29 284 15:22 17.03.2022
3191 Clear 10 1029 71 10000 7.62 286 13:49 17.03.2022
3192 Clouds 9 1028 74 10000 8.12 284 12:49 17.03.2022
3193 Clouds 9 1027 77 10000 8.32 283 12:21 17.03.2022
3194 Clouds 8 1026 81 10000 8.24 285 11:25 17.03.2022
3195 Clouds 7 1024 89 10000 8.44 274 09:48 17.03.2022
3196 Clouds 8 1022 93 10000 7.5 263 08:31 17.03.2022
3197 Clouds 9 1021 91 10000 7.33 258 07:32 17.03.2022
3198 Clouds 10 1019 83 10000 6.84 167 05:47 17.03.2022
3199 Clouds 10 1021 78 10000 7.61 139 00:46 17.03.2022
3200 Clouds 10 1022 77 10000 7.75 135 23:39 16.03.2022
3201 Clouds 10 1022 79 10000 7.59 129 22:44 16.03.2022
3202 Clouds 10 1022 79 10000 7.32 130 22:21 16.03.2022
3203 Clouds 10 1022 78 10000 7.32 130 21:37 16.03.2022
3204 Clear 11 1023 76 10000 6.97 121 19:40 16.03.2022
3205 Clouds 11 1023 75 10000 6.87 120 19:19 16.03.2022
3206 Clouds 11 1023 73 10000 6.51 123 18:36 16.03.2022
3207 Clouds 12 1023 70 10000 7.23 124 17:41 16.03.2022
3208 Clouds 13 1023 68 10000 7.24 121 16:56 16.03.2022
3209 Clouds 13 1024 65 10000 6.76 128 15:55 16.03.2022
3210 Clouds 14 1025 62 10000 6.96 137 14:25 16.03.2022
3211 Clouds 13 1026 66 10000 7.03 134 13:27 16.03.2022
3212 Clouds 12 1026 77 10000 6.85 130 11:54 16.03.2022
3213 Clouds 11 1026 79 10000 6.15 131 11:20 16.03.2022
3214 Clouds 8 1026 86 10000 5.34 132 10:23 16.03.2022
3215 Clouds 5 1026 96 10000 4.43 133 08:52 16.03.2022
3216 Clouds 3 1026 95 10000 3.25 142 05:58 16.03.2022
3217 Clouds 5 1025 93 10000 3.25 119 01:35 16.03.2022
3218 Clouds 7 1025 90 10000 3.4 121 22:38 15.03.2022
3219 Clouds 7 1025 90 10000 3.6 109 21:52 15.03.2022
3220 Clouds 8 1024 88 10000 3.16 92 20:28 15.03.2022
3221 Clouds 9 1024 87 10000 3.16 68 18:57 15.03.2022
3222 Clouds 11 1024 89 10000 2.54 14 16:57 15.03.2022
3223 Clouds 11 1024 89 10000 2.54 14 16:32 15.03.2022
3224 Clouds 11 1024 79 10000 0.55 175 15:21 15.03.2022
3225 Clouds 11 1024 82 10000 0.55 175 14:40 15.03.2022
3226 Clouds 10 1024 88 10000 1.84 176 13:38 15.03.2022
3227 Clouds 9 1026 89 10000 2.4 179 12:24 15.03.2022
3228 Clouds 7 1026 96 10000 2.4 179 11:31 15.03.2022
3229 Clouds 6 1027 97 10000 2.46 188 09:45 15.03.2022
3230 Clouds 5 1027 97 10000 2.69 182 08:42 15.03.2022
3231 Clouds 4 1027 97 10000 2.45 175 07:52 15.03.2022
3232 Clouds 3 1027 97 10000 2.45 175 07:32 15.03.2022
3233 Clouds 2 1028 95 10000 2.78 211 03:41 15.03.2022
3234 Clouds 4 1028 92 10000 3.15 249 23:44 14.03.2022
3235 Clear 4 1028 92 10000 3.2 250 23:23 14.03.2022
3236 Clear 5 1028 90 10000 3.2 250 22:30 14.03.2022
3237 Clear 6 1028 89 10000 3.31 250 21:30 14.03.2022
3238 Clear 6 1028 88 10000 3.43 253 20:48 14.03.2022
3239 Clear 7 1027 87 10000 3.17 260 20:20 14.03.2022
3240 Clouds 8 1027 82 10000 3.08 274 18:55 14.03.2022
3241 Clouds 10 1025 82 10000 3.99 281 17:54 14.03.2022
3242 Clouds 10 1025 82 10000 5.17 279 17:23 14.03.2022
3243 Clouds 10 1024 92 10000 5.56 276 15:56 14.03.2022
3244 Clouds 9 1024 95 10000 5.6 273 14:41 14.03.2022
3245 Clouds 9 1023 96 10000 3.58 259 12:51 14.03.2022
3246 Clouds 9 1022 95 10000 3.79 224 10:54 14.03.2022
3247 Clouds 8 1022 94 10000 3.4 184 09:55 14.03.2022
3248 Clouds 8 1021 93 10000 3.22 170 09:22 14.03.2022
3249 Clouds 8 1021 92 10000 3.22 170 08:56 14.03.2022
3250 Clouds 7 1021 86 10000 3.75 173 07:34 14.03.2022
3251 Clouds 8 1020 79 10000 3.01 160 05:46 14.03.2022
3252 Clouds 8 1018 61 10000 2.92 168 01:58 14.03.2022
3253 Clouds 8 1017 59 10000 3.12 166 01:29 14.03.2022
3254 Clouds 8 1017 53 10000 3.92 139 22:52 13.03.2022
3255 Clouds 9 1017 52 10000 4.8 131 21:31 13.03.2022
3256 Clouds 10 1016 54 10000 5.15 122 20:56 13.03.2022
3257 Clouds 10 1016 54 10000 5.15 122 20:37 13.03.2022
3258 Clouds 10 1016 53 10000 4.75 114 20:19 13.03.2022
3259 Clouds 11 1016 54 10000 4.75 114 19:39 13.03.2022
3260 Clouds 11 1015 52 10000 4.08 109 19:18 13.03.2022
3261 Clouds 12 1016 52 10000 4.09 113 18:39 13.03.2022
3262 Clouds 13 1015 49 10000 4.01 120 17:47 13.03.2022
3263 Clouds 14 1015 46 10000 4.92 132 17:21 13.03.2022
3264 Clouds 14 1015 43 10000 4.92 132 16:43 13.03.2022
3265 Clouds 15 1015 42 10000 5.18 135 16:20 13.03.2022
3266 Clouds 14 1015 41 10000 5.18 135 15:33 13.03.2022
3267 Clouds 13 1015 49 10000 5.78 141 13:53 13.03.2022
3268 Clouds 12 1015 53 10000 5.75 140 13:19 13.03.2022
3269 Clouds 11 1016 61 10000 5.76 142 12:20 13.03.2022
3270 Clouds 11 1016 57 10000 5.76 142 11:36 13.03.2022
3271 Clouds 10 1016 55 10000 5.48 137 10:48 13.03.2022
3272 Clouds 9 1016 59 10000 4.97 134 10:25 13.03.2022
3273 Clouds 7 1016 66 10000 4.97 134 09:41 13.03.2022
3274 Clouds 6 1016 68 10000 4.15 123 08:47 13.03.2022
3275 Clouds 4 1016 69 10000 3.58 123 07:47 13.03.2022
3276 Clouds 4 1015 74 10000 4.18 125 05:55 13.03.2022
3277 Clouds 5 1016 72 10000 3.72 133 03:26 13.03.2022
3278 Clouds 6 1017 69 10000 3.91 123 00:30 13.03.2022
3279 Clouds 7 1018 70 10000 4.06 122 22:44 12.03.2022
3280 Clouds 9 1018 71 10000 4.42 124 20:59 12.03.2022
3281 Clouds 10 1018 69 10000 4.27 117 19:57 12.03.2022
3282 Clouds 10 1018 69 10000 4.27 117 19:57 12.03.2022
3283 Clouds 10 1018 69 10000 4.27 117 19:38 12.03.2022
3284 Clouds 12 1018 66 10000 3.43 132 18:29 12.03.2022
3285 Clouds 13 1018 65 10000 3.43 132 17:43 12.03.2022
3286 Clouds 13 1018 64 10000 4.18 168 16:25 12.03.2022
3287 Clouds 14 1018 63 10000 5.05 172 15:24 12.03.2022
3288 Clouds 14 1018 64 10000 5.05 172 14:52 12.03.2022
3289 Clouds 14 1018 63 10000 5.43 175 13:47 12.03.2022
3290 Clouds 13 1018 60 10000 6.33 175 12:25 12.03.2022
3291 Clouds 12 1018 59 10000 6.33 175 11:51 12.03.2022
3292 Clouds 11 1018 54 10000 6.35 166 11:19 12.03.2022
3293 Clouds 7 1017 55 10000 6.46 156 09:58 12.03.2022
3294 Clouds 6 1017 54 10000 6.46 156 09:39 12.03.2022
3295 Clouds 3 1017 58 10000 5.6 139 07:51 12.03.2022
3296 Clouds 4 1016 56 10000 7.06 131 05:20 12.03.2022
3297 Clouds 5 1017 55 10000 7.59 131 00:24 12.03.2022
3298 Clouds 5 1017 53 10000 7.77 131 23:28 11.03.2022
3299 Clouds 6 1017 52 10000 7.98 131 21:48 11.03.2022
3300 Clouds 7 1017 52 10000 8.22 133 20:58 11.03.2022
3301 Clouds 7 1017 52 10000 8.22 133 20:37 11.03.2022
3302 Clouds 7 1016 51 10000 8.63 131 19:54 11.03.2022
3303 Clouds 8 1016 50 10000 8.83 130 19:27 11.03.2022
3304 Clouds 10 1016 49 10000 8.71 132 17:38 11.03.2022
3305 Clouds 10 1016 48 10000 9.12 131 17:19 11.03.2022
3306 Clear 11 1016 39 10000 9.22 131 15:57 11.03.2022
3307 Clouds 11 1017 46 10000 8.96 135 14:22 11.03.2022
3308 Clear 10 1018 51 10000 9.2 137 13:21 11.03.2022
3309 Clear 9 1019 52 10000 9.22 137 12:23 11.03.2022
3310 Clear 8 1019 55 10000 9.22 137 11:56 11.03.2022
3311 Clear 6 1019 66 10000 8.3 127 10:24 11.03.2022
3312 Clear 4 1019 72 10000 8.3 127 09:32 11.03.2022
3313 Clear 3 1020 78 10000 7.47 122 08:25 11.03.2022
3314 Clear 2 1020 80 10000 7.47 122 07:46 11.03.2022
3315 Clouds 2 1020 81 10000 6.92 121 06:22 11.03.2022
3316 Clouds 3 1021 80 10000 6.65 118 04:24 11.03.2022
3317 Clouds 6 1023 72 10000 6.14 121 00:39 11.03.2022
3318 Clouds 7 1023 65 10000 6.3 125 22:32 10.03.2022
3319 Clouds 8 1023 64 10000 6.51 126 21:52 10.03.2022
3320 Clouds 8 1023 64 10000 6.61 124 21:24 10.03.2022
3321 Clouds 9 1023 60 10000 6.48 120 19:54 10.03.2022
3322 Clouds 10 1023 68 10000 5.46 115 18:56 10.03.2022
3323 Clouds 13 1023 64 10000 4.81 122 17:37 10.03.2022
3324 Clouds 14 1023 42 10000 5.47 132 16:42 10.03.2022
3325 Clouds 15 1024 39 10000 5.78 142 15:27 10.03.2022
3326 Clouds 14 1024 44 10000 6.15 146 13:41 10.03.2022
3327 Clouds 13 1024 46 10000 5.62 148 12:35 10.03.2022
3328 Clouds 11 1025 54 10000 4.97 146 11:26 10.03.2022
3329 Clouds 5 1025 71 10000 3.99 136 09:28 10.03.2022
3330 Clouds 1 1025 78 10000 3.63 136 07:47 10.03.2022
3331 Clear 1 1025 76 10000 3.57 143 05:30 10.03.2022
3332 Clear 2 1025 79 10000 3.67 146 01:59 10.03.2022
3333 Clouds 3 1025 76 10000 3.7 143 23:32 09.03.2022
3334 Clouds 4 1024 70 10000 3.78 137 22:20 09.03.2022
3335 Clouds 4 1024 70 10000 3.78 137 21:36 09.03.2022
3336 Clouds 5 1024 66 10000 3.87 130 20:31 09.03.2022
3337 Clouds 9 1024 53 10000 3.67 134 18:41 09.03.2022
3338 Clouds 12 1023 43 10000 3.46 141 17:28 09.03.2022
3339 Clouds 12 1023 39 10000 3.46 141 16:36 09.03.2022
3340 Clouds 13 1023 40 10000 4.22 153 15:32 09.03.2022
3341 Clouds 12 1023 43 10000 5.48 158 13:58 09.03.2022
3342 Clouds 11 1024 45 10000 5.2 159 12:59 09.03.2022
3343 Clear 10 1024 47 10000 4.94 162 12:20 09.03.2022
3344 Clear 10 1024 49 10000 4.94 162 11:45 09.03.2022
3345 Clear 8 1024 55 10000 4.88 161 10:49 09.03.2022
3346 Clear 4 1024 71 10000 3.8 152 09:22 09.03.2022
3347 Clear 2 1024 77 10000 3.8 152 08:42 09.03.2022
3348 Clear 0 1023 76 10000 3.52 153 04:49 09.03.2022
3349 Clear 2 1024 73 10000 3.72 146 00:55 09.03.2022
3350 Clear 3 1024 70 10000 3.87 144 23:37 08.03.2022
3351 Clear 4 1024 69 10000 4.15 135 22:45 08.03.2022
3352 Clear 5 1023 66 10000 4.24 132 21:43 08.03.2022
3353 Clear 5 1023 65 10000 4.29 127 21:18 08.03.2022
3354 Clear 6 1023 63 10000 4.29 124 19:59 08.03.2022
3355 Clear 7 1022 71 10000 4.18 120 18:53 08.03.2022
3356 Clear 9 1023 56 10000 4.37 122 17:51 08.03.2022
3357 Clear 10 1022 50 10000 5.29 131 16:37 08.03.2022
3358 Clear 10 1023 52 10000 5.96 135 14:24 08.03.2022
3359 Clear 9 1024 54 10000 5.52 139 13:22 08.03.2022
3360 Clouds 8 1024 54 10000 5.08 141 12:20 08.03.2022
3361 Clouds 8 1024 57 10000 5.08 141 11:41 08.03.2022
3362 Clear 6 1025 66 10000 4.29 146 10:27 08.03.2022
3363 Clear 0 1025 89 10000 3.72 143 08:30 08.03.2022
3364 Clear -1 1025 88 10000 3.25 137 05:49 08.03.2022
3365 Clear 0 1026 86 10000 3.2 132 01:49 08.03.2022
3366 Clear 1 1027 87 10000 2.94 119 22:41 07.03.2022
3367 Clear 2 1027 88 10000 2.99 115 21:36 07.03.2022
3368 Clear 2 1027 86 10000 3.05 106 20:55 07.03.2022
3369 Clear 2 1027 86 10000 3.06 98 20:29 07.03.2022
3370 Clear 3 1027 86 10000 3.06 98 19:48 07.03.2022
3371 Clear 5 1027 85 10000 3.28 86 18:48 07.03.2022
3372 Clear 5 1027 83 10000 3.17 75 18:28 07.03.2022
3373 Clear 8 1027 75 10000 2.56 74 16:56 07.03.2022
3374 Clear 8 1027 76 10000 2.56 74 16:37 07.03.2022
3375 Clear 8 1027 62 10000 2.59 76 14:41 07.03.2022
3376 Clear 7 1028 71 10000 2.15 102 12:34 07.03.2022
3377 Clear 6 1028 81 10000 1.96 103 11:21 07.03.2022
3378 Clear 4 1028 86 10000 1.57 93 10:26 07.03.2022
3379 Clear -2 1028 89 10000 0.36 10 07:42 07.03.2022
3380 Clear -1 1028 89 10000 0.73 58 01:23 07.03.2022
3381 Clear 0 1028 88 10000 1.38 68 00:20 07.03.2022
3382 Clear 1 1028 86 10000 1.32 52 23:22 06.03.2022
3383 Clear 1 1028 86 10000 1.58 50 22:26 06.03.2022
3384 Clear 2 1028 87 10000 1.84 47 21:22 06.03.2022
3385 Clear 3 1028 85 10000 2.21 44 20:29 06.03.2022
3386 Clear 3 1028 82 10000 2.21 44 19:39 06.03.2022
3387 Clouds 4 1027 81 10000 2.44 28 18:49 06.03.2022
3388 Clouds 5 1027 79 10000 2.5 32 17:46 06.03.2022
3389 Clouds 5 1027 78 10000 2.83 17 17:19 06.03.2022
3390 Clouds 6 1027 74 10000 3.73 12 16:28 06.03.2022
3391 Clouds 6 1027 73 10000 4.21 10 15:25 06.03.2022
3392 Clouds 6 1027 71 10000 4.21 10 14:42 06.03.2022
3393 Clouds 6 1027 70 10000 4.38 14 13:48 06.03.2022
3394 Clouds 5 1027 67 10000 4.52 20 12:40 06.03.2022
3395 Clouds 5 1028 66 10000 4.33 27 11:45 06.03.2022
3396 Clouds 4 1028 68 10000 4.08 39 10:40 06.03.2022
3397 Clouds 2 1028 75 10000 3.67 54 09:18 06.03.2022
3398 Clouds 0 1027 81 10000 3.17 46 08:28 06.03.2022
3399 Clouds -1 1027 85 10000 3.45 39 07:25 06.03.2022
3400 Clouds 1 1026 86 10000 3.43 51 02:45 06.03.2022
3401 Clear 0 1026 85 10000 3.13 55 00:36 06.03.2022
3402 Clear 0 1026 84 10000 3.26 56 00:18 06.03.2022
3403 Clear 0 1026 85 10000 3.38 54 23:19 05.03.2022
3404 Clear 0 1026 86 10000 3.38 54 22:34 05.03.2022
3405 Clear 1 1025 85 10000 3.63 56 21:29 05.03.2022
3406 Clear 2 1025 83 10000 3.63 56 20:38 05.03.2022
3407 Clear 3 1024 78 10000 3.94 56 19:22 05.03.2022
3408 Clear 4 1024 74 10000 3.94 56 18:39 05.03.2022
3409 Clear 5 1023 70 10000 3.86 57 17:35 05.03.2022
3410 Clear 7 1023 65 10000 4.71 86 16:19 05.03.2022
3411 Clear 7 1023 63 10000 4.75 90 15:20 05.03.2022
3412 Clear 7 1023 65 10000 4.75 90 14:36 05.03.2022
3413 Clear 6 1023 65 10000 4.73 95 13:44 05.03.2022
3414 Clear 6 1023 65 10000 4.94 104 12:46 05.03.2022
3415 Clear 4 1024 69 10000 5.43 108 11:21 05.03.2022
3416 Clear 3 1024 71 10000 5.43 108 10:53 05.03.2022
3417 Clear 1 1024 77 10000 5.32 110 09:37 05.03.2022
3418 Clear 0 1024 83 10000 4.8 109 08:46 05.03.2022
3419 Clear -2 1023 83 10000 3.51 102 07:23 05.03.2022
3420 Clear -2 1023 83 10000 3.51 102 07:23 05.03.2022
3421 Clear -2 1023 84 10000 3.76 106 05:39 05.03.2022
3422 Clear 0 1024 82 10000 3.55 113 00:51 05.03.2022
3423 Clear 0 1024 83 10000 3.62 111 23:30 04.03.2022
3424 Clear 1 1024 83 10000 3.56 110 22:40 04.03.2022
3425 Clear 1 1024 81 10000 3.6 110 21:45 04.03.2022
3426 Clear 2 1024 80 10000 3.78 114 20:48 04.03.2022
3427 Clear 3 1023 79 10000 3.7 115 20:18 04.03.2022
3428 Clear 3 1023 76 10000 3.71 115 19:35 04.03.2022
3429 Clear 5 1023 76 10000 3.57 110 18:36 04.03.2022
3430 Clear 6 1022 76 10000 3.49 112 17:30 04.03.2022
3431 Clear 7 1022 76 10000 4.4 117 16:36 04.03.2022
3432 Clear 7 1023 74 10000 5.41 118 15:27 04.03.2022
3433 Clear 6 1023 76 10000 5.35 118 13:53 04.03.2022
3434 Clear 5 1023 76 10000 5.5 117 12:54 04.03.2022
3435 Clear 4 1023 80 10000 5.56 116 11:38 04.03.2022
3436 Clear 3 1024 85 10000 5.26 116 10:42 04.03.2022
3437 Clear 1 1024 95 10000 4.58 110 09:28 04.03.2022
3438 Clear 0 1024 94 10000 3.6 105 08:34 04.03.2022
3439 Clear -1 1023 94 10000 3.43 104 07:23 04.03.2022
3440 Clear -1 1023 91 10000 3.12 103 03:43 04.03.2022
3441 Clear 1 1023 90 10000 3.6 99 00:23 04.03.2022
3442 Clear 2 1023 88 10000 3.7 94 22:21 03.03.2022
3443 Clear 2 1023 88 10000 3.7 94 21:40 03.03.2022
3444 Clear 3 1022 87 10000 3.81 92 21:18 03.03.2022
3445 Clear 4 1022 81 10000 3.88 90 19:50 03.03.2022
3446 Clear 5 1022 77 10000 4.01 85 18:53 03.03.2022
3447 Clear 6 1021 73 10000 3.68 80 18:22 03.03.2022
3448 Clear 8 1021 62 10000 4.36 87 17:28 03.03.2022
3449 Clear 9 1021 60 10000 4.7 92 16:22 03.03.2022
3450 Clear 9 1021 58 10000 5.16 97 15:21 03.03.2022
3451 Clear 9 1021 62 10000 5.16 97 14:42 03.03.2022
3452 Clear 8 1021 69 10000 5.09 105 13:19 03.03.2022
3453 Clear 7 1021 75 10000 5.61 102 11:54 03.03.2022
3454 Clear 5 1022 75 10000 5.37 102 10:42 03.03.2022
3455 Clear 1 1022 94 10000 4.52 100 08:57 03.03.2022
3456 Clear -1 1022 94 10000 3.84 94 07:48 03.03.2022
3457 Clouds -1 1022 94 10000 3.95 87 06:35 03.03.2022
3458 Clouds 1 1022 94 10000 3.35 96 02:23 03.03.2022
3459 Clear 1 1023 93 10000 3.16 90 23:31 02.03.2022
3460 Clear 1 1023 92 10000 3.16 88 22:52 02.03.2022
3461 Clear 2 1023 91 10000 3.16 91 21:34 02.03.2022
3462 Clear 3 1023 89 10000 3.06 88 20:53 02.03.2022
3463 Clear 3 1023 88 10000 3.11 83 20:24 02.03.2022
3464 Clear 4 1023 85 10000 3.11 83 19:36 02.03.2022
3465 Clear 5 1024 83 10000 3.44 75 18:48 02.03.2022
3466 Clear 6 1023 82 10000 3.44 70 18:19 02.03.2022
3467 Clear 7 1023 77 10000 3.44 70 17:34 02.03.2022
3468 Clear 8 1024 67 10000 3.87 76 16:51 02.03.2022
3469 Clear 9 1024 65 10000 4 77 14:59 02.03.2022
3470 Clear 9 1025 64 10000 3.94 80 13:30 02.03.2022
3471 Clear 8 1025 68 10000 4.06 77 12:45 02.03.2022
3472 Clear 8 1026 75 10000 4.02 82 11:59 02.03.2022
3473 Clear 7 1026 79 10000 4.16 81 11:25 02.03.2022
3474 Clear 5 1026 83 10000 4.16 81 10:30 02.03.2022
3475 Clear 4 1026 89 10000 4.09 81 09:31 02.03.2022
3476 Clear 1 1027 93 10000 3.32 68 07:59 02.03.2022
3477 Clear 1 1027 93 10000 3.32 70 07:23 02.03.2022
3478 Clear 3 1027 89 10000 3.27 64 03:56 02.03.2022
3479 Clouds 4 1028 88 10000 3.08 60 00:40 02.03.2022
3480 Clouds 5 1028 87 10000 3 71 22:53 01.03.2022
3481 Clouds 5 1028 86 10000 2.99 71 22:35 01.03.2022
3482 Clouds 5 1028 86 10000 3.09 69 21:26 01.03.2022
3483 Clouds 5 1028 85 10000 3.08 69 20:38 01.03.2022
3484 Clouds 5 1028 85 10000 2.95 70 20:19 01.03.2022
3485 Clouds 6 1028 80 10000 2.78 43 18:52 01.03.2022
3486 Clouds 6 1028 79 10000 2.18 24 18:22 01.03.2022
3487 Clouds 7 1028 76 10000 2.17 24 17:42 01.03.2022
3488 Clouds 8 1028 71 10000 0.86 12 16:36 01.03.2022
3489 Clouds 8 1027 70 10000 0.26 246 15:47 01.03.2022
3490 Clouds 8 1028 68 10000 1.73 228 14:54 01.03.2022
3491 Clouds 8 1028 68 10000 1.73 228 14:31 01.03.2022
3492 Clouds 8 1028 68 10000 2.84 197 13:26 01.03.2022
3493 Clouds 8 1028 70 10000 3.07 196 12:36 01.03.2022
3494 Clouds 6 1029 77 10000 3.27 199 11:35 01.03.2022
3495 Clouds 4 1028 82 10000 3.36 183 09:52 01.03.2022
3496 Clouds 1 1028 86 10000 3.02 177 08:25 01.03.2022
3497 Clouds 1 1028 85 10000 3.06 180 07:19 01.03.2022
3498 Clouds 1 1028 82 10000 3.84 165 03:27 01.03.2022
3499 Clouds 2 1029 83 10000 4.38 159 00:48 01.03.2022
3500 Clouds 3 1029 84 10000 4.54 157 23:47 28.02.2022
3501 Clouds 3 1029 82 10000 4.71 157 22:43 28.02.2022
3502 Clouds 4 1030 78 10000 4.99 152 21:48 28.02.2022
3503 Clouds 4 1030 74 10000 5.03 147 20:55 28.02.2022
3504 Clouds 5 1029 73 10000 4.58 145 19:51 28.02.2022
3505 Clouds 6 1029 72 10000 4.07 141 18:57 28.02.2022
3506 Clear 8 1029 68 10000 3.86 145 17:57 28.02.2022
3507 Clear 8 1029 67 10000 5.14 151 17:23 28.02.2022
3508 Clear 9 1029 60 10000 5.14 151 16:32 28.02.2022
3509 Clear 9 1030 58 10000 5.84 155 15:21 28.02.2022
3510 Clear 9 1030 61 10000 6.09 159 14:29 28.02.2022
3511 Clear 8 1031 64 10000 5.29 164 13:24 28.02.2022
3512 Clear 7 1031 66 10000 5.29 164 12:31 28.02.2022
3513 Clear 6 1032 72 10000 4.97 173 11:37 28.02.2022
3514 Clear 4 1032 79 10000 4.83 172 10:24 28.02.2022
3515 Clear 4 1032 81 10000 4.83 172 09:59 28.02.2022
3516 Clear 2 1032 84 10000 3.92 165 09:27 28.02.2022
3517 Clear 0 1031 89 10000 3.77 158 08:26 28.02.2022
3518 Clear 0 1031 89 10000 3.77 158 08:26 28.02.2022
3519 Clear 0 1031 88 10000 3.87 156 06:53 28.02.2022
3520 Clear 0 1032 88 10000 3.59 159 04:31 28.02.2022
3521 Clear 0 1032 87 10000 3.86 157 03:30 28.02.2022
3522 Clear 3 1033 80 10000 4.71 136 23:26 27.02.2022
3523 Clear 3 1033 78 10000 4.71 136 22:33 27.02.2022
3524 Clear 4 1033 78 10000 4.71 135 21:47 27.02.2022
3525 Clear 4 1032 77 10000 4.91 133 20:55 27.02.2022
3526 Clear 4 1032 76 10000 4.3 128 20:27 27.02.2022
3527 Clear 4 1032 74 10000 4.29 128 19:57 27.02.2022
3528 Clear 5 1032 71 10000 3.97 126 19:26 27.02.2022
3529 Clear 6 1032 72 10000 3.82 125 18:40 27.02.2022
3530 Clear 7 1032 72 10000 4.03 130 17:54 27.02.2022
3531 Clear 8 1032 70 10000 5.07 139 16:45 27.02.2022
3532 Clear 8 1032 68 10000 5.49 144 16:21 27.02.2022
3533 Clear 7 1033 69 10000 6.84 148 13:25 27.02.2022
3534 Clear 7 1033 71 10000 6.73 147 12:32 27.02.2022
3535 Clear 5 1034 80 10000 6.14 139 10:56 27.02.2022
3536 Clear 4 1034 80 10000 5.54 140 10:19 27.02.2022
3537 Clear 3 1034 84 10000 5.54 140 09:49 27.02.2022
3538 Clear 2 1034 90 10000 4.17 138 09:20 27.02.2022
3539 Clear 0 1034 94 10000 3.74 137 07:54 27.02.2022
3540 Clear 0 1034 93 10000 3.4 135 05:38 27.02.2022
3541 Clear 0 1034 90 10000 3.3 128 02:21 27.02.2022
3542 Clouds 1 1035 91 10000 3.33 122 23:23 26.02.2022
3543 Clouds 1 1034 90 10000 2.88 131 21:58 26.02.2022
3544 Clouds 2 1034 89 10000 2.41 142 21:18 26.02.2022
3545 Clouds 3 1034 87 10000 2.14 153 20:20 26.02.2022
3546 Clouds 3 1034 85 10000 2.14 153 19:50 26.02.2022
3547 Clouds 4 1034 83 10000 1.94 159 19:29 26.02.2022
3548 Clouds 7 1034 76 10000 1.73 145 17:52 26.02.2022
3549 Clouds 7 1034 74 10000 1.74 151 17:29 26.02.2022
3550 Clouds 8 1034 72 10000 2.02 168 16:19 26.02.2022
3551 Clouds 8 1034 69 10000 1.92 169 15:25 26.02.2022
3552 Clouds 8 1034 71 10000 1.93 169 14:57 26.02.2022
3553 Clouds 8 1034 71 10000 1.92 169 14:38 26.02.2022
3554 Clouds 8 1034 72 10000 1.52 165 13:40 26.02.2022
3555 Clear 8 1034 71 10000 1.19 213 12:52 26.02.2022
3556 Clear 6 1035 83 10000 1.74 227 11:38 26.02.2022
3557 Clear 6 1034 85 10000 1.66 238 10:59 26.02.2022
3558 Clear 2 1034 95 10000 1.79 277 09:22 26.02.2022
3559 Clear 0 1033 87 10000 2.26 287 08:21 26.02.2022
3560 Clear 1 1031 91 10000 3.21 307 04:22 26.02.2022
3561 Clear 4 1028 87 10000 5.59 311 23:50 25.02.2022
3562 Clear 4 1028 86 10000 6.8 310 22:31 25.02.2022
3563 Clear 4 1027 83 10000 7 305 21:30 25.02.2022
3564 Clear 4 1026 84 10000 6.78 307 20:47 25.02.2022
3565 Clear 5 1025 83 10000 7.03 311 20:25 25.02.2022
3566 Clouds 6 1022 85 10000 7.71 315 17:54 25.02.2022
3567 Clouds 7 1020 73 10000 8.72 313 16:48 25.02.2022
3568 Clouds 6 1019 87 10000 9.68 312 15:50 25.02.2022
3569 Clouds 6 1018 89 10000 9.8 302 15:23 25.02.2022
3570 Clouds 6 1018 89 10000 9.8 302 14:55 25.02.2022
3571 Rain 6 1017 88 10000 9.73 296 14:24 25.02.2022
3572 Clouds 6 1017 88 10000 9.73 296 13:30 25.02.2022
3573 Clouds 6 1015 84 10000 9.57 281 12:21 25.02.2022
3574 Clouds 6 1014 88 10000 9 281 11:22 25.02.2022
3575 Clouds 5 1013 89 10000 8.52 280 10:23 25.02.2022
3576 Clouds 5 1013 89 10000 8.52 280 10:23 25.02.2022
3577 Clouds 5 1013 90 10000 8.52 280 09:46 25.02.2022
3578 Clouds 4 1012 93 10000 7.75 261 08:41 25.02.2022
3579 Clouds 3 1011 90 1461 8.02 247 07:35 25.02.2022
3580 Clouds 3 1011 87 10000 8.52 241 05:43 25.02.2022
3581 Clouds 4 1011 87 10000 8.49 248 02:48 25.02.2022
3582 Clouds 3 1009 92 10000 8.3 264 22:48 24.02.2022
3583 Clouds 3 1008 93 10000 8.78 268 21:51 24.02.2022
3584 Clouds 3 1008 93 10000 8.78 268 21:31 24.02.2022
3585 Clouds 3 1007 94 10000 8.33 270 20:53 24.02.2022
3586 Clouds 3 1006 95 10000 7.96 261 19:38 24.02.2022
3587 Clouds 3 1004 95 10000 8.5 268 18:37 24.02.2022
3588 Clouds 3 1003 95 7809 8.67 283 18:18 24.02.2022
3589 Clouds 3 1003 95 7809 8.67 283 17:33 24.02.2022
3590 Clouds 3 999 94 7002 9.71 249 16:29 24.02.2022
3591 Clouds 6 999 91 7002 9.71 249 15:47 24.02.2022
3592 Clouds 8 999 89 10000 11.55 215 14:53 24.02.2022
3593 Clouds 9 1000 88 10000 10.89 203 14:24 24.02.2022
3594 Clouds 9 1000 80 10000 10.89 203 13:39 24.02.2022
3595 Clouds 9 1003 80 10000 9.66 204 12:33 24.02.2022
3596 Clouds 8 1005 85 10000 9 205 10:40 24.02.2022
3597 Clouds 7 1007 87 10000 7.79 206 08:58 24.02.2022
3598 Clouds 7 1007 86 10000 7.79 206 08:39 24.02.2022
3599 Clouds 7 1008 82 10000 7.8 211 05:52 24.02.2022
3600 Clouds 7 1012 81 10000 8.33 211 01:56 24.02.2022
3601 Clouds 7 1012 81 10000 8.33 211 01:56 24.02.2022
3602 Clouds 8 1015 79 10000 7.48 212 22:38 23.02.2022
3603 Clouds 8 1016 80 10000 7.09 206 21:40 23.02.2022
3604 Clouds 8 1016 76 10000 6.41 204 20:31 23.02.2022
3605 Clouds 8 1017 75 10000 6.29 210 19:46 23.02.2022
3606 Clouds 8 1017 78 10000 6.43 208 18:32 23.02.2022
3607 Clear 9 1018 76 10000 6.73 217 17:44 23.02.2022
3608 Clouds 10 1020 73 10000 7.72 230 14:44 23.02.2022
3609 Clear 9 1022 73 10000 7.89 239 12:45 23.02.2022
3610 Clear 9 1022 82 10000 7.84 242 11:59 23.02.2022
3611 Clear 7 1022 86 10000 7.32 242 10:35 23.02.2022
3612 Clear 5 1022 94 10000 5.99 242 08:59 23.02.2022
3613 Clear 5 1022 94 10000 5.99 242 08:59 23.02.2022
3614 Clear 4 1022 93 10000 5.98 252 08:23 23.02.2022
3615 Clear 4 1021 94 10000 6.59 262 06:53 23.02.2022
3616 Clouds 6 1017 90 10000 8.69 289 00:47 23.02.2022
3617 Clouds 6 1016 91 10000 9.57 292 23:39 22.02.2022
3618 Clouds 6 1015 90 10000 9.28 286 22:51 22.02.2022
3619 Clouds 6 1013 92 10000 8.54 289 21:50 22.02.2022
3620 Clouds 6 1013 92 10000 8.54 289 21:31 22.02.2022
3621 Clouds 7 1012 82 10000 9.26 292 20:59 22.02.2022
3622 Clouds 7 1012 90 10000 9.26 292 20:31 22.02.2022
3623 Clouds 7 1011 90 10000 9.07 292 19:50 22.02.2022
3624 Clouds 7 1011 91 10000 9.07 292 19:31 22.02.2022
3625 Clouds 8 1007 94 10000 10.78 257 18:23 22.02.2022
3626 Clouds 8 1007 96 7290 10.02 249 17:26 22.02.2022
3627 Clouds 8 1007 96 7290 10.02 249 16:41 22.02.2022
3628 Clouds 7 1007 95 10000 9.07 227 15:59 22.02.2022
3629 Clouds 7 1009 94 10000 8.81 214 14:52 22.02.2022
3630 Clouds 7 1012 90 10000 7.24 207 12:52 22.02.2022
3631 Clouds 6 1014 90 10000 5.77 228 10:53 22.02.2022
3632 Clouds 4 1014 93 10000 5.21 252 08:56 22.02.2022
3633 Clouds 4 1014 91 10000 6.23 285 07:27 22.02.2022
3634 Clouds 4 1014 89 10000 6.23 285 06:52 22.02.2022
3635 Clear 5 1013 84 10000 8.9 302 02:47 22.02.2022
3636 Clouds 6 1008 83 10000 11.71 316 23:18 21.02.2022
3637 Clouds 6 1006 84 10000 12.41 322 21:56 21.02.2022
3638 Clouds 6 1003 90 10000 12.9 313 20:38 21.02.2022
3639 Clouds 6 1003 90 10000 12.9 313 20:38 21.02.2022
3640 Clouds 6 1000 93 10000 11.05 305 18:47 21.02.2022
3641 Clouds 6 998 91 10000 9.77 300 17:41 21.02.2022
3642 Clouds 6 994 92 10000 10.61 333 15:36 21.02.2022
3643 Clouds 5 988 97 10000 6.11 274 14:22 21.02.2022
3644 Clouds 3 988 97 10000 6.11 274 13:30 21.02.2022
3645 Snow 2 989 95 51 9.47 214 12:24 21.02.2022
3646 Clouds 2 989 95 51 9.47 214 11:31 21.02.2022
3647 Clouds 4 991 91 126 10.3 240 10:23 21.02.2022
3648 Clouds 4 990 85 10000 12.56 266 05:40 21.02.2022
3649 Clouds 6 987 94 10000 13.68 268 00:30 21.02.2022
3650 Clouds 9 984 94 10000 14.14 269 22:30 20.02.2022
3651 Clouds 10 984 95 7373 14.88 224 21:43 20.02.2022
3652 Clouds 10 986 95 5225 13.85 223 21:19 20.02.2022
3653 Clouds 9 986 95 5225 13.85 223 20:42 20.02.2022
3654 Clouds 9 988 96 5790 13.02 224 19:48 20.02.2022
3655 Clouds 9 990 96 6346 11.17 222 18:55 20.02.2022
3656 Clouds 9 991 96 7769 10.6 224 18:34 20.02.2022
3657 Clouds 9 993 96 10000 10.68 232 17:55 20.02.2022
3658 Clouds 9 996 95 10000 11.06 243 16:18 20.02.2022
3659 Clouds 9 997 95 10000 11.21 242 14:53 20.02.2022
3660 Clouds 9 997 95 10000 11.57 240 13:58 20.02.2022
3661 Clouds 9 999 96 10000 12.06 243 12:42 20.02.2022
3662 Clouds 8 999 97 10000 11.89 241 11:30 20.02.2022
3663 Clouds 5 1001 97 9344 9.37 207 10:20 20.02.2022
3664 Clouds 4 1002 96 2471 8.24 186 09:24 20.02.2022
3665 Clouds 3 1007 96 10000 5.29 312 02:54 20.02.2022
3666 Clouds 4 1003 95 1440 5.66 325 00:31 20.02.2022
3667 Clouds 3 1002 95 425 2.71 294 23:32 19.02.2022
3668 Clouds 3 1002 94 113 6.98 178 22:23 19.02.2022
3669 Clouds 4 1002 94 113 6.98 178 21:45 19.02.2022
3670 -273 0 0 0 0 0 20:25 19.02.2022
3671 Clouds 4 1005 92 10000 5.57 194 20:25 19.02.2022
3672 Clouds 4 1005 91 10000 5.57 194 19:34 19.02.2022
3673 Clouds 5 1005 82 10000 6.29 212 18:39 19.02.2022
3674 Clouds 6 1006 80 10000 6.74 223 17:54 19.02.2022
3675 Clouds 6 1007 78 10000 7.98 233 16:47 19.02.2022
3676 Clouds 7 1007 76 10000 9.22 239 15:59 19.02.2022
3677 Clouds 7 1007 75 10000 9.8 247 14:53 19.02.2022
3678 Clear 7 1008 74 10000 9.9 251 13:55 19.02.2022
3679 Clouds 6 1008 84 10000 10.53 253 11:47 19.02.2022
3680 Clouds 5 1007 88 10000 10.54 258 10:48 19.02.2022
3681 Clouds 4 1005 92 10000 10.58 265 08:56 19.02.2022
3682 Clouds 3 1002 92 4175 9.73 265 06:48 19.02.2022
3683 Clouds 6 989 80 10000 20.32 256 00:38 19.02.2022
3684 Clouds 6 987 78 10000 18.65 248 22:24 18.02.2022
3685 Clouds 6 986 85 10000 18.42 254 21:21 18.02.2022
3686 Clouds 6 984 85 10000 18.21 257 20:18 18.02.2022
3687 Clouds 8 982 85 9818 17.53 241 18:51 18.02.2022
3688 Clouds 8 981 85 10000 18.01 228 18:29 18.02.2022
3689 Clouds 9 981 84 10000 18.01 228 17:56 18.02.2022
3690 Clouds 9 984 85 10000 13.54 224 16:19 18.02.2022
3691 Clouds 10 986 97 10000 13.09 211 14:19 18.02.2022
3692 Clouds 10 986 97 10000 13.09 211 13:45 18.02.2022
3693 Clouds 9 989 97 10000 11.71 204 12:48 18.02.2022
3694 Clouds 7 991 97 10000 10.34 191 11:57 18.02.2022
3695 Clouds 6 994 96 10000 10.32 173 10:42 18.02.2022
3696 Clouds 5 1003 94 10000 4.16 183 07:21 18.02.2022
3697 Clouds 4 1004 94 10000 4.73 181 06:35 18.02.2022
3698 Clouds 4 1005 93 10000 4.17 191 05:34 18.02.2022
3699 Clouds 6 1006 79 10000 9.47 272 22:20 17.02.2022
3700 Clouds 6 1006 77 10000 9.47 272 21:41 17.02.2022
3701 Clouds 6 1006 81 10000 10.1 272 20:44 17.02.2022
3702 Clouds 7 1006 80 10000 11.23 272 19:56 17.02.2022
3703 Clouds 7 1005 82 10000 11.88 274 19:26 17.02.2022
3704 Clouds 7 1003 81 10000 12.44 274 18:29 17.02.2022
3705 Clouds 7 1003 72 10000 12.44 274 17:45 17.02.2022
3706 Clouds 8 1001 78 10000 13.94 274 15:58 17.02.2022
3707 Clouds 8 1000 76 10000 14.11 275 14:30 17.02.2022
3708 Clouds 8 999 76 10000 14.08 276 13:47 17.02.2022
3709 Clouds 8 998 80 10000 14 280 11:52 17.02.2022
3710 Clouds 7 997 82 10000 14.12 280 10:57 17.02.2022
3711 Clouds 7 992 78 10000 16.04 279 07:56 17.02.2022
3712 Clouds 10 984 80 10000 14.6 265 00:20 17.02.2022
3713 Clouds 11 983 87 10000 14.45 266 22:38 16.02.2022
3714 Clouds 11 984 96 10000 13.91 235 20:24 16.02.2022
3715 Clouds 10 985 95 10000 12.9 233 19:23 16.02.2022
3716 Clouds 11 987 93 6500 12.46 235 18:35 16.02.2022
3717 Clouds 11 989 91 10000 11.18 237 17:27 16.02.2022
3718 Clouds 12 990 89 10000 11.32 242 15:24 16.02.2022
3719 Clouds 12 990 90 10000 11.86 247 13:47 16.02.2022
3720 Clouds 11 990 92 10000 12.26 249 12:31 16.02.2022
3721 Clouds 11 990 96 10000 11.24 246 11:46 16.02.2022
3722 Clouds 9 990 98 10000 10.53 240 10:35 16.02.2022
3723 Clouds 9 990 98 10000 11.2 227 09:54 16.02.2022
3724 Clouds 7 994 97 10000 6.97 208 06:44 16.02.2022
3725 Clouds 6 998 96 10000 4.72 195 03:41 16.02.2022
3726 Clouds 6 1001 95 10000 4.9 242 22:35 15.02.2022
3727 Clouds 6 1001 95 10000 5.84 266 21:52 15.02.2022
3728 Clouds 6 1001 95 10000 5.84 266 21:31 15.02.2022
3729 Clouds 6 1000 94 10000 11.39 228 20:58 15.02.2022
3730 Clouds 6 1000 93 10000 11.39 228 20:38 15.02.2022
3731 Clouds 6 1001 93 9976 10.78 210 19:48 15.02.2022
3732 Clouds 6 1001 92 8417 10.92 211 18:41 15.02.2022
3733 Clouds 7 1002 91 10000 10.72 208 18:18 15.02.2022
3734 Clouds 7 1002 87 10000 10.72 208 17:46 15.02.2022
3735 Clouds 8 1003 77 10000 10 203 16:30 15.02.2022
3736 Clouds 8 1005 73 10000 8.51 215 14:39 15.02.2022
3737 Clouds 8 1007 79 10000 8.41 227 13:26 15.02.2022
3738 Clouds 8 1007 87 10000 8.14 228 11:52 15.02.2022
3739 Clouds 7 1007 92 10000 7.59 231 10:57 15.02.2022
3740 Clouds 6 1007 93 10000 6 221 09:25 15.02.2022
3741 Clouds 6 1006 91 10000 5.84 232 06:48 15.02.2022
3742 Clouds 6 1002 90 10000 9.21 243 00:48 15.02.2022
3743 Clouds 7 1001 85 10000 9.05 217 22:20 14.02.2022
3744 Clear 7 1001 84 10000 8.65 216 21:24 14.02.2022
3745 Clear 7 1001 84 10000 8.28 214 20:24 14.02.2022
3746 Clear 7 1001 79 10000 8.28 214 19:30 14.02.2022
3747 Clouds 8 1000 77 10000 7.72 225 18:27 14.02.2022
3748 Clouds 9 1000 77 10000 7.72 225 17:43 14.02.2022
3749 Clouds 9 1000 77 10000 7.72 225 17:43 14.02.2022
3750 Clouds 9 999 78 10000 8.34 227 17:24 14.02.2022
3751 Clouds 10 998 78 10000 8.32 227 15:58 14.02.2022
3752 Clouds 10 998 85 10000 9.12 225 13:44 14.02.2022
3753 Clouds 10 998 86 10000 8.97 230 13:23 14.02.2022
3754 Clouds 10 998 85 10000 8.01 224 12:32 14.02.2022
3755 Clouds 9 997 90 10000 7.38 232 11:54 14.02.2022
3756 Clouds 10 996 82 10000 10.37 224 10:31 14.02.2022
3757 Clouds 10 995 78 10000 11.36 193 08:37 14.02.2022
3758 Clouds 9 995 78 10000 10.3 190 07:27 14.02.2022
3759 Clouds 8 1000 75 10000 9.89 195 23:45 13.02.2022
3760 Clouds 8 1001 76 10000 10 192 22:42 13.02.2022
3761 Clouds 8 1001 76 10000 10.08 190 22:23 13.02.2022
3762 Clouds 8 1001 80 10000 10.08 190 21:30 13.02.2022
3763 Clouds 7 1002 79 10000 9.88 187 20:33 13.02.2022
3764 Clouds 7 1003 76 10000 8.71 181 19:29 13.02.2022
3765 Clouds 7 1003 77 10000 8.71 181 18:46 13.02.2022
3766 Clouds 7 1004 79 10000 8.01 183 18:26 13.02.2022
3767 Clouds 7 1006 76 10000 7.83 188 15:54 13.02.2022
3768 Clouds 7 1007 73 10000 7.91 192 15:24 13.02.2022
3769 Clouds 7 1008 76 10000 8.04 194 14:22 13.02.2022
3770 Clouds 5 1009 80 10000 7.74 197 12:51 13.02.2022
3771 Clouds 4 1010 81 10000 7.91 199 11:44 13.02.2022
3772 Clouds 3 1011 82 10000 7.85 201 10:33 13.02.2022
3773 Clouds 2 1011 84 10000 7.52 202 09:46 13.02.2022
3774 Clouds 1 1012 85 10000 7.11 194 07:49 13.02.2022
3775 Clouds 3 1017 79 10000 7.45 201 00:35 13.02.2022
3776 Clouds 3 1018 80 10000 7.75 200 23:42 12.02.2022
3777 Clouds 2 1018 79 10000 7.88 196 22:33 12.02.2022
3778 Clouds 3 1019 79 10000 7.54 194 21:31 12.02.2022
3779 Clouds 3 1019 77 10000 7.39 193 20:47 12.02.2022
3780 Clouds 3 1020 76 10000 7.32 188 19:35 12.02.2022
3781 Clouds 3 1021 76 10000 7.07 187 18:53 12.02.2022
3782 Clouds 3 1021 76 10000 7.07 187 18:35 12.02.2022
3783 Clouds 5 1022 75 10000 7.02 192 17:20 12.02.2022
3784 Clouds 5 1022 70 10000 7.02 192 16:43 12.02.2022
3785 Clouds 6 1023 72 10000 7.05 194 15:51 12.02.2022
3786 Clouds 6 1024 70 10000 7.14 197 14:55 12.02.2022
3787 Clouds 6 1025 71 10000 7.15 200 14:24 12.02.2022
3788 Clouds 3 1027 83 10000 7.09 200 11:18 12.02.2022
3789 Clouds 2 1028 86 10000 6.53 200 10:23 12.02.2022
3790 Clouds 1 1028 90 10000 6.53 200 09:32 12.02.2022
3791 Clouds -1 1029 93 10000 5.91 198 08:45 12.02.2022
3792 Clouds -1 1030 94 10000 4.39 193 05:41 12.02.2022
3793 Clouds -1 1030 94 10000 4.11 195 04:36 12.02.2022
3794 Clear 0 1032 92 10000 3.45 208 02:19 12.02.2022
3795 Clear 1 1033 88 10000 2.88 238 23:20 11.02.2022
3796 Clear 1 1033 85 10000 2.59 252 22:20 11.02.2022
3797 Clear 1 1033 84 10000 2.64 274 21:18 11.02.2022
3798 Clear 2 1032 86 10000 2.61 290 20:21 11.02.2022
3799 Clouds 2 1032 86 10000 2.73 316 19:27 11.02.2022
3800 Clouds 3 1031 82 10000 4.04 316 18:29 11.02.2022
3801 Clouds 4 1031 80 10000 5.17 318 17:26 11.02.2022
3802 Clouds 5 1031 83 10000 5.17 318 16:37 11.02.2022
3803 Clouds 6 1029 74 10000 6.53 330 15:18 11.02.2022
3804 Clouds 6 1029 75 10000 6.53 330 14:37 11.02.2022
3805 Clouds 6 1028 73 10000 7.19 335 14:19 11.02.2022
3806 Clouds 6 1028 69 10000 7.19 335 13:40 11.02.2022
3807 Clouds 6 1027 79 10000 7.52 340 12:45 11.02.2022
3808 Clouds 4 1024 88 10000 10.14 358 10:49 11.02.2022
3809 Clouds 5 1021 88 10000 10.24 349 09:32 11.02.2022
3810 Clouds 5 1019 92 10000 7.91 338 08:31 11.02.2022
3811 Clouds 5 1016 94 10000 8.51 329 07:40 11.02.2022
3812 Clouds 4 1014 93 10000 7.71 263 05:34 11.02.2022
3813 Clear 3 1017 90 10000 5.99 216 02:21 11.02.2022
3814 Clouds 3 1018 91 10000 5.01 226 23:45 10.02.2022
3815 Clouds 4 1018 90 10000 4.99 240 22:25 10.02.2022
3816 Clouds 4 1018 89 10000 4.99 240 21:40 10.02.2022
3817 Clouds 4 1018 88 10000 5.15 243 20:50 10.02.2022
3818 Clouds 5 1018 88 10000 5.09 247 19:51 10.02.2022
3819 Clouds 5 1018 87 10000 5.05 251 19:22 10.02.2022
3820 Clouds 5 1018 86 10000 5.18 263 18:22 10.02.2022
3821 Clouds 6 1017 84 10000 5.63 267 17:21 10.02.2022
3822 Clouds 6 1017 81 10000 5.63 267 16:43 10.02.2022
3823 Clouds 7 1017 82 10000 5.68 271 15:40 10.02.2022
3824 Clouds 7 1017 82 10000 6.13 276 15:21 10.02.2022
3825 Clouds 8 1017 81 10000 6.13 276 14:35 10.02.2022
3826 Clouds 8 1017 80 10000 6.46 273 13:56 10.02.2022
3827 Clouds 8 1017 82 10000 5.67 269 13:19 10.02.2022
3828 Clouds 7 1017 89 10000 5.51 262 11:53 10.02.2022
3829 Clouds 7 1017 94 10000 5.51 262 11:32 10.02.2022
3830 Clouds 6 1017 97 10000 4.17 254 10:23 10.02.2022
3831 Clouds 6 1017 98 10000 4.17 254 09:44 10.02.2022
3832 Clouds 6 1017 98 10000 3.52 254 08:40 10.02.2022
3833 Clouds 6 1017 98 10000 3.53 275 06:33 10.02.2022
3834 Rain 7 1019 97 10000 1.86 209 03:21 10.02.2022
3835 Clouds 7 1020 97 10000 1.86 249 00:56 10.02.2022
3836 Clouds 7 1020 97 10000 2 253 00:38 10.02.2022
3837 Clouds 7 1020 96 10000 2.67 251 00:20 10.02.2022
3838 Clouds 7 1021 96 10000 2.87 236 22:54 09.02.2022
3839 Clouds 7 1021 96 10000 2.87 236 22:31 09.02.2022
3840 Clouds 7 1021 96 10000 3.37 232 21:47 09.02.2022
3841 Clouds 7 1021 95 10000 3.58 233 21:27 09.02.2022
3842 Clouds 7 1021 95 10000 3.58 233 20:44 09.02.2022
3843 Clouds 7 1021 95 10000 3.58 233 20:44 09.02.2022
3844 Clouds 7 1021 95 10000 3.82 240 20:22 09.02.2022
3845 Clouds 7 1021 94 10000 3.82 240 19:42 09.02.2022
3846 Clouds 8 1022 94 10000 4.28 248 18:38 09.02.2022
3847 Clouds 8 1021 94 10000 5.48 256 16:57 09.02.2022
3848 Clouds 9 1021 95 10000 6.26 256 16:20 09.02.2022
3849 Clouds 9 1021 96 10000 6.97 252 15:24 09.02.2022
3850 Clouds 9 1021 93 10000 7.8 247 12:53 09.02.2022
3851 Clouds 9 1021 95 10000 8.24 246 11:36 09.02.2022
3852 Clouds 9 1020 94 10000 8.49 243 10:35 09.02.2022
3853 Clouds 9 1020 91 10000 8.52 240 09:53 09.02.2022
3854 Clouds 9 1020 91 10000 8.35 235 09:22 09.02.2022
3855 Clouds 9 1020 91 10000 8.35 235 08:46 09.02.2022
3856 Clouds 8 1020 90 10000 8.16 234 06:52 09.02.2022
3857 Clouds 9 1021 90 10000 8.06 235 04:36 09.02.2022
3858 Clouds 9 1021 91 10000 7.93 232 03:49 09.02.2022
3859 Clouds 9 1022 96 10000 6.82 230 23:45 08.02.2022
3860 Clouds 9 1022 96 10000 6.89 233 23:19 08.02.2022
3861 Clouds 9 1022 96 10000 6.89 233 23:19 08.02.2022
3862 Clouds 9 1022 96 10000 6.89 233 22:38 08.02.2022
3863 Clouds 9 1022 96 10000 6.89 233 22:38 08.02.2022
3864 Clouds 9 1023 97 10000 6.86 234 22:20 08.02.2022
3865 Clouds 9 1023 97 10000 6.66 239 21:22 08.02.2022
3866 Clouds 9 1023 96 10000 6.66 239 20:58 08.02.2022
3867 Clouds 9 1023 96 10000 6.66 239 20:38 08.02.2022
3868 Clouds 9 1023 96 10000 6.81 248 19:28 08.02.2022
3869 Clouds 9 1022 96 10000 6.94 252 18:24 08.02.2022
3870 Clouds 9 1022 96 10000 6.94 252 17:30 08.02.2022
3871 Clouds 10 1022 94 10000 7.45 261 15:47 08.02.2022
3872 Clouds 10 1022 93 10000 8.12 262 15:28 08.02.2022
3873 Clouds 10 1021 89 10000 8.5 259 13:50 08.02.2022
3874 Clouds 10 1021 89 10000 8.9 255 12:25 08.02.2022
3875 Clouds 9 1021 89 10000 9.14 253 10:52 08.02.2022
3876 Clouds 9 1020 89 10000 9.18 252 09:50 08.02.2022
3877 Clouds 9 1020 91 10000 8.9 252 08:53 08.02.2022
3878 Clouds 9 1020 91 10000 8.9 252 08:53 08.02.2022
3879 Clouds 8 1020 96 10000 8.42 245 06:50 08.02.2022
3880 Clouds 7 1020 97 10000 7.77 240 04:40 08.02.2022
3881 Clouds 7 1020 97 10000 7.69 233 04:22 08.02.2022
3882 Clouds 6 1020 97 10000 7.69 233 03:36 08.02.2022
3883 Clouds 6 1021 96 10000 7.59 230 03:18 08.02.2022
3884 Clouds 6 1021 96 10000 7.59 230 02:59 08.02.2022
3885 Clouds 6 1021 96 10000 7.59 230 02:36 08.02.2022
3886 Clouds 5 1021 95 10000 7.43 227 02:18 08.02.2022
3887 Clouds 6 1021 94 10000 7.43 227 01:45 08.02.2022
3888 Clouds 6 1021 94 10000 7.43 227 01:45 08.02.2022
3889 Clouds 6 1021 93 10000 7.45 225 01:25 08.02.2022
3890 Clouds 6 1021 90 10000 7.45 225 00:55 08.02.2022
3891 Clouds 5 1021 89 10000 7.68 227 00:32 08.02.2022
3892 Clouds 5 1022 88 10000 7.07 222 23:45 07.02.2022
3893 Clouds 5 1022 88 10000 6.72 226 23:18 07.02.2022
3894 Clouds 5 1022 88 10000 6.72 226 22:59 07.02.2022
3895 Clouds 5 1023 87 10000 5.98 226 22:19 07.02.2022
3896 Clouds 5 1023 87 10000 5.98 226 21:51 07.02.2022
3897 Clouds 5 1023 87 10000 5.47 226 21:28 07.02.2022
3898 Clouds 5 1023 87 10000 5.47 226 20:52 07.02.2022
3899 Clouds 5 1023 88 10000 5.47 226 20:34 07.02.2022
3900 Clouds 5 1023 88 10000 5.61 238 19:47 07.02.2022
3901 Clouds 5 1023 88 10000 5.99 252 18:58 07.02.2022
3902 Clouds 6 1023 87 10000 6.32 268 17:38 07.02.2022
3903 Clouds 6 1022 86 10000 6.97 279 16:52 07.02.2022
3904 Clouds 7 1022 84 10000 8.19 287 15:48 07.02.2022
3905 Clear 7 1021 84 10000 8.96 292 14:41 07.02.2022
3906 Clear 7 1020 84 10000 10.36 296 13:27 07.02.2022
3907 Clear 7 1020 86 10000 10.36 296 12:37 07.02.2022
3908 Clear 7 1019 84 10000 10 298 11:55 07.02.2022
3909 Clear 6 1018 85 10000 9.82 299 11:26 07.02.2022
3910 Clear 6 1018 84 10000 9.82 299 10:45 07.02.2022
3911 Clear 6 1017 81 10000 9.28 305 10:26 07.02.2022
3912 Clear 6 1017 81 10000 9.28 305 09:52 07.02.2022
3913 Clear 5 1016 85 10000 8.8 313 09:18 07.02.2022
3914 Clear 5 1014 89 10000 9.82 317 07:59 07.02.2022
3915 Clouds 5 1012 74 10000 9.9 321 06:35 07.02.2022
3916 Clouds 5 1010 88 10000 10.56 322 05:47 07.02.2022
3917 Clouds 4 1004 87 10000 11.99 311 02:56 07.02.2022
3918 Clouds 3 1000 91 10000 11.19 301 00:33 07.02.2022
3919 Clouds 3 999 92 10000 10.7 299 23:41 06.02.2022
3920 Clouds 4 998 88 10000 10.23 305 22:47 06.02.2022
3921 Clouds 4 996 84 10000 10.79 306 21:51 06.02.2022
3922 Clouds 4 995 90 10000 9.96 300 21:26 06.02.2022
3923 Rain 4 995 93 10000 9.96 300 20:52 06.02.2022
3924 Clouds 4 994 92 10000 10.13 292 20:28 06.02.2022
3925 Clouds 4 994 91 10000 10.13 292 19:32 06.02.2022
3926 Clouds 4 994 91 10000 11.16 281 18:38 06.02.2022
3927 Clouds 4 993 89 10000 9.84 268 17:54 06.02.2022
3928 Clouds 5 993 92 10000 9.71 276 16:56 06.02.2022
3929 Rain 6 993 92 10000 9.71 276 16:38 06.02.2022
3930 Clouds 7 993 90 10000 9.35 276 15:47 06.02.2022
3931 Clouds 7 993 91 10000 9.21 280 15:26 06.02.2022
3932 Clouds 6 993 94 10000 9.21 280 14:33 06.02.2022
3933 Clouds 6 993 95 10000 7.29 288 13:25 06.02.2022
3934 Clouds 6 993 95 10000 7.37 298 12:51 06.02.2022
3935 Rain 8 995 96 3928 8.35 249 11:27 06.02.2022
3936 Rain 8 996 96 10000 10.85 251 10:30 06.02.2022
3937 Clouds 8 997 95 8517 9.47 250 08:49 06.02.2022
3938 Rain 7 998 95 8689 7.39 242 07:51 06.02.2022
3939 Rain 8 1000 94 10000 11.86 269 05:30 06.02.2022
3940 Rain 8 1000 94 10000 11.86 269 05:30 06.02.2022
3941 Rain 8 1000 94 10000 11.86 269 05:30 06.02.2022
3942 Rain 8 1003 94 10000 11.67 241 02:26 06.02.2022
3943 Rain 7 1003 94 10000 11.67 241 01:47 06.02.2022
3944 Rain 7 1005 95 10000 12.01 245 00:26 06.02.2022
3945 Rain 7 1007 94 10000 12.2 241 22:20 05.02.2022
3946 Rain 6 1008 94 8835 11.8 237 21:18 05.02.2022
3947 Rain 6 1009 93 10000 11.18 233 20:24 05.02.2022
3948 Rain 6 1009 93 10000 11.18 233 19:46 05.02.2022
3949 Rain 6 1010 92 10000 11.05 232 18:52 05.02.2022
3950 Clouds 6 1011 84 10000 10.69 233 17:39 05.02.2022
3951 Clouds 6 1011 84 10000 10.69 233 17:39 05.02.2022
3952 Clouds 7 1011 83 10000 10.31 234 16:48 05.02.2022
3953 Clouds 7 1012 82 10000 9.84 232 15:34 05.02.2022
3954 Clouds 7 1013 80 10000 9.42 234 14:55 05.02.2022
3955 Clouds 6 1014 84 10000 8.73 244 12:47 05.02.2022
3956 Clouds 6 1015 85 10000 7.88 248 12:22 05.02.2022
3957 Clouds 5 1015 87 10000 7.65 254 10:48 05.02.2022
3958 Clouds 4 1015 88 10000 7.11 254 09:53 05.02.2022
3959 Clouds 3 1015 89 10000 7.11 254 09:30 05.02.2022
3960 Clouds 3 1014 89 10000 7 265 07:51 05.02.2022
3961 Clouds 3 1014 88 10000 7.24 269 06:57 05.02.2022
3962 Clouds 4 1012 89 10000 8.69 281 04:29 05.02.2022
3963 Clouds 4 1009 93 10000 8.82 264 01:19 05.02.2022
3964 Clouds 4 1009 93 10000 8.73 267 00:53 05.02.2022
3965 Clouds 3 1009 94 10000 8.67 267 23:41 04.02.2022
3966 Clouds 3 1008 94 10000 8.48 265 23:23 04.02.2022
3967 Clouds 3 1007 93 10000 7.72 265 21:54 04.02.2022
3968 Clouds 3 1007 92 10000 7.72 265 21:36 04.02.2022
3969 Clouds 3 1007 93 10000 8.14 277 21:18 04.02.2022
3970 Clouds 3 1006 95 10000 7.76 284 19:39 04.02.2022
3971 Rain 3 1004 95 10000 6.89 290 17:40 04.02.2022
3972 Rain 5 1002 93 82 6.93 324 15:39 04.02.2022
3973 Rain 7 1000 90 5225 6.53 268 14:54 04.02.2022
3974 Clouds 9 1000 87 10000 10.02 223 13:31 04.02.2022
3975 Clouds 9 1001 88 10000 10.22 219 12:43 04.02.2022
3976 Clouds 8 1002 90 10000 10.01 220 11:41 04.02.2022
3977 Clouds 8 1003 90 10000 9.52 219 10:36 04.02.2022
3978 Clouds 7 1004 93 10000 8.89 218 08:36 04.02.2022
3979 Clouds 7 1005 93 10000 8.32 217 06:47 04.02.2022
3980 Clouds 6 1008 95 10000 6.56 216 02:44 04.02.2022
3981 Clouds 7 1008 95 10000 6.2 216 01:48 04.02.2022
3982 Clouds 7 1009 96 10000 5.13 227 23:29 03.02.2022
3983 Clouds 7 1009 96 10000 5.13 227 22:33 03.02.2022
3984 Clouds 7 1009 96 10000 5.09 227 21:49 03.02.2022
3985 Clouds 7 1009 96 10000 5.1 233 20:38 03.02.2022
3986 Clouds 7 1009 96 10000 5.35 236 20:18 03.02.2022
3987 Clouds 7 1009 96 10000 5.35 236 19:30 03.02.2022
3988 Clouds 7 1009 96 10000 5.47 242 18:38 03.02.2022
3989 Clouds 7 1009 95 10000 5.51 243 17:32 03.02.2022
3990 Clouds 7 1010 92 10000 6.11 228 16:26 03.02.2022
3991 Clouds 7 1010 94 10000 6.34 222 14:45 03.02.2022
3992 Clouds 7 1011 94 10000 6.96 225 12:58 03.02.2022
3993 Clouds 8 1012 96 10000 6.79 223 11:22 03.02.2022
3994 Clouds 8 1013 98 10000 5.98 217 08:37 03.02.2022
3995 Clouds 8 1016 98 10000 5.72 239 05:26 03.02.2022
3996 Clouds 6 1018 96 10000 3.71 209 00:32 03.02.2022
3997 Clouds 5 1018 94 10000 3.54 216 23:43 02.02.2022
3998 Clouds 5 1019 93 10000 3.32 233 22:19 02.02.2022
3999 Clouds 5 1019 94 10000 3.33 233 21:34 02.02.2022
4000 Clouds 4 1019 93 10000 3.35 238 20:49 02.02.2022
4001 Clouds 4 1019 90 10000 3.39 245 19:58 02.02.2022
4002 Clouds 4 1019 90 10000 3.51 256 19:27 02.02.2022
4003 Clouds 5 1019 90 10000 3.51 256 18:46 02.02.2022
4004 Clouds 6 1018 88 10000 3.64 261 17:57 02.02.2022
4005 Clouds 7 1018 86 10000 3.91 277 17:19 02.02.2022
4006 Clouds 7 1018 86 10000 3.91 277 16:42 02.02.2022
4007 Clouds 8 1017 81 10000 6.79 304 13:35 02.02.2022
4008 Clouds 8 1017 83 10000 7.89 306 12:25 02.02.2022
4009 Clouds 7 1017 86 10000 7.89 306 11:34 02.02.2022
4010 Clouds 7 1016 84 10000 8.08 309 10:31 02.02.2022
4011 Clouds 6 1013 84 10000 9.28 312 07:37 02.02.2022
4012 Clouds 7 1008 87 10000 11.99 303 22:52 01.02.2022
4013 Clouds 7 1008 87 10000 11.46 304 21:51 01.02.2022
4014 Clouds 7 1007 89 10000 11.34 306 20:35 01.02.2022
4015 Clouds 8 1005 90 10000 13.57 306 17:50 01.02.2022
4016 Clouds 8 1005 91 10000 12.63 292 16:40 01.02.2022
4017 Clouds 8 1005 96 10000 10.76 290 14:47 01.02.2022
4018 Clouds 7 1006 97 10000 9.36 280 12:45 01.02.2022
4019 Rain 6 1007 97 10000 9.46 262 11:34 01.02.2022
4020 Clouds 4 1015 89 10000 6.62 274 04:53 01.02.2022
4021 Clouds 4 1016 80 10000 6.98 323 23:51 31.01.2022
4022 Clouds 4 1016 81 10000 8.81 324 23:28 31.01.2022
4023 Rain 4 1016 92 10000 10.17 343 21:59 31.01.2022
4024 Clouds 4 1016 94 10000 10.17 343 21:32 31.01.2022
4025 Rain 4 1015 93 10000 6.09 327 20:33 31.01.2022
4026 Rain 4 1014 93 10000 4.24 332 19:45 31.01.2022
4027 Clouds 4 1011 91 10000 7.73 356 18:26 31.01.2022
4028 Clouds 4 1011 90 10000 7.73 356 17:43 31.01.2022
4029 Clouds 4 1009 92 10000 9.15 359 16:43 31.01.2022
4030 Clouds 5 1007 94 10000 8.8 342 15:43 31.01.2022
4031 Clouds 7 1004 90 10000 5.64 305 14:24 31.01.2022
4032 Clouds 7 1004 88 10000 5.59 318 12:39 31.01.2022
4033 Clouds 7 1003 90 10000 4.39 319 11:58 31.01.2022
4034 Clouds 5 1001 96 10000 3.07 330 10:52 31.01.2022
4035 Clouds 5 1001 96 10000 3.07 330 10:34 31.01.2022
4036 Clouds 5 999 96 9433 2.15 221 09:27 31.01.2022
4037 Clouds 4 999 95 9433 2.15 221 08:52 31.01.2022
4038 Clouds 4 999 95 9433 2.15 221 08:52 31.01.2022
4039 Clouds 4 1000 95 10000 6.06 254 08:20 31.01.2022
4040 Clouds 4 1002 95 10000 9.51 280 06:21 31.01.2022
4041 Rain 3 1003 96 1053 7.28 243 05:20 31.01.2022
4042 Clouds 4 1018 87 10000 5.05 204 23:20 30.01.2022
4043 Clouds 3 1018 87 10000 5.05 204 22:30 30.01.2022
4044 Clouds 3 1018 87 10000 5.05 204 22:30 30.01.2022
4045 Clouds 3 1020 89 10000 4.04 218 21:43 30.01.2022
4046 Clouds 3 1022 89 10000 3.88 230 21:20 30.01.2022
4047 Clouds 3 1021 89 10000 4.31 226 20:50 30.01.2022
4048 Clouds 3 1022 89 10000 3.71 242 20:29 30.01.2022
4049 Clouds 4 1022 87 10000 3.71 242 19:53 30.01.2022
4050 Clouds 4 1023 83 10000 4.06 269 18:44 30.01.2022
4051 Clouds 4 1024 82 10000 5.32 288 18:20 30.01.2022
4052 Clouds 5 1025 82 10000 6.69 296 17:28 30.01.2022
4053 Clouds 6 1025 77 10000 6.69 296 16:41 30.01.2022
4054 Clouds 6 1025 76 10000 7.41 303 16:22 30.01.2022
4055 Clouds 6 1025 75 10000 7.41 303 15:52 30.01.2022
4056 Clouds 6 1025 75 10000 7.41 303 15:32 30.01.2022
4057 Clouds 7 1026 71 10000 8.26 305 14:46 30.01.2022
4058 Clouds 7 1026 72 10000 8.55 307 13:36 30.01.2022
4059 Clear 7 1027 74 10000 8.88 308 12:40 30.01.2022
4060 Clear 6 1026 76 10000 10.78 311 10:38 30.01.2022
4061 Clear 6 1025 74 10000 11.44 312 09:56 30.01.2022
4062 Clear 6 1025 76 10000 11.53 313 09:21 30.01.2022
4063 Clear 6 1024 77 10000 11.47 315 07:56 30.01.2022
4064 Clouds 6 1020 85 10000 13.59 301 02:43 30.01.2022
4065 Clouds 6 1020 84 10000 13.85 298 01:50 30.01.2022
4066 Rain 7 1019 79 10000 13.55 296 23:45 29.01.2022
4067 Clouds 7 1018 78 10000 13.35 294 22:37 29.01.2022
4068 Clouds 7 1017 84 10000 13.38 295 21:27 29.01.2022
4069 Clouds 7 1017 83 10000 13.38 295 20:48 29.01.2022
4070 Clouds 8 1016 87 10000 13.38 294 19:47 29.01.2022
4071 Clouds 9 1015 72 10000 13.16 292 19:29 29.01.2022
4072 Clouds 9 1016 82 10000 13.74 292 18:39 29.01.2022
4073 Clouds 10 1014 80 10000 15.16 300 17:42 29.01.2022
4074 Clouds 11 1014 81 10000 15.67 282 16:42 29.01.2022
4075 Clouds 11 1015 85 10000 13.53 270 15:20 29.01.2022
4076 Clouds 11 1015 87 10000 13.31 264 13:47 29.01.2022
4077 Clouds 10 1016 87 10000 12.57 259 13:26 29.01.2022
4078 Clouds 10 1016 89 10000 12.57 259 12:42 29.01.2022
4079 Clouds 10 1016 90 10000 10.44 249 11:39 29.01.2022
4080 Clouds 9 1017 92 10000 10.89 256 10:31 29.01.2022
4081 Clouds 9 1018 94 10000 8.89 250 07:57 29.01.2022
4082 Clouds 7 1023 93 10000 8.12 232 01:38 29.01.2022
4083 Clouds 7 1024 92 10000 7.88 230 00:31 29.01.2022
4084 Clouds 6 1026 92 10000 7.24 226 23:29 28.01.2022
4085 Clouds 6 1026 92 10000 7.24 226 22:46 28.01.2022
4086 Clouds 6 1027 91 10000 6.79 221 22:18 28.01.2022
4087 Clouds 5 1028 89 10000 6.21 215 20:41 28.01.2022
4088 Clouds 5 1029 89 10000 5.43 207 19:56 28.01.2022
4089 Clouds 5 1029 88 10000 4.83 207 18:52 28.01.2022
4090 Clouds 5 1030 85 10000 3.92 219 17:52 28.01.2022
4091 Clouds 7 1031 79 10000 3.9 261 15:50 28.01.2022
4092 Clouds 7 1031 77 10000 4.29 277 14:50 28.01.2022
4093 Clouds 7 1032 76 10000 5.27 304 12:41 28.01.2022
4094 Clouds 7 1032 78 10000 5.26 306 11:43 28.01.2022
4095 Clear 6 1031 83 10000 6.26 316 10:26 28.01.2022
4096 Clear 5 1031 82 10000 6.26 316 09:46 28.01.2022
4097 Clear 5 1029 78 10000 7.35 320 07:41 28.01.2022
4098 Clouds 6 1028 81 10000 8.65 319 05:31 28.01.2022
4099 Clear 5 1026 83 10000 9.81 317 03:51 28.01.2022
4100 Clouds 5 1024 87 10000 10.25 313 02:25 28.01.2022
4101 Clouds 5 1024 85 10000 10.25 313 01:37 28.01.2022
4102 Clear 5 1024 86 10000 10.62 309 00:39 28.01.2022
4103 Clouds 5 1021 86 10000 10.58 306 22:18 27.01.2022
4104 Clouds 5 1021 88 10000 10.58 306 21:34 27.01.2022
4105 Clouds 5 1021 89 10000 10.62 306 20:59 27.01.2022
4106 Clouds 6 1020 92 10000 10.67 304 19:37 27.01.2022
4107 Clouds 7 1018 86 10000 10.77 299 18:18 27.01.2022
4108 Clouds 7 1018 89 10000 10.21 298 16:45 27.01.2022
4109 Clouds 9 1017 91 10000 9.81 290 13:57 27.01.2022
4110 Clouds 8 1017 93 10000 9.57 284 12:49 27.01.2022
4111 Clouds 8 1017 94 10000 9.34 287 11:53 27.01.2022
4112 Clouds 7 1016 97 10000 10.18 277 09:48 27.01.2022
4113 Clouds 6 1016 97 10000 9.78 268 08:40 27.01.2022
4114 Rain 6 1016 96 10000 9.93 258 07:31 27.01.2022
4115 Clouds 6 1018 88 10000 10.63 239 03:34 27.01.2022
4116 Clouds 6 1022 91 10000 9.72 247 00:23 27.01.2022
4117 Clouds 6 1024 92 10000 9.7 254 22:28 26.01.2022
4118 Clouds 6 1024 92 10000 9.7 254 21:44 26.01.2022
4119 Clouds 5 1024 93 10000 9.15 250 20:49 26.01.2022
4120 Clouds 5 1024 94 10000 9.15 250 20:31 26.01.2022
4121 Clouds 5 1025 94 10000 7.95 242 19:38 26.01.2022
4122 Clouds 5 1025 93 10000 7.27 241 18:47 26.01.2022
4123 Clouds 5 1026 93 10000 6.48 247 18:24 26.01.2022
4124 Clouds 5 1026 94 10000 6.48 247 17:33 26.01.2022
4125 Clouds 5 1027 94 10000 6.15 253 16:49 26.01.2022
4126 Clouds 5 1027 94 10000 6.32 254 16:22 26.01.2022
4127 Clouds 4 1027 96 10000 6.01 251 14:40 26.01.2022
4128 Clouds 4 1029 94 10000 5.45 255 12:22 26.01.2022
4129 Clouds 3 1029 95 10000 5.3 250 10:52 26.01.2022
4130 Clouds 3 1029 95 10000 5.3 250 10:52 26.01.2022
4131 Clouds 3 1029 94 10000 5.42 254 09:55 26.01.2022
4132 Clouds 3 1029 94 10000 5.42 254 09:36 26.01.2022
4133 Clouds 3 1029 95 10000 4.95 238 06:42 26.01.2022
4134 Clouds 3 1032 96 10000 3.67 252 00:24 26.01.2022
4135 Clouds 3 1032 96 10000 3.67 252 23:41 25.01.2022
4136 Clouds 3 1032 96 10000 3.56 252 22:48 25.01.2022
4137 Clouds 3 1032 96 10000 3.23 249 22:18 25.01.2022
4138 Clouds 4 1032 96 10000 3.07 250 21:27 25.01.2022
4139 Clouds 4 1032 96 10000 3.07 250 20:45 25.01.2022
4140 Clouds 4 1032 95 10000 2.94 255 19:57 25.01.2022
4141 Clouds 3 1032 95 10000 2.9 259 19:28 25.01.2022
4142 Clouds 4 1032 96 10000 2.75 268 17:56 25.01.2022
4143 Clouds 4 1032 95 10000 2.77 267 17:20 25.01.2022
4144 Clouds 4 1032 95 10000 2.77 267 16:34 25.01.2022
4145 Clouds 4 1032 95 10000 2.84 261 15:39 25.01.2022
4146 Clouds 4 1032 95 10000 2.94 255 15:19 25.01.2022
4147 Clouds 4 1032 95 10000 2.94 255 14:51 25.01.2022
4148 Clouds 4 1033 94 10000 2.08 271 12:21 25.01.2022
4149 Clouds 4 1033 92 10000 2.36 289 09:35 25.01.2022
4150 Clouds 4 1033 92 10000 2.42 293 07:52 25.01.2022
4151 Clouds 4 1033 91 10000 2.41 292 07:27 25.01.2022
4152 Clouds 4 1033 90 10000 3.27 297 05:26 25.01.2022
4153 Clouds 4 1034 89 10000 2.6 292 00:57 25.01.2022
4154 Clouds 4 1034 89 10000 2.64 287 23:36 24.01.2022
4155 Clouds 4 1034 88 10000 2.54 274 23:18 24.01.2022
4156 Clouds 4 1034 88 10000 2.54 274 22:42 24.01.2022
4157 Clouds 4 1034 88 10000 2.57 264 22:23 24.01.2022
4158 Clouds 4 1034 88 10000 2.57 264 21:42 24.01.2022
4159 Clouds 4 1034 87 10000 2.37 273 21:24 24.01.2022
4160 Clouds 4 1034 88 10000 2.5 275 20:27 24.01.2022
4161 Clouds 4 1034 88 10000 2.5 275 19:38 24.01.2022
4162 Clouds 4 1034 87 10000 2.54 274 18:50 24.01.2022
4163 Clouds 4 1034 87 10000 2.54 274 18:50 24.01.2022
4164 Clouds 4 1034 85 10000 2.56 272 17:42 24.01.2022
4165 Clouds 4 1033 84 10000 2.64 261 17:22 24.01.2022
4166 Clouds 5 1033 84 10000 2.64 261 16:31 24.01.2022
4167 Clouds 5 1033 83 10000 2.6 250 15:35 24.01.2022
4168 Clouds 5 1033 83 10000 2.81 240 14:19 24.01.2022
4169 Clouds 5 1034 83 10000 2.73 230 12:35 24.01.2022
4170 Clouds 5 1034 85 10000 2.82 225 11:42 24.01.2022
4171 Clouds 5 1034 90 10000 2.46 210 10:23 24.01.2022
4172 Clouds 5 1034 91 10000 2.46 210 09:46 24.01.2022
4173 Clouds 5 1034 91 10000 2.69 212 08:18 24.01.2022
4174 Clouds 5 1034 90 10000 3.06 214 02:29 24.01.2022
4175 Clear 5 1034 89 10000 3 213 01:27 24.01.2022
4176 Clear 5 1034 89 10000 3 213 01:27 24.01.2022
4177 Clear 5 1035 90 10000 2.97 220 00:32 24.01.2022
4178 Clear 5 1035 92 10000 2.84 223 23:46 23.01.2022
4179 Clear 5 1035 91 10000 2.84 227 22:21 23.01.2022
4180 Clear 6 1035 91 10000 2.84 227 21:42 23.01.2022
4181 Clear 6 1035 91 10000 2.87 229 21:23 23.01.2022
4182 Clear 6 1035 90 10000 2.93 226 20:28 23.01.2022
4183 Clouds 6 1034 89 10000 2.85 231 19:19 23.01.2022
4184 Clouds 6 1035 89 10000 3.05 217 18:41 23.01.2022
4185 Clouds 6 1034 90 10000 2.32 236 17:25 23.01.2022
4186 Clouds 6 1034 90 10000 2.15 236 16:18 23.01.2022
4187 Clouds 7 1034 89 10000 2.53 249 14:54 23.01.2022
4188 Clouds 7 1034 89 10000 2.91 255 14:19 23.01.2022
4189 Clouds 7 1035 88 10000 2.9 257 12:47 23.01.2022
4190 Clouds 7 1035 88 10000 2.79 256 12:21 23.01.2022
4191 Clouds 6 1035 95 10000 2.77 255 11:27 23.01.2022
4192 Clouds 6 1035 96 10000 2.77 255 10:59 23.01.2022
4193 Clouds 6 1035 97 10000 2.73 258 10:25 23.01.2022
4194 Clouds 5 1035 97 10000 2.73 258 09:37 23.01.2022
4195 Clouds 5 1034 97 10000 2.72 264 08:51 23.01.2022
4196 Clouds 6 1033 96 10000 2.98 277 05:37 23.01.2022
4197 Clouds 5 1033 96 10000 3.21 280 01:43 23.01.2022
4198 Clouds 5 1033 96 10000 3.19 286 01:23 23.01.2022
4199 Clouds 5 1033 97 10000 3.09 297 00:22 23.01.2022
4200 Clouds 5 1033 97 10000 3.09 299 23:19 22.01.2022
4201 Clouds 5 1033 97 10000 3.09 299 22:34 22.01.2022
4202 Clouds 5 1033 97 10000 3.09 299 22:34 22.01.2022
4203 Clouds 5 1033 97 10000 3.2 303 21:19 22.01.2022
4204 Clouds 6 1032 97 10000 3.1 300 19:49 22.01.2022
4205 Clouds 6 1032 97 10000 3.12 305 18:45 22.01.2022
4206 Clouds 6 1032 97 10000 3.44 307 17:56 22.01.2022
4207 Clouds 6 1032 97 10000 3.44 307 17:35 22.01.2022
4208 Clouds 6 1032 97 10000 3.98 306 16:55 22.01.2022
4209 Clouds 6 1031 98 10000 4.07 298 15:49 22.01.2022
4210 Clouds 7 1031 98 10000 4.16 298 14:57 22.01.2022
4211 Clouds 7 1031 98 10000 4.29 298 13:39 22.01.2022
4212 Clouds 7 1032 98 10000 4.27 299 12:48 22.01.2022
4213 Clouds 7 1032 98 10000 4.53 310 12:28 22.01.2022
4214 Clouds 6 1032 99 10000 5.12 320 10:56 22.01.2022
4215 Clouds 6 1031 99 10000 5.42 322 10:29 22.01.2022
4216 Clouds 6 1031 99 10000 5.42 322 09:58 22.01.2022
4217 Clouds 6 1031 98 10000 5.48 321 08:51 22.01.2022
4218 Clouds 6 1030 98 10000 5.64 321 07:38 22.01.2022
4219 Clouds 6 1029 98 10000 6.76 320 04:52 22.01.2022
4220 Clouds 7 1028 98 10000 7.33 319 01:35 22.01.2022
4221 Clouds 6 1028 97 10000 8.27 319 23:38 21.01.2022
4222 Clouds 6 1028 96 10000 8.69 311 22:28 21.01.2022
4223 Clouds 6 1028 96 10000 8.42 305 20:28 21.01.2022
4224 Clouds 6 1028 96 10000 8.65 303 18:40 21.01.2022
4225 Clouds 6 1027 96 10000 8.72 304 17:31 21.01.2022
4226 Clouds 6 1028 94 10000 8.47 303 15:42 21.01.2022
4227 Clouds 6 1030 93 10000 6.57 306 13:51 21.01.2022
4228 Clouds 6 1030 93 10000 6.57 306 13:51 21.01.2022
4229 Clouds 5 1030 83 10000 5.57 300 12:38 21.01.2022
4230 Clouds 5 1030 92 10000 5.68 316 11:28 21.01.2022
4231 Clouds 3 1030 92 10000 6.1 322 10:19 21.01.2022
4232 Clouds 3 1030 92 10000 6.15 327 08:25 21.01.2022
4233 Clouds 2 1029 93 10000 6.3 329 06:57 21.01.2022
4234 Clouds 2 1029 90 10000 7.07 340 23:54 20.01.2022
4235 Clouds 2 1029 92 10000 6.79 343 22:44 20.01.2022
4236 Clouds 2 1028 91 10000 7.9 346 21:47 20.01.2022
4237 Clouds 2 1028 89 10000 8.28 345 20:56 20.01.2022
4238 Clouds 3 1027 85 10000 9.06 341 19:21 20.01.2022
4239 Clouds 3 1027 89 10000 9.06 341 18:51 20.01.2022
4240 Clouds 2 1026 88 10000 10.3 338 17:31 20.01.2022
4241 Clouds 3 1025 87 10000 10.59 335 15:45 20.01.2022
4242 Clouds 3 1024 85 10000 10.98 332 15:25 20.01.2022
4243 Clouds 4 1024 84 10000 11.1 329 13:42 20.01.2022
4244 Clouds 4 1024 80 10000 11.27 327 12:43 20.01.2022
4245 Clouds 4 1024 82 10000 10.76 327 12:21 20.01.2022
4246 Clouds 3 1024 83 10000 10.65 329 10:55 20.01.2022
4247 Clouds 3 1023 85 10000 10.72 330 09:43 20.01.2022
4248 Clouds 2 1022 87 10000 10.93 327 08:36 20.01.2022
4249 Clouds 3 1021 89 10000 10.86 328 06:18 20.01.2022
4250 Clouds 5 1019 86 10000 7.04 307 23:52 19.01.2022
4251 Clouds 5 1019 81 10000 8.14 313 22:37 19.01.2022
4252 Clouds 5 1017 86 10000 10.14 322 21:26 19.01.2022
4253 Clouds 5 1017 89 10000 10.14 322 20:55 19.01.2022
4254 Clouds 6 1016 90 10000 8.63 312 20:24 19.01.2022
4255 Clouds 6 1016 96 10000 8.56 295 18:49 19.01.2022
4256 Clouds 6 1016 96 10000 8.56 295 18:49 19.01.2022
4257 Clouds 6 1015 97 10000 8.23 292 17:50 19.01.2022
4258 Clouds 5 1015 97 10000 9.77 295 17:18 19.01.2022
4259 Clouds 5 1016 92 10000 8.26 241 14:55 19.01.2022
4260 Clouds 5 1018 93 10000 7.54 234 13:20 19.01.2022
4261 Clouds 4 1020 93 10000 6.99 227 11:58 19.01.2022
4262 Clouds 4 1021 94 10000 6.06 218 11:22 19.01.2022
4263 Clouds 4 1022 96 10000 5.45 220 09:35 19.01.2022
4264 Clouds 4 1022 96 10000 5.45 220 09:35 19.01.2022
4265 Clouds 4 1024 96 10000 5.02 224 08:20 19.01.2022
4266 Clouds 3 1027 96 10000 4.75 212 05:19 19.01.2022
4267 Clouds 4 1033 95 10000 4.08 222 00:18 19.01.2022
4268 Clouds 4 1033 95 10000 4.1 215 23:18 18.01.2022
4269 Clouds 4 1034 96 10000 3.78 219 21:44 18.01.2022
4270 Clouds 4 1035 95 10000 3.4 234 20:22 18.01.2022
4271 Clouds 5 1035 95 10000 3.4 234 19:45 18.01.2022
4272 Clouds 5 1035 95 10000 3.38 234 19:25 18.01.2022
4273 Clouds 5 1035 95 10000 3.31 239 18:18 18.01.2022
4274 Clouds 5 1035 94 10000 3.31 239 17:31 18.01.2022
4275 Clouds 6 1036 92 10000 3.15 237 16:18 18.01.2022
4276 Clouds 7 1036 92 10000 3.13 239 15:25 18.01.2022
4277 Clouds 7 1037 91 10000 3.06 242 14:22 18.01.2022
4278 Clouds 7 1037 96 10000 3.67 248 11:31 18.01.2022
4279 Clouds 6 1037 96 10000 2.47 261 09:59 18.01.2022
4280 Clouds 6 1036 96 10000 2.76 287 08:29 18.01.2022
4281 Clouds 6 1036 96 10000 2.76 287 07:42 18.01.2022
4282 Clouds 7 1035 96 10000 4.32 303 00:38 18.01.2022
4283 Clouds 7 1035 94 10000 4.57 305 22:40 17.01.2022
4284 Clouds 7 1035 95 10000 4.73 308 21:42 17.01.2022
4285 Clouds 7 1034 95 10000 4.78 311 20:44 17.01.2022
4286 Clouds 6 1032 92 10000 5.54 326 18:46 17.01.2022
4287 Clouds 6 1032 91 10000 6.36 329 18:24 17.01.2022
4288 Clouds 7 1031 91 10000 7.4 330 17:22 17.01.2022
4289 Clouds 8 1030 88 10000 8.18 331 15:54 17.01.2022
4290 Clouds 8 1030 90 10000 9.12 327 14:58 17.01.2022
4291 Clouds 9 1030 91 10000 9.12 327 14:31 17.01.2022
4292 Clouds 9 1029 92 10000 10.17 318 13:18 17.01.2022
4293 Clouds 8 1028 92 10000 10.47 306 11:53 17.01.2022
4294 Clouds 8 1028 91 10000 10.31 304 10:52 17.01.2022
4295 Clouds 7 1027 92 10000 10.04 304 09:46 17.01.2022
4296 Clouds 7 1027 93 10000 9.54 303 08:43 17.01.2022
4297 Clouds 6 1026 93 10000 9.76 286 07:20 17.01.2022
4298 Clouds 6 1026 88 10000 8.03 292 00:59 17.01.2022
4299 Clouds 6 1026 86 10000 8.19 300 23:33 16.01.2022
4300 Clouds 7 1024 96 10000 6.66 300 20:51 16.01.2022
4301 Clouds 7 1023 97 10000 7.01 290 20:18 16.01.2022
4302 Clouds 6 1022 96 10000 7.09 280 18:45 16.01.2022
4303 Clouds 6 1022 95 10000 6.93 275 17:47 16.01.2022
4304 Clouds 7 1021 94 10000 6.69 271 16:53 16.01.2022
4305 Clouds 7 1021 93 10000 7.19 273 15:40 16.01.2022
4306 Clouds 6 1020 94 10000 7.03 273 14:29 16.01.2022
4307 Clouds 6 1020 97 10000 6.61 263 13:23 16.01.2022
4308 Clouds 6 1020 97 10000 6.12 268 11:58 16.01.2022
4309 Clouds 5 1020 97 10000 6.06 266 11:27 16.01.2022
4310 Clouds 4 1019 98 10000 5.64 244 10:27 16.01.2022
4311 Clouds 4 1019 98 10000 5.64 244 09:57 16.01.2022
4312 Clouds 3 1019 98 10000 5.54 234 09:23 16.01.2022
4313 Clouds 3 1019 98 10000 5.54 234 08:53 16.01.2022
4314 Clouds 2 1019 97 10000 4.98 227 05:52 16.01.2022
4315 Clouds 3 1022 97 10000 3.63 196 00:19 16.01.2022
4316 Clouds 4 1023 98 10000 3.54 188 22:49 15.01.2022
4317 Clouds 4 1024 98 10000 3.25 173 21:21 15.01.2022
4318 Clouds 4 1024 98 10000 3.25 173 21:21 15.01.2022
4319 Clouds 4 1024 98 10000 3.25 173 20:44 15.01.2022
4320 Clouds 4 1024 98 10000 3.24 167 20:21 15.01.2022
4321 Clouds 4 1025 97 10000 3.05 169 19:26 15.01.2022
4322 Clouds 4 1025 97 10000 2.93 171 17:58 15.01.2022
4323 Clouds 5 1026 97 10000 2.73 172 16:49 15.01.2022
4324 Clouds 5 1026 97 10000 2.28 174 14:36 15.01.2022
4325 Clear 5 1028 98 10000 2.11 181 12:39 15.01.2022
4326 Clear 5 1029 99 10000 1.82 177 11:21 15.01.2022
4327 Clear 4 1029 99 10000 1.85 173 09:46 15.01.2022
4328 Clouds 5 1031 98 10000 0.56 283 01:58 15.01.2022
4329 Clouds 6 1033 98 10000 2.01 335 23:20 14.01.2022
4330 Clouds 6 1033 98 10000 2.43 342 20:57 14.01.2022
4331 Clouds 6 1033 98 10000 2.51 322 20:24 14.01.2022
4332 Clouds 6 1033 98 10000 2.52 323 19:50 14.01.2022
4333 Clouds 7 1032 98 10000 2.88 305 18:38 14.01.2022
4334 Clouds 7 1033 97 10000 2.82 303 17:21 14.01.2022
4335 Clouds 7 1033 97 10000 2.82 303 16:40 14.01.2022
4336 Clouds 7 1033 96 10000 3.34 303 15:30 14.01.2022
4337 Clouds 7 1033 95 10000 4.35 296 14:25 14.01.2022
4338 Clear 7 1033 94 10000 4.54 289 12:48 14.01.2022
4339 Clear 7 1033 94 10000 4.3 278 11:52 14.01.2022
4340 Clear 7 1033 95 10000 4.09 273 10:30 14.01.2022
4341 Clear 6 1033 94 10000 4.46 273 08:52 14.01.2022
4342 Clear 6 1032 94 10000 4.88 276 07:30 14.01.2022
4343 Clear 6 1034 94 10000 5.03 263 02:20 14.01.2022
4344 Clouds 6 1034 95 10000 4.79 265 00:21 14.01.2022
4345 Clouds 6 1034 96 10000 4.93 255 21:47 13.01.2022
4346 Clouds 6 1035 96 10000 4.97 257 21:29 13.01.2022
4347 Clouds 6 1035 95 10000 5.07 259 19:45 13.01.2022
4348 Clouds 6 1035 96 10000 5.15 259 19:23 13.01.2022
4349 Clouds 6 1035 96 10000 5.15 259 18:37 13.01.2022
4350 Clear 7 1036 97 10000 5.28 263 16:52 13.01.2022
4351 Clear 7 1036 98 10000 5.59 264 15:39 13.01.2022
4352 Clear 7 1036 99 10000 6.03 265 15:20 13.01.2022
4353 Clouds 6 1036 100 10000 5.78 258 13:29 13.01.2022
4354 Clear 6 1037 100 10000 5.14 252 10:49 13.01.2022
4355 Clear 6 1037 100 10000 4.91 254 09:23 13.01.2022
4356 Clear 5 1037 99 10000 5.01 255 08:29 13.01.2022
4357 Clear 5 1037 100 10000 5.01 255 07:58 13.01.2022
4358 Clear 5 1037 99 10000 5.06 253 07:19 13.01.2022
4359 Clear 5 1037 99 10000 4.53 246 05:21 13.01.2022
4360 Clear 5 1037 99 10000 4.39 249 03:48 13.01.2022
4361 Clear 5 1037 99 10000 4.62 256 01:39 13.01.2022
4362 Clouds 5 1038 99 10000 3.99 246 23:54 12.01.2022
4363 Clouds 5 1038 99 10000 3.99 246 23:34 12.01.2022
4364 Clouds 5 1038 99 10000 4.04 244 22:32 12.01.2022
4365 Clouds 5 1038 99 10000 4.08 249 21:43 12.01.2022
4366 Clouds 5 1038 99 10000 4.08 244 21:19 12.01.2022
4367 Clouds 5 1038 99 10000 4.08 244 20:47 12.01.2022
4368 Clouds 4 1037 99 10000 4.14 250 18:52 12.01.2022
4369 Clouds 4 1037 99 10000 4.03 248 18:25 12.01.2022
4370 Clouds 4 1037 99 10000 3.95 247 16:57 12.01.2022
4371 Clouds 5 1037 99 10000 3.6 249 15:38 12.01.2022
4372 Clouds 5 1038 99 10000 3.51 262 14:39 12.01.2022
4373 Clouds 4 1037 80 10000 3.79 260 12:57 12.01.2022
4374 Clear 2 1037 89 10000 2.64 264 09:57 12.01.2022
4375 Clouds 2 1036 91 10000 2.7 300 07:58 12.01.2022
4376 Clouds 2 1036 91 10000 2.7 300 07:33 12.01.2022
4377 Clouds 3 1035 93 10000 2.87 310 04:54 12.01.2022
4378 Clouds 3 1033 97 10000 4.4 214 23:27 11.01.2022
4379 Clouds 3 1033 96 10000 4.4 214 22:40 11.01.2022
4380 Clouds 3 1033 96 10000 4.45 213 22:18 11.01.2022
4381 Clouds 3 1033 92 10000 4.34 215 20:40 11.01.2022
4382 Clouds 3 1033 90 10000 4.41 212 19:41 11.01.2022
4383 Clouds 3 1032 89 10000 3.99 202 18:22 11.01.2022
4384 Clouds 3 1032 89 10000 3.87 198 16:59 11.01.2022
4385 Clouds 3 1032 89 10000 3.87 198 16:35 11.01.2022
4386 Clouds 3 1032 93 10000 4.57 197 14:57 11.01.2022
4387 Clouds 3 1032 94 10000 4.57 197 14:39 11.01.2022
4388 Clouds 2 1032 96 10000 4.63 200 13:53 11.01.2022
4389 Clouds 2 1032 96 10000 4.63 200 13:31 11.01.2022
4390 Clouds 1 1032 98 10000 4.71 202 12:37 11.01.2022
4391 Clouds 0 1032 99 10000 4.77 192 10:52 11.01.2022
4392 Clouds -1 1032 99 10000 3.91 187 08:53 11.01.2022
4393 Clouds -1 1031 98 10000 3.55 188 06:22 11.01.2022
4394 Clear -1 1030 98 10000 3.23 193 00:30 11.01.2022
4395 Clear -1 1030 97 10000 3.17 197 23:41 10.01.2022
4396 Clear 0 1029 97 10000 3.16 198 22:51 10.01.2022
4397 Clear 0 1029 97 10000 3.09 189 22:18 10.01.2022
4398 Clear 0 1029 96 10000 3.09 189 21:48 10.01.2022
4399 Clear 0 1028 96 10000 2.86 189 21:19 10.01.2022
4400 Clear 0 1028 96 10000 2.86 189 20:56 10.01.2022
4401 Clear 1 1028 96 10000 2.48 192 20:26 10.01.2022
4402 Clear 1 1028 96 10000 2.48 192 19:41 10.01.2022
4403 Clear 1 1027 96 10000 2.14 194 19:20 10.01.2022
4404 Clear 2 1027 96 10000 2.14 194 18:48 10.01.2022
4405 Clear 3 1026 95 10000 1.89 195 17:40 10.01.2022
4406 Clear 3 1025 93 10000 1.65 205 16:41 10.01.2022
4407 Clear 5 1023 93 10000 1.71 229 15:20 10.01.2022
4408 Clear 5 1022 93 10000 1.93 233 13:41 10.01.2022
4409 Clouds 3 1021 98 10000 2.53 245 11:58 10.01.2022
4410 Clouds 3 1020 98 10000 2.03 228 11:25 10.01.2022
4411 Clouds 1 1019 91 10000 2.17 239 09:47 10.01.2022
4412 Clouds 0 1015 97 10000 2.2 267 06:47 10.01.2022
4413 Clouds 1 1014 97 10000 2.49 271 05:49 10.01.2022
4414 Clouds 3 1009 97 10000 3.27 273 01:30 10.01.2022
4415 Clouds 3 1008 96 10000 3.31 268 00:24 10.01.2022
4416 Clouds 3 1007 96 10000 3.5 269 23:29 09.01.2022
4417 Clouds 3 1007 96 10000 3.5 269 22:37 09.01.2022
4418 Clouds 3 1005 96 10000 3.58 267 21:46 09.01.2022
4419 Clouds 4 1004 95 10000 3.48 264 21:23 09.01.2022
4420 Clouds 3 1004 95 10000 3.48 264 20:51 09.01.2022
4421 Clouds 3 1004 95 10000 3.48 264 20:33 09.01.2022
4422 Clouds 4 1003 95 10000 3.61 265 19:44 09.01.2022
4423 Clouds 4 1002 95 10000 3.74 265 19:23 09.01.2022
4424 Clouds 4 1002 94 10000 3.74 265 18:52 09.01.2022
4425 Clouds 4 1002 94 10000 4.09 265 18:33 09.01.2022
4426 Clouds 5 1001 93 10000 4.4 267 17:40 09.01.2022
4427 Clouds 5 999 92 10000 4.87 271 17:20 09.01.2022
4428 Clouds 6 999 90 10000 5.55 273 15:58 09.01.2022
4429 Rain 6 999 90 10000 5.55 273 15:35 09.01.2022
4430 Clouds 7 998 90 10000 5.98 273 14:40 09.01.2022
4431 Clouds 7 997 90 10000 6.29 276 13:51 09.01.2022
4432 Clouds 7 997 90 10000 6.29 276 13:51 09.01.2022
4433 Clouds 6 996 90 10000 6.58 277 13:25 09.01.2022
4434 Clouds 6 995 92 10000 6.85 279 11:55 09.01.2022
4435 Clouds 5 994 91 10000 7.13 281 10:53 09.01.2022
4436 Clouds 5 993 93 10000 7.63 285 09:50 09.01.2022
4437 Clouds 5 992 94 10000 7.72 287 08:52 09.01.2022
4438 Rain 4 989 98 10000 6.59 308 05:54 09.01.2022
4439 Rain 3 988 97 4534 8.02 179 01:25 09.01.2022
4440 Rain 3 987 97 523 8.39 173 00:37 09.01.2022
4441 Rain 3 989 97 94 8.88 168 23:27 08.01.2022
4442 Rain 3 989 97 94 8.88 168 22:35 08.01.2022
4443 Rain 3 992 96 65 9.04 169 21:26 08.01.2022
4444 Rain 3 992 96 65 9.04 169 20:43 08.01.2022
4445 Rain 2 993 96 51 9.1 169 20:21 08.01.2022
4446 Clouds 2 995 95 40 8.92 165 18:46 08.01.2022
4447 Rain 2 998 94 398 8.43 169 17:24 08.01.2022
4448 Rain 3 998 94 398 8.43 169 16:40 08.01.2022
4449 Clouds 3 1002 93 10000 7.55 190 14:50 08.01.2022
4450 Clouds 3 1003 93 10000 7 195 13:56 08.01.2022
4451 Clouds 2 1006 96 10000 5.75 207 11:30 08.01.2022
4452 Clouds 1 1006 97 10000 5.28 211 10:33 08.01.2022
4453 Clouds 1 1007 97 10000 5.15 223 09:57 08.01.2022
4454 Clouds 0 1007 97 10000 5.15 223 09:30 08.01.2022
4455 Clouds 1 1007 96 10000 4.64 237 05:39 08.01.2022
4456 Clouds 1 1007 96 10000 4.89 226 00:59 08.01.2022
4457 Snow 2 1007 95 10000 5.12 221 23:30 07.01.2022
4458 Clouds 2 1007 94 10000 4.53 216 21:46 07.01.2022
4459 Clouds 3 1007 92 10000 4.8 226 20:26 07.01.2022
4460 Clouds 3 1006 91 10000 5.09 223 19:26 07.01.2022
4461 Clouds 3 1006 91 10000 4.09 220 18:46 07.01.2022
4462 Clouds 3 1006 91 10000 4.49 213 18:21 07.01.2022
4463 Clouds 3 1006 93 10000 4.53 215 17:23 07.01.2022
4464 Clouds 5 1006 89 10000 6.71 230 14:55 07.01.2022
4465 Clouds 5 1006 90 10000 7.06 230 13:52 07.01.2022
4466 Clouds 5 1007 89 10000 7.86 231 12:51 07.01.2022
4467 Clouds 4 1007 94 10000 7.44 215 11:22 07.01.2022
4468 Clouds 2 1009 94 61 8.14 197 04:25 07.01.2022
4469 Clouds 3 1010 92 10000 8.45 205 02:46 07.01.2022
4470 Clouds 3 1011 88 10000 8.18 201 01:48 07.01.2022
4471 Clouds 3 1011 88 10000 8.18 201 01:48 07.01.2022
4472 Clouds 3 1012 88 10000 7.87 199 01:25 07.01.2022
4473 Clouds 3 1011 88 10000 7.97 198 00:31 07.01.2022
4474 Clouds 3 1011 88 10000 7.97 198 00:31 07.01.2022
4475 Clouds 3 1013 91 10000 7.18 199 22:33 06.01.2022
4476 Clouds 3 1014 92 10000 5.93 200 20:51 06.01.2022
4477 Clouds 3 1014 92 10000 5.27 201 20:18 06.01.2022
4478 Clouds 3 1014 92 10000 5.27 201 19:38 06.01.2022
4479 Clouds 2 1016 91 10000 4.22 209 17:51 06.01.2022
4480 Clouds 3 1016 91 10000 3.82 205 17:27 06.01.2022
4481 Clouds 3 1016 89 10000 3.82 205 16:38 06.01.2022
4482 Clouds 5 1016 87 10000 3.73 212 15:44 06.01.2022
4483 Clouds 5 1016 86 10000 3.85 219 15:23 06.01.2022
4484 Clouds 5 1016 84 10000 3.99 228 14:20 06.01.2022
4485 Clouds 5 1016 82 10000 3.99 228 13:41 06.01.2022
4486 Clouds 5 1016 85 10000 3.82 273 12:28 06.01.2022
4487 Clouds 3 1016 89 10000 3.82 273 11:31 06.01.2022
4488 Clouds 2 1016 95 10000 3.33 278 10:59 06.01.2022
4489 Clear 2 1014 70 10000 3.8 321 06:59 06.01.2022
4490 Clouds 4 1010 89 10000 9.48 321 00:35 06.01.2022
4491 Clouds 4 1009 88 10000 9.34 322 23:34 05.01.2022
4492 Clouds 4 1008 85 10000 8.94 321 22:50 05.01.2022
4493 Clouds 4 1008 87 10000 8.54 315 22:29 05.01.2022
4494 Rain 4 1008 86 10000 8.54 315 21:44 05.01.2022
4495 Clouds 5 1007 86 10000 8.9 312 20:45 05.01.2022
4496 Clouds 5 1006 85 10000 9.12 312 19:53 05.01.2022
4497 Clouds 6 1004 85 10000 9.95 311 18:27 05.01.2022
4498 Clouds 6 1002 87 10000 10.22 314 17:23 05.01.2022
4499 Clouds 6 1001 91 10000 9.8 312 16:24 05.01.2022
4500 Clouds 6 1000 89 10000 9.99 313 15:20 05.01.2022
4501 Clear 7 999 85 10000 10.11 306 13:39 05.01.2022
4502 Clouds 7 998 85 10000 9.61 310 12:51 05.01.2022
4503 Clouds 4 995 94 10000 10.26 277 08:58 05.01.2022
4504 Rain 3 995 93 1475 9.92 244 07:34 05.01.2022
4505 Clouds 2 995 86 10000 10 254 03:33 05.01.2022
4506 Clouds 2 996 90 10000 6.41 251 00:44 05.01.2022
4507 Clouds 2 996 91 10000 5.95 260 23:27 04.01.2022
4508 Clouds 2 996 92 10000 5.95 260 22:40 04.01.2022
4509 Clouds 3 996 91 10000 5.13 263 21:18 04.01.2022
4510 Clouds 3 995 91 10000 4.93 267 19:19 04.01.2022
4511 Clouds 4 995 91 10000 4.35 259 17:44 04.01.2022
4512 Clouds 4 995 90 10000 4.26 265 16:42 04.01.2022
4513 Clouds 4 995 89 10000 4.5 274 16:23 04.01.2022
4514 Clouds 5 994 88 10000 4.35 281 14:53 04.01.2022
4515 Clouds 5 994 89 10000 4.35 281 14:34 04.01.2022
4516 Clouds 5 995 94 10000 5.52 320 13:27 04.01.2022
4517 Clouds 7 994 96 10000 5.32 302 10:41 04.01.2022
4518 Clouds 7 993 94 10000 5.55 230 09:20 04.01.2022
4519 Rain 8 994 96 10000 5.93 225 08:28 04.01.2022
4520 Clouds 8 997 95 10000 5.8 231 02:31 04.01.2022
4521 Clouds 8 999 94 10000 6.66 230 00:41 04.01.2022
4522 Clouds 8 1000 94 10000 6.75 231 23:19 03.01.2022
4523 Clouds 8 1001 94 10000 6.79 231 21:52 03.01.2022
4524 Clouds 8 1001 94 10000 6.79 231 21:32 03.01.2022
4525 Clouds 8 1002 92 10000 7.32 236 19:56 03.01.2022
4526 Clouds 9 1002 90 10000 7.48 239 18:54 03.01.2022
4527 Clouds 9 1003 89 10000 7.86 244 18:28 03.01.2022
4528 Clouds 9 1003 87 10000 8.57 248 16:58 03.01.2022
4529 Clouds 10 1004 85 10000 9.04 252 15:39 03.01.2022
4530 Clouds 10 1004 86 10000 9.57 248 14:30 03.01.2022
4531 Clouds 10 1005 86 10000 10.03 247 12:46 03.01.2022
4532 Clouds 10 1006 89 10000 9.92 244 11:35 03.01.2022
4533 Clouds 9 1006 89 10000 9.13 242 10:36 03.01.2022
4534 Clouds 9 1006 91 10000 9.44 242 08:47 03.01.2022
4535 Clouds 9 1006 91 10000 9.39 244 07:36 03.01.2022
4536 Rain 9 1004 96 10000 2.87 274 23:56 02.01.2022
4537 Clouds 9 1004 94 6967 2.65 209 23:22 02.01.2022
4538 Clouds 9 1004 95 6967 2.65 209 22:53 02.01.2022
4539 Clouds 9 1005 95 6125 7.37 227 21:42 02.01.2022
4540 Clouds 9 1006 94 10000 8.59 234 20:38 02.01.2022
4541 Clouds 9 1007 93 10000 7.12 234 20:18 02.01.2022
4542 Clouds 9 1007 93 10000 7.12 234 19:30 02.01.2022
4543 Clouds 10 1007 92 10000 7.15 235 18:46 02.01.2022
4544 Clouds 10 1007 92 10000 7.4 234 18:46 02.01.2022
4545 Clouds 10 1008 91 10000 6.78 238 17:54 02.01.2022
4546 Clouds 10 1008 91 10000 6.78 238 17:36 02.01.2022
4547 Clouds 10 1008 92 10000 7.83 249 17:18 02.01.2022
4548 Clouds 10 1007 90 10000 9.59 260 16:26 02.01.2022
4549 Clouds 11 1006 89 10000 11.5 258 14:34 02.01.2022
4550 Clouds 12 1006 95 10000 10.2 218 12:54 02.01.2022
4551 Clouds 11 1007 97 10000 9.09 211 12:22 02.01.2022
4552 Rain 12 1007 98 10000 9.09 211 11:32 02.01.2022
4553 Rain 11 1008 97 10000 8.99 215 10:49 02.01.2022
4554 Clouds 12 1009 98 8949 9.41 226 09:45 02.01.2022
4555 Rain 11 1012 97 10000 6.76 228 05:51 02.01.2022
4556 Clouds 11 1015 95 10000 6.45 215 01:48 02.01.2022
4557 Clouds 12 1017 93 10000 7.15 217 23:40 01.01.2022
4558 Clouds 12 1016 92 10000 6.1 211 22:58 01.01.2022
4559 Clouds 12 1017 92 10000 6.43 209 22:23 01.01.2022
4560 Clouds 12 1017 91 10000 6.43 209 21:44 01.01.2022
4561 Clouds 12 1018 91 10000 6.53 210 20:56 01.01.2022
4562 Clouds 12 1017 92 10000 6.76 205 19:59 01.01.2022
4563 Clouds 12 1017 92 10000 6.76 205 19:30 01.01.2022
4564 Clouds 12 1019 93 10000 6.61 201 18:20 01.01.2022
4565 Clouds 12 1019 93 10000 6.29 196 16:51 01.01.2022
4566 Clouds 12 1019 93 10000 5.87 196 16:29 01.01.2022
4567 Clouds 13 1019 93 10000 5.87 196 15:30 01.01.2022
4568 Clouds 12 1020 93 10000 5.33 202 14:21 01.01.2022
4569 Clouds 12 1021 96 10000 5.45 213 12:50 01.01.2022
4570 Clouds 12 1021 98 10000 5.43 209 11:59 01.01.2022
4571 Clouds 12 1021 98 10000 5.02 211 11:24 01.01.2022
4572 Clouds 11 1021 98 10000 5.02 211 10:43 01.01.2022
4573 Clouds 11 1021 98 10000 4.94 212 09:47 01.01.2022
4574 Clouds 11 1021 97 10000 4.96 227 08:27 01.01.2022
4575 Clouds 11 1021 97 10000 4.96 227 07:56 01.01.2022
4576 Clouds 11 1021 97 10000 4.96 227 07:37 01.01.2022
4577 Clouds 11 1020 97 10000 5.11 231 06:42 01.01.2022
4578 Clouds 10 1020 97 10000 5.5 235 04:38 01.01.2022
4579 Clouds 11 1020 96 10000 5.8 240 03:38 01.01.2022
4580 Clouds 12 1018 95 10000 6.89 247 23:53 31.12.2021
4581 Clouds 11 1018 95 10000 7.52 255 21:55 31.12.2021
4582 Clouds 11 1018 95 10000 7.52 255 21:32 31.12.2021
4583 Clouds 12 1016 95 10000 7.5 260 19:43 31.12.2021
4584 Clouds 12 1015 91 10000 8.26 255 18:47 31.12.2021
4585 Clouds 12 1015 96 10000 8.46 254 17:49 31.12.2021
4586 Clouds 12 1014 96 10000 8.82 252 17:22 31.12.2021
4587 Clouds 12 1014 96 10000 8.82 252 16:51 31.12.2021
4588 Clouds 11 1013 96 10000 9.02 254 16:18 31.12.2021
4589 Clouds 11 1013 96 10000 9.02 254 15:42 31.12.2021
4590 Rain 11 1012 96 5770 8.32 253 15:20 31.12.2021
4591 Rain 12 1012 96 5770 8.32 253 14:38 31.12.2021
4592 Clouds 12 1012 95 10000 9.25 245 13:45 31.12.2021
4593 Clouds 12 1012 95 10000 9.25 245 13:45 31.12.2021
4594 Clouds 12 1013 94 10000 9.63 244 12:50 31.12.2021
4595 Clouds 12 1013 93 10000 9.83 243 12:20 31.12.2021
4596 Rain 12 1013 92 10000 9.83 243 11:41 31.12.2021
4597 Clouds 13 1012 89 10000 9.54 239 10:50 31.12.2021
4598 Clouds 13 1012 89 10000 9.57 232 10:28 31.12.2021
4599 Clouds 13 1012 90 10000 9.57 232 09:34 31.12.2021
4600 Clouds 13 1011 90 10000 9.34 230 08:50 31.12.2021
4601 Clouds 13 1012 90 10000 9.65 234 07:55 31.12.2021
4602 Clouds 12 1012 92 10000 8.97 235 04:54 31.12.2021
4603 Clouds 12 1012 96 10000 9.31 236 23:18 30.12.2021
4604 Clouds 12 1012 97 10000 9.31 236 22:31 30.12.2021
4605 Clouds 12 1012 98 10000 8.92 235 21:39 30.12.2021
4606 Clouds 12 1012 97 10000 8.16 235 21:19 30.12.2021
4607 Clouds 12 1012 97 10000 8.16 235 20:39 30.12.2021
4608 Clouds 12 1012 97 10000 7.69 236 19:56 30.12.2021
4609 Clouds 12 1012 97 10000 7.69 236 19:31 30.12.2021
4610 Clouds 12 1012 98 10000 7.65 249 18:28 30.12.2021
4611 Clouds 12 1011 98 10000 8.04 252 16:53 30.12.2021
4612 Clouds 12 1011 99 10000 8.73 252 15:54 30.12.2021
4613 Clouds 12 1010 99 10000 9.29 249 15:21 30.12.2021
4614 Clouds 12 1010 99 10000 9.29 249 14:36 30.12.2021
4615 Clouds 12 1009 99 10000 9.69 244 13:26 30.12.2021
4616 Clouds 12 1009 100 10000 9.93 241 11:58 30.12.2021
4617 Clouds 11 1008 100 10000 9.2 240 10:40 30.12.2021
4618 Clouds 11 1008 100 6939 7.27 225 09:50 30.12.2021
4619 Clouds 11 1008 100 6939 7.27 225 09:50 30.12.2021
4620 Clouds 9 1008 100 10000 5.69 222 07:25 30.12.2021
4621 Clouds 8 1009 99 10000 5.35 226 06:38 30.12.2021
4622 Clouds 8 1008 99 10000 6.44 236 03:41 30.12.2021
4623 Clouds 8 1008 99 10000 6.19 238 02:35 30.12.2021
4624 Clouds 9 1006 99 10000 7.03 259 23:41 29.12.2021
4625 Clouds 9 1004 100 10000 6.53 268 22:59 29.12.2021
4626 Clouds 9 1003 100 10000 6.19 241 22:18 29.12.2021
4627 Clouds 8 1003 100 10000 6.2 207 21:27 29.12.2021
4628 Clouds 8 1003 100 10000 6.2 207 20:31 29.12.2021
4629 Clouds 7 1002 100 10000 6.47 182 19:44 29.12.2021
4630 Clouds 7 1003 100 10000 5.8 173 18:45 29.12.2021
4631 Clouds 7 1003 100 8417 5.53 173 17:54 29.12.2021
4632 Rain 7 1004 100 10000 4.9 172 17:27 29.12.2021
4633 Rain 7 1005 99 10000 4.03 172 16:24 29.12.2021
4634 Clouds 7 1005 99 10000 4.03 172 15:48 29.12.2021
4635 Clouds 7 1005 99 10000 3.58 220 14:19 29.12.2021
4636 Clouds 7 1005 100 10000 3.63 217 12:37 29.12.2021
4637 Clouds 6 1005 99 10000 2.3 221 11:43 29.12.2021
4638 Clouds 6 1005 99 10000 2.78 276 09:59 29.12.2021
4639 Clouds 6 1004 99 10000 3.48 281 07:52 29.12.2021
4640 Clouds 6 1002 99 10000 2.62 304 06:40 29.12.2021
4641 Clouds 6 1001 99 10000 2.5 316 06:22 29.12.2021
4642 Clouds 6 1001 99 10000 2.5 316 05:39 29.12.2021
4643 Clouds 5 998 99 10000 2.67 290 02:48 29.12.2021
4644 Clouds 5 995 99 10000 2.57 211 00:23 29.12.2021
4645 Clouds 5 995 99 10000 2.57 211 23:45 28.12.2021
4646 Clouds 5 994 99 10000 2.78 217 22:42 28.12.2021
4647 Clouds 5 993 99 10000 3.13 222 22:24 28.12.2021
4648 Clouds 5 993 99 10000 3.13 222 21:52 28.12.2021
4649 Clouds 5 992 98 10000 3.05 226 20:40 28.12.2021
4650 Clouds 6 991 98 10000 3.28 213 19:31 28.12.2021
4651 Clouds 6 991 98 10000 2.78 188 18:44 28.12.2021
4652 Clouds 6 990 98 10000 2 223 18:19 28.12.2021
4653 Clouds 7 989 98 10000 2.64 242 16:35 28.12.2021
4654 Clouds 7 988 99 8835 5.02 157 15:51 28.12.2021
4655 Clouds 7 988 99 6817 6.06 140 15:23 28.12.2021
4656 Clouds 7 988 98 6817 6.06 140 14:51 28.12.2021
4657 Clouds 7 989 99 10000 6.09 141 14:21 28.12.2021
4658 Rain 7 989 98 10000 6.09 141 13:51 28.12.2021
4659 Clouds 7 989 98 10000 6.09 141 13:51 28.12.2021
4660 Clouds 7 990 98 10000 5.95 148 13:28 28.12.2021
4661 Rain 6 990 98 10000 6.35 151 12:49 28.12.2021
4662 Clouds 6 991 99 10000 6.16 155 11:51 28.12.2021
4663 Clouds 4 992 98 10000 4.93 158 09:30 28.12.2021
4664 Clouds 4 993 98 10000 4.59 152 07:31 28.12.2021
4665 Clouds 3 997 96 10000 5.14 148 02:22 28.12.2021
4666 Clouds 3 998 96 10000 4.64 140 23:26 27.12.2021
4667 Clouds 2 998 95 10000 4.67 132 22:20 27.12.2021
4668 Clouds 2 999 95 10000 4.71 131 21:29 27.12.2021
4669 Clouds 2 999 95 10000 4.72 126 20:24 27.12.2021
4670 Clouds 1 999 95 10000 4.72 126 19:47 27.12.2021
4671 Clouds 1 999 95 10000 4.71 124 18:56 27.12.2021
4672 Clouds 1 1000 95 10000 4.52 124 17:50 27.12.2021
4673 Clouds 1 1000 96 10000 4.43 118 17:27 27.12.2021
4674 Clouds 1 1000 96 10000 4.24 117 15:54 27.12.2021
4675 Clouds 1 1000 95 10000 4.04 127 14:56 27.12.2021
4676 Clouds 1 1000 95 10000 4.04 125 14:21 27.12.2021
4677 Clouds 1 1001 93 10000 4.02 126 12:49 27.12.2021
4678 Clouds -1 1002 93 10000 4.52 129 10:37 27.12.2021
4679 Clouds -1 1001 93 10000 4.7 125 10:18 27.12.2021
4680 Clouds -1 1002 91 10000 4.7 123 08:43 27.12.2021
4681 Clouds -1 1002 90 10000 4.46 122 07:34 27.12.2021
4682 Clouds -1 1003 90 10000 4.46 116 06:27 27.12.2021
4683 Clouds -3 1004 86 10000 5.49 114 01:51 27.12.2021
4684 Clouds -3 1006 84 10000 5.04 114 23:49 26.12.2021
4685 Clouds -3 1006 83 10000 5.67 105 23:19 26.12.2021
4686 Clouds -3 1007 82 10000 5.63 105 21:37 26.12.2021
4687 Clear -3 1007 81 10000 5.87 109 19:55 26.12.2021
4688 Clear -3 1008 79 10000 6.19 105 18:46 26.12.2021
4689 Clear -3 1008 78 10000 6.1 105 18:22 26.12.2021
4690 Clear -2 1009 66 10000 6.08 107 15:53 26.12.2021
4691 Clear -2 1010 63 10000 6.57 104 13:51 26.12.2021
4692 Clear -2 1010 64 10000 6.57 104 13:32 26.12.2021
4693 Clear -2 1010 63 10000 6.39 103 12:37 26.12.2021
4694 Clear -2 1010 63 10000 6.39 103 12:37 26.12.2021
4695 Clear -3 1011 65 10000 6.44 101 11:56 26.12.2021
4696 Clear -6 1011 71 10000 6.16 97 09:42 26.12.2021
4697 Clear -7 1011 49 10000 5.83 93 08:50 26.12.2021
4698 Clear -7 1011 50 10000 5.34 92 08:27 26.12.2021
4699 Clear -7 1011 51 10000 5.07 95 06:47 26.12.2021
4700 Clear -7 1013 61 10000 4.26 94 00:45 26.12.2021
4701 Clear -6 1014 62 10000 4.06 101 23:49 25.12.2021
4702 Clear -6 1014 85 10000 3.93 103 23:26 25.12.2021
4703 Clear -5 1014 83 10000 3.83 104 22:22 25.12.2021
4704 Clear -5 1014 67 10000 3.74 102 20:48 25.12.2021
4705 Clear -4 1014 82 10000 3.71 93 19:21 25.12.2021
4706 Clear -4 1014 81 10000 3.81 95 18:54 25.12.2021
4707 Clear -4 1013 80 10000 3.63 90 17:28 25.12.2021
4708 Clear -3 1013 78 10000 3.71 88 16:18 25.12.2021
4709 Clear -2 1013 77 10000 4.11 89 14:38 25.12.2021
4710 Clear -2 1014 76 10000 5.18 97 12:48 25.12.2021
4711 Clear -3 1014 79 10000 5.29 99 11:45 25.12.2021
4712 Clear -5 1013 82 10000 4.57 94 09:50 25.12.2021
4713 Clear -5 1012 86 10000 4.76 86 08:19 25.12.2021
4714 Clear -3 1010 78 10000 5.4 85 02:22 25.12.2021
4715 Clouds -2 1010 87 10000 4.67 87 00:33 25.12.2021
4716 Clouds -2 1010 87 10000 4.67 82 23:38 24.12.2021
4717 Clouds 1 1008 98 10000 6.29 62 19:40 24.12.2021
4718 Clouds 1 1007 98 10000 6.43 59 19:22 24.12.2021
4719 Clouds 3 1005 98 9602 6.31 50 16:50 24.12.2021
4720 Clouds 4 1004 98 1645 6.97 39 16:21 24.12.2021
4721 Clouds 4 1004 99 1645 6.97 39 15:46 24.12.2021
4722 Clouds 5 1003 99 10000 3.88 1 14:47 24.12.2021
4723 Clouds 5 1003 99 10000 3.18 315 14:24 24.12.2021
4724 Clouds 5 1003 99 10000 3.18 315 13:39 24.12.2021
4725 Clouds 5 1002 99 10000 2.58 309 12:48 24.12.2021
4726 Clouds 5 1001 99 10000 3.21 353 11:58 24.12.2021
4727 Clouds 5 1001 99 10000 3.41 6 11:27 24.12.2021
4728 Clouds 5 1001 99 10000 3.41 6 10:53 24.12.2021
4729 Clouds 5 1000 99 10000 3.45 23 10:28 24.12.2021
4730 Clouds 6 999 99 10000 1.98 352 08:26 24.12.2021
4731 Clouds 6 999 99 10000 1.98 352 07:50 24.12.2021
4732 Clouds 6 999 99 1790 4.55 258 03:21 24.12.2021
4733 Clouds 5 1000 99 1179 5.83 252 00:19 24.12.2021
4734 Clouds 5 1000 98 743 6.61 246 23:23 23.12.2021
4735 Clouds 5 1000 98 743 6.61 246 23:23 23.12.2021
4736 Clouds 4 1000 99 743 6.61 246 22:40 23.12.2021
4737 Clouds 4 1000 99 1357 6.65 243 22:20 23.12.2021
4738 Clouds 4 1000 98 1357 6.65 243 21:34 23.12.2021
4739 Clouds 3 1001 98 10000 7 234 20:21 23.12.2021
4740 Clouds 2 1002 98 10000 6.66 226 19:27 23.12.2021
4741 Clouds 1 1003 97 10000 6.24 222 17:57 23.12.2021
4742 Snow 1 1004 97 10000 5.81 222 17:18 23.12.2021
4743 Snow 0 1004 97 10000 5.4 226 16:26 23.12.2021
4744 Snow 0 1004 96 10000 5.4 226 15:32 23.12.2021
4745 Snow 0 1005 96 10000 5.67 222 14:56 23.12.2021
4746 Snow 0 1005 96 10000 5.67 222 14:38 23.12.2021
4747 Snow 0 1007 95 6698 5.98 210 13:25 23.12.2021
4748 Snow 0 1008 90 10000 5.17 203 11:20 23.12.2021
4749 Snow 0 1009 89 10000 5.64 195 09:53 23.12.2021
4750 Snow 0 1009 90 10000 5.64 195 09:33 23.12.2021
4751 Clouds -1 1011 90 10000 4.85 191 08:25 23.12.2021
4752 Clouds -1 1013 91 10000 3.69 179 05:23 23.12.2021
4753 Clouds -2 1017 93 10000 3.62 181 00:40 23.12.2021
4754 Clouds -2 1019 93 10000 3.44 179 22:50 22.12.2021
4755 Clouds -2 1019 93 10000 3.5 177 21:59 22.12.2021
4756 Clouds -2 1019 93 10000 3.5 177 21:30 22.12.2021
4757 Clouds -2 1020 93 10000 3.45 176 20:59 22.12.2021
4758 Clouds -2 1020 93 10000 3.45 176 20:40 22.12.2021
4759 Clouds -2 1020 93 10000 3.42 176 19:50 22.12.2021
4760 Clouds -2 1021 93 10000 3.04 174 18:55 22.12.2021
4761 Clouds -2 1022 93 10000 3.24 177 17:38 22.12.2021
4762 Clouds -1 1023 91 10000 2.95 178 15:56 22.12.2021
4763 Clouds 0 1024 90 10000 2.96 196 14:28 22.12.2021
4764 Clouds -1 1024 91 10000 3.34 202 12:53 22.12.2021
4765 Clouds -1 1025 70 10000 3.19 208 11:48 22.12.2021
4766 Clouds -3 1025 81 10000 2.85 204 09:52 22.12.2021
4767 Clouds -3 1025 87 10000 2.95 205 08:23 22.12.2021
4768 Clouds -4 1026 91 10000 2.94 219 05:54 22.12.2021
4769 Clouds -4 1026 91 10000 2.94 219 05:36 22.12.2021
4770 Clouds -3 1026 92 10000 2.89 216 05:18 22.12.2021
4771 Clouds -4 1026 92 10000 2.89 216 04:40 22.12.2021
4772 Clouds -3 1026 96 10000 2.97 219 03:52 22.12.2021
4773 Clouds -3 1026 96 10000 2.97 219 03:31 22.12.2021
4774 Clouds -2 1026 96 10000 3.06 210 23:49 21.12.2021
4775 Clouds -2 1027 95 10000 2.97 212 22:41 21.12.2021
4776 Clouds -2 1026 95 10000 2.88 212 21:58 21.12.2021
4777 Clouds -2 1026 95 10000 2.88 212 21:33 21.12.2021
4778 Clouds -1 1026 94 10000 2.71 212 20:42 21.12.2021
4779 Clouds -1 1026 95 10000 2.47 210 20:18 21.12.2021
4780 Clouds -2 1026 94 10000 2.47 210 19:40 21.12.2021
4781 Clear -1 1026 93 10000 2.03 211 18:33 21.12.2021
4782 Clear -1 1026 92 10000 1.78 217 17:59 21.12.2021
4783 Clear -1 1026 92 10000 1.78 217 17:40 21.12.2021
4784 Clear 1 1026 87 10000 1.47 238 15:46 21.12.2021
4785 Clear 2 1026 86 10000 1.8 252 14:29 21.12.2021
4786 Clear 2 1026 85 10000 1.8 252 13:42 21.12.2021
4787 Clear 2 1026 88 10000 1.94 245 12:39 21.12.2021
4788 Clear 0 1027 77 10000 1.53 239 10:52 21.12.2021
4789 Clear -2 1027 82 10000 1.65 235 09:57 21.12.2021
4790 Clear -3 1027 85 10000 1.54 236 09:18 21.12.2021
4791 Clouds -2 1027 84 10000 1.36 234 07:45 21.12.2021
4792 Clouds -3 1027 84 10000 1.13 244 07:24 21.12.2021
4793 Clouds -1 1027 81 10000 0.89 159 04:37 21.12.2021
4794 Clouds -2 1028 80 10000 0.77 133 02:39 21.12.2021
4795 Clouds -1 1029 78 10000 1.64 88 23:57 20.12.2021
4796 Clouds -1 1029 78 10000 1.56 77 22:48 20.12.2021
4797 Clouds 0 1029 78 10000 1.28 66 22:27 20.12.2021
4798 Clouds 0 1029 77 10000 1.1 41 21:28 20.12.2021
4799 Clouds 0 1029 77 10000 1.1 41 20:57 20.12.2021
4800 Clouds 0 1029 77 10000 1.1 41 20:32 20.12.2021
4801 Clouds 0 1029 76 10000 1.11 12 19:39 20.12.2021
4802 Clouds 1 1028 75 10000 1.31 338 19:20 20.12.2021
4803 Clouds 0 1028 75 10000 1.31 338 18:49 20.12.2021
4804 Clear 1 1028 76 10000 1.2 21 17:52 20.12.2021
4805 Clear 2 1028 86 10000 1.42 2 16:56 20.12.2021
4806 Clear 2 1028 85 10000 1.42 2 16:36 20.12.2021
4807 Clear 4 1028 81 10000 1.36 335 15:47 20.12.2021
4808 Clear 5 1028 78 10000 1.11 321 14:41 20.12.2021
4809 Clear 5 1029 72 10000 0.71 297 12:44 20.12.2021
4810 Clear 4 1029 96 10000 0.04 49 11:18 20.12.2021
4811 Clear 0 1028 68 10000 0.46 108 09:47 20.12.2021
4812 Clear 0 1028 70 10000 0.96 87 08:57 20.12.2021
4813 Clear 0 1028 70 10000 0.96 87 08:38 20.12.2021
4814 Clear 1 1028 71 10000 1.51 78 07:46 20.12.2021
4815 Clear 1 1028 94 10000 1.68 61 06:47 20.12.2021
4816 Clear 3 1027 90 10000 2.99 49 03:41 20.12.2021
4817 Clouds 5 1027 85 10000 2.8 355 23:50 19.12.2021
4818 Clouds 6 1027 82 10000 4.2 3 22:44 19.12.2021
4819 Clouds 7 1027 85 10000 6.47 1 21:49 19.12.2021
4820 Clouds 7 1027 85 10000 7.5 358 21:26 19.12.2021
4821 Clouds 7 1027 84 10000 7.5 358 20:30 19.12.2021
4822 Clouds 7 1027 85 10000 6.5 359 19:46 19.12.2021
4823 Clouds 7 1026 85 10000 6.77 353 18:57 19.12.2021
4824 Clouds 8 1026 85 10000 7.6 348 18:27 19.12.2021
4825 Clouds 8 1026 89 10000 7.6 348 17:49 19.12.2021
4826 Clouds 8 1026 90 10000 7.94 336 17:18 19.12.2021
4827 Clouds 8 1026 91 10000 7.9 324 16:24 19.12.2021
4828 Clouds 8 1026 92 10000 7.93 321 15:28 19.12.2021
4829 Clouds 8 1026 91 10000 7.93 321 14:57 19.12.2021
4830 Clouds 8 1026 90 10000 7.93 321 14:36 19.12.2021
4831 Clouds 8 1028 91 10000 7.89 320 13:22 19.12.2021
4832 Clouds 8 1028 92 10000 7.89 320 12:33 19.12.2021
4833 Clouds 8 1028 94 10000 7.79 320 11:42 19.12.2021
4834 Clouds 8 1029 96 10000 7.32 321 10:53 19.12.2021
4835 Clouds 8 1029 96 10000 7.42 324 10:23 19.12.2021
4836 Clouds 8 1029 96 10000 7.42 324 10:23 19.12.2021
4837 Clouds 7 1030 96 10000 7.16 324 09:26 19.12.2021
4838 Clouds 7 1030 95 10000 6.97 326 07:50 19.12.2021
4839 Clouds 7 1031 96 10000 8.23 316 04:44 19.12.2021
4840 Clouds 8 1033 97 10000 7.65 306 00:56 19.12.2021
4841 Clouds 8 1034 97 10000 6.82 305 00:28 19.12.2021
4842 Clouds 7 1034 98 10000 6.42 306 22:32 18.12.2021
4843 Clouds 7 1035 98 10000 6.17 310 21:54 18.12.2021
4844 Clouds 7 1035 98 10000 6.17 310 21:35 18.12.2021
4845 Clouds 7 1035 98 10000 5.92 315 20:44 18.12.2021
4846 Clouds 7 1035 97 10000 6.12 317 19:54 18.12.2021
4847 Clouds 7 1036 97 10000 6.22 317 19:19 18.12.2021
4848 Clouds 8 1035 97 10000 4.99 302 18:20 18.12.2021
4849 Clouds 8 1035 96 10000 4.99 302 17:47 18.12.2021
4850 Clouds 8 1036 96 10000 5.17 303 16:25 18.12.2021
4851 Clouds 8 1036 97 10000 5.62 312 15:26 18.12.2021
4852 Clouds 9 1036 98 10000 5.62 312 14:32 18.12.2021
4853 Clouds 9 1038 99 10000 4.98 319 13:20 18.12.2021
4854 Clouds 8 1039 99 10000 4.5 314 11:21 18.12.2021
4855 Clouds 8 1039 100 10000 3.75 312 09:39 18.12.2021
4856 Clouds 8 1039 99 10000 3.06 318 08:46 18.12.2021
4857 Clouds 8 1039 99 10000 3.06 329 08:19 18.12.2021
4858 Clouds 7 1039 99 10000 2.63 334 02:51 18.12.2021
4859 Clouds 7 1039 99 10000 2.74 328 00:27 18.12.2021
4860 Clouds 7 1039 99 10000 2.74 328 23:44 17.12.2021
4861 Clouds 7 1040 99 10000 2.59 321 21:56 17.12.2021
4862 Clouds 7 1040 99 10000 2.59 321 21:56 17.12.2021
4863 Clouds 8 1040 96 10000 2.51 333 20:58 17.12.2021
4864 Clouds 8 1040 96 10000 2.51 333 20:38 17.12.2021
4865 Clouds 8 1040 99 10000 2.67 352 19:19 17.12.2021
4866 Clouds 8 1040 99 10000 2.79 346 18:38 17.12.2021
4867 Clouds 8 1040 99 10000 2.67 343 17:31 17.12.2021
4868 Clouds 8 1039 99 10000 2.78 328 16:46 17.12.2021
4869 Clouds 8 1039 99 10000 2.78 328 16:46 17.12.2021
4870 Clouds 9 1039 99 10000 2.86 314 16:22 17.12.2021
4871 Clouds 9 1039 99 10000 2.57 310 15:25 17.12.2021
4872 Clouds 9 1039 99 10000 2.57 310 14:40 17.12.2021
4873 Clouds 9 1039 99 10000 2.58 335 12:47 17.12.2021
4874 Clouds 9 1039 99 10000 3.03 342 11:46 17.12.2021
4875 Clouds 8 1039 99 10000 2.46 335 10:37 17.12.2021
4876 Clouds 8 1039 99 10000 2.17 336 09:33 17.12.2021
4877 Clouds 7 1039 99 10000 2.54 333 08:30 17.12.2021
4878 Clouds 8 1038 99 10000 2.47 296 06:22 17.12.2021
4879 Clouds 7 1038 99 10000 2.4 264 02:54 17.12.2021
4880 Clouds 8 1038 99 10000 2.43 241 23:40 16.12.2021
4881 Clouds 8 1038 99 10000 1.84 240 22:24 16.12.2021
4882 Clouds 8 1038 99 10000 1.84 240 22:24 16.12.2021
4883 Clouds 8 1038 99 10000 1.84 240 21:50 16.12.2021
4884 Clouds 8 1038 99 9793 1.69 240 21:25 16.12.2021
4885 Clouds 8 1038 99 9793 1.69 240 20:31 16.12.2021
4886 Clouds 8 1038 99 10000 1.18 266 19:44 16.12.2021
4887 Clouds 8 1038 98 10000 1.55 308 18:39 16.12.2021
4888 Clouds 8 1037 99 10000 1.72 293 17:57 16.12.2021
4889 Clouds 8 1037 99 10000 1.72 293 17:31 16.12.2021
4890 Clouds 8 1037 99 10000 1.79 289 16:22 16.12.2021
4891 Clouds 9 1036 98 10000 1.79 279 14:50 16.12.2021
4892 Clouds 9 1036 98 10000 1.96 290 13:29 16.12.2021
4893 Clouds 8 1035 98 10000 2.12 270 11:20 16.12.2021
4894 Clouds 8 1035 98 10000 2.12 270 10:59 16.12.2021
4895 Clouds 8 1035 98 10000 2.52 270 10:22 16.12.2021
4896 Clouds 7 1034 97 10000 2.66 287 08:25 16.12.2021
4897 Clouds 8 1033 96 10000 3.26 287 06:22 16.12.2021
4898 Clear 8 1032 96 10000 3.4 266 02:54 16.12.2021
4899 Clear 8 1031 96 10000 4.25 258 23:35 15.12.2021
4900 Clear 7 1030 96 10000 4.32 253 22:44 15.12.2021
4901 Clear 7 1030 94 10000 4.35 251 21:57 15.12.2021
4902 Clear 7 1030 94 10000 4.4 245 21:27 15.12.2021
4903 Clear 8 1029 91 10000 4.67 244 20:19 15.12.2021
4904 Clear 8 1029 90 10000 4.67 244 19:51 15.12.2021
4905 Clouds 9 1029 90 10000 4.97 240 18:39 15.12.2021
4906 Clouds 9 1029 88 10000 4.91 240 17:56 15.12.2021
4907 Clouds 9 1029 88 10000 4.91 240 17:37 15.12.2021
4908 Clouds 9 1029 91 10000 5.19 250 16:35 15.12.2021
4909 Clouds 10 1028 89 10000 6.11 260 15:47 15.12.2021
4910 Clouds 10 1028 89 10000 6.11 260 15:47 15.12.2021
4911 Clouds 10 1028 88 10000 6.21 258 15:28 15.12.2021
4912 Clouds 10 1027 88 10000 5.88 254 14:43 15.12.2021
4913 Clouds 11 1027 92 10000 5.88 244 12:52 15.12.2021
4914 Clouds 10 1027 96 10000 4.91 230 10:49 15.12.2021
4915 Clouds 10 1027 97 10000 5.19 230 09:28 15.12.2021
4916 Clouds 10 1026 97 10000 5.23 229 07:44 15.12.2021
4917 Clouds 10 1026 99 10000 5.21 229 02:40 15.12.2021
4918 Clouds 9 1026 99 10000 4.88 231 23:44 14.12.2021
4919 Clouds 9 1026 99 10000 4.78 237 22:49 14.12.2021
4920 Clouds 9 1026 99 10000 4.78 237 22:49 14.12.2021
4921 Clouds 9 1026 99 10000 4.78 237 22:30 14.12.2021
4922 Clouds 9 1026 99 10000 5.46 232 21:24 14.12.2021
4923 Clouds 9 1025 99 10000 5.03 222 19:44 14.12.2021
4924 Clouds 9 1025 98 10000 4.76 220 19:21 14.12.2021
4925 Clouds 9 1025 98 10000 4.25 223 18:34 14.12.2021
4926 Clouds 9 1025 98 10000 4.25 224 17:50 14.12.2021
4927 Clouds 9 1025 98 10000 3.97 226 16:43 14.12.2021
4928 Clouds 9 1025 98 10000 3.73 230 15:52 14.12.2021
4929 Clouds 9 1025 98 10000 3.66 243 13:33 14.12.2021
4930 Clouds 8 1024 97 10000 3.84 237 12:41 14.12.2021
4931 Clouds 8 1024 97 10000 4.23 236 11:24 14.12.2021
4932 Clouds 8 1024 97 10000 4.85 230 10:28 14.12.2021
4933 Clouds 8 1024 97 10000 4.85 230 09:53 14.12.2021
4934 Clouds 8 1024 96 10000 5.06 229 08:40 14.12.2021
4935 Clouds 8 1023 96 10000 5.41 226 08:20 14.12.2021
4936 Clouds 8 1023 94 10000 5.55 224 06:27 14.12.2021
4937 Clouds 8 1024 96 10000 5.11 217 23:40 13.12.2021
4938 Clouds 8 1025 97 10000 4.92 216 22:18 13.12.2021
4939 Clouds 9 1025 97 10000 4.92 216 21:34 13.12.2021
4940 Clouds 9 1025 97 10000 4.78 214 20:50 13.12.2021
4941 Clouds 9 1025 97 10000 4.78 212 20:20 13.12.2021
4942 Clouds 9 1025 97 10000 4.78 212 19:49 13.12.2021
4943 Clouds 9 1025 97 10000 4.92 214 17:27 13.12.2021
4944 Clouds 9 1025 96 10000 4.92 215 16:24 13.12.2021
4945 Clouds 10 1025 96 10000 4.92 215 15:43 13.12.2021
4946 Clouds 10 1025 94 10000 5.38 219 13:57 13.12.2021
4947 Clouds 10 1025 94 10000 5.38 219 13:36 13.12.2021
4948 Clouds 10 1025 96 10000 5.67 222 12:39 13.12.2021
4949 Clouds 10 1025 98 10000 5.3 220 11:50 13.12.2021
4950 Clouds 10 1024 98 10000 5.13 216 11:29 13.12.2021
4951 Clouds 9 1024 99 10000 5.38 211 10:21 13.12.2021
4952 Clouds 9 1024 99 10000 5.21 212 08:43 13.12.2021
4953 Clouds 9 1023 99 10000 4.86 214 06:54 13.12.2021
4954 Clouds 10 1023 99 10000 4.89 224 05:19 13.12.2021
4955 Clouds 10 1022 99 10000 4.6 230 23:55 12.12.2021
4956 Clouds 10 1021 100 10000 4.15 227 21:58 12.12.2021
4957 Clouds 9 1021 99 2522 3.78 221 20:50 12.12.2021
4958 Clouds 9 1021 99 2476 3.22 220 19:35 12.12.2021
4959 Clouds 9 1020 99 4672 2.98 236 18:22 12.12.2021
4960 Clouds 9 1019 99 3270 3.52 250 16:32 12.12.2021
4961 Clouds 9 1019 99 512 4.29 245 15:58 12.12.2021
4962 Clouds 9 1018 99 363 4.92 236 15:28 12.12.2021
4963 Clouds 8 1018 99 363 4.92 236 14:51 12.12.2021
4964 Clouds 8 1018 99 1137 5.25 229 14:19 12.12.2021
4965 Clouds 8 1018 99 10000 5.69 220 12:48 12.12.2021
4966 Clouds 7 1018 99 10000 6 221 11:59 12.12.2021
4967 Clouds 7 1018 99 10000 6 221 11:32 12.12.2021
4968 Clouds 6 1017 99 10000 6.77 215 10:44 12.12.2021
4969 Clouds 6 1017 99 10000 7.36 210 10:21 12.12.2021
4970 Clouds 5 1017 99 10000 7.54 213 08:48 12.12.2021
4971 Clouds 4 1017 98 10000 7.9 199 07:28 12.12.2021
4972 Clouds 4 1017 98 10000 7.58 186 05:56 12.12.2021
4973 Clouds 4 1017 98 10000 6.76 179 04:53 12.12.2021
4974 Clouds 3 1018 98 10000 5.07 202 01:26 12.12.2021
4975 Clouds 2 1018 98 10000 4.68 208 23:26 11.12.2021
4976 Clouds 1 1018 98 10000 4.12 214 22:21 11.12.2021
4977 Clouds 1 1018 97 10000 4.12 214 21:47 11.12.2021
4978 Clouds 1 1018 92 10000 3.91 238 20:20 11.12.2021
4979 Clouds 1 1017 96 10000 3.89 248 19:21 11.12.2021
4980 Clouds 1 1017 95 10000 3.72 237 18:49 11.12.2021
4981 Clouds 2 1016 95 10000 3.85 246 17:56 11.12.2021
4982 Clouds 3 1016 94 10000 4.02 244 16:39 11.12.2021
4983 Clouds 3 1015 93 10000 4.34 240 15:46 11.12.2021
4984 Clouds 3 1014 93 10000 5.07 241 14:54 11.12.2021
4985 Clouds 3 1014 90 10000 5.24 238 12:41 11.12.2021
4986 Clouds 1 1012 97 10000 3.87 227 11:18 11.12.2021
4987 Clouds 0 1012 87 10000 3.4 229 09:45 11.12.2021
4988 Clouds -2 1009 96 10000 2.7 240 05:36 11.12.2021
4989 Clouds -1 1004 91 10000 0.62 120 00:50 11.12.2021
4990 Clouds -1 1003 95 10000 0.64 77 23:45 10.12.2021
4991 Clouds -1 1003 95 10000 1.07 61 23:18 10.12.2021
4992 Clouds -1 1002 94 10000 1.34 64 21:52 10.12.2021
4993 Clouds -1 1001 94 10000 1.65 73 20:56 10.12.2021
4994 Clouds 0 999 93 10000 2.74 79 19:20 10.12.2021
4995 Clouds 1 997 92 10000 3.12 85 17:54 10.12.2021
4996 Clouds 2 997 89 10000 3.2 87 16:55 10.12.2021
4997 Clouds 3 996 87 10000 3.25 92 15:51 10.12.2021
4998 Clouds 4 995 86 10000 3.63 107 15:29 10.12.2021
4999 Clouds 4 995 86 10000 3.63 107 14:59 10.12.2021
5000 Clouds 5 995 85 10000 4.19 113 13:51 10.12.2021
5001 Clouds 5 995 85 10000 4.85 112 13:25 10.12.2021
5002 Clouds 5 995 86 10000 4.59 112 12:34 10.12.2021
5003 Clouds 4 995 90 10000 4.33 119 11:28 10.12.2021
5004 Clouds 3 995 93 10000 4.45 134 09:54 10.12.2021
5005 Clouds 3 995 93 10000 5.29 143 08:32 10.12.2021
5006 Clouds 4 995 94 10000 5.15 149 05:57 10.12.2021
5007 Clouds 4 997 95 10000 4.96 163 02:48 10.12.2021
5008 Clouds 4 999 96 10000 5.99 171 23:54 09.12.2021
5009 Clouds 4 999 96 10000 5.86 171 23:20 09.12.2021
5010 Clouds 4 1000 95 10000 5.73 170 22:24 09.12.2021
5011 Clouds 4 1000 95 10000 5.73 170 21:50 09.12.2021
5012 Clouds 4 1001 95 10000 5.71 172 20:44 09.12.2021
5013 Clouds 4 1001 95 10000 5.61 170 20:21 09.12.2021
5014 Clouds 4 1002 95 10000 5.58 179 19:21 09.12.2021
5015 Clouds 4 1002 95 10000 5.5 178 18:46 09.12.2021
5016 Clouds 3 1002 95 10000 5.45 186 17:52 09.12.2021
5017 Clouds 3 1002 95 10000 5.28 187 17:26 09.12.2021
5018 Clouds 3 1002 95 10000 5.28 187 16:54 09.12.2021
5019 Clouds 3 1002 95 10000 5.23 187 15:46 09.12.2021
5020 Clouds 3 1002 95 10000 5.35 185 14:48 09.12.2021
5021 Clouds 3 1002 94 10000 4.74 172 13:23 09.12.2021
5022 Clouds 3 1002 93 10000 4.74 172 12:42 09.12.2021
5023 Clouds 2 1003 96 10000 4 168 11:24 09.12.2021
5024 Clouds 1 1003 96 10000 3.8 164 09:44 09.12.2021
5025 Clouds 1 1002 96 10000 3.57 171 06:50 09.12.2021
5026 Clouds 1 1001 95 10000 3.7 159 03:43 09.12.2021
5027 Clouds 2 1002 93 10000 3.82 165 23:45 08.12.2021
5028 Clouds 2 1001 93 10000 3.63 157 23:21 08.12.2021
5029 Clouds 2 1001 93 10000 3.63 157 22:49 08.12.2021
5030 Clouds 3 1001 92 10000 3.42 150 21:46 08.12.2021
5031 Clouds 3 1001 92 10000 3.39 165 21:27 08.12.2021
5032 Clouds 3 1000 92 10000 3.8 182 20:18 08.12.2021
5033 Clouds 3 1000 91 10000 3.8 182 19:37 08.12.2021
5034 Clouds 4 1000 91 10000 4.38 167 18:53 08.12.2021
5035 Clouds 4 999 91 10000 4.23 162 17:52 08.12.2021
5036 Clouds 6 998 87 10000 5.9 176 15:58 08.12.2021
5037 Clouds 6 997 87 10000 6.25 179 15:29 08.12.2021
5038 Clouds 6 997 86 10000 6.25 179 14:50 08.12.2021
5039 Clouds 6 997 86 10000 5.69 179 12:39 08.12.2021
5040 Clouds 5 996 95 10000 6.17 180 10:32 08.12.2021
5041 Clouds 4 996 96 10000 6.16 182 09:31 08.12.2021
5042 Clouds 4 994 96 10000 6.71 172 07:34 08.12.2021
5043 Clouds 3 994 96 60 8.45 155 04:58 08.12.2021
5044 Clouds 3 997 88 10000 9.71 143 23:48 07.12.2021
5045 Clouds 3 998 89 10000 9.64 139 22:37 07.12.2021
5046 Clouds 3 1001 91 10000 8.24 146 21:24 07.12.2021
5047 Clouds 3 1002 94 10000 8.09 143 20:25 07.12.2021
5048 Clouds 3 1003 95 10000 6.88 152 18:56 07.12.2021
5049 Clouds 3 1004 95 10000 5.95 155 18:19 07.12.2021
5050 Clouds 3 1005 94 10000 4.91 165 17:20 07.12.2021
5051 Clouds 4 1005 94 10000 4.91 165 16:37 07.12.2021
5052 Clouds 4 1005 93 10000 4.66 180 15:37 07.12.2021
5053 Clouds 5 1005 92 10000 5 193 14:37 07.12.2021
5054 Clouds 5 1006 91 10000 5.12 217 13:19 07.12.2021
5055 Clouds 4 1007 94 4998 4.19 171 12:21 07.12.2021
5056 Clouds 2 1008 98 1375 3.58 176 10:45 07.12.2021
5057 Clouds 1 1006 98 44 3.13 171 09:19 07.12.2021
5058 Clouds 1 1006 97 32 2.08 157 06:40 07.12.2021
5059 Clouds 1 1005 97 31 2.48 139 05:47 07.12.2021
5060 Rain 2 1003 95 44 4.57 137 02:35 07.12.2021
5061 Clouds 2 1005 92 10000 7.22 151 23:21 06.12.2021
5062 Clouds 2 1005 93 10000 7.22 151 22:40 06.12.2021
5063 Clouds 2 1006 94 10000 6.82 155 21:59 06.12.2021
5064 Clouds 2 1007 94 10000 6.68 150 21:21 06.12.2021
5065 Clouds 2 1007 94 10000 6.68 150 20:32 06.12.2021
5066 Clouds 3 1008 93 10000 6.24 152 19:24 06.12.2021
5067 Clouds 2 1008 93 10000 6.42 146 18:34 06.12.2021
5068 Clouds 2 1009 93 10000 6.19 148 17:53 06.12.2021
5069 Clouds 2 1009 93 10000 6.19 148 17:33 06.12.2021
5070 Clouds 3 1011 94 10000 5.57 156 15:51 06.12.2021
5071 Clouds 3 1011 95 10000 5.67 164 14:35 06.12.2021
5072 Clouds 2 1013 96 10000 5.34 175 13:23 06.12.2021
5073 Clouds 2 1013 96 10000 5.34 175 12:37 06.12.2021
5074 Clouds 2 1015 96 10000 3.86 153 09:56 06.12.2021
5075 Clouds 2 1014 96 10000 3.73 124 07:38 06.12.2021
5076 Clouds 1 1013 96 9507 4.03 90 02:20 06.12.2021
5077 Clouds 1 1012 97 9390 5.02 62 22:25 05.12.2021
5078 Clouds 1 1011 97 53 4.81 61 21:25 05.12.2021
5079 Clouds 1 1011 97 53 4.81 61 20:43 05.12.2021
5080 Snow 2 1010 97 45 4.68 64 20:18 05.12.2021
5081 Rain 2 1009 97 141 4.67 70 19:23 05.12.2021
5082 Clouds 2 1008 97 4276 4.48 77 18:28 05.12.2021
5083 Clouds 3 1008 97 4276 4.48 77 17:49 05.12.2021
5084 Clouds 3 1007 97 10000 4.11 75 17:20 05.12.2021
5085 Clouds 3 1006 97 10000 2.91 78 16:28 05.12.2021
5086 Clouds 3 1006 97 10000 2.91 78 15:59 05.12.2021
5087 Clouds 4 1005 97 10000 2.53 81 14:48 05.12.2021
5088 Clouds 4 1004 97 10000 2.21 91 14:29 05.12.2021
5089 Rain 4 1004 98 10000 2.21 91 13:33 05.12.2021
5090 Rain 3 1003 98 10000 2.07 99 12:45 05.12.2021
5091 Clouds 3 1003 98 10000 2.76 132 12:26 05.12.2021
5092 Clouds 3 1003 98 10000 2.76 132 11:44 05.12.2021
5093 Clouds 2 1001 98 10000 2.82 158 10:25 05.12.2021
5094 Clouds 2 1001 98 10000 2.82 158 09:47 05.12.2021
5095 Clouds 2 997 98 10000 2.62 194 06:30 05.12.2021
5096 Clouds 3 995 98 5254 2.07 143 01:29 05.12.2021
5097 Rain 3 995 98 8881 1.49 151 23:22 04.12.2021
5098 Clouds 4 995 98 5637 2.22 188 21:51 04.12.2021
5099 Clouds 4 995 98 7408 3.29 176 20:47 04.12.2021
5100 Rain 4 994 97 10000 4.28 149 19:54 04.12.2021
5101 Rain 4 994 97 10000 4.28 149 19:30 04.12.2021
5102 Clouds 4 993 98 10000 4.15 129 17:58 04.12.2021
5103 Clouds 4 993 97 10000 4.15 129 17:36 04.12.2021
5104 Clouds 4 994 97 10000 4.13 137 16:47 04.12.2021
5105 Clouds 4 994 97 10000 4.37 143 16:29 04.12.2021
5106 Clouds 5 995 98 10000 3.89 149 14:23 04.12.2021
5107 Clouds 4 996 98 10000 4 153 11:45 04.12.2021
5108 Clouds 4 996 98 10000 4.3 159 11:25 04.12.2021
5109 Clouds 4 996 98 10000 4.3 159 10:42 04.12.2021
5110 Clouds 4 997 98 10000 4.02 174 08:42 04.12.2021
5111 Clouds 4 997 98 10000 3.35 189 06:24 04.12.2021
5112 Clouds 4 997 98 10000 3.85 195 04:41 04.12.2021
5113 Clouds 5 999 97 10000 5.6 214 23:49 03.12.2021
5114 Clouds 5 999 97 10000 5.6 214 23:49 03.12.2021
5115 Clouds 4 1000 97 10000 6.56 219 22:57 03.12.2021
5116 Clouds 4 1000 97 10000 6.56 219 22:38 03.12.2021
5117 Clouds 4 1000 97 10000 8.19 221 21:25 03.12.2021
5118 Clouds 4 1000 97 10000 8.19 221 20:46 03.12.2021
5119 Clouds 4 1000 97 10000 9.04 221 19:40 03.12.2021
5120 Clouds 4 1000 96 10000 10.08 222 18:28 03.12.2021
5121 Clouds 4 1000 95 10000 10.08 222 17:58 03.12.2021
5122 Clouds 3 1001 94 1219 10.46 213 14:47 03.12.2021
5123 Clouds 3 1003 94 10000 9.22 218 12:54 03.12.2021
5124 Clouds 3 1003 95 10000 8.44 221 11:38 03.12.2021
5125 Clouds 2 1004 96 10000 7.88 224 10:32 03.12.2021
5126 Clouds 1 1005 96 10000 6.08 225 08:25 03.12.2021
5127 Clouds 1 1005 96 10000 6.08 225 07:40 03.12.2021
5128 Clouds 1 1007 95 10000 4.73 241 02:39 03.12.2021
5129 Clouds 1 1006 93 10000 3.83 261 00:47 03.12.2021
5130 Clouds 1 1007 94 10000 3.48 273 23:47 02.12.2021
5131 Clouds 1 1006 94 10000 2.97 286 21:57 02.12.2021
5132 Clouds 1 1006 95 10000 2.97 286 21:30 02.12.2021
5133 Clouds 1 1006 96 10000 3.01 282 20:40 02.12.2021
5134 Clear 0 1006 96 10000 2.93 275 19:57 02.12.2021
5135 Clouds 0 1005 63 10000 2.48 280 18:34 02.12.2021
5136 Clouds 1 1004 62 10000 1.98 324 16:32 02.12.2021
5137 Clouds 2 1003 64 10000 2.86 346 15:30 02.12.2021
5138 Clouds 2 1002 61 10000 3.12 4 14:51 02.12.2021
5139 Rain 3 1001 68 10000 2.55 18 12:53 02.12.2021
5140 Clouds 2 1000 61 10000 3.07 17 12:19 02.12.2021
5141 Rain 2 999 97 10000 1.16 30 10:41 02.12.2021
5142 Rain 1 997 87 10000 2.34 38 09:25 02.12.2021
5143 Clouds 2 995 95 10000 3.01 332 06:45 02.12.2021
5144 Clouds 4 994 76 10000 8.92 320 00:57 02.12.2021
5145 Clouds 4 993 83 10000 9.73 321 23:30 01.12.2021
5146 Clouds 5 992 81 10000 11.94 317 22:25 01.12.2021
5147 Clouds 5 992 86 10000 11.94 317 21:42 01.12.2021
5148 Clouds 5 989 84 10000 13.28 310 20:18 01.12.2021
5149 Clouds 6 989 84 10000 13.28 310 19:37 01.12.2021
5150 Clouds 6 985 85 10000 15.08 297 17:50 01.12.2021
5151 Clouds 6 984 88 10000 14.99 283 16:59 01.12.2021
5152 Clouds 7 982 89 10000 15.04 275 15:47 01.12.2021
5153 Clouds 7 981 90 10000 15.23 267 14:30 01.12.2021
5154 Clouds 8 981 87 10000 15.88 264 13:36 01.12.2021
5155 Clouds 9 981 93 10000 14.36 219 10:44 01.12.2021
5156 Clouds 9 983 95 10000 12.24 213 10:20 01.12.2021
5157 Rain 9 984 97 10000 12.41 217 08:51 01.12.2021
5158 Clouds 9 985 97 10000 12.52 216 07:58 01.12.2021
5159 Clouds 9 986 97 10000 12.41 211 07:27 01.12.2021
5160 Clouds 9 991 98 10000 9.02 223 03:55 01.12.2021
5161 Clouds 9 993 98 10000 8.9 216 03:27 01.12.2021
5162 Clouds 7 997 98 3084 6.79 187 00:34 01.12.2021
5163 Clouds 6 1001 98 10000 4.22 184 23:29 30.11.2021
5164 Clouds 6 1001 97 10000 4.22 184 22:32 30.11.2021
5165 Clouds 5 1003 96 10000 2.9 229 20:47 30.11.2021
5166 Clouds 6 1004 95 10000 2.93 274 20:26 30.11.2021
5167 Clouds 6 1004 95 10000 2.93 274 19:39 30.11.2021
5168 Clouds 6 1003 95 10000 4.54 299 18:54 30.11.2021
5169 Clouds 6 1003 93 10000 6.49 306 17:47 30.11.2021
5170 Clouds 7 1003 90 10000 8.02 314 16:25 30.11.2021
5171 Clouds 7 1002 87 10000 8.6 313 14:35 30.11.2021
5172 Clouds 8 1002 88 10000 9.23 314 13:48 30.11.2021
5173 Clouds 8 1001 87 10000 9.58 312 13:22 30.11.2021
5174 Clouds 8 1002 85 10000 9.76 313 12:41 30.11.2021
5175 Clouds 8 1001 88 10000 10.18 308 11:26 30.11.2021
5176 Clouds 8 1001 90 10000 10.18 308 10:37 30.11.2021
5177 Clouds 8 1001 90 10000 10.18 308 10:37 30.11.2021
5178 Clouds 8 1001 95 10000 9.8 309 09:44 30.11.2021
5179 Clouds 8 1000 96 10000 9.55 312 08:48 30.11.2021
5180 Clouds 7 1000 96 10000 9.48 309 08:19 30.11.2021
5181 Clouds 7 1000 97 10000 9.48 309 07:35 30.11.2021
5182 Clouds 4 1003 94 10000 10.2 241 01:52 30.11.2021
5183 Clouds 4 1003 94 10000 10.2 241 01:31 30.11.2021
5184 Clouds 3 1006 96 10000 5.93 233 23:57 29.11.2021
5185 Clouds 3 1007 96 10000 4.98 224 23:20 29.11.2021
5186 Clouds 3 1007 96 10000 4.98 224 22:44 29.11.2021
5187 Clouds 2 1008 96 10000 4.52 226 22:25 29.11.2021
5188 Clouds 2 1009 96 10000 4.13 240 21:22 29.11.2021
5189 Clouds 2 1009 96 10000 4.13 240 20:56 29.11.2021
5190 Clouds 2 1008 95 10000 3.18 222 20:22 29.11.2021
5191 Clouds 2 1008 94 10000 3.18 222 19:44 29.11.2021
5192 Clouds 3 1008 94 10000 1.54 215 19:26 29.11.2021
5193 Clouds 3 1008 93 10000 1.54 215 18:47 29.11.2021
5194 Clouds 4 1008 82 10000 2.12 6 17:22 29.11.2021
5195 Clouds 4 1008 82 10000 2.12 6 16:57 29.11.2021
5196 Clouds 4 1008 81 10000 2.97 17 16:28 29.11.2021
5197 Clouds 5 1007 78 10000 3.48 21 15:27 29.11.2021
5198 Clouds 5 1007 78 10000 3.48 21 14:42 29.11.2021
5199 Clouds 6 1006 76 10000 2.33 9 13:28 29.11.2021
5200 Clouds 6 1006 73 10000 1.58 351 12:28 29.11.2021
5201 Clouds 6 1006 73 10000 1.58 351 11:34 29.11.2021
5202 Clouds 5 1006 74 10000 1.44 331 10:32 29.11.2021
5203 Clouds -2 1004 79 10000 0.98 9 09:24 29.11.2021
5204 Clouds 1 1002 86 10000 0.17 10 06:19 29.11.2021
5205 Clouds 3 999 80 10000 6.65 332 01:38 29.11.2021
5206 Clouds 4 999 81 10000 7.29 340 00:39 29.11.2021
5207 Rain 4 999 81 10000 6.48 336 23:43 28.11.2021
5208 Rain 4 999 80 10000 6.17 337 22:47 28.11.2021
5209 Clouds 3 998 79 10000 6.79 337 21:42 28.11.2021
5210 Clouds 2 998 76 10000 6.84 334 21:20 28.11.2021
5211 Snow -1 998 75 10000 6.57 336 20:23 28.11.2021
5212 Rain 2 997 82 10000 7.05 336 18:53 28.11.2021
5213 Rain 2 997 82 10000 7.05 336 18:32 28.11.2021
5214 Clouds 4 997 84 10000 6.78 335 17:54 28.11.2021
5215 Clouds 4 997 84 10000 6.78 335 17:31 28.11.2021
5216 Clouds 3 997 82 10000 7.08 340 16:37 28.11.2021
5217 Clouds 3 997 75 10000 6.77 340 16:18 28.11.2021
5218 Clouds 3 997 75 10000 6.77 340 15:31 28.11.2021
5219 Rain 3 996 77 10000 4.57 336 14:46 28.11.2021
5220 Rain 4 996 81 10000 3.55 343 13:18 28.11.2021
5221 Clouds 4 996 81 10000 3.55 343 12:46 28.11.2021
5222 Clouds 3 996 81 10000 3.28 339 11:18 28.11.2021
5223 Rain 3 996 81 10000 1.43 319 10:21 28.11.2021
5224 Clouds 2 996 81 10000 1.43 319 09:37 28.11.2021
5225 Clouds 0 995 88 10000 0.69 327 07:49 28.11.2021
5226 Rain 3 993 96 1595 1.49 263 00:20 28.11.2021
5227 Rain 3 993 95 10000 2.46 239 21:20 27.11.2021
5228 Rain 4 992 96 10000 2.5 232 19:47 27.11.2021
5229 Clouds 4 991 96 10000 2.39 138 17:27 27.11.2021
5230 Rain 5 990 96 10000 2.65 127 15:59 27.11.2021
5231 Clouds 5 989 90 10000 3.41 130 14:26 27.11.2021
5232 Clouds 4 989 90 10000 3.55 131 12:58 27.11.2021
5233 Clouds 3 988 92 10000 3.82 129 10:52 27.11.2021
5234 Clouds 3 987 94 10000 3.75 126 09:53 27.11.2021
5235 Clouds 3 986 96 10000 3.67 124 08:44 27.11.2021
5236 Clouds 3 985 97 117 4.43 127 06:34 27.11.2021
5237 Rain 4 983 97 695 5.44 140 02:25 27.11.2021
5238 Clouds 3 983 97 49 5.63 147 23:40 26.11.2021
5239 Rain 2 983 97 46 6.2 165 22:26 26.11.2021
5240 Clouds 3 983 97 46 6.2 165 21:41 26.11.2021
5241 Rain 3 984 97 54 6.81 164 21:22 26.11.2021
5242 Rain 3 984 97 54 6.81 164 20:40 26.11.2021
5243 Rain 3 984 97 56 7.54 172 19:55 26.11.2021
5244 Rain 4 984 96 42 8.52 173 18:45 26.11.2021
5245 Rain 4 986 96 66 9.73 177 17:26 26.11.2021
5246 Clouds 5 986 96 66 9.73 177 16:45 26.11.2021
5247 Clouds 5 987 82 10000 9.22 182 14:50 26.11.2021
5248 Clouds 5 989 89 10000 9.04 185 13:34 26.11.2021
5249 Clouds 4 993 95 10000 7.24 196 10:44 26.11.2021
5250 Clouds 3 994 96 10000 6.86 196 09:53 26.11.2021
5251 Clouds 3 996 96 10000 5.85 194 08:50 26.11.2021
5252 Clouds 3 997 96 10000 5.38 209 08:20 26.11.2021
5253 Clouds 4 998 96 10000 5.06 226 06:31 26.11.2021
5254 Clouds 4 999 95 10000 4.92 239 05:35 26.11.2021
5255 Clouds 4 1001 95 10000 2.99 226 03:41 26.11.2021
5256 Clouds 4 1005 93 10000 3.48 276 23:49 25.11.2021
5257 Clouds 4 1006 93 10000 3.13 282 22:36 25.11.2021
5258 Clouds 4 1007 92 10000 3.74 301 20:53 25.11.2021
5259 Clouds 4 1007 88 10000 4.03 300 19:35 25.11.2021
5260 Clouds 5 1007 87 10000 4.85 305 18:38 25.11.2021
5261 Clouds 6 1007 84 10000 6.32 310 17:28 25.11.2021
5262 Clouds 6 1007 85 10000 6.32 310 16:56 25.11.2021
5263 Clouds 6 1007 84 10000 6.84 311 16:28 25.11.2021
5264 Clouds 8 1007 83 10000 6.94 306 14:52 25.11.2021
5265 Clouds 8 1008 83 10000 6.42 300 13:25 25.11.2021
5266 Clouds 7 1008 92 10000 5.39 295 12:19 25.11.2021
5267 Clouds 7 1008 97 10000 5.39 295 11:40 25.11.2021
5268 Clouds 5 1009 96 10000 4.47 243 08:42 25.11.2021
5269 Clouds 5 1011 94 10000 4.15 228 04:24 25.11.2021
5270 Clouds 5 1012 92 10000 3.81 220 02:45 25.11.2021
5271 Clouds 6 1014 90 10000 3.77 205 22:44 24.11.2021
5272 Clouds 6 1015 90 10000 3.67 203 22:23 24.11.2021
5273 Clouds 6 1015 90 10000 3.82 201 21:28 24.11.2021
5274 Clouds 6 1015 90 10000 3.82 201 20:46 24.11.2021
5275 Clouds 6 1016 89 10000 3.88 195 20:18 24.11.2021
5276 Clouds 7 1016 91 10000 4.15 188 18:30 24.11.2021
5277 Clouds 7 1016 91 10000 4.15 188 18:30 24.11.2021
5278 Clouds 7 1017 91 10000 3.93 200 16:53 24.11.2021
5279 Clouds 7 1019 88 10000 4.5 209 15:23 24.11.2021
5280 Clouds 8 1019 88 10000 4.5 209 14:47 24.11.2021
5281 Clouds 8 1019 88 10000 4.39 220 14:19 24.11.2021
5282 Clouds 7 1021 91 10000 4.07 216 11:51 24.11.2021
5283 Clouds 7 1022 92 10000 3.87 221 11:20 24.11.2021
5284 Clouds 7 1022 94 10000 3.87 221 10:47 24.11.2021
5285 Clouds 7 1022 95 10000 3.77 223 10:21 24.11.2021
5286 Clouds 6 1023 98 10000 3.28 230 07:52 24.11.2021
5287 Clouds 6 1024 98 10000 3.23 234 06:54 24.11.2021
5288 Clouds 6 1025 98 10000 2.79 259 03:50 24.11.2021
5289 Clouds 6 1026 77 10000 2.64 294 00:32 24.11.2021
5290 Clouds 6 1027 73 10000 3.06 302 22:40 23.11.2021
5291 Clouds 6 1027 73 10000 3.09 306 22:18 23.11.2021
5292 Clouds 6 1027 73 10000 3.09 306 21:44 23.11.2021
5293 Clouds 6 1027 82 10000 3.11 310 19:37 23.11.2021
5294 Clouds 7 1027 94 10000 3.15 313 18:42 23.11.2021
5295 Clouds 7 1027 79 10000 3.48 319 18:20 23.11.2021
5296 Clouds 8 1027 93 10000 3.47 315 16:58 23.11.2021
5297 Clouds 8 1027 93 10000 3.77 314 16:20 23.11.2021
5298 Clouds 10 1028 92 10000 4.26 314 15:22 23.11.2021
5299 Clouds 10 1028 90 10000 4.26 316 14:22 23.11.2021
5300 Clouds 9 1028 94 10000 4.2 311 11:42 23.11.2021
5301 Clouds 7 1028 98 10000 4.39 317 09:59 23.11.2021
5302 Clouds 7 1028 77 10000 4.5 321 09:18 23.11.2021
5303 Clouds 7 1027 82 10000 4.75 325 06:45 23.11.2021
5304 Clouds 8 1027 97 10000 5.54 328 03:52 23.11.2021
5305 Clouds 8 1027 97 10000 5.45 320 02:57 23.11.2021
5306 Clouds 6 1027 93 10000 3.68 288 23:21 22.11.2021
5307 Clouds 6 1027 88 10000 3.68 288 22:52 22.11.2021
5308 Clouds 6 1027 94 10000 3.71 282 22:27 22.11.2021
5309 Clouds 5 1027 86 10000 3.71 282 21:41 22.11.2021
5310 Clouds 4 1027 83 10000 3.42 295 20:52 22.11.2021
5311 Clouds 4 1027 81 10000 3.78 308 19:57 22.11.2021
5312 Clouds 4 1027 80 10000 3.75 311 19:19 22.11.2021
5313 Clouds 5 1027 79 10000 3.8 308 18:39 22.11.2021
5314 Clouds 5 1027 89 10000 3.77 318 17:43 22.11.2021
5315 Clouds 7 1027 87 10000 2.92 320 16:22 22.11.2021
5316 Clouds 8 1027 87 10000 2.95 337 14:20 22.11.2021
5317 Clouds 7 1027 65 10000 1.39 335 12:26 22.11.2021
5318 Clouds 5 1027 94 10000 0.83 345 10:43 22.11.2021
5319 Clear 2 1026 73 10000 0.82 354 09:48 22.11.2021
5320 Clear 1 1026 77 10000 1.36 29 08:40 22.11.2021
5321 Clear 1 1024 91 10000 3.11 32 06:43 22.11.2021
5322 Clouds 5 1019 88 10000 4.39 36 23:35 21.11.2021
5323 Clouds 6 1018 89 10000 5.64 38 22:51 21.11.2021
5324 Clouds 6 1017 89 10000 6.37 43 22:19 21.11.2021
5325 Clouds 6 1016 87 10000 6.45 36 20:42 21.11.2021
5326 Clouds 7 1014 87 10000 5.61 8 20:21 21.11.2021
5327 Clouds 7 1013 86 10000 6.51 358 18:30 21.11.2021
5328 Clouds 7 1012 86 10000 6.31 358 17:39 21.11.2021
5329 Clouds 8 1011 85 10000 4.8 339 16:46 21.11.2021
5330 Clouds 9 1010 80 10000 6.69 338 14:46 21.11.2021
5331 Clouds 9 1010 83 10000 6.62 345 13:54 21.11.2021
5332 Clouds 10 1010 83 10000 6.32 333 12:55 21.11.2021
5333 Clouds 10 1010 87 10000 5.54 312 11:57 21.11.2021
5334 Clouds 10 1010 87 10000 5.54 312 11:35 21.11.2021
5335 Clouds 8 1010 93 10000 4.75 293 10:19 21.11.2021
5336 Clouds 7 1010 94 10000 4.49 295 09:25 21.11.2021
5337 Clouds 7 1009 94 10000 5.87 294 08:31 21.11.2021
5338 Clouds 7 1009 93 10000 6.06 298 07:50 21.11.2021
5339 Clouds 8 1009 96 10000 6.17 312 06:23 21.11.2021
5340 Clouds 9 1009 97 10000 6.17 312 05:37 21.11.2021
5341 Clouds 9 1009 97 10000 5.84 305 03:21 21.11.2021
5342 Rain 9 1009 97 10000 5.84 305 02:53 21.11.2021
5343 Clouds 9 1011 96 10000 6.77 246 01:25 21.11.2021
5344 Clouds 9 1011 95 10000 6.77 246 00:41 21.11.2021
5345 Clouds 9 1013 94 10000 6.5 253 21:51 20.11.2021
5346 Clouds 9 1013 94 10000 6.5 253 21:30 20.11.2021
5347 Clouds 9 1014 93 10000 6.67 259 19:46 20.11.2021
5348 Clouds 9 1015 94 10000 7.01 259 18:45 20.11.2021
5349 Clouds 9 1015 94 10000 6.76 256 18:19 20.11.2021
5350 Clouds 10 1016 96 10000 6.66 253 17:21 20.11.2021
5351 Clouds 10 1018 94 10000 7.29 254 14:51 20.11.2021
5352 Clouds 10 1019 95 10000 7.7 254 14:28 20.11.2021
5353 Clouds 10 1019 94 10000 7.7 254 13:46 20.11.2021
5354 Clouds 11 1022 93 10000 6.38 233 11:26 20.11.2021
5355 Clouds 10 1022 95 10000 5.53 231 09:56 20.11.2021
5356 Clouds 10 1023 96 10000 5.1 233 08:35 20.11.2021
5357 Clouds 10 1023 97 10000 5.3 242 06:50 20.11.2021
5358 Clouds 10 1024 97 10000 5.16 242 05:18 20.11.2021
5359 Clouds 10 1024 97 10000 5.16 242 04:49 20.11.2021
5360 Clouds 10 1025 97 10000 5.11 252 00:43 20.11.2021
5361 Clouds 10 1025 96 10000 5.48 254 23:57 19.11.2021
5362 Clouds 10 1025 96 10000 5.8 253 22:53 19.11.2021
5363 Clouds 10 1026 95 10000 5.71 259 21:28 19.11.2021
5364 Clouds 11 1026 95 10000 5.71 259 20:43 19.11.2021
5365 Clouds 11 1026 95 10000 5.79 260 20:25 19.11.2021
5366 Clouds 11 1026 95 10000 5.79 260 19:46 19.11.2021
5367 Clouds 11 1025 94 10000 5.86 261 18:48 19.11.2021
5368 Clouds 11 1025 94 10000 6.4 263 17:45 19.11.2021
5369 Clouds 12 1025 92 10000 6.64 266 16:43 19.11.2021
5370 Clouds 12 1025 92 10000 6.64 266 16:43 19.11.2021
5371 Clouds 13 1025 89 10000 7.36 271 15:22 19.11.2021
5372 Clouds 13 1025 88 10000 7.15 273 11:54 19.11.2021
5373 Clouds 12 1025 93 10000 7.31 269 10:25 19.11.2021
5374 Clouds 12 1025 95 10000 7.52 268 08:39 19.11.2021
5375 Clouds 12 1024 95 10000 7.29 263 07:26 19.11.2021
5376 Clouds 12 1023 94 10000 6.92 257 04:22 19.11.2021
5377 Clouds 12 1024 94 10000 7.85 265 23:59 18.11.2021
5378 Clouds 12 1024 94 10000 7.85 265 23:41 18.11.2021
5379 Clouds 11 1024 96 10000 7.19 255 21:41 18.11.2021
5380 Clouds 11 1023 96 10000 7.41 256 20:47 18.11.2021
5381 Clouds 11 1023 97 10000 7.29 254 20:29 18.11.2021
5382 Clouds 11 1023 97 10000 7.29 254 19:43 18.11.2021
5383 Clouds 11 1023 96 10000 7.65 258 18:40 18.11.2021
5384 Clouds 11 1023 95 10000 7.8 254 17:58 18.11.2021
5385 Clouds 11 1023 95 10000 7.8 254 17:36 18.11.2021
5386 Clouds 11 1022 94 10000 7.83 253 16:43 18.11.2021
5387 Clouds 11 1022 94 10000 8.33 257 15:24 18.11.2021
5388 Clouds 11 1023 86 10000 8.65 243 13:25 18.11.2021
5389 Clouds 10 1023 87 10000 8.22 236 11:45 18.11.2021
5390 Clouds 10 1023 86 10000 7.49 233 11:26 18.11.2021
5391 Clouds 9 1023 90 10000 7.49 233 10:56 18.11.2021
5392 Clouds 9 1023 94 10000 7.18 230 09:33 18.11.2021
5393 Clouds 8 1023 94 10000 5.97 231 07:34 18.11.2021
5394 Clouds 8 1023 94 10000 5.63 244 05:47 18.11.2021
5395 Clouds 8 1023 95 10000 5.64 250 04:54 18.11.2021
5396 Clouds 7 1022 94 10000 5.91 256 01:22 18.11.2021
5397 Clouds 7 1022 92 10000 4.81 261 22:49 17.11.2021
5398 Clouds 7 1022 91 10000 4.94 263 22:20 17.11.2021
5399 Clouds 7 1022 91 10000 4.94 263 21:38 17.11.2021
5400 Clouds 7 1021 91 10000 4.99 264 20:50 17.11.2021
5401 Clouds 7 1019 86 10000 4.86 271 18:27 17.11.2021
5402 Clouds 8 1019 87 10000 5.24 279 17:27 17.11.2021
5403 Clouds 11 1018 77 10000 6.46 288 14:51 17.11.2021
5404 Clouds 10 1017 82 10000 6.52 291 12:41 17.11.2021
5405 Clouds 9 1017 98 10000 5.12 280 11:44 17.11.2021
5406 Clouds 8 1016 98 10000 6.26 242 10:29 17.11.2021
5407 Clouds 7 1016 98 10000 6.68 220 09:24 17.11.2021
5408 Clouds 6 1016 98 10000 6.3 217 07:44 17.11.2021
5409 Clouds 5 1016 97 10000 5.27 207 04:47 17.11.2021
5410 Clouds 4 1018 97 10000 3.67 206 01:45 17.11.2021
5411 Clouds 4 1019 96 10000 3.01 221 23:26 16.11.2021
5412 Clouds 4 1020 96 10000 2.54 227 21:27 16.11.2021
5413 Clouds 4 1020 95 10000 2.4 232 20:18 16.11.2021
5414 Clouds 4 1020 95 10000 2.11 226 18:54 16.11.2021
5415 Clouds 4 1020 95 10000 2.11 226 18:35 16.11.2021
5416 Clouds 4 1020 95 10000 2.11 226 18:35 16.11.2021
5417 Clouds 4 1020 94 10000 1.91 214 17:43 16.11.2021
5418 Clouds 4 1020 94 10000 1.78 212 16:49 16.11.2021
5419 Clouds 4 1020 94 10000 1.75 204 16:18 16.11.2021
5420 Clouds 5 1020 94 10000 1.75 204 15:40 16.11.2021
5421 Clouds 5 1022 93 10000 1.87 154 12:34 16.11.2021
5422 Clouds 5 1024 93 10000 1.66 122 09:49 16.11.2021
5423 Clouds 5 1024 92 10000 1.58 114 08:48 16.11.2021
5424 Clouds 5 1024 92 10000 1.62 113 07:34 16.11.2021
5425 Clouds 5 1024 90 10000 1.94 87 04:45 16.11.2021
5426 Clouds 6 1026 89 10000 2.97 96 23:23 15.11.2021
5427 Clouds 6 1026 89 10000 2.97 96 22:40 15.11.2021
5428 Clouds 6 1027 89 10000 2.74 85 21:55 15.11.2021
5429 Clouds 6 1027 89 10000 2.74 85 21:30 15.11.2021
5430 Clouds 5 1027 90 10000 2.42 82 20:29 15.11.2021
5431 Clouds 5 1027 91 10000 3.09 94 18:53 15.11.2021
5432 Clouds 5 1027 91 10000 4.17 96 16:59 15.11.2021
5433 Clouds 6 1027 91 10000 3.97 93 15:48 15.11.2021
5434 Clouds 6 1027 90 10000 3.97 93 15:30 15.11.2021
5435 Clear 6 1027 91 10000 3.77 89 13:53 15.11.2021
5436 Clear 6 1028 94 10000 3.75 94 12:18 15.11.2021
5437 Clear 6 1029 95 10000 3.33 89 09:31 15.11.2021
5438 Clear 6 1028 95 10000 2.74 83 08:57 15.11.2021
5439 Clear 6 1028 94 10000 2.89 85 06:32 15.11.2021
5440 Clear 7 1028 89 10000 2.87 86 00:34 15.11.2021
5441 Clear 8 1028 90 10000 3.01 85 22:41 14.11.2021
5442 Clouds 8 1028 90 10000 3.26 81 21:18 14.11.2021
5443 Clouds 8 1028 90 10000 3.26 81 21:18 14.11.2021
5444 Clouds 9 1027 91 10000 3.45 77 19:18 14.11.2021
5445 Clouds 9 1027 92 10000 3.45 77 18:54 14.11.2021
5446 Clouds 9 1027 92 10000 3.45 77 18:36 14.11.2021
5447 Clouds 8 1027 92 10000 3.45 73 18:18 14.11.2021
5448 Clouds 9 1027 92 10000 3.45 73 17:57 14.11.2021
5449 Clouds 9 1027 91 10000 3.45 73 17:39 14.11.2021
5450 Clouds 9 1026 91 10000 3.49 66 17:21 14.11.2021
5451 Clouds 9 1026 91 10000 3.49 66 16:57 14.11.2021
5452 Clouds 9 1026 92 10000 3.49 66 16:39 14.11.2021
5453 Clouds 9 1025 92 10000 3.35 70 16:18 14.11.2021
5454 Clouds 9 1025 93 10000 3.79 74 15:19 14.11.2021
5455 Clouds 9 1025 93 10000 3.79 74 14:45 14.11.2021
5456 Clouds 9 1025 93 10000 4.48 74 14:20 14.11.2021
5457 Clouds 9 1025 93 10000 4.48 74 13:51 14.11.2021
5458 Clouds 10 1025 94 10000 4.69 74 13:27 14.11.2021
5459 Clouds 9 1025 95 10000 4.52 71 12:22 14.11.2021
5460 Clouds 9 1024 96 10000 4.51 71 11:25 14.11.2021
5461 Clouds 9 1024 96 10000 4.51 71 10:37 14.11.2021
5462 Clouds 8 1023 97 10000 3.85 68 09:27 14.11.2021
5463 Clouds 8 1023 97 10000 3.85 68 08:51 14.11.2021
5464 Clouds 9 1020 97 10000 3.47 69 04:47 14.11.2021
5465 Clouds 9 1017 97 10000 2.32 76 23:20 13.11.2021
5466 Clouds 9 1016 97 10000 2.08 89 22:21 13.11.2021
5467 Clouds 9 1016 97 10000 2.08 89 21:36 13.11.2021
5468 Clouds 10 1016 97 10000 2.05 94 20:46 13.11.2021
5469 Clouds 10 1015 96 10000 1.93 101 19:32 13.11.2021
5470 Clouds 10 1014 96 10000 1.91 107 18:32 13.11.2021
5471 Clouds 10 1014 96 10000 1.91 107 18:32 13.11.2021
5472 Clouds 10 1014 96 10000 1.89 110 17:41 13.11.2021
5473 Clouds 10 1012 96 10000 1.49 137 16:29 13.11.2021
5474 Clouds 11 1012 97 10000 1.24 156 14:45 13.11.2021
5475 Clouds 11 1011 98 10000 1.71 163 14:18 13.11.2021
5476 Clouds 10 1011 98 10000 1.6 177 12:45 13.11.2021
5477 Clouds 10 1010 98 10000 2.26 184 11:57 13.11.2021
5478 Clouds 10 1010 98 10000 2.44 186 11:26 13.11.2021
5479 Clouds 9 1010 98 10000 2.44 186 10:43 13.11.2021
5480 Clouds 9 1010 98 10000 3.46 195 09:50 13.11.2021
5481 Clouds 9 1010 98 10000 3.46 195 09:32 13.11.2021
5482 Clouds 9 1009 98 10000 4.07 186 08:54 13.11.2021
5483 Clouds 9 1008 98 10000 4.68 182 08:18 13.11.2021
5484 Clouds 8 1007 97 10000 5.65 186 04:43 13.11.2021
5485 Rain 8 1007 97 10000 5.56 181 04:23 13.11.2021
5486 Clouds 8 1008 95 10000 5.75 183 00:28 13.11.2021
5487 Clouds 7 1009 95 10000 5.79 185 22:43 12.11.2021
5488 Rain 7 1010 93 10000 5.55 184 21:29 12.11.2021
5489 Clouds 8 1011 90 10000 5.67 179 19:45 12.11.2021
5490 Clouds 8 1011 90 10000 5.77 174 19:27 12.11.2021
5491 Clouds 7 1011 89 10000 5.82 172 18:21 12.11.2021
5492 Clouds 8 1012 87 10000 5.52 168 16:20 12.11.2021
5493 Clouds 9 1012 87 10000 5.52 168 15:31 12.11.2021
5494 Clouds 10 1016 88 10000 5.25 180 11:32 12.11.2021
5495 Clear 9 1017 93 10000 5.02 177 10:50 12.11.2021
5496 Clear 9 1018 95 10000 4.43 180 09:36 12.11.2021
5497 Clear 8 1018 97 10000 3.74 177 08:38 12.11.2021
5498 Clouds 9 1021 98 10000 3.58 206 02:25 12.11.2021
5499 Clouds 9 1022 98 10000 3.67 202 23:39 11.11.2021
5500 Clouds 9 1022 98 10000 3.37 196 22:30 11.11.2021
5501 Clouds 10 1023 98 10000 2.37 192 21:27 11.11.2021
5502 Clouds 10 1023 98 10000 2.37 192 20:38 11.11.2021
5503 Clouds 10 1022 98 10000 1.77 227 18:56 11.11.2021
5504 Clouds 11 1022 98 10000 2.01 229 17:43 11.11.2021
5505 Clouds 11 1022 98 10000 2.46 234 16:43 11.11.2021
5506 Clouds 11 1022 98 10000 3.1 236 14:51 11.11.2021
5507 Clouds 11 1022 98 10000 3.52 239 14:28 11.11.2021
5508 Clouds 11 1022 99 10000 3.52 239 13:38 11.11.2021
5509 Clouds 11 1023 99 10000 3.74 240 12:48 11.11.2021
5510 Clouds 10 1023 98 10000 3.97 227 10:40 11.11.2021
5511 Clouds 9 1022 98 10000 3.87 226 09:34 11.11.2021
5512 Clouds 9 1022 98 10000 4.03 228 07:59 11.11.2021
5513 Clouds 9 1022 98 10000 4.38 217 04:45 11.11.2021
5514 Clouds 9 1023 98 10000 3.66 220 23:35 10.11.2021
5515 Clouds 9 1023 98 10000 3.65 218 22:24 10.11.2021
5516 Clouds 9 1023 97 10000 3.56 219 21:21 10.11.2021
5517 Clouds 9 1023 97 10000 3.56 219 20:47 10.11.2021
5518 Clouds 9 1023 97 10000 3.59 217 19:47 10.11.2021
5519 Clouds 9 1023 97 10000 3.16 207 19:27 10.11.2021
5520 Clouds 10 1022 94 10000 3.28 215 16:38 10.11.2021
5521 Clouds 10 1022 91 10000 3.25 228 15:40 10.11.2021
5522 Clouds 10 1023 88 10000 4.54 223 13:51 10.11.2021
5523 Clouds 10 1023 89 10000 4.43 228 13:26 10.11.2021
5524 Clouds 10 1023 90 10000 4.41 221 11:36 10.11.2021
5525 Clouds 8 1023 93 10000 4.39 206 08:51 10.11.2021
5526 Clouds 8 1023 94 10000 4.39 206 08:33 10.11.2021
5527 Clouds 8 1023 96 10000 4.18 204 06:41 10.11.2021
5528 Clouds 8 1023 96 10000 3.85 200 05:52 10.11.2021
5529 Clouds 9 1024 89 10000 4.2 196 01:24 10.11.2021
5530 Clouds 10 1025 89 10000 5.15 204 21:55 09.11.2021
5531 Clouds 10 1025 89 10000 5.42 199 20:32 09.11.2021
5532 Clouds 10 1024 88 10000 5.31 198 19:26 09.11.2021
5533 Clouds 10 1024 89 10000 5.31 198 18:44 09.11.2021
5534 Clouds 11 1024 89 10000 5.57 204 16:27 09.11.2021
5535 Clouds 11 1024 91 10000 5.91 207 14:58 09.11.2021
5536 Clouds 11 1024 88 10000 6.57 209 13:25 09.11.2021
5537 Clouds 10 1025 87 10000 6.97 207 12:24 09.11.2021
5538 Clouds 8 1025 90 10000 6.84 205 10:53 09.11.2021
5539 Clouds 7 1025 92 10000 6.34 202 09:43 09.11.2021
5540 Clouds 6 1025 96 10000 5.67 200 08:42 09.11.2021
5541 Clouds 6 1024 96 10000 4.7 196 06:59 09.11.2021
5542 Clouds 8 1024 97 10000 3.61 221 02:32 09.11.2021
5543 Clouds 8 1024 97 10000 3.65 232 01:50 09.11.2021
5544 Clouds 8 1023 97 10000 2.89 222 00:22 09.11.2021
5545 Clouds 8 1023 96 10000 2.46 236 23:29 08.11.2021
5546 Clouds 8 1023 95 10000 2.46 236 22:36 08.11.2021
5547 Clouds 8 1023 95 10000 2.41 292 21:22 08.11.2021
5548 Clouds 9 1023 94 10000 2.78 295 20:31 08.11.2021
5549 Clouds 9 1022 92 10000 3.19 296 19:20 08.11.2021
5550 Clouds 10 1021 89 10000 3.37 297 17:39 08.11.2021
5551 Clouds 10 1021 89 10000 3.37 297 17:39 08.11.2021
5552 Clouds 11 1020 84 10000 3.8 294 15:48 08.11.2021
5553 Clouds 11 1020 83 10000 4.22 291 14:55 08.11.2021
5554 Clouds 11 1020 85 10000 4.65 292 14:24 08.11.2021
5555 Clouds 10 1020 94 10000 5.24 295 12:59 08.11.2021
5556 Clouds 10 1019 96 10000 5.15 284 11:54 08.11.2021
5557 Clouds 9 1019 96 10000 5.55 272 10:41 08.11.2021
5558 Clouds 8 1018 94 10000 5.61 251 08:57 08.11.2021
5559 Clouds 7 1018 94 10000 5.34 254 08:18 08.11.2021
5560 Clouds 7 1017 94 10000 5.95 258 06:56 08.11.2021
5561 Rain 8 1016 93 10000 5.38 275 03:35 08.11.2021
5562 Clouds 8 1015 92 10000 6.73 291 00:20 08.11.2021
5563 Clouds 8 1014 95 10000 6.66 293 22:58 07.11.2021
5564 Clouds 8 1013 94 10000 7.82 295 21:25 07.11.2021
5565 Clouds 8 1013 94 10000 8.93 302 20:18 07.11.2021
5566 Clouds 9 1012 92 10000 9.17 301 18:35 07.11.2021
5567 Clouds 8 1011 92 10000 9.48 297 17:42 07.11.2021
5568 Clouds 9 1010 89 10000 9.61 292 16:22 07.11.2021
5569 Clouds 10 1010 84 10000 9.36 285 14:54 07.11.2021
5570 Clouds 10 1010 83 10000 9.45 284 14:27 07.11.2021
5571 Clouds 11 1010 84 10000 9.95 286 12:50 07.11.2021
5572 Clouds 11 1010 83 10000 9.97 284 11:41 07.11.2021
5573 Clouds 9 1010 89 10000 9.06 280 08:59 07.11.2021
5574 Clouds 11 1010 94 10000 10.32 274 02:58 07.11.2021
5575 Clouds 11 1010 95 10000 9.84 251 02:22 07.11.2021
5576 Rain 10 1013 94 10000 9.06 234 22:56 06.11.2021
5577 Rain 10 1014 91 10000 9.25 231 21:58 06.11.2021
5578 Clouds 10 1015 91 10000 9.03 233 20:59 06.11.2021
5579 Clouds 10 1016 91 10000 9.48 232 20:29 06.11.2021
5580 Clouds 10 1017 90 10000 9.13 228 17:32 06.11.2021
5581 Clouds 10 1018 90 10000 8.54 230 16:35 06.11.2021
5582 Clouds 11 1020 90 10000 7.96 228 13:45 06.11.2021
5583 Clouds 11 1021 90 10000 7.72 233 12:58 06.11.2021
5584 Clouds 10 1023 93 10000 6.99 222 11:24 06.11.2021
5585 Clouds 9 1023 95 10000 6.01 218 09:20 06.11.2021
5586 Clouds 9 1023 94 10000 5.66 240 04:52 06.11.2021
5587 Clouds 8 1023 92 10000 6.46 245 00:58 06.11.2021
5588 Clouds 8 1024 90 10000 6.4 248 23:33 05.11.2021
5589 Clouds 9 1024 90 10000 6.53 253 22:33 05.11.2021
5590 Clouds 9 1023 91 10000 6.85 262 20:41 05.11.2021
5591 Clouds 9 1023 91 10000 6.34 263 20:18 05.11.2021
5592 Clouds 9 1022 90 10000 6.33 265 18:59 05.11.2021
5593 Clouds 9 1022 91 10000 6.33 265 18:38 05.11.2021
5594 Clouds 10 1022 87 10000 6.11 277 16:50 05.11.2021
5595 Clouds 11 1021 81 10000 6.2 282 14:41 05.11.2021
5596 Clouds 11 1021 89 10000 6.4 295 13:33 05.11.2021
5597 Clouds 8 1019 95 10000 4.18 302 09:59 05.11.2021
5598 Clouds 7 1018 80 10000 3.58 301 08:38 05.11.2021
5599 Clouds 6 1016 84 10000 3.86 302 07:21 05.11.2021
5600 Clouds 6 1014 85 10000 4.42 299 04:43 05.11.2021
5601 Rain 6 1012 97 10000 3.63 315 02:24 05.11.2021
5602 Clouds 5 1012 96 10000 3.41 314 00:30 05.11.2021
5603 Clouds 6 1011 96 10000 3.11 332 22:59 04.11.2021
5604 Clouds 6 1010 95 10000 3.35 335 22:18 04.11.2021
5605 Clouds 7 1010 95 10000 3.35 335 21:30 04.11.2021
5606 Clouds 7 1010 95 10000 3.45 336 20:30 04.11.2021
5607 Clouds 7 1010 95 10000 3.45 336 20:30 04.11.2021
5608 Clouds 7 1009 95 10000 3.48 330 19:50 04.11.2021
5609 Clouds 7 1008 95 10000 3.5 330 19:28 04.11.2021
5610 Clouds 8 1008 94 10000 3.77 339 18:43 04.11.2021
5611 Clouds 8 1007 92 10000 3.95 343 17:36 04.11.2021
5612 Rain 9 1006 85 10000 4.11 359 16:23 04.11.2021
5613 Clouds 10 1006 81 10000 3.57 8 14:20 04.11.2021
5614 Clouds 8 1005 98 10000 2.55 33 11:42 04.11.2021
5615 Clouds 5 1005 98 10000 1.57 6 09:29 04.11.2021
5616 Clouds 4 1004 98 10000 1.14 37 08:29 04.11.2021
5617 Clouds 4 1004 98 10000 1.14 37 07:34 04.11.2021
5618 Clouds 6 1003 97 10000 2.5 145 23:54 03.11.2021
5619 Clouds 6 1003 97 10000 1.57 149 22:50 03.11.2021
5620 Clouds 6 1003 97 10000 1.6 170 21:47 03.11.2021
5621 Clouds 6 1003 97 10000 2.05 174 21:25 03.11.2021
5622 Clouds 6 1003 96 10000 2.24 202 20:34 03.11.2021
5623 Clouds 6 1003 96 10000 2.58 196 19:40 03.11.2021
5624 Clouds 6 1002 96 10000 2.46 188 18:55 03.11.2021
5625 Clouds 6 1002 96 10000 2.74 177 18:19 03.11.2021
5626 Clouds 7 1002 95 10000 2.74 177 17:34 03.11.2021
5627 Clouds 7 1001 95 10000 1.85 195 16:18 03.11.2021
5628 Clouds 7 1001 96 10000 1.85 195 15:42 03.11.2021
5629 Clouds 8 1001 77 10000 2.05 224 13:49 03.11.2021
5630 Clouds 8 1002 78 10000 3.22 219 11:39 03.11.2021
5631 Clouds 8 1002 82 10000 3.45 220 10:53 03.11.2021
5632 Clouds 7 1001 97 10000 3.09 219 10:28 03.11.2021
5633 Clouds 7 1001 97 10000 3.09 219 09:30 03.11.2021
5634 Clouds 6 1001 97 10000 3.34 212 08:22 03.11.2021
5635 Clouds 6 1001 97 10000 3.34 212 07:39 03.11.2021
5636 Clouds 7 1000 97 10000 3.34 189 04:26 03.11.2021
5637 Clouds 7 1000 96 10000 3.46 199 02:28 03.11.2021
5638 Clouds 7 1000 96 10000 3.43 199 23:47 02.11.2021
5639 Rain 7 1000 96 10000 3.45 189 22:35 02.11.2021
5640 Clouds 7 1000 95 10000 2.96 179 21:25 02.11.2021
5641 Clouds 8 1000 94 10000 2.96 179 20:33 02.11.2021
5642 Clouds 8 999 94 10000 2.88 178 19:51 02.11.2021
5643 Clouds 8 999 93 10000 3.67 177 18:59 02.11.2021
5644 Clouds 8 999 92 10000 3.52 185 17:59 02.11.2021
5645 Clouds 9 999 92 10000 3.52 185 17:38 02.11.2021
5646 Clouds 9 999 90 10000 3.76 194 16:30 02.11.2021
5647 Clouds 10 999 87 10000 4.17 204 15:32 02.11.2021
5648 Clouds 10 999 90 10000 4.85 207 14:28 02.11.2021
5649 Clouds 10 999 91 10000 4.46 205 13:27 02.11.2021
5650 Clouds 9 999 96 10000 4.42 210 12:41 02.11.2021
5651 Clouds 8 999 79 10000 4.78 216 11:34 02.11.2021
5652 Clouds 7 999 98 10000 4.72 210 10:53 02.11.2021
5653 Clouds 7 999 97 10000 4.47 209 10:27 02.11.2021
5654 Clear 5 999 97 10000 4.02 207 08:44 02.11.2021
5655 Clouds 5 998 96 10000 3.88 197 06:57 02.11.2021
5656 Clouds 6 998 96 10000 4.27 194 03:49 02.11.2021
5657 Clouds 6 998 95 10000 4.45 182 02:24 02.11.2021
5658 Clouds 7 999 90 10000 4.84 188 22:55 01.11.2021
5659 Clear 9 999 88 10000 6.11 196 21:26 01.11.2021
5660 Clear 9 999 87 10000 6.11 196 20:39 01.11.2021
5661 Clear 9 998 87 10000 6.11 196 19:57 01.11.2021
5662 Clear 9 998 87 10000 6.11 196 19:30 01.11.2021
5663 Clouds 10 997 86 10000 6.87 197 18:22 01.11.2021
5664 Clouds 10 997 84 10000 6.87 197 17:35 01.11.2021
5665 Clouds 11 997 81 10000 6.83 201 16:50 01.11.2021
5666 Clouds 12 997 80 10000 7.71 212 15:55 01.11.2021
5667 Clouds 12 997 79 10000 8.53 214 15:26 01.11.2021
5668 Clouds 12 997 78 10000 8.53 214 14:43 01.11.2021
5669 Clouds 12 997 78 10000 8.53 214 14:43 01.11.2021
5670 Clouds 13 997 78 10000 8.68 212 14:23 01.11.2021
5671 Clouds 12 997 79 10000 8.77 212 13:49 01.11.2021
5672 Clouds 12 997 80 10000 8.72 211 12:33 01.11.2021
5673 Clouds 11 997 89 10000 9.43 210 10:36 01.11.2021
5674 Clouds 10 997 93 10000 8.89 206 09:35 01.11.2021
5675 Clouds 9 996 94 10000 7.9 201 07:49 01.11.2021
5676 Clouds 9 996 94 10000 7.52 202 07:29 01.11.2021
5677 Clouds 9 996 95 10000 7.41 205 03:45 01.11.2021
5678 Clouds 10 996 95 10000 7.6 213 00:41 01.11.2021
5679 Clouds 12 995 94 10000 7.35 221 22:31 31.10.2021
5680 Rain 14 992 95 2125 9.07 188 20:50 31.10.2021
5681 Rain 14 993 93 10000 11.21 158 19:20 31.10.2021
5682 Rain 14 993 92 10000 11.21 158 18:38 31.10.2021
5683 Clouds 14 995 89 10000 9.02 157 17:32 31.10.2021
5684 Clouds 14 997 87 10000 7.85 159 15:50 31.10.2021
5685 Clouds 14 1000 87 10000 7.63 152 13:58 31.10.2021
5686 Clouds 13 1002 86 10000 6.96 153 12:49 31.10.2021
5687 Clouds 13 1003 91 10000 5.73 160 11:40 31.10.2021
5688 Clouds 12 1004 96 10000 5.56 168 10:42 31.10.2021
5689 Clouds 10 1005 97 10000 4.63 170 09:21 31.10.2021
5690 Clouds 10 1006 97 10000 4.22 173 08:19 31.10.2021
5691 Clouds 12 1003 96 10000 4.91 207 00:58 31.10.2021
5692 Clouds 12 1002 96 10000 6 212 22:45 30.10.2021
5693 Rain 12 1002 94 10000 6.98 206 21:35 30.10.2021
5694 Clouds 13 1001 92 10000 6.69 199 20:44 30.10.2021
5695 Clouds 13 1000 90 10000 8.21 188 18:45 30.10.2021
5696 Clouds 13 1000 91 10000 8.36 170 17:25 30.10.2021
5697 Clouds 13 1001 93 10000 8.71 165 14:54 30.10.2021
5698 Rain 12 1002 94 10000 7.66 168 13:39 30.10.2021
5699 Rain 12 1002 94 10000 8.58 185 13:21 30.10.2021
5700 Clouds 12 1002 95 10000 8.58 185 12:47 30.10.2021
5701 Rain 11 1002 95 10000 7.28 162 11:42 30.10.2021
5702 Rain 11 1003 92 10000 5.4 151 10:32 30.10.2021
5703 Clouds 10 1004 94 10000 4.43 134 08:53 30.10.2021
5704 Clouds 10 1005 96 10000 4.38 159 07:25 30.10.2021
5705 Clouds 10 1005 95 10000 3.97 166 05:39 30.10.2021
5706 Clouds 13 1006 90 10000 6.15 196 00:47 30.10.2021
5707 Clouds 13 1006 87 10000 7.41 202 22:50 29.10.2021
5708 Clouds 13 1006 87 10000 7.41 202 22:30 29.10.2021
5709 Clouds 13 1005 81 10000 7.73 186 20:46 29.10.2021
5710 Clouds 14 1005 82 10000 7.3 169 20:18 29.10.2021
5711 Clouds 14 1004 80 10000 6.95 172 18:33 29.10.2021
5712 Clouds 16 1004 78 10000 8.42 180 16:54 29.10.2021
5713 Clouds 16 1005 75 10000 8.07 176 14:38 29.10.2021
5714 Clouds 15 1007 78 10000 6.95 175 12:24 29.10.2021
5715 Clouds 12 1007 86 10000 6.52 177 10:46 29.10.2021
5716 Clear 9 1007 90 10000 5.89 171 08:41 29.10.2021
5717 Clouds 10 1011 89 10000 4.59 179 00:37 29.10.2021
5718 Clouds 10 1011 89 10000 4.59 179 00:37 29.10.2021
5719 Clear 11 1011 88 10000 5.47 182 23:27 28.10.2021
5720 Clear 11 1011 88 10000 5.54 178 22:19 28.10.2021
5721 Clear 12 1012 87 10000 5.47 173 20:54 28.10.2021
5722 Clear 12 1012 86 10000 4.5 166 19:51 28.10.2021
5723 Clear 13 1012 84 10000 4.49 169 18:30 28.10.2021
5724 Clear 15 1013 80 10000 5.62 169 17:19 28.10.2021
5725 Clear 16 1013 78 10000 5.93 172 16:20 28.10.2021
5726 Clear 16 1014 79 10000 5.74 177 14:40 28.10.2021
5727 Clear 15 1015 81 10000 6.17 184 13:30 28.10.2021
5728 Clear 14 1016 84 10000 5.96 188 12:47 28.10.2021
5729 Clouds 11 1017 92 10000 5.82 192 11:19 28.10.2021
5730 Clear 9 1017 96 10000 5.45 190 09:40 28.10.2021
5731 Clear 9 1017 96 10000 5.32 190 09:22 28.10.2021
5732 Clear 9 1017 96 10000 5.32 190 08:35 28.10.2021
5733 Clouds 9 1017 97 10000 5.42 189 07:40 28.10.2021
5734 Clouds 11 1018 94 10000 5.66 205 00:40 28.10.2021
5735 Clouds 12 1019 91 10000 5.48 202 22:45 27.10.2021
5736 Clouds 13 1019 88 10000 5.35 205 21:35 27.10.2021
5737 Clouds 14 1019 85 10000 5.45 212 20:58 27.10.2021
5738 Clouds 14 1019 85 10000 5.45 212 20:39 27.10.2021
5739 Clouds 14 1018 84 10000 5.75 216 19:44 27.10.2021
5740 Clouds 15 1018 86 10000 6.75 223 18:55 27.10.2021
5741 Clouds 15 1019 78 10000 7.67 232 16:55 27.10.2021
5742 Clouds 15 1018 87 10000 8.51 232 16:24 27.10.2021
5743 Clouds 15 1018 87 10000 7.85 223 15:24 27.10.2021
5744 Clouds 15 1019 87 10000 7.98 222 14:19 27.10.2021
5745 Clouds 14 1019 93 10000 7.63 223 11:18 27.10.2021
5746 Clouds 14 1019 92 10000 7.63 223 10:36 27.10.2021
5747 Clouds 14 1018 92 10000 7.98 218 09:21 27.10.2021
5748 Clouds 14 1017 91 10000 7.89 226 07:39 27.10.2021
5749 Clouds 14 1017 91 10000 7.89 226 07:39 27.10.2021
5750 Clouds 14 1017 93 10000 7.74 227 05:38 27.10.2021
5751 Clouds 13 1017 93 10000 7.93 220 01:21 27.10.2021
5752 Clouds 13 1017 93 10000 7.93 220 00:54 27.10.2021
5753 Clouds 13 1018 92 10000 7.94 219 23:52 26.10.2021
5754 Clouds 13 1017 91 10000 7.55 217 22:44 26.10.2021
5755 Clouds 13 1017 89 10000 7.32 220 22:21 26.10.2021
5756 Clouds 13 1017 90 10000 7.32 220 21:32 26.10.2021
5757 Clouds 12 1017 94 10000 6.14 219 19:48 26.10.2021
5758 Clouds 12 1017 94 10000 6.01 220 19:18 26.10.2021
5759 Clouds 12 1017 94 10000 6.06 225 17:58 26.10.2021
5760 Clouds 13 1017 88 10000 6.48 226 15:49 26.10.2021
5761 Clouds 13 1017 89 10000 6.21 229 12:55 26.10.2021
5762 Clouds 11 1017 98 10000 5.57 227 10:54 26.10.2021
5763 Clouds 10 1016 98 10000 4.19 221 08:42 26.10.2021
5764 Clouds 10 1016 97 10000 4.45 225 07:22 26.10.2021
5765 Rain 11 1015 96 10000 5.35 207 00:19 26.10.2021
5766 Rain 10 1015 96 10000 5.35 207 23:37 25.10.2021
5767 Clouds 10 1015 96 10000 5.2 202 22:33 25.10.2021
5768 Clouds 11 1015 96 10000 4.73 195 21:45 25.10.2021
5769 Clouds 11 1015 95 10000 4.54 189 20:38 25.10.2021
5770 Clouds 11 1015 95 10000 4.74 189 19:44 25.10.2021
5771 Clouds 11 1015 95 10000 4.59 193 19:23 25.10.2021
5772 Clouds 11 1015 95 10000 4.59 193 18:38 25.10.2021
5773 Clouds 11 1015 96 10000 4.39 196 17:35 25.10.2021
5774 Clouds 10 1015 96 10000 4.44 200 15:18 25.10.2021
5775 Clouds 10 1016 97 10000 5.04 205 12:33 25.10.2021
5776 Clouds 9 1016 97 10000 4.86 199 11:25 25.10.2021
5777 Clouds 7 1016 95 10000 4.68 190 09:00 25.10.2021
5778 Clear 5 1016 95 10000 4.66 193 07:20 25.10.2021
5779 Clear 5 1017 94 10000 4.29 198 05:21 25.10.2021
5780 Clear 6 1018 92 10000 4.16 190 00:52 25.10.2021
5781 Clear 5 1018 92 10000 4.16 190 00:34 25.10.2021
5782 Clear 5 1019 91 10000 4 186 23:42 24.10.2021
5783 Clear 6 1019 89 10000 3.83 186 22:39 24.10.2021
5784 Clear 6 1019 88 10000 3.79 186 22:20 24.10.2021
5785 Clear 7 1019 88 10000 3.79 186 21:33 24.10.2021
5786 Clear 7 1019 87 10000 3.93 183 20:39 24.10.2021
5787 Clouds 8 1020 87 10000 4 175 19:47 24.10.2021
5788 Clouds 10 1020 83 10000 3.89 165 18:29 24.10.2021
5789 Clouds 11 1020 80 10000 3.89 165 17:46 24.10.2021
5790 Clouds 13 1021 71 10000 4.97 170 15:57 24.10.2021
5791 Clouds 13 1022 68 10000 5.27 179 15:19 24.10.2021
5792 Clouds 12 1024 73 10000 5.53 183 13:19 24.10.2021
5793 Clouds 11 1024 79 10000 5.55 182 12:23 24.10.2021
5794 Clouds 9 1024 85 10000 5.55 182 11:34 24.10.2021
5795 Clouds 7 1025 91 10000 5.29 179 10:30 24.10.2021
5796 Clouds 5 1025 92 10000 4.27 170 08:39 24.10.2021
5797 Clouds 9 1027 88 10000 4.93 187 01:53 24.10.2021
5798 Clouds 9 1027 88 10000 4.65 185 23:51 23.10.2021
5799 Clouds 9 1027 89 10000 4.38 188 22:40 23.10.2021
5800 Clouds 9 1026 87 10000 4.23 193 20:43 23.10.2021
5801 Clouds 9 1026 86 10000 3.23 201 19:26 23.10.2021
5802 Clouds 10 1026 84 10000 3.23 201 18:43 23.10.2021
5803 Clouds 11 1026 82 10000 3.09 203 17:44 23.10.2021
5804 Clouds 12 1026 78 10000 3.22 221 16:53 23.10.2021
5805 Clouds 12 1026 71 10000 3.54 263 15:20 23.10.2021
5806 Clouds 12 1026 78 10000 4.29 267 13:31 23.10.2021
5807 Clouds 7 1020 88 10000 5.21 290 00:42 23.10.2021
5808 Clouds 7 1019 87 10000 5.29 293 23:35 22.10.2021
5809 Clouds 8 1017 84 10000 6.79 303 21:27 22.10.2021
5810 Clouds 8 1015 79 10000 7.35 307 19:29 22.10.2021
5811 Clouds 9 1014 75 10000 7.97 304 18:24 22.10.2021
5812 Clouds 10 1011 75 10000 10.27 309 16:27 22.10.2021
5813 Clouds 10 1010 84 10000 9.87 310 14:44 22.10.2021
5814 Clouds 9 1009 94 10000 12.27 314 12:41 22.10.2021
5815 Clouds 9 1009 94 10000 12.27 314 12:41 22.10.2021
5816 Clouds 9 1006 90 10000 12.12 281 10:56 22.10.2021
5817 Clouds 8 1006 92 10000 12.65 271 09:57 22.10.2021
5818 Clouds 8 1006 91 10000 12.65 271 09:32 22.10.2021
5819 Clouds 8 1006 85 10000 11.36 265 07:30 22.10.2021
5820 Clouds 8 1006 88 10000 11.29 266 06:46 22.10.2021
5821 Clouds 7 1008 92 10000 8.67 272 00:40 22.10.2021
5822 Clouds 7 1008 90 10000 8.33 281 23:49 21.10.2021
5823 Clouds 7 1008 90 10000 8.31 291 22:43 21.10.2021
5824 Clouds 7 1006 85 10000 9.39 299 21:28 21.10.2021
5825 Clouds 7 1006 86 10000 10.06 306 20:21 21.10.2021
5826 Rain 8 1005 82 10000 9.94 305 19:51 21.10.2021
5827 Clouds 8 1004 80 10000 9.98 305 19:24 21.10.2021
5828 Clouds 8 1004 84 10000 9.98 305 18:32 21.10.2021
5829 Rain 9 1003 80 10000 10.7 300 17:51 21.10.2021
5830 Clouds 10 1001 79 10000 11.43 303 16:47 21.10.2021
5831 Clouds 9 998 87 10000 10.47 309 15:29 21.10.2021
5832 Clouds 10 998 81 10000 10.47 309 14:53 21.10.2021
5833 Clouds 10 997 78 10000 9.16 288 13:57 21.10.2021
5834 Clouds 11 994 87 10000 10.15 296 11:49 21.10.2021
5835 Clouds 10 990 96 10000 10.66 292 09:39 21.10.2021
5836 Rain 10 985 94 5664 11.17 298 07:48 21.10.2021
5837 Rain 11 981 93 8795 8.82 255 06:35 21.10.2021
5838 Clouds 13 992 89 10000 6.36 208 00:35 21.10.2021
5839 Clouds 13 995 87 10000 9.49 223 22:29 20.10.2021
5840 Clouds 14 995 87 10000 9.49 223 21:47 20.10.2021
5841 Clouds 14 996 86 10000 9.78 221 20:58 20.10.2021
5842 Clouds 14 996 84 10000 9.78 221 20:39 20.10.2021
5843 Clouds 15 996 83 10000 9.89 222 20:18 20.10.2021
5844 Clouds 16 996 84 10000 10.49 225 19:23 20.10.2021
5845 Clouds 16 997 85 10000 10.64 228 18:29 20.10.2021
5846 Clouds 17 997 84 10000 10.64 228 17:33 20.10.2021
5847 Clouds 16 999 90 10000 10.67 223 14:33 20.10.2021
5848 Clouds 16 1001 87 10000 10.81 227 09:54 20.10.2021
5849 Clouds 15 1004 86 10000 8.04 212 05:34 20.10.2021
5850 Clouds 16 1007 90 10000 7.93 210 02:37 20.10.2021
5851 Clouds 17 1008 90 10000 8.35 214 00:33 20.10.2021
5852 Clouds 17 1010 92 10000 8.19 219 22:53 19.10.2021
5853 Clouds 16 1010 92 10000 6.96 220 21:37 19.10.2021
5854 Clouds 16 1011 91 10000 8.6 227 20:27 19.10.2021
5855 Clouds 16 1011 91 10000 8.81 227 19:59 19.10.2021
5856 Clouds 17 1011 91 10000 8.81 227 19:36 19.10.2021
5857 Clouds 17 1011 91 10000 8.35 222 18:45 19.10.2021
5858 Clouds 17 1011 93 10000 8.05 220 17:52 19.10.2021
5859 Clouds 16 1012 97 9180 6.36 209 15:30 19.10.2021
5860 Clouds 16 1012 97 9128 6.08 200 14:44 19.10.2021
5861 Clouds 15 1014 97 10000 6.02 199 13:55 19.10.2021
5862 Clouds 14 1015 97 10000 6.05 196 12:24 19.10.2021
5863 Clouds 14 1015 97 10000 6.05 196 12:24 19.10.2021
5864 Clouds 14 1015 96 10000 5.9 190 11:28 19.10.2021
5865 Clouds 13 1015 96 10000 5.68 191 09:55 19.10.2021
5866 Clouds 13 1015 95 10000 5.45 192 08:57 19.10.2021
5867 Clouds 12 1017 89 10000 4.56 193 02:38 19.10.2021
5868 Clouds 12 1018 88 10000 5.29 201 00:20 19.10.2021
5869 Clouds 12 1018 87 10000 5.29 201 23:41 18.10.2021
5870 Clouds 12 1019 87 10000 5.34 191 22:57 18.10.2021
5871 Clouds 12 1019 86 10000 5.34 191 22:31 18.10.2021
5872 Clouds 12 1019 86 10000 5.34 191 22:31 18.10.2021
5873 Clouds 11 1019 86 10000 4.72 186 20:53 18.10.2021
5874 Clouds 11 1019 87 10000 4.46 182 20:30 18.10.2021
5875 Clouds 12 1019 86 10000 4.47 173 19:41 18.10.2021
5876 Clouds 12 1019 85 10000 4.23 173 19:20 18.10.2021
5877 Clouds 12 1019 83 10000 4.23 173 18:49 18.10.2021
5878 Clouds 14 1020 77 10000 4.85 185 14:58 18.10.2021
5879 Clouds 13 1022 80 10000 5.23 202 12:41 18.10.2021
5880 Clouds 11 1022 86 10000 4.38 211 10:26 18.10.2021
5881 Clouds 10 1021 88 10000 4.19 208 09:26 18.10.2021
5882 Clouds 11 1020 81 10000 4.84 218 02:28 18.10.2021
5883 Clouds 11 1020 80 10000 5.28 225 23:20 17.10.2021
5884 Clouds 11 1019 80 10000 5.38 223 21:46 17.10.2021
5885 Clouds 11 1019 80 10000 5.17 222 20:59 17.10.2021
5886 Clouds 11 1019 81 10000 5.17 222 20:35 17.10.2021
5887 Clouds 12 1019 81 10000 4.36 218 19:39 17.10.2021
5888 Clouds 12 1019 82 10000 4.15 217 18:57 17.10.2021
5889 Clouds 12 1018 81 10000 4.66 224 17:32 17.10.2021
5890 Clouds 13 1018 79 10000 5.42 222 15:19 17.10.2021
5891 Clouds 12 1018 81 10000 5.91 226 14:24 17.10.2021
5892 Clouds 12 1018 82 10000 5.91 226 13:38 17.10.2021
5893 Clouds 11 1018 84 10000 5.59 223 11:57 17.10.2021
5894 Clouds 10 1018 85 10000 5.35 222 10:34 17.10.2021
5895 Clouds 10 1018 85 10000 5.35 222 10:34 17.10.2021
5896 Clouds 9 1018 86 10000 5.14 223 09:30 17.10.2021
5897 Clouds 9 1018 90 10000 3.86 220 07:19 17.10.2021
5898 Clouds 10 1019 86 10000 6.02 231 00:53 17.10.2021
5899 Clouds 10 1019 86 10000 6.47 222 00:22 17.10.2021
5900 Clouds 10 1018 87 10000 5.94 212 21:49 16.10.2021
5901 Clouds 10 1018 88 10000 4.61 205 20:32 16.10.2021
5902 Clouds 10 1019 88 10000 4.07 203 19:46 16.10.2021
5903 Clouds 10 1019 87 10000 3.47 213 19:23 16.10.2021
5904 Clouds 10 1019 86 10000 3.47 213 18:56 16.10.2021
5905 Clouds 11 1019 86 10000 3.47 213 18:37 16.10.2021
5906 Clouds 11 1019 85 10000 3.68 226 18:18 16.10.2021
5907 Clouds 12 1019 82 10000 3.85 221 17:25 16.10.2021
5908 Clouds 12 1020 82 10000 4.51 245 15:25 16.10.2021
5909 Clouds 10 1021 86 10000 4.32 262 12:26 16.10.2021
5910 Clouds 9 1021 90 10000 3.53 256 10:47 16.10.2021
5911 Clouds 8 1021 90 10000 3.28 275 08:23 16.10.2021
5912 Clouds 9 1020 94 10000 4.02 305 01:26 16.10.2021
5913 Clouds 9 1021 92 10000 3.81 307 23:57 15.10.2021
5914 Clouds 9 1020 91 10000 3.57 307 23:24 15.10.2021
5915 Clouds 9 1020 89 10000 3.4 303 22:19 15.10.2021
5916 Clouds 9 1019 90 10000 3.44 306 21:29 15.10.2021
5917 Clouds 9 1019 88 10000 3.44 306 20:50 15.10.2021
5918 Clouds 10 1019 85 10000 3.71 315 19:38 15.10.2021
5919 Clouds 11 1018 87 10000 4.38 320 18:41 15.10.2021
5920 Clouds 12 1018 80 10000 5.26 320 17:58 15.10.2021
5921 Clouds 13 1017 73 10000 6.23 319 15:37 15.10.2021
5922 Clouds 13 1016 75 10000 7.49 322 13:34 15.10.2021
5923 Clouds 13 1014 65 10000 7.37 326 11:41 15.10.2021
5924 Clouds 11 1013 91 10000 7.84 332 10:58 15.10.2021
5925 Rain 10 1012 95 10000 7.07 335 10:19 15.10.2021
5926 Rain 13 1009 93 5431 7.98 291 06:47 15.10.2021
5927 Clouds 13 1012 86 10000 7.84 240 02:21 15.10.2021
5928 Clouds 13 1014 85 10000 7.56 241 00:22 15.10.2021
5929 Clouds 13 1015 85 10000 7.29 238 22:52 14.10.2021
5930 Clouds 13 1015 90 10000 7 240 21:46 14.10.2021
5931 Clouds 13 1016 76 10000 6.83 246 20:55 14.10.2021
5932 Clouds 13 1017 87 10000 5.88 239 20:20 14.10.2021
5933 Clouds 13 1017 84 10000 5.88 239 19:42 14.10.2021
5934 Clouds 14 1018 84 10000 7.08 257 17:39 14.10.2021
5935 Clouds 14 1018 84 10000 7.08 257 17:39 14.10.2021
5936 Clouds 14 1018 79 10000 6.78 260 16:56 14.10.2021
5937 Clouds 14 1019 81 10000 6.77 262 16:21 14.10.2021
5938 Clouds 15 1019 80 10000 7.19 262 14:44 14.10.2021
5939 Clouds 14 1020 81 10000 7.39 267 14:24 14.10.2021
5940 Clouds 13 1020 85 10000 7.24 264 11:56 14.10.2021
5941 Clouds 13 1020 89 10000 6.95 261 10:46 14.10.2021
5942 Clouds 12 1021 96 10000 4 253 07:39 14.10.2021
5943 Clouds 12 1021 97 10000 4.72 281 04:23 14.10.2021
5944 Clouds 11 1022 97 10000 4.54 285 00:34 14.10.2021
5945 Clouds 11 1022 95 10000 5.39 257 22:32 13.10.2021
5946 Clouds 11 1022 92 10000 5.73 232 21:35 13.10.2021
5947 Clouds 11 1023 92 10000 5.12 231 20:41 13.10.2021
5948 Clouds 12 1023 82 10000 4.68 266 19:20 13.10.2021
5949 Clouds 12 1023 82 10000 4.68 266 18:37 13.10.2021
5950 Clouds 13 1023 81 10000 5.93 302 15:54 13.10.2021
5951 Clouds 13 1023 78 10000 5.54 301 14:46 13.10.2021
5952 Clouds 13 1023 79 10000 4.79 307 14:23 13.10.2021
5953 Clouds 12 1023 91 10000 5.38 327 12:24 13.10.2021
5954 Clouds 12 1023 89 10000 5.38 327 11:36 13.10.2021
5955 Clouds 9 1022 73 10000 5.27 331 09:37 13.10.2021
5956 Clouds 8 1022 95 10000 4.65 321 07:50 13.10.2021
5957 Clouds 8 1021 93 10000 3.22 342 03:37 13.10.2021
5958 Clouds 8 1021 93 10000 3.42 343 02:21 13.10.2021
5959 Clouds 8 1020 91 10000 3.76 338 23:33 12.10.2021
5960 Clouds 8 1020 94 10000 3.56 339 22:50 12.10.2021
5961 Clouds 8 1020 93 10000 3.8 345 22:26 12.10.2021
5962 Clouds 9 1019 92 10000 4.32 341 20:54 12.10.2021
5963 Clouds 9 1019 92 10000 4.5 341 20:31 12.10.2021
5964 Clouds 10 1019 90 10000 4.31 336 19:36 12.10.2021
5965 Clouds 10 1018 89 10000 6.33 325 18:25 12.10.2021
5966 Clouds 11 1018 85 10000 6.81 328 17:20 12.10.2021
5967 Clouds 13 1018 71 10000 6.59 332 16:22 12.10.2021
5968 Clouds 13 1018 75 10000 6.59 332 15:33 12.10.2021
5969 Clouds 13 1018 73 10000 5.25 334 13:46 12.10.2021
5970 Clouds 13 1018 73 10000 6.2 342 13:18 12.10.2021
5971 Clouds 12 1018 85 10000 6.42 344 11:30 12.10.2021
5972 Clouds 11 1018 97 10000 5.01 338 09:41 12.10.2021
5973 Clouds 10 1018 97 10000 4.78 326 08:26 12.10.2021
5974 Clouds 11 1018 97 10000 4.98 324 06:46 12.10.2021
5975 Clouds 10 1018 96 10000 6.28 317 04:49 12.10.2021
5976 Rain 10 1019 96 10000 6.9 300 04:28 12.10.2021
5977 Clouds 9 1022 94 10000 5.56 290 23:56 11.10.2021
5978 Clouds 9 1022 94 10000 5.56 290 23:36 11.10.2021
5979 Clouds 9 1022 93 10000 5.33 293 22:52 11.10.2021
5980 Clear 9 1023 90 10000 5.33 305 21:27 11.10.2021
5981 Clouds 10 1023 88 10000 5.28 308 20:31 11.10.2021
5982 Clouds 11 1023 89 10000 5.33 311 19:36 11.10.2021
5983 Clouds 12 1023 90 10000 6.39 321 18:23 11.10.2021
5984 Clouds 14 1023 86 10000 7.22 319 16:41 11.10.2021
5985 Clouds 14 1023 82 10000 7.04 314 16:21 11.10.2021
5986 Clouds 14 1023 79 10000 7.04 314 15:45 11.10.2021
5987 Clouds 14 1023 79 10000 7.27 311 14:54 11.10.2021
5988 Clouds 15 1024 74 10000 6.93 311 14:22 11.10.2021
5989 Clouds 14 1024 77 10000 6.93 311 13:35 11.10.2021
5990 Clouds 13 1024 86 10000 5.22 308 11:25 11.10.2021
5991 Clouds 11 1024 95 10000 4.45 311 09:47 11.10.2021
5992 Clouds 9 1024 94 10000 3.86 315 08:40 11.10.2021
5993 Clouds 12 1024 93 10000 4.07 322 01:47 11.10.2021
5994 Clouds 12 1024 94 10000 4.68 329 01:20 11.10.2021
5995 Clouds 12 1024 95 10000 4.68 329 00:42 11.10.2021
5996 Clouds 12 1024 96 10000 4.19 316 23:35 10.10.2021
5997 Clouds 11 1024 93 10000 2.65 263 21:51 10.10.2021
5998 Clouds 11 1024 93 10000 2.3 260 21:26 10.10.2021
5999 Clouds 10 1024 92 10000 2.36 251 20:41 10.10.2021
6000 Clouds 11 1024 92 10000 1.9 267 20:20 10.10.2021
6001 Clouds 10 1024 90 10000 1.9 267 19:51 10.10.2021
6002 Clouds 11 1024 89 10000 1.9 267 19:31 10.10.2021
6003 Clouds 13 1024 84 10000 2.18 308 18:24 10.10.2021
6004 Clear 15 1025 76 10000 1.58 285 15:54 10.10.2021
6005 Clear 15 1025 77 10000 1.58 285 15:36 10.10.2021
6006 Clouds 14 1026 77 10000 1.97 254 13:42 10.10.2021
6007 Clouds 12 1026 80 10000 2.18 195 12:44 10.10.2021
6008 Clouds 11 1026 82 10000 2.81 161 12:23 10.10.2021
6009 Clouds 8 1026 65 10000 2.38 152 10:33 10.10.2021
6010 Clouds 6 1027 93 10000 2.49 149 09:27 10.10.2021
6011 Clouds 4 1027 94 10000 2.49 149 08:52 10.10.2021
6012 Clouds 4 1027 93 10000 2.65 146 06:36 10.10.2021
6013 Clouds 5 1029 89 10000 2.85 137 02:28 10.10.2021
6014 Clouds 6 1029 85 10000 3.01 132 00:54 10.10.2021
6015 Clouds 7 1030 85 10000 3.19 128 23:52 09.10.2021
6016 Clouds 7 1030 85 10000 3.19 128 23:52 09.10.2021
6017 Clouds 8 1030 86 10000 3.44 124 22:39 09.10.2021
6018 Clouds 9 1030 87 10000 3.6 123 21:31 09.10.2021
6019 Clouds 9 1030 87 10000 3.73 119 20:59 09.10.2021
6020 Clouds 9 1030 87 10000 3.73 119 20:59 09.10.2021
6021 Clouds 11 1030 84 10000 3.54 113 19:43 09.10.2021
6022 Clouds 13 1029 81 10000 3.57 110 18:57 09.10.2021
6023 Clouds 13 1029 79 10000 3.57 110 18:32 09.10.2021
6024 Clear 16 1030 71 10000 4.19 128 16:28 09.10.2021
6025 Clear 16 1030 71 10000 4.19 128 16:28 09.10.2021
6026 Clear 16 1030 71 10000 4.19 128 16:28 09.10.2021
6027 Clear 16 1030 71 10000 4.19 128 16:28 09.10.2021
6028 Clear 15 1030 69 10000 4.54 125 14:57 09.10.2021
6029 Clear 15 1030 73 10000 4.96 118 13:41 09.10.2021
6030 Clear 14 1031 79 10000 5.02 114 12:38 09.10.2021
6031 Clear 12 1031 88 10000 4.95 108 11:43 09.10.2021
6032 Clear 10 1031 96 10000 4.87 107 10:41 09.10.2021
6033 Clear 10 1031 96 10000 4.87 107 10:41 09.10.2021
6034 Clear 9 1031 97 10000 4.51 102 09:36 09.10.2021
6035 Clear 9 1031 97 10000 3.44 95 08:29 09.10.2021
6036 Clear 9 1031 97 10000 3.41 95 07:46 09.10.2021
6037 Clear 10 1031 97 10000 3.21 95 05:28 09.10.2021
6038 Clear 9 1031 96 10000 3.2 103 02:49 09.10.2021
6039 Clear 9 1031 96 10000 3.18 105 02:21 09.10.2021
6040 Clear 10 1032 95 10000 3.2 93 23:36 08.10.2021
6041 Clear 10 1032 94 10000 3.37 87 22:53 08.10.2021
6042 Clear 10 1032 94 10000 3.29 81 22:22 08.10.2021
6043 Clear 11 1032 92 10000 3.37 74 20:49 08.10.2021
6044 Clear 14 1031 85 10000 3.21 65 18:51 08.10.2021
6045 Clear 16 1031 79 10000 2.88 96 17:28 08.10.2021
6046 Clear 17 1031 76 10000 2.88 96 16:50 08.10.2021
6047 Clear 17 1031 76 10000 3.31 104 16:23 08.10.2021
6048 Clear 17 1032 77 10000 3.07 103 13:57 08.10.2021
6049 Clear 16 1032 82 10000 2.9 104 12:48 08.10.2021
6050 Clear 12 1032 97 10000 2.62 107 11:31 08.10.2021
6051 Clouds 11 1032 98 10000 2.35 113 10:40 08.10.2021
6052 Clouds 6 1032 96 10000 1.7 132 08:27 08.10.2021
6053 Clouds 8 1030 95 10000 1.71 150 23:38 07.10.2021
6054 Clouds 8 1030 94 10000 1.79 152 22:59 07.10.2021
6055 Clear 9 1030 94 10000 2.17 146 21:45 07.10.2021
6056 Clear 9 1030 94 10000 2.59 142 21:20 07.10.2021
6057 Clouds 11 1029 93 10000 3 133 19:57 07.10.2021
6058 Clouds 12 1029 92 10000 3.36 133 19:28 07.10.2021
6059 Clouds 13 1028 90 10000 3.33 130 18:22 07.10.2021
6060 Clouds 14 1028 87 10000 2.98 138 17:18 07.10.2021
6061 Clouds 15 1028 87 10000 2.42 155 15:24 07.10.2021
6062 Clouds 14 1028 91 10000 1.99 166 13:47 07.10.2021
6063 Clouds 14 1027 91 10000 2.02 163 13:28 07.10.2021
6064 Clouds 13 1027 94 10000 2.02 163 12:40 07.10.2021
6065 Clouds 11 1027 96 10000 2.16 160 10:49 07.10.2021
6066 Clouds 10 1026 97 10000 2.15 145 10:19 07.10.2021
6067 Clouds 9 1026 97 10000 2.15 145 09:32 07.10.2021
6068 Clouds 9 1026 96 10000 2.44 129 08:41 07.10.2021
6069 Clouds 8 1025 96 10000 2.84 120 07:42 07.10.2021
6070 Clouds 8 1025 96 10000 2.3 109 06:59 07.10.2021
6071 Clouds 8 1021 95 10000 1.76 65 02:24 07.10.2021
6072 Clouds 8 1020 94 10000 1.22 45 23:40 06.10.2021
6073 Clouds 9 1019 93 10000 1.34 60 22:50 06.10.2021
6074 Clouds 10 1018 94 10000 1.36 82 21:53 06.10.2021
6075 Clouds 10 1017 92 10000 1.89 92 20:35 06.10.2021
6076 Clouds 12 1016 92 10000 2.65 82 19:48 06.10.2021
6077 Clouds 13 1015 90 10000 2.73 93 18:39 06.10.2021
6078 Clouds 14 1013 90 10000 4.1 138 16:55 06.10.2021
6079 Clouds 13 1011 91 10000 4.4 165 15:27 06.10.2021
6080 Clouds 12 1010 94 10000 4.71 180 13:55 06.10.2021
6081 Clouds 12 1010 94 10000 5.76 180 12:59 06.10.2021
6082 Clouds 12 1010 94 10000 5.76 180 12:40 06.10.2021
6083 Clouds 12 1009 95 10000 6.03 179 12:21 06.10.2021
6084 Clouds 11 1008 93 10000 6.15 176 10:18 06.10.2021
6085 Clouds 11 1008 93 10000 6.15 176 09:39 06.10.2021
6086 Clouds 11 1007 93 10000 7.13 186 08:42 06.10.2021
6087 Clouds 11 1007 93 10000 7.47 185 07:44 06.10.2021
6088 Clouds 11 1006 93 10000 7.2 193 05:26 06.10.2021
6089 Clouds 11 1004 92 10000 6.3 195 00:28 06.10.2021
6090 Clouds 11 1004 93 10000 6.3 195 23:57 05.10.2021
6091 Clouds 11 1004 93 10000 6.3 195 23:38 05.10.2021
6092 Clouds 12 1004 93 10000 5.66 196 23:20 05.10.2021
6093 Clouds 12 1003 93 10000 5.47 205 22:27 05.10.2021
6094 Clouds 13 1003 93 10000 5.47 205 21:49 05.10.2021
6095 Rain 14 1003 95 10000 4.9 202 20:42 05.10.2021
6096 Rain 14 1002 94 9065 6.04 174 20:24 05.10.2021
6097 Rain 14 1002 90 9065 6.04 174 19:43 05.10.2021
6098 Rain 14 1002 89 10000 5.54 163 18:57 05.10.2021
6099 Clouds 16 1003 79 10000 6.59 145 16:48 05.10.2021
6100 Clouds 17 1004 77 10000 6.93 147 14:38 05.10.2021
6101 Clouds 16 1005 77 10000 6.68 152 13:35 05.10.2021
6102 Clouds 15 1006 80 10000 6.92 149 12:48 05.10.2021
6103 Clouds 15 1007 79 10000 6.42 147 12:18 05.10.2021
6104 Clouds 14 1008 83 10000 5.92 149 11:19 05.10.2021
6105 Clouds 10 1009 93 10000 5.04 144 09:27 05.10.2021
6106 Clouds 10 1011 89 10000 4.18 152 05:25 05.10.2021
6107 Clear 11 1014 88 10000 4.9 167 23:54 04.10.2021
6108 Clear 12 1014 86 10000 4.62 177 22:38 04.10.2021
6109 Clouds 13 1014 84 10000 4.77 173 20:43 04.10.2021
6110 Clouds 15 1014 75 10000 5.4 200 18:34 04.10.2021
6111 Clouds 17 1014 70 10000 7.11 202 16:39 04.10.2021
6112 Clouds 17 1014 70 10000 6.85 197 15:32 04.10.2021
6113 Clouds 17 1014 71 10000 7.23 201 14:43 04.10.2021
6114 Clouds 17 1014 73 10000 7.63 201 13:57 04.10.2021
6115 Clouds 16 1014 75 10000 7.63 201 13:30 04.10.2021
6116 Clouds 15 1014 81 10000 6.26 200 12:30 04.10.2021
6117 Clouds 13 1014 91 10000 6.26 200 11:31 04.10.2021
6118 Clouds 12 1014 94 10000 6.48 200 10:34 04.10.2021
6119 Clouds 11 1014 94 10000 5.63 196 08:45 04.10.2021
6120 Clouds 11 1013 93 10000 5.26 197 07:52 04.10.2021
6121 Clouds 11 1011 93 10000 6.26 192 03:34 04.10.2021
6122 Clouds 11 1008 94 10000 6.85 209 22:44 03.10.2021
6123 Clouds 11 1007 95 10000 6.69 211 21:43 03.10.2021
6124 Clouds 11 1006 95 10000 5.9 215 21:24 03.10.2021
6125 Clouds 11 1005 94 10000 4.51 238 20:25 03.10.2021
6126 Clouds 12 1005 94 10000 4.51 238 19:31 03.10.2021
6127 Clouds 12 1002 95 10000 3.99 270 18:28 03.10.2021
6128 Rain 13 1002 95 10000 3.99 270 17:31 03.10.2021
6129 Rain 13 997 96 10000 4.3 268 14:49 03.10.2021
6130 Rain 13 997 96 5350 4.07 257 14:28 03.10.2021
6131 Rain 13 997 96 5350 4.07 257 13:35 03.10.2021
6132 Rain 13 996 96 10000 6.52 204 12:43 03.10.2021
6133 Rain 14 996 95 10000 8.92 182 10:57 03.10.2021
6134 Rain 14 996 96 10000 8.42 185 09:42 03.10.2021
6135 Rain 16 994 96 10000 10 182 05:25 03.10.2021
6136 Rain 14 997 92 4499 9.92 146 22:49 02.10.2021
6137 Rain 14 999 91 10000 8.79 140 21:49 02.10.2021
6138 Rain 14 1002 91 10000 6.08 157 20:18 02.10.2021
6139 Clouds 14 1002 91 10000 6.08 157 20:18 02.10.2021
6140 Rain 15 1003 86 10000 6.14 163 18:56 02.10.2021
6141 Rain 15 1003 86 10000 6.14 163 18:56 02.10.2021
6142 Rain 15 1003 86 10000 6.14 163 18:56 02.10.2021
6143 Rain 15 1004 85 10000 6.38 154 18:20 02.10.2021
6144 Clouds 15 1004 84 10000 6.38 154 17:37 02.10.2021
6145 Clouds 16 1006 84 10000 5.62 169 16:28 02.10.2021
6146 Clouds 12 1010 95 10000 4.81 205 06:47 02.10.2021
6147 Clouds 15 1021 70 10000 7.14 234 15:37 30.09.2021
6148 Clouds 15 1022 64 10000 8.12 246 13:54 30.09.2021
6149 Clear 14 1022 78 10000 8.18 254 11:53 30.09.2021
6150 Clear 13 1022 79 10000 8.09 251 10:52 30.09.2021
6151 Clear 13 1021 85 10000 7.64 248 10:22 30.09.2021
6152 Clear 10 1021 91 10000 6.89 248 08:31 30.09.2021
6153 Rain 9 1021 90 10000 7.73 246 07:35 30.09.2021
6154 Clouds 10 1019 90 10000 8.57 254 05:23 30.09.2021
6155 Clouds 10 1018 92 10000 9.1 264 01:41 30.09.2021
6156 Clouds 10 1017 94 10000 8.84 271 00:29 30.09.2021
6157 Rain 10 1016 95 10000 8.03 251 22:39 29.09.2021
6158 Rain 10 1015 95 7759 8.39 254 21:27 29.09.2021
6159 Rain 10 1014 95 10000 9.75 252 20:28 29.09.2021
6160 Rain 10 1014 95 10000 9.75 252 19:55 29.09.2021
6161 Rain 10 1014 94 10000 10.41 262 18:52 29.09.2021
6162 Rain 11 1013 95 10000 10.54 258 17:55 29.09.2021
6163 Clouds 12 1012 95 7278 9.3 244 16:55 29.09.2021
6164 Rain 12 1012 95 7077 9.81 236 16:21 29.09.2021
6165 Clouds 12 1011 95 10000 7.12 249 14:39 29.09.2021
6166 Clouds 12 1010 95 10000 6.69 165 14:18 29.09.2021
6167 Rain 13 1011 95 10000 6.44 178 13:27 29.09.2021
6168 Clouds 13 1011 94 10000 6.44 178 12:36 29.09.2021
6169 Clouds 13 1012 91 10000 5.73 168 10:57 29.09.2021
6170 Clouds 12 1013 89 10000 4.82 153 10:25 29.09.2021
6171 Clouds 12 1013 91 10000 4.82 153 09:39 29.09.2021
6172 Clouds 10 1014 92 10000 3.99 141 07:48 29.09.2021
6173 Clouds 10 1015 91 10000 4.17 142 05:50 29.09.2021
6174 Clouds 11 1019 89 10000 3.71 143 23:36 28.09.2021
6175 Clouds 12 1020 88 10000 3.51 153 22:24 28.09.2021
6176 Clouds 12 1020 87 10000 3.51 153 21:45 28.09.2021
6177 Clouds 13 1020 85 10000 3.48 158 20:44 28.09.2021
6178 Clouds 14 1020 81 10000 3.37 162 19:47 28.09.2021
6179 Clouds 16 1020 76 10000 3.19 165 18:53 28.09.2021
6180 Clouds 17 1020 76 10000 2.7 171 18:27 28.09.2021
6181 Clouds 18 1021 69 10000 2.91 190 16:42 28.09.2021
6182 Clouds 19 1021 69 10000 4.12 219 14:52 28.09.2021
6183 Clouds 18 1022 77 10000 4.87 213 13:25 28.09.2021
6184 Clear 16 1022 81 10000 4.55 212 12:24 28.09.2021
6185 Clear 16 1022 86 10000 4.55 212 11:47 28.09.2021
6186 Clear 15 1022 87 10000 4.38 212 11:25 28.09.2021
6187 Clear 13 1022 98 10000 4.06 211 10:27 28.09.2021
6188 Clear 11 1022 98 10000 3.24 204 09:29 28.09.2021
6189 Clear 10 1022 97 10000 3.24 204 08:43 28.09.2021
6190 Clouds 10 1021 97 10000 3.36 202 07:55 28.09.2021
6191 Clouds 10 1021 97 10000 3.39 204 06:25 28.09.2021
6192 Clouds 11 1020 95 10000 3.06 208 01:31 28.09.2021
6193 Clouds 12 1020 94 10000 3.16 218 00:30 28.09.2021
6194 Clouds 12 1019 94 10000 3.04 223 23:49 27.09.2021
6195 Clouds 12 1018 94 10000 3.09 239 23:24 27.09.2021
6196 Clouds 13 1017 93 10000 4.13 260 22:21 27.09.2021
6197 Clouds 14 1016 95 10000 4.79 274 20:54 27.09.2021
6198 Clouds 15 1014 95 10000 6.26 281 20:26 27.09.2021
6199 Clouds 15 1016 88 10000 5.78 280 19:37 27.09.2021
6200 Rain 17 1014 94 10000 7.95 277 18:53 27.09.2021
6201 Rain 19 1012 91 6932 6.48 204 17:41 27.09.2021
6202 Clouds 20 1012 82 6671 8.77 210 16:59 27.09.2021
6203 Clouds 21 1012 85 6671 8.77 210 16:34 27.09.2021
6204 Clouds 21 1011 81 10000 7.49 190 15:37 27.09.2021
6205 Clouds 21 1012 84 10000 7.39 189 13:50 27.09.2021
6206 Clouds 20 1013 88 10000 6.28 181 12:25 27.09.2021
6207 Clouds 17 1013 98 10000 5.69 191 10:50 27.09.2021
6208 Clouds 16 1013 98 10000 4.62 191 09:42 27.09.2021
6209 Clouds 14 1013 97 10000 4.26 185 07:57 27.09.2021
6210 Clouds 16 1014 97 10000 3.08 178 03:40 27.09.2021
6211 Clouds 17 1014 91 10000 1.15 152 23:53 26.09.2021
6212 Clouds 18 1014 90 10000 0.57 38 21:59 26.09.2021
6213 Clouds 18 1014 90 10000 0.57 38 21:30 26.09.2021
6214 Rain 18 1014 91 10000 1.58 345 20:30 26.09.2021
6215 Clouds 19 1014 89 10000 2.14 330 19:59 26.09.2021
6216 Clouds 20 1014 83 10000 2.33 299 19:26 26.09.2021
6217 Clouds 20 1014 83 10000 2.33 299 19:26 26.09.2021
6218 Clouds 20 1014 83 10000 2.33 299 19:26 26.09.2021
6219 Clouds 20 1014 83 10000 2.33 299 19:26 26.09.2021
6220 Clouds 20 1014 83 10000 2.33 299 19:26 26.09.2021
6221 Clouds 20 1014 83 10000 2.33 299 19:26 26.09.2021
6222 Clouds 20 1014 83 10000 2.33 299 19:26 26.09.2021
6223 Clouds 21 1014 83 10000 2.33 299 18:41 26.09.2021
6224 Clouds 22 1013 77 10000 2.41 253 17:49 26.09.2021
6225 Clouds 22 1013 77 10000 2.94 211 17:20 26.09.2021
6226 Clouds 23 1013 75 10000 3.26 193 16:28 26.09.2021
6227 Clouds 21 1013 79 10000 3.26 193 15:56 26.09.2021
6228 Clouds 21 1014 80 10000 4.17 184 14:26 26.09.2021
6229 Clouds 21 1014 79 10000 4.17 184 13:45 26.09.2021
6230 Clouds 20 1014 79 10000 4.17 177 12:32 26.09.2021
6231 Clouds 21 1014 77 10000 4.13 168 11:59 26.09.2021
6232 Clouds 20 1014 82 10000 4.13 168 11:37 26.09.2021
6233 Clouds 18 1014 92 10000 4.04 150 10:22 26.09.2021
6234 Clouds 16 1014 96 10000 3.34 133 08:55 26.09.2021
6235 Clouds 17 1015 96 10000 2.49 140 03:26 26.09.2021
6236 Clouds 17 1016 96 10000 2.47 159 00:21 26.09.2021
6237 Clouds 17 1016 95 10000 2.34 153 23:23 25.09.2021
6238 Clouds 17 1016 95 10000 2.34 153 22:37 25.09.2021
6239 Clouds 17 1016 95 10000 2.25 144 21:55 25.09.2021
6240 Clouds 17 1016 95 10000 2.25 144 21:31 25.09.2021
6241 Clouds 18 1015 95 10000 1.97 132 20:45 25.09.2021
6242 Clouds 19 1015 93 10000 1.68 67 18:55 25.09.2021
6243 Clouds 19 1015 88 10000 1.34 48 17:55 25.09.2021
6244 Clouds 20 1015 77 10000 2.36 318 15:48 25.09.2021
6245 Clouds 21 1016 79 10000 3.18 276 13:57 25.09.2021
6246 Clouds 21 1016 75 10000 3.18 276 13:31 25.09.2021
6247 Clouds 20 1015 79 10000 3.6 273 12:25 25.09.2021
6248 Clouds 18 1015 94 10000 3.77 272 10:34 25.09.2021
6249 Clouds 17 1015 95 10000 3.84 273 09:32 25.09.2021
6250 Clouds 17 1014 96 10000 3.48 257 07:56 25.09.2021
6251 Clouds 17 1013 96 10000 4.46 241 05:51 25.09.2021
6252 Clouds 17 1013 89 10000 5.38 248 23:51 24.09.2021
6253 Clouds 17 1013 86 10000 5.82 243 21:42 24.09.2021
6254 Clouds 18 1013 86 10000 5.85 245 20:39 24.09.2021
6255 Clouds 19 1013 89 10000 5.8 253 19:48 24.09.2021
6256 Clouds 19 1012 83 10000 6.67 255 18:34 24.09.2021
6257 Clouds 20 1012 80 10000 7.17 256 17:55 24.09.2021
6258 Clouds 20 1012 80 10000 7.17 256 17:37 24.09.2021
6259 Clouds 20 1012 75 10000 6.85 255 17:18 24.09.2021
6260 Clouds 19 1012 81 10000 6.15 254 14:31 24.09.2021
6261 Clouds 18 1013 87 10000 5.9 249 13:18 24.09.2021
6262 Clouds 17 1013 90 10000 5.9 249 12:40 24.09.2021
6263 Clouds 17 1014 91 10000 5.99 246 12:22 24.09.2021
6264 Clouds 16 1014 94 10000 4.7 241 10:27 24.09.2021
6265 Clouds 15 1014 94 10000 4.32 242 08:55 24.09.2021
6266 Clouds 14 1014 94 10000 3.91 246 07:39 24.09.2021
6267 Clouds 14 1014 93 10000 3.88 247 06:50 24.09.2021
6268 Clouds 14 1014 88 10000 3.97 255 05:21 24.09.2021
6269 Clear 11 1015 87 10000 5.68 276 00:44 24.09.2021
6270 Clear 12 1015 85 10000 5.8 280 22:36 23.09.2021
6271 Clear 13 1015 86 10000 5.76 285 21:56 23.09.2021
6272 Clear 14 1015 88 10000 6.35 291 20:37 23.09.2021
6273 Clouds 15 1014 90 10000 6.61 286 20:19 23.09.2021
6274 Clouds 15 1013 90 10000 8.08 291 18:25 23.09.2021
6275 Clouds 18 1013 82 10000 9.19 283 15:37 23.09.2021
6276 Clouds 18 1013 82 10000 9.16 270 15:18 23.09.2021
6277 Clouds 17 1013 88 10000 8.97 265 13:49 23.09.2021
6278 Clouds 17 1014 91 10000 8.84 259 13:23 23.09.2021
6279 Clouds 17 1014 88 10000 8.84 259 12:53 23.09.2021
6280 Clouds 18 1014 84 10000 8.93 254 12:23 23.09.2021
6281 Clouds 18 1014 82 10000 8.93 254 11:55 23.09.2021
6282 Clouds 16 1015 87 10000 8.07 247 10:28 23.09.2021
6283 Clouds 15 1015 93 10000 8.07 247 09:53 23.09.2021
6284 Clouds 13 1015 95 10000 7.17 238 08:38 23.09.2021
6285 Clouds 12 1018 90 10000 5.98 229 05:28 23.09.2021
6286 Clouds 13 1022 91 10000 4.52 231 23:48 22.09.2021
6287 Clear 14 1022 90 10000 4.14 242 22:44 22.09.2021
6288 Clear 15 1023 92 10000 4.03 235 21:57 22.09.2021
6289 Clear 15 1023 87 10000 4.03 235 21:34 22.09.2021
6290 Clear 15 1023 91 10000 3.81 244 20:57 22.09.2021
6291 Clear 17 1023 87 10000 3.9 261 19:34 22.09.2021
6292 Clear 19 1023 78 10000 4.18 260 18:47 22.09.2021
6293 Clear 19 1024 76 10000 4.95 264 18:23 22.09.2021
6294 Clear 21 1024 65 10000 5.4 270 16:41 22.09.2021
6295 Clear 21 1025 70 10000 5.79 269 15:38 22.09.2021
6296 Clouds 20 1026 74 10000 5.4 262 14:25 22.09.2021
6297 Clouds 18 1027 83 10000 4.88 251 12:55 22.09.2021
6298 Clouds 16 1028 88 10000 4.59 250 10:59 22.09.2021
6299 Clouds 13 1028 98 10000 3.67 241 09:29 22.09.2021
6300 Clouds 11 1028 97 10000 3.67 241 08:36 22.09.2021
6301 Clouds 11 1028 97 10000 3.22 245 07:31 22.09.2021
6302 Clouds 11 1028 96 10000 3.14 255 06:23 22.09.2021
6303 Clouds 11 1028 96 10000 3.14 255 05:45 22.09.2021
6304 Clouds 11 1028 95 10000 2.91 270 03:58 22.09.2021
6305 Clouds 12 1028 95 10000 2.9 272 02:55 22.09.2021
6306 Clouds 13 1029 93 10000 3.24 279 23:31 21.09.2021
6307 Clouds 14 1029 95 10000 3.29 293 22:26 21.09.2021
6308 Clouds 15 1029 88 10000 3.36 297 20:31 21.09.2021
6309 Clouds 16 1028 88 10000 4.32 305 19:25 21.09.2021
6310 Clouds 17 1028 88 10000 4.32 305 18:35 21.09.2021
6311 Clouds 18 1028 79 10000 6.56 283 16:48 21.09.2021
6312 Clouds 17 1028 79 10000 6.74 287 15:56 21.09.2021
6313 Clouds 17 1028 78 10000 6.82 281 14:59 21.09.2021
6314 Clouds 17 1028 77 10000 6.18 280 14:20 21.09.2021
6315 Clouds 17 1028 75 10000 6.34 279 13:39 21.09.2021
6316 Clouds 17 1028 75 10000 6.04 267 12:44 21.09.2021
6317 Clouds 13 1029 73 10000 4.69 262 10:43 21.09.2021
6318 Clouds 10 1028 76 10000 3.25 254 09:22 21.09.2021
6319 Clouds 11 1028 77 10000 2.33 233 07:38 21.09.2021
6320 Clouds 10 1027 80 10000 1.86 245 05:18 21.09.2021
6321 Clouds 8 1026 81 10000 2.44 77 23:19 20.09.2021
6322 Clouds 10 1026 83 10000 2.82 53 21:51 20.09.2021
6323 Clouds 10 1026 83 10000 2.82 53 21:30 20.09.2021
6324 Clouds 13 1025 70 10000 3.36 39 19:49 20.09.2021
6325 Clouds 15 1025 77 10000 3.01 46 18:36 20.09.2021
6326 Clouds 15 1024 66 10000 3.38 56 17:30 20.09.2021
6327 Clouds 16 1024 58 10000 3.62 50 16:26 20.09.2021
6328 Clouds 16 1024 58 10000 3.62 50 15:43 20.09.2021
6329 Clouds 16 1023 69 10000 3.3 60 14:50 20.09.2021
6330 Clouds 15 1023 76 10000 4.13 90 12:53 20.09.2021
6331 Clouds 15 1023 76 10000 4.07 90 12:29 20.09.2021
6332 Clouds 14 1023 81 10000 3.58 84 10:57 20.09.2021
6333 Clouds 13 1022 86 10000 3.26 79 09:52 20.09.2021
6334 Clouds 13 1022 87 10000 3.26 79 09:33 20.09.2021
6335 Clouds 12 1022 87 10000 3.05 85 08:55 20.09.2021
6336 Clouds 12 1021 87 10000 3.53 86 06:36 20.09.2021
6337 Clouds 12 1020 81 10000 3.09 116 23:30 19.09.2021
6338 Clouds 12 1019 79 10000 3.93 87 21:56 19.09.2021
6339 Clouds 12 1019 79 10000 3.93 87 21:33 19.09.2021
6340 Clouds 13 1018 79 10000 4.05 84 20:33 19.09.2021
6341 Clouds 15 1017 77 10000 4.56 71 19:18 19.09.2021
6342 Clouds 16 1017 77 10000 4.23 80 18:21 19.09.2021
6343 Clouds 16 1017 75 10000 4.41 85 17:22 19.09.2021
6344 Clouds 17 1017 73 10000 4.95 91 15:52 19.09.2021
6345 Clouds 17 1018 71 10000 5.49 93 14:50 19.09.2021
6346 Clouds 17 1018 70 10000 5.63 97 14:29 19.09.2021
6347 Clouds 17 1018 73 10000 5.92 104 13:19 19.09.2021
6348 Clouds 16 1018 78 10000 5.92 104 12:45 19.09.2021
6349 Clouds 16 1018 81 10000 6.6 104 11:27 19.09.2021
6350 Clouds 15 1018 84 10000 5.97 109 10:24 19.09.2021
6351 Clouds 13 1018 88 10000 5.25 107 09:28 19.09.2021
6352 Clouds 12 1018 86 10000 4.81 101 07:29 19.09.2021
6353 Clouds 15 1018 84 10000 5.09 100 04:21 19.09.2021
6354 Clouds 15 1018 89 10000 5.36 99 23:35 18.09.2021
6355 Clouds 16 1018 90 10000 4.27 91 21:59 18.09.2021
6356 Clouds 16 1018 88 10000 3.43 83 20:48 18.09.2021
6357 Clouds 16 1017 87 10000 3.45 78 20:27 18.09.2021
6358 Clouds 17 1017 84 10000 3.4 76 19:39 18.09.2021
6359 Clouds 17 1017 84 10000 3.4 76 19:39 18.09.2021
6360 Clouds 17 1017 83 10000 3.08 84 19:20 18.09.2021
6361 Clouds 18 1017 79 10000 3.08 84 18:31 18.09.2021
6362 Clouds 20 1017 77 10000 2.2 70 17:29 18.09.2021
6363 Clouds 20 1017 75 10000 2.12 63 15:50 18.09.2021
6364 Clouds 19 1018 71 10000 2.34 80 13:46 18.09.2021
6365 Clouds 19 1018 71 10000 1.97 81 13:27 18.09.2021
6366 Clouds 19 1018 73 10000 1.97 81 12:49 18.09.2021
6367 Clouds 17 1018 76 10000 1.81 61 11:40 18.09.2021
6368 Clouds 15 1018 86 10000 1.79 32 10:31 18.09.2021
6369 Clouds 13 1017 96 10000 1.25 358 09:27 18.09.2021
6370 Clouds 11 1017 96 10000 1.25 358 08:55 18.09.2021
6371 Clouds 10 1017 94 10000 0.96 349 03:51 18.09.2021
6372 Clouds 11 1017 91 10000 1.2 12 00:41 18.09.2021
6373 Clouds 12 1017 89 10000 1.39 27 23:48 17.09.2021
6374 Clouds 12 1017 88 10000 1.71 39 22:37 17.09.2021
6375 Clouds 13 1016 87 10000 2.37 37 22:18 17.09.2021
6376 Clouds 14 1016 85 10000 2.8 30 20:47 17.09.2021
6377 Clouds 16 1015 79 10000 2.74 6 19:22 17.09.2021
6378 Clouds 19 1015 65 10000 3.25 360 17:20 17.09.2021
6379 Clouds 19 1015 77 10000 3.12 358 16:24 17.09.2021
6380 Clouds 19 1016 70 10000 2.44 328 13:21 17.09.2021
6381 Clouds 16 1016 93 10000 1.92 333 10:42 17.09.2021
6382 Clouds 14 1016 97 10000 1.99 352 08:46 17.09.2021
6383 Clouds 13 1016 96 10000 2.17 310 06:53 17.09.2021
6384 Clouds 13 1016 94 10000 3.54 284 01:26 17.09.2021
6385 Clouds 14 1016 92 10000 3.98 287 23:23 16.09.2021
6386 Clouds 14 1016 90 10000 4.22 288 22:25 16.09.2021
6387 Clouds 15 1016 89 10000 4.22 288 21:43 16.09.2021
6388 Clouds 15 1016 89 10000 4.91 289 21:22 16.09.2021
6389 Clear 16 1015 87 10000 5.6 290 20:18 16.09.2021
6390 Clear 16 1015 87 10000 5.6 290 20:18 16.09.2021
6391 Clear 17 1015 81 10000 6.91 290 18:20 16.09.2021
6392 Clear 18 1015 80 10000 6.91 290 17:33 16.09.2021
6393 Clouds 18 1014 83 10000 8.26 290 14:56 16.09.2021
6394 Clouds 17 1014 86 10000 7.92 286 13:56 16.09.2021
6395 Clouds 17 1014 92 10000 7.3 276 12:49 16.09.2021
6396 Clouds 16 1014 93 10000 7.17 276 12:28 16.09.2021
6397 Clouds 17 1014 91 10000 7 275 11:25 16.09.2021
6398 Clouds 16 1014 91 10000 7 275 10:33 16.09.2021
6399 Clouds 16 1014 94 10000 6.62 274 09:57 16.09.2021
6400 Clouds 15 1013 93 6378 6.1 274 08:42 16.09.2021
6401 Clouds 15 1013 93 6378 6.1 274 08:42 16.09.2021
6402 Clouds 15 1012 95 10000 6.05 266 07:22 16.09.2021
6403 Clouds 15 1012 96 10000 6.05 266 06:46 16.09.2021
6404 Clouds 15 1012 95 10000 5.51 266 05:26 16.09.2021
6405 Clouds 15 1011 90 10000 5.79 259 01:40 16.09.2021
6406 Clouds 16 1011 86 10000 6.44 254 23:47 15.09.2021
6407 Clouds 16 1010 87 10000 6.93 261 22:47 15.09.2021
6408 Clouds 16 1010 87 10000 6.93 261 22:47 15.09.2021
6409 Clouds 17 1010 91 10000 6.48 260 21:48 15.09.2021
6410 Clouds 17 1010 95 10000 5.56 267 21:29 15.09.2021
6411 Clouds 18 1010 89 10000 4.46 264 19:58 15.09.2021
6412 Clouds 18 1009 89 10000 3.66 267 19:27 15.09.2021
6413 Clouds 20 1009 85 10000 3.65 292 18:20 15.09.2021
6414 Clouds 21 1009 80 10000 4.37 292 16:59 15.09.2021
6415 Clouds 21 1009 85 10000 3.28 294 15:59 15.09.2021
6416 Clouds 21 1009 85 10000 4.22 288 14:45 15.09.2021
6417 Clouds 20 1009 90 10000 2.86 211 13:55 15.09.2021
6418 Clouds 20 1009 91 10000 2.86 211 13:37 15.09.2021
6419 Clouds 20 1009 91 10000 3.79 188 13:18 15.09.2021
6420 Clouds 19 1009 92 10000 3.83 186 12:21 15.09.2021
6421 Clouds 19 1009 94 10000 3.83 186 11:41 15.09.2021
6422 Clouds 19 1010 95 10000 3.73 199 10:55 15.09.2021
6423 Clouds 18 1009 97 10000 3.64 209 09:30 15.09.2021
6424 Clouds 17 1009 97 10000 3.61 202 08:26 15.09.2021
6425 Clouds 17 1010 94 10000 2.65 166 05:37 15.09.2021
6426 Clouds 18 1012 91 10000 2.85 98 23:55 14.09.2021
6427 Clouds 18 1013 88 10000 3.32 84 21:55 14.09.2021
6428 Clouds 18 1013 87 10000 3.33 75 20:55 14.09.2021
6429 Clouds 19 1013 84 10000 3.87 67 19:42 14.09.2021
6430 Clouds 22 1014 70 10000 3.74 95 17:53 14.09.2021
6431 Clouds 22 1014 64 10000 3.92 109 17:28 14.09.2021
6432 Clouds 22 1014 64 10000 3.91 115 15:39 14.09.2021
6433 Clouds 21 1015 65 10000 3.87 109 14:31 14.09.2021
6434 Clouds 20 1016 69 10000 3.91 98 13:20 14.09.2021
6435 Clouds 17 1017 74 10000 3.62 101 10:55 14.09.2021
6436 Clouds 15 1017 97 10000 3.3 100 09:51 14.09.2021
6437 Clouds 13 1017 97 10000 3.53 90 08:49 14.09.2021
6438 Clouds 12 1017 97 10000 2.79 81 06:47 14.09.2021
6439 Clouds 11 1018 93 10000 1.18 69 00:53 14.09.2021
6440 Clouds 12 1019 91 10000 1.46 50 22:58 13.09.2021
6441 Clouds 12 1019 90 10000 1.83 37 22:24 13.09.2021
6442 Clouds 12 1019 89 10000 1.83 37 21:53 13.09.2021
6443 Clouds 13 1019 87 10000 2.18 8 20:58 13.09.2021
6444 Clouds 16 1018 79 10000 2.65 345 19:29 13.09.2021
6445 Clouds 17 1018 78 10000 2.65 345 18:43 13.09.2021
6446 Clouds 19 1019 72 10000 3.89 331 16:58 13.09.2021
6447 Clouds 19 1019 75 10000 3.81 322 15:50 13.09.2021
6448 Clouds 18 1019 73 10000 3.73 299 13:36 13.09.2021
6449 Clouds 17 1019 85 10000 3.97 313 11:20 13.09.2021
6450 Clouds 16 1019 90 10000 4.35 315 09:42 13.09.2021
6451 Clouds 14 1018 95 10000 2.88 303 07:30 13.09.2021
6452 Clouds 15 1018 94 10000 4.31 281 23:50 12.09.2021
6453 Clouds 15 1017 92 10000 4.54 279 22:26 12.09.2021
6454 Clouds 15 1017 91 10000 4.54 279 21:43 12.09.2021
6455 Clouds 15 1017 93 10000 4.25 276 20:40 12.09.2021
6456 Clouds 17 1016 93 10000 4.97 281 19:54 12.09.2021
6457 Clouds 17 1016 93 10000 4.97 281 19:54 12.09.2021
6458 Clouds 17 1016 87 10000 5.15 284 19:28 12.09.2021
6459 Clouds 18 1016 87 10000 5.15 284 18:31 12.09.2021
6460 Clouds 20 1016 77 10000 5.87 286 16:33 12.09.2021
6461 Clouds 20 1016 78 10000 5.75 283 14:59 12.09.2021
6462 Clouds 19 1017 83 10000 5.42 283 13:51 12.09.2021
6463 Clouds 19 1016 85 10000 4.6 275 11:47 12.09.2021
6464 Clouds 17 1016 96 10000 3.41 275 10:18 12.09.2021
6465 Clouds 16 1016 97 10000 3.54 270 08:38 12.09.2021
6466 Clouds 17 1016 96 10000 3.45 245 02:56 12.09.2021
6467 Clouds 17 1016 97 7120 3.85 255 00:44 12.09.2021
6468 Clouds 18 1016 92 10000 3.76 264 22:25 11.09.2021
6469 Clouds 18 1016 98 10000 3.76 264 21:37 11.09.2021
6470 Clouds 19 1014 92 10000 4.23 264 19:33 11.09.2021
6471 Clouds 20 1014 93 7137 5.3 276 17:53 11.09.2021
6472 Clouds 20 1013 89 10000 4.94 247 16:21 11.09.2021
6473 Clouds 20 1014 90 10000 5.84 240 14:27 11.09.2021
6474 Clouds 19 1014 93 10000 6.15 238 13:20 11.09.2021
6475 Clouds 18 1014 96 10000 6.02 230 11:34 11.09.2021
6476 Clouds 17 1014 98 10000 6.13 232 09:42 11.09.2021
6477 Clear 17 1013 98 10000 4.34 222 07:53 11.09.2021
6478 Clear 17 1013 98 10000 4.34 222 07:34 11.09.2021
6479 Clouds 18 1013 98 10000 2.61 208 01:23 11.09.2021
6480 Clouds 18 1013 96 7649 1.94 270 22:27 10.09.2021
6481 Clouds 18 1013 96 7649 1.94 270 21:56 10.09.2021
6482 Rain 18 1012 96 5820 2.78 272 20:41 10.09.2021
6483 Rain 20 1012 89 10000 2.71 268 18:34 10.09.2021
6484 Clouds 23 1011 87 10000 2.38 267 17:33 10.09.2021
6485 Clouds 24 1011 80 7685 3.39 264 15:37 10.09.2021
6486 Clouds 22 1011 92 10000 4.18 221 13:18 10.09.2021
6487 Clouds 20 1011 93 10000 2.83 174 10:21 10.09.2021
6488 Rain 18 1011 94 10000 2.1 194 07:51 10.09.2021
6489 Clouds 18 1010 94 10000 1.96 247 04:32 10.09.2021
6490 Clouds 19 1010 87 10000 2.52 276 23:24 09.09.2021
6491 Clouds 20 1009 81 10000 2.31 212 21:47 09.09.2021
6492 Clouds 22 1009 76 10000 2.06 127 20:47 09.09.2021
6493 Clear 23 1008 74 10000 2.55 97 20:23 09.09.2021
6494 Clouds 23 1008 74 10000 2.28 101 20:23 09.09.2021
6495 Clear 26 1008 64 10000 1.91 102 18:37 09.09.2021
6496 Clear 27 1009 48 10000 1.41 144 16:45 09.09.2021
6497 Clear 27 1009 48 10000 2.13 166 16:26 09.09.2021
6498 Clouds 26 1010 67 10000 3.46 146 13:33 09.09.2021
6499 Clouds 23 1010 75 10000 3.55 134 11:50 09.09.2021
6500 Clouds 21 1011 78 10000 3.72 129 10:48 09.09.2021
6501 Clouds 17 1011 87 10000 3.29 124 09:27 09.09.2021
6502 Clouds 13 1011 87 10000 3.28 119 06:55 09.09.2021
6503 Clear 15 1012 90 10000 3.58 110 04:18 09.09.2021
6504 Clear 18 1014 84 10000 3.72 110 22:57 08.09.2021
6505 Clear 19 1015 81 10000 3.72 110 21:47 08.09.2021
6506 Clear 21 1015 76 10000 3.81 101 20:21 08.09.2021
6507 Clear 23 1014 77 10000 3.78 95 19:37 08.09.2021
6508 Clear 24 1015 68 10000 3.42 102 18:34 08.09.2021
6509 Clear 25 1015 63 10000 4.02 112 17:58 08.09.2021
6510 Clear 25 1015 62 10000 4.02 112 17:39 08.09.2021
6511 Clouds 25 1017 65 10000 3.86 120 14:57 08.09.2021
6512 Clouds 24 1018 67 10000 3.29 119 13:25 08.09.2021
6513 Clouds 23 1018 70 10000 3.29 119 12:41 08.09.2021
6514 Clouds 23 1019 72 10000 3.28 125 12:21 08.09.2021
6515 Clouds 22 1019 79 10000 3.28 127 11:23 08.09.2021
6516 Clouds 20 1019 83 10000 3.3 126 10:29 08.09.2021
6517 Clouds 17 1019 93 10000 3.3 126 09:36 08.09.2021
6518 Clouds 14 1020 94 10000 2.67 127 07:44 08.09.2021
6519 Clouds 13 1020 94 10000 2.56 134 06:40 08.09.2021
6520 Clouds 17 1022 88 10000 3.04 154 23:18 07.09.2021
6521 Clear 18 1022 88 10000 3.06 151 22:19 07.09.2021
6522 Clear 19 1022 82 10000 2.96 138 20:41 07.09.2021
6523 Clouds 22 1022 78 10000 2.22 73 18:53 07.09.2021
6524 Clouds 23 1022 64 10000 1.57 60 18:25 07.09.2021
6525 Clouds 24 1022 74 10000 0.99 45 17:22 07.09.2021
6526 Clouds 24 1023 73 10000 0.15 33 15:56 07.09.2021
6527 Clouds 24 1023 69 10000 0.66 197 14:48 07.09.2021
6528 Clouds 23 1024 67 10000 1.57 195 13:50 07.09.2021
6529 Clouds 21 1024 69 10000 1.92 169 11:58 07.09.2021
6530 Clouds 20 1024 80 10000 1.69 162 10:48 07.09.2021
6531 Clouds 17 1024 90 10000 1.32 159 09:40 07.09.2021
6532 Clouds 15 1024 93 10000 1.58 182 07:46 07.09.2021
6533 Clouds 14 1024 92 10000 0.87 141 06:19 07.09.2021
6534 Clouds 14 1024 91 10000 0.76 171 02:38 07.09.2021
6535 Clouds 14 1025 92 10000 0.61 141 00:55 07.09.2021
6536 Clouds 15 1025 91 10000 0.84 93 23:49 06.09.2021
6537 Clouds 14 1025 90 10000 0.84 93 23:30 06.09.2021
6538 Clouds 15 1025 89 10000 1.06 72 22:51 06.09.2021
6539 Clouds 16 1025 88 10000 1.02 51 21:55 06.09.2021
6540 Clouds 17 1025 85 10000 1.98 22 20:34 06.09.2021
6541 Clouds 19 1024 78 10000 2.49 360 19:18 06.09.2021
6542 Clouds 20 1024 77 10000 2.49 360 18:35 06.09.2021
6543 Clouds 20 1024 77 10000 3.12 344 17:50 06.09.2021
6544 Clouds 21 1024 57 10000 1.84 307 16:20 06.09.2021
6545 Clouds 21 1024 71 10000 2.47 308 14:59 06.09.2021
6546 Clouds 20 1024 76 10000 1.9 302 12:59 06.09.2021
6547 Clouds 20 1024 70 10000 1.9 302 12:41 06.09.2021
6548 Clouds 17 1024 84 10000 0.81 279 10:36 06.09.2021
6549 Clouds 9 1024 87 10000 0.11 317 07:39 06.09.2021
6550 Clouds 10 1023 95 10000 0.65 123 04:36 06.09.2021
6551 Clouds 13 1023 90 10000 2.17 75 23:23 05.09.2021
6552 Clouds 13 1023 87 10000 2.17 75 22:33 05.09.2021
6553 Clear 14 1023 85 10000 2.53 75 21:56 05.09.2021
6554 Clear 15 1023 82 10000 3.04 60 21:21 05.09.2021
6555 Clear 18 1023 75 10000 3.19 51 19:47 05.09.2021
6556 Clear 21 1022 64 10000 2.98 69 17:53 05.09.2021
6557 Clear 21 1022 62 10000 3.02 71 16:53 05.09.2021
6558 Clear 20 1023 71 10000 3.04 76 15:21 05.09.2021
6559 Clouds 18 1023 84 10000 3.28 89 12:45 05.09.2021
6560 Clouds 16 1023 69 10000 3.44 91 11:44 05.09.2021
6561 Clouds 14 1023 97 10000 3.56 91 10:46 05.09.2021
6562 Clouds 13 1023 97 10000 3.55 94 09:42 05.09.2021
6563 Clouds 12 1022 89 10000 3.71 92 08:35 05.09.2021
6564 Clouds 11 1022 96 10000 3.15 83 06:45 05.09.2021
6565 Clear 13 1021 93 10000 3.05 77 00:42 05.09.2021
6566 Clear 13 1021 92 10000 2.93 70 23:59 04.09.2021
6567 Clear 13 1021 91 10000 2.93 60 23:26 04.09.2021
6568 Clear 13 1021 89 10000 2.93 60 22:35 04.09.2021
6569 Clear 14 1021 88 10000 2.91 45 21:44 04.09.2021
6570 Clear 17 1020 86 10000 3.16 19 19:40 04.09.2021
6571 Clear 19 1019 71 10000 3.41 20 17:43 04.09.2021
6572 Clear 20 1019 68 10000 3.67 11 15:52 04.09.2021
6573 Clouds 18 1020 76 10000 3.61 6 11:54 04.09.2021
6574 Clouds 17 1020 75 10000 3.5 8 11:18 04.09.2021
6575 Clouds 15 1020 85 10000 3.33 7 08:46 04.09.2021
6576 Clouds 15 1020 86 10000 2.78 359 01:59 04.09.2021
6577 Clouds 15 1021 87 10000 3.11 3 00:23 04.09.2021
6578 Clouds 15 1021 87 10000 3.39 5 23:23 03.09.2021
6579 Clouds 15 1021 86 10000 3.54 3 21:53 03.09.2021
6580 Clouds 15 1021 87 10000 3.54 3 21:31 03.09.2021
6581 Clouds 15 1021 86 10000 3.69 359 20:35 03.09.2021
6582 Clouds 16 1020 85 10000 3.6 355 19:46 03.09.2021
6583 Clouds 17 1021 84 10000 4.1 353 18:52 03.09.2021
6584 Clouds 18 1021 83 10000 4.67 353 17:40 03.09.2021
6585 Clouds 19 1021 70 10000 4.43 351 16:23 03.09.2021
6586 Clouds 18 1022 78 10000 4.44 349 14:47 03.09.2021
6587 Clouds 16 1022 85 10000 3.85 353 11:56 03.09.2021
6588 Clouds 15 1023 95 10000 3.64 350 10:22 03.09.2021
6589 Clouds 12 1023 97 10000 3.09 344 08:39 03.09.2021
6590 Clear 11 1023 96 10000 2.35 326 07:37 03.09.2021
6591 Clear 11 1025 93 10000 1.38 343 00:44 03.09.2021
6592 Clear 12 1026 91 10000 1.7 12 22:54 02.09.2021
6593 Clear 14 1025 88 10000 2.62 21 21:25 02.09.2021
6594 Clear 17 1025 81 10000 3.57 346 19:27 02.09.2021
6595 Clear 19 1026 71 10000 3.38 335 17:31 02.09.2021
6596 Clear 19 1026 71 10000 3.38 335 17:30 02.09.2021
6597 Clear 19 1026 79 10000 2.4 319 15:49 02.09.2021
6598 Clouds 17 1027 80 10000 1.79 288 13:57 02.09.2021
6599 Clouds 17 1027 81 10000 2.03 282 12:36 02.09.2021
6600 Clouds 16 1027 82 10000 2.26 281 11:33 02.09.2021
6601 Clouds 14 1027 95 10000 2.14 291 09:39 02.09.2021
6602 Clouds 14 1027 96 10000 2.88 304 07:47 02.09.2021
6603 Clouds 12 1027 96 10000 3.03 303 06:58 02.09.2021
6604 Clouds 11 1027 94 10000 2.42 287 02:51 02.09.2021
6605 Clear 11 1028 94 10000 2.42 295 01:55 02.09.2021
6606 Clear 11 1028 93 10000 2.88 305 01:23 02.09.2021
6607 Clear 12 1028 91 10000 2.8 307 23:37 01.09.2021
6608 Clear 13 1028 89 10000 2.83 314 22:34 01.09.2021
6609 Clear 14 1028 86 10000 2.84 317 21:35 01.09.2021
6610 Clear 16 1027 84 10000 2.8 317 20:28 01.09.2021
6611 Clouds 18 1027 75 10000 3.25 320 18:29 01.09.2021
6612 Clouds 19 1027 78 10000 3.25 320 17:37 01.09.2021
6613 Clouds 19 1027 77 10000 3.38 316 16:46 01.09.2021
6614 Clouds 19 1027 77 10000 3.52 306 15:27 01.09.2021
6615 Clouds 18 1028 82 10000 2.87 283 11:50 01.09.2021
6616 Clouds 17 1028 84 10000 2.3 284 10:59 01.09.2021
6617 Clouds 15 1027 87 10000 2.3 304 08:46 01.09.2021
6618 Clouds 15 1027 88 10000 2.45 327 07:51 01.09.2021
6619 Clouds 15 1026 85 10000 2.59 309 01:48 01.09.2021
6620 Clouds 16 1026 85 10000 3.34 329 22:33 31.08.2021
6621 Clouds 16 1025 85 10000 4.29 336 21:23 31.08.2021
6622 Clouds 16 1025 85 10000 4.43 331 19:45 31.08.2021
6623 Clouds 17 1025 85 10000 5.46 332 18:28 31.08.2021
6624 Clouds 18 1025 85 10000 5.46 332 17:36 31.08.2021
6625 Clouds 18 1025 84 10000 5.73 332 16:53 31.08.2021
6626 Clouds 18 1025 84 10000 5.74 335 16:24 31.08.2021
6627 Clouds 19 1025 83 10000 5.7 351 13:20 31.08.2021
6628 Clouds 18 1024 83 10000 5.05 1 11:27 31.08.2021
6629 Clouds 18 1024 85 10000 5.05 1 10:52 31.08.2021
6630 Clouds 17 1024 90 10000 4.88 5 09:44 31.08.2021
6631 Clouds 16 1024 95 10000 4.2 2 08:38 31.08.2021
6632 Clear 14 1023 96 10000 2.63 2 05:59 31.08.2021
6633 Clear 14 1023 94 10000 2.34 19 02:39 31.08.2021
6634 Clear 15 1022 91 10000 3.06 3 23:35 30.08.2021
6635 Clear 16 1022 87 10000 3.75 1 21:43 30.08.2021
6636 Clear 17 1022 90 10000 3.93 3 20:49 30.08.2021
6637 Clouds 18 1021 89